<?xml version="1.0" encoding="UTF-8" standalone="no" ?>
<gpx xmlns="http://www.topografix.com/GPX/1/1" xmlns:xsi="http://www.w3.org/2001/XMLSchema-instance" xsi:schemaLocation="http://www.topografix.com/GPX/1/1 http://www.topografix.com/GPX/1/1/gpx.xsd" version="1.1" creator="VisuGPX - https://www.visugpx.com">
  <metadata>
    <name>020SG72-8023787</name>
    <desc><![CDATA[12-19
]]></desc>
  </metadata>
  <trk>
    <name><![CDATA[020SG72-8023787]]></name>
    <trkseg>
      <trkpt lat="46.6982" lon="-1.93412">
        <ele>5</ele>
        <time>2018-03-07T21:35:05Z</time>
      </trkpt>
      <trkpt lat="46.69806" lon="-1.93419">
        <ele>5</ele>
        <time>2018-03-07T21:36:05Z</time>
      </trkpt>
      <trkpt lat="46.69798" lon="-1.93421">
        <ele>5</ele>
        <time>2018-03-07T21:37:05Z</time>
      </trkpt>
      <trkpt lat="46.69797" lon="-1.93421">
        <ele>5</ele>
        <time>2018-03-07T21:38:05Z</time>
      </trkpt>
      <trkpt lat="46.69793" lon="-1.9342">
        <ele>5</ele>
        <time>2018-03-07T21:39:05Z</time>
      </trkpt>
      <trkpt lat="46.69793" lon="-1.93421">
        <ele>5</ele>
        <time>2018-03-07T21:40:05Z</time>
      </trkpt>
      <trkpt lat="46.69793" lon="-1.93422">
        <ele>5</ele>
        <time>2018-03-07T21:41:05Z</time>
      </trkpt>
      <trkpt lat="46.69793" lon="-1.93423">
        <ele>5</ele>
        <time>2018-03-07T21:42:05Z</time>
      </trkpt>
      <trkpt lat="46.69793" lon="-1.93424">
        <ele>5</ele>
        <time>2018-03-07T21:43:05Z</time>
      </trkpt>
      <trkpt lat="46.69792" lon="-1.93425">
        <ele>5</ele>
        <time>2018-03-07T21:44:05Z</time>
      </trkpt>
      <trkpt lat="46.69792" lon="-1.93426">
        <ele>5</ele>
        <time>2018-03-07T21:45:05Z</time>
      </trkpt>
      <trkpt lat="46.69791" lon="-1.93426">
        <ele>5</ele>
        <time>2018-03-07T21:46:05Z</time>
      </trkpt>
      <trkpt lat="46.69791" lon="-1.93427">
        <ele>5</ele>
        <time>2018-03-07T21:47:05Z</time>
      </trkpt>
      <trkpt lat="46.6979" lon="-1.93427">
        <ele>5</ele>
        <time>2018-03-07T21:48:05Z</time>
      </trkpt>
      <trkpt lat="46.6979" lon="-1.93428">
        <ele>5</ele>
        <time>2018-03-07T21:49:05Z</time>
      </trkpt>
      <trkpt lat="46.69789" lon="-1.93428">
        <ele>5</ele>
        <time>2018-03-07T21:50:05Z</time>
      </trkpt>
      <trkpt lat="46.69788" lon="-1.93428">
        <ele>5</ele>
        <time>2018-03-07T21:51:05Z</time>
      </trkpt>
      <trkpt lat="46.69788" lon="-1.93427">
        <ele>5</ele>
        <time>2018-03-07T21:52:05Z</time>
      </trkpt>
      <trkpt lat="46.69787" lon="-1.93427">
        <ele>5</ele>
        <time>2018-03-07T21:53:05Z</time>
      </trkpt>
      <trkpt lat="46.69787" lon="-1.93426">
        <ele>5</ele>
        <time>2018-03-07T21:54:05Z</time>
      </trkpt>
      <trkpt lat="46.69786" lon="-1.93426">
        <ele>5</ele>
        <time>2018-03-07T21:55:05Z</time>
      </trkpt>
      <trkpt lat="46.69786" lon="-1.93425">
        <ele>5</ele>
        <time>2018-03-07T21:56:05Z</time>
      </trkpt>
      <trkpt lat="46.69786" lon="-1.93424">
        <ele>5</ele>
        <time>2018-03-07T21:57:05Z</time>
      </trkpt>
      <trkpt lat="46.69785" lon="-1.93424">
        <ele>5</ele>
        <time>2018-03-07T21:58:05Z</time>
      </trkpt>
      <trkpt lat="46.69785" lon="-1.93423">
        <ele>5</ele>
        <time>2018-03-07T21:59:05Z</time>
      </trkpt>
      <trkpt lat="46.69785" lon="-1.93422">
        <ele>5</ele>
        <time>2018-03-07T22:00:05Z</time>
      </trkpt>
      <trkpt lat="46.69779" lon="-1.9342">
        <ele>5</ele>
        <time>2018-03-07T22:01:05Z</time>
      </trkpt>
      <trkpt lat="46.69776" lon="-1.9342">
        <ele>5</ele>
        <time>2018-03-07T22:02:05Z</time>
      </trkpt>
      <trkpt lat="46.69772" lon="-1.9342">
        <ele>5</ele>
        <time>2018-03-07T22:03:05Z</time>
      </trkpt>
      <trkpt lat="46.69762" lon="-1.93423">
        <ele>5</ele>
        <time>2018-03-07T22:04:05Z</time>
      </trkpt>
      <trkpt lat="46.69759" lon="-1.93424">
        <ele>5</ele>
        <time>2018-03-07T22:05:05Z</time>
      </trkpt>
      <trkpt lat="46.69721" lon="-1.93434">
        <ele>5</ele>
        <time>2018-03-07T22:06:05Z</time>
      </trkpt>
      <trkpt lat="46.69714" lon="-1.93435">
        <ele>5</ele>
        <time>2018-03-07T22:07:05Z</time>
      </trkpt>
      <trkpt lat="46.69697" lon="-1.93436">
        <ele>5</ele>
        <time>2018-03-07T22:08:05Z</time>
      </trkpt>
      <trkpt lat="46.69685" lon="-1.93435">
        <ele>5</ele>
        <time>2018-03-07T22:09:05Z</time>
      </trkpt>
      <trkpt lat="46.69633" lon="-1.93423">
        <ele>5</ele>
        <time>2018-03-07T22:10:05Z</time>
      </trkpt>
      <trkpt lat="46.69633" lon="-1.93423">
        <ele>5</ele>
        <time>2018-03-07T22:11:05Z</time>
      </trkpt>
      <trkpt lat="46.69633" lon="-1.93424">
        <ele>4</ele>
        <time>2018-03-07T22:12:05Z</time>
      </trkpt>
      <trkpt lat="46.69633" lon="-1.93425">
        <ele>4</ele>
        <time>2018-03-07T22:13:05Z</time>
      </trkpt>
      <trkpt lat="46.69633" lon="-1.93426">
        <ele>4</ele>
        <time>2018-03-07T22:14:05Z</time>
      </trkpt>
      <trkpt lat="46.69633" lon="-1.93427">
        <ele>4</ele>
        <time>2018-03-07T22:15:05Z</time>
      </trkpt>
      <trkpt lat="46.69633" lon="-1.93428">
        <ele>4</ele>
        <time>2018-03-07T22:16:05Z</time>
      </trkpt>
      <trkpt lat="46.69633" lon="-1.93429">
        <ele>4</ele>
        <time>2018-03-07T22:17:05Z</time>
      </trkpt>
      <trkpt lat="46.69633" lon="-1.9343">
        <ele>4</ele>
        <time>2018-03-07T22:18:05Z</time>
      </trkpt>
      <trkpt lat="46.69632" lon="-1.9343">
        <ele>4</ele>
        <time>2018-03-07T22:19:05Z</time>
      </trkpt>
      <trkpt lat="46.69632" lon="-1.93431">
        <ele>4</ele>
        <time>2018-03-07T22:20:05Z</time>
      </trkpt>
      <trkpt lat="46.69632" lon="-1.93432">
        <ele>4</ele>
        <time>2018-03-07T22:21:05Z</time>
      </trkpt>
      <trkpt lat="46.69631" lon="-1.93432">
        <ele>4</ele>
        <time>2018-03-07T22:22:05Z</time>
      </trkpt>
      <trkpt lat="46.69631" lon="-1.93433">
        <ele>4</ele>
        <time>2018-03-07T22:23:05Z</time>
      </trkpt>
      <trkpt lat="46.69631" lon="-1.93434">
        <ele>4</ele>
        <time>2018-03-07T22:24:05Z</time>
      </trkpt>
      <trkpt lat="46.6963" lon="-1.93434">
        <ele>4</ele>
        <time>2018-03-07T22:25:05Z</time>
      </trkpt>
      <trkpt lat="46.6963" lon="-1.93435">
        <ele>4</ele>
        <time>2018-03-07T22:26:05Z</time>
      </trkpt>
      <trkpt lat="46.69629" lon="-1.93435">
        <ele>4</ele>
        <time>2018-03-07T22:27:05Z</time>
      </trkpt>
      <trkpt lat="46.69629" lon="-1.93436">
        <ele>4</ele>
        <time>2018-03-07T22:28:05Z</time>
      </trkpt>
      <trkpt lat="46.69628" lon="-1.93436">
        <ele>4</ele>
        <time>2018-03-07T22:29:05Z</time>
      </trkpt>
      <trkpt lat="46.69627" lon="-1.93436">
        <ele>4</ele>
        <time>2018-03-07T22:30:05Z</time>
      </trkpt>
      <trkpt lat="46.69627" lon="-1.93437">
        <ele>4</ele>
        <time>2018-03-07T22:31:05Z</time>
      </trkpt>
      <trkpt lat="46.69626" lon="-1.93437">
        <ele>4</ele>
        <time>2018-03-07T22:32:05Z</time>
      </trkpt>
      <trkpt lat="46.69625" lon="-1.93437">
        <ele>4</ele>
        <time>2018-03-07T22:33:05Z</time>
      </trkpt>
      <trkpt lat="46.69624" lon="-1.93437">
        <ele>4</ele>
        <time>2018-03-07T22:34:05Z</time>
      </trkpt>
      <trkpt lat="46.69623" lon="-1.93437">
        <ele>4</ele>
        <time>2018-03-07T22:35:05Z</time>
      </trkpt>
      <trkpt lat="46.69622" lon="-1.93436">
        <ele>4</ele>
        <time>2018-03-07T22:36:05Z</time>
      </trkpt>
      <trkpt lat="46.69621" lon="-1.93436">
        <ele>4</ele>
        <time>2018-03-07T22:37:05Z</time>
      </trkpt>
      <trkpt lat="46.6962" lon="-1.93435">
        <ele>4</ele>
        <time>2018-03-07T22:38:05Z</time>
      </trkpt>
      <trkpt lat="46.69619" lon="-1.93434">
        <ele>4</ele>
        <time>2018-03-07T22:39:05Z</time>
      </trkpt>
      <trkpt lat="46.69619" lon="-1.93433">
        <ele>4</ele>
        <time>2018-03-07T22:40:05Z</time>
      </trkpt>
      <trkpt lat="46.69618" lon="-1.93433">
        <ele>4</ele>
        <time>2018-03-07T22:41:05Z</time>
      </trkpt>
      <trkpt lat="46.69618" lon="-1.93432">
        <ele>4</ele>
        <time>2018-03-07T22:42:05Z</time>
      </trkpt>
      <trkpt lat="46.69618" lon="-1.93431">
        <ele>4</ele>
        <time>2018-03-07T22:43:05Z</time>
      </trkpt>
      <trkpt lat="46.69617" lon="-1.93431">
        <ele>4</ele>
        <time>2018-03-07T22:44:05Z</time>
      </trkpt>
      <trkpt lat="46.69617" lon="-1.9343">
        <ele>4</ele>
        <time>2018-03-07T22:45:05Z</time>
      </trkpt>
      <trkpt lat="46.69617" lon="-1.93429">
        <ele>4</ele>
        <time>2018-03-07T22:46:05Z</time>
      </trkpt>
      <trkpt lat="46.69617" lon="-1.93428">
        <ele>4</ele>
        <time>2018-03-07T22:47:05Z</time>
      </trkpt>
      <trkpt lat="46.69616" lon="-1.93428">
        <ele>4</ele>
        <time>2018-03-07T22:48:05Z</time>
      </trkpt>
      <trkpt lat="46.69616" lon="-1.93427">
        <ele>4</ele>
        <time>2018-03-07T22:49:05Z</time>
      </trkpt>
      <trkpt lat="46.69616" lon="-1.93426">
        <ele>4</ele>
        <time>2018-03-07T22:50:05Z</time>
      </trkpt>
      <trkpt lat="46.69616" lon="-1.93425">
        <ele>4</ele>
        <time>2018-03-07T22:51:05Z</time>
      </trkpt>
      <trkpt lat="46.69616" lon="-1.93424">
        <ele>4</ele>
        <time>2018-03-07T22:52:05Z</time>
      </trkpt>
      <trkpt lat="46.69616" lon="-1.93423">
        <ele>4</ele>
        <time>2018-03-07T22:53:05Z</time>
      </trkpt>
      <trkpt lat="46.69616" lon="-1.93422">
        <ele>4</ele>
        <time>2018-03-07T22:54:05Z</time>
      </trkpt>
      <trkpt lat="46.69616" lon="-1.93421">
        <ele>4</ele>
        <time>2018-03-07T22:55:05Z</time>
      </trkpt>
      <trkpt lat="46.69617" lon="-1.93421">
        <ele>4</ele>
        <time>2018-03-07T22:56:05Z</time>
      </trkpt>
      <trkpt lat="46.69617" lon="-1.9342">
        <ele>4</ele>
        <time>2018-03-07T22:57:05Z</time>
      </trkpt>
      <trkpt lat="46.69607" lon="-1.93416">
        <ele>4</ele>
        <time>2018-03-07T22:58:05Z</time>
      </trkpt>
      <trkpt lat="46.69587" lon="-1.93404">
        <ele>4</ele>
        <time>2018-03-07T22:59:05Z</time>
      </trkpt>
      <trkpt lat="46.69551" lon="-1.93388">
        <ele>4</ele>
        <time>2018-03-07T23:00:05Z</time>
      </trkpt>
      <trkpt lat="46.69518" lon="-1.93374">
        <ele>4</ele>
        <time>2018-03-07T23:01:05Z</time>
      </trkpt>
      <trkpt lat="46.69507" lon="-1.9337">
        <ele>4</ele>
        <time>2018-03-07T23:02:05Z</time>
      </trkpt>
      <trkpt lat="46.69503" lon="-1.93368">
        <ele>4</ele>
        <time>2018-03-07T23:03:05Z</time>
      </trkpt>
      <trkpt lat="46.69498" lon="-1.93366">
        <ele>4</ele>
        <time>2018-03-07T23:04:05Z</time>
      </trkpt>
      <trkpt lat="46.6946" lon="-1.93349">
        <ele>4</ele>
        <time>2018-03-07T23:05:05Z</time>
      </trkpt>
      <trkpt lat="46.69431" lon="-1.93336">
        <ele>4</ele>
        <time>2018-03-07T23:06:05Z</time>
      </trkpt>
      <trkpt lat="46.69426" lon="-1.93334">
        <ele>4</ele>
        <time>2018-03-07T23:07:05Z</time>
      </trkpt>
      <trkpt lat="46.69421" lon="-1.93333">
        <ele>4</ele>
        <time>2018-03-07T23:08:05Z</time>
      </trkpt>
      <trkpt lat="46.69416" lon="-1.93331">
        <ele>4</ele>
        <time>2018-03-07T23:09:05Z</time>
      </trkpt>
      <trkpt lat="46.69405" lon="-1.9333">
        <ele>4</ele>
        <time>2018-03-07T23:10:05Z</time>
      </trkpt>
      <trkpt lat="46.69394" lon="-1.93333">
        <ele>4</ele>
        <time>2018-03-07T23:11:05Z</time>
      </trkpt>
      <trkpt lat="46.69394" lon="-1.93333">
        <ele>4</ele>
        <time>2018-03-07T23:12:05Z</time>
      </trkpt>
      <trkpt lat="46.69394" lon="-1.93334">
        <ele>4</ele>
        <time>2018-03-07T23:13:05Z</time>
      </trkpt>
      <trkpt lat="46.69394" lon="-1.93335">
        <ele>4</ele>
        <time>2018-03-07T23:14:05Z</time>
      </trkpt>
      <trkpt lat="46.69393" lon="-1.93335">
        <ele>4</ele>
        <time>2018-03-07T23:15:05Z</time>
      </trkpt>
      <trkpt lat="46.69393" lon="-1.93336">
        <ele>4</ele>
        <time>2018-03-07T23:16:05Z</time>
      </trkpt>
      <trkpt lat="46.69392" lon="-1.93336">
        <ele>4</ele>
        <time>2018-03-07T23:17:05Z</time>
      </trkpt>
      <trkpt lat="46.69392" lon="-1.93337">
        <ele>4</ele>
        <time>2018-03-07T23:18:05Z</time>
      </trkpt>
      <trkpt lat="46.69391" lon="-1.93337">
        <ele>4</ele>
        <time>2018-03-07T23:19:05Z</time>
      </trkpt>
      <trkpt lat="46.6939" lon="-1.93338">
        <ele>4</ele>
        <time>2018-03-07T23:20:05Z</time>
      </trkpt>
      <trkpt lat="46.69389" lon="-1.93338">
        <ele>4</ele>
        <time>2018-03-07T23:21:05Z</time>
      </trkpt>
      <trkpt lat="46.69388" lon="-1.93338">
        <ele>4</ele>
        <time>2018-03-07T23:22:05Z</time>
      </trkpt>
      <trkpt lat="46.69387" lon="-1.93338">
        <ele>4</ele>
        <time>2018-03-07T23:23:05Z</time>
      </trkpt>
      <trkpt lat="46.69386" lon="-1.93338">
        <ele>4</ele>
        <time>2018-03-07T23:24:05Z</time>
      </trkpt>
      <trkpt lat="46.69385" lon="-1.93338">
        <ele>4</ele>
        <time>2018-03-07T23:25:05Z</time>
      </trkpt>
      <trkpt lat="46.69384" lon="-1.93338">
        <ele>4</ele>
        <time>2018-03-07T23:26:05Z</time>
      </trkpt>
      <trkpt lat="46.69384" lon="-1.93337">
        <ele>4</ele>
        <time>2018-03-07T23:27:05Z</time>
      </trkpt>
      <trkpt lat="46.69383" lon="-1.93337">
        <ele>4</ele>
        <time>2018-03-07T23:28:05Z</time>
      </trkpt>
      <trkpt lat="46.69383" lon="-1.93336">
        <ele>4</ele>
        <time>2018-03-07T23:29:05Z</time>
      </trkpt>
      <trkpt lat="46.69382" lon="-1.93336">
        <ele>4</ele>
        <time>2018-03-07T23:30:05Z</time>
      </trkpt>
      <trkpt lat="46.69382" lon="-1.93335">
        <ele>4</ele>
        <time>2018-03-07T23:31:05Z</time>
      </trkpt>
      <trkpt lat="46.69381" lon="-1.93335">
        <ele>4</ele>
        <time>2018-03-07T23:32:05Z</time>
      </trkpt>
      <trkpt lat="46.69381" lon="-1.93334">
        <ele>4</ele>
        <time>2018-03-07T23:33:05Z</time>
      </trkpt>
      <trkpt lat="46.6938" lon="-1.93333">
        <ele>4</ele>
        <time>2018-03-07T23:34:05Z</time>
      </trkpt>
      <trkpt lat="46.6938" lon="-1.93332">
        <ele>4</ele>
        <time>2018-03-07T23:35:05Z</time>
      </trkpt>
      <trkpt lat="46.69379" lon="-1.93332">
        <ele>4</ele>
        <time>2018-03-07T23:36:05Z</time>
      </trkpt>
      <trkpt lat="46.69379" lon="-1.93331">
        <ele>4</ele>
        <time>2018-03-07T23:37:05Z</time>
      </trkpt>
      <trkpt lat="46.69379" lon="-1.9333">
        <ele>4</ele>
        <time>2018-03-07T23:38:05Z</time>
      </trkpt>
      <trkpt lat="46.69379" lon="-1.93329">
        <ele>4</ele>
        <time>2018-03-07T23:39:05Z</time>
      </trkpt>
      <trkpt lat="46.69376" lon="-1.93327">
        <ele>4</ele>
        <time>2018-03-07T23:40:05Z</time>
      </trkpt>
      <trkpt lat="46.69367" lon="-1.93325">
        <ele>4</ele>
        <time>2018-03-07T23:41:05Z</time>
      </trkpt>
      <trkpt lat="46.69363" lon="-1.93325">
        <ele>4</ele>
        <time>2018-03-07T23:42:05Z</time>
      </trkpt>
      <trkpt lat="46.69356" lon="-1.93325">
        <ele>4</ele>
        <time>2018-03-07T23:43:05Z</time>
      </trkpt>
      <trkpt lat="46.69353" lon="-1.93324">
        <ele>4</ele>
        <time>2018-03-07T23:44:05Z</time>
      </trkpt>
      <trkpt lat="46.69315" lon="-1.93317">
        <ele>4</ele>
        <time>2018-03-07T23:45:05Z</time>
      </trkpt>
      <trkpt lat="46.69286" lon="-1.93313">
        <ele>4</ele>
        <time>2018-03-07T23:46:05Z</time>
      </trkpt>
      <trkpt lat="46.6924" lon="-1.93303">
        <ele>3</ele>
        <time>2018-03-07T23:47:05Z</time>
      </trkpt>
      <trkpt lat="46.69218" lon="-1.933">
        <ele>3</ele>
        <time>2018-03-07T23:48:05Z</time>
      </trkpt>
      <trkpt lat="46.69217" lon="-1.933">
        <ele>3</ele>
        <time>2018-03-07T23:49:05Z</time>
      </trkpt>
      <trkpt lat="46.69209" lon="-1.93298">
        <ele>3</ele>
        <time>2018-03-07T23:50:05Z</time>
      </trkpt>
      <trkpt lat="46.69203" lon="-1.93298">
        <ele>3</ele>
        <time>2018-03-07T23:51:05Z</time>
      </trkpt>
      <trkpt lat="46.69197" lon="-1.93299">
        <ele>3</ele>
        <time>2018-03-07T23:52:05Z</time>
      </trkpt>
      <trkpt lat="46.69182" lon="-1.93301">
        <ele>3</ele>
        <time>2018-03-07T23:53:05Z</time>
      </trkpt>
      <trkpt lat="46.69182" lon="-1.93301">
        <ele>3</ele>
        <time>2018-03-07T23:54:05Z</time>
      </trkpt>
      <trkpt lat="46.6918" lon="-1.93305">
        <ele>3</ele>
        <time>2018-03-07T23:55:05Z</time>
      </trkpt>
      <trkpt lat="46.69177" lon="-1.93307">
        <ele>3</ele>
        <time>2018-03-07T23:56:05Z</time>
      </trkpt>
      <trkpt lat="46.69173" lon="-1.93307">
        <ele>3</ele>
        <time>2018-03-07T23:57:05Z</time>
      </trkpt>
      <trkpt lat="46.69169" lon="-1.93306">
        <ele>3</ele>
        <time>2018-03-07T23:58:05Z</time>
      </trkpt>
      <trkpt lat="46.69167" lon="-1.93304">
        <ele>3</ele>
        <time>2018-03-07T23:59:05Z</time>
      </trkpt>
      <trkpt lat="46.69165" lon="-1.93301">
        <ele>3</ele>
        <time>2018-03-08T00:00:05Z</time>
      </trkpt>
      <trkpt lat="46.69164" lon="-1.93298">
        <ele>3</ele>
        <time>2018-03-08T00:01:05Z</time>
      </trkpt>
      <trkpt lat="46.69163" lon="-1.93296">
        <ele>3</ele>
        <time>2018-03-08T00:02:05Z</time>
      </trkpt>
      <trkpt lat="46.69163" lon="-1.93293">
        <ele>2</ele>
        <time>2018-03-08T00:03:05Z</time>
      </trkpt>
      <trkpt lat="46.69163" lon="-1.93289">
        <ele>2</ele>
        <time>2018-03-08T00:04:05Z</time>
      </trkpt>
      <trkpt lat="46.69165" lon="-1.93285">
        <ele>2</ele>
        <time>2018-03-08T00:05:05Z</time>
      </trkpt>
      <trkpt lat="46.69169" lon="-1.9328">
        <ele>2</ele>
        <time>2018-03-08T00:06:05Z</time>
      </trkpt>
      <trkpt lat="46.69166" lon="-1.93273">
        <ele>2</ele>
        <time>2018-03-08T00:07:05Z</time>
      </trkpt>
      <trkpt lat="46.69166" lon="-1.93263">
        <ele>2</ele>
        <time>2018-03-08T00:08:05Z</time>
      </trkpt>
      <trkpt lat="46.69167" lon="-1.93252">
        <ele>2</ele>
        <time>2018-03-08T00:09:05Z</time>
      </trkpt>
      <trkpt lat="46.69169" lon="-1.93244">
        <ele>2</ele>
        <time>2018-03-08T00:10:05Z</time>
      </trkpt>
      <trkpt lat="46.69177" lon="-1.93193">
        <ele>4</ele>
        <time>2018-03-08T00:11:05Z</time>
      </trkpt>
      <trkpt lat="46.69179" lon="-1.9318">
        <ele>4</ele>
        <time>2018-03-08T00:12:05Z</time>
      </trkpt>
      <trkpt lat="46.69182" lon="-1.93159">
        <ele>4</ele>
        <time>2018-03-08T00:13:05Z</time>
      </trkpt>
      <trkpt lat="46.69183" lon="-1.9315">
        <ele>4</ele>
        <time>2018-03-08T00:14:05Z</time>
      </trkpt>
      <trkpt lat="46.69186" lon="-1.93138">
        <ele>4</ele>
        <time>2018-03-08T00:15:05Z</time>
      </trkpt>
      <trkpt lat="46.69187" lon="-1.93134">
        <ele>4</ele>
        <time>2018-03-08T00:16:05Z</time>
      </trkpt>
      <trkpt lat="46.6919" lon="-1.93125">
        <ele>4</ele>
        <time>2018-03-08T00:17:05Z</time>
      </trkpt>
      <trkpt lat="46.69194" lon="-1.93117">
        <ele>4</ele>
        <time>2018-03-08T00:18:05Z</time>
      </trkpt>
      <trkpt lat="46.69201" lon="-1.93103">
        <ele>4</ele>
        <time>2018-03-08T00:19:05Z</time>
      </trkpt>
      <trkpt lat="46.6921" lon="-1.93085">
        <ele>5</ele>
        <time>2018-03-08T00:20:05Z</time>
      </trkpt>
      <trkpt lat="46.69219" lon="-1.93065">
        <ele>5</ele>
        <time>2018-03-08T00:21:05Z</time>
      </trkpt>
      <trkpt lat="46.69224" lon="-1.93053">
        <ele>5</ele>
        <time>2018-03-08T00:22:05Z</time>
      </trkpt>
      <trkpt lat="46.69224" lon="-1.93053">
        <ele>5</ele>
        <time>2018-03-08T00:23:05Z</time>
      </trkpt>
      <trkpt lat="46.69217" lon="-1.93046">
        <ele>5</ele>
        <time>2018-03-08T00:24:05Z</time>
      </trkpt>
      <trkpt lat="46.69194" lon="-1.93026">
        <ele>5</ele>
        <time>2018-03-08T00:25:05Z</time>
      </trkpt>
      <trkpt lat="46.69175" lon="-1.93009">
        <ele>4</ele>
        <time>2018-03-08T00:26:05Z</time>
      </trkpt>
      <trkpt lat="46.6917" lon="-1.93005">
        <ele>4</ele>
        <time>2018-03-08T00:27:05Z</time>
      </trkpt>
      <trkpt lat="46.69154" lon="-1.92991">
        <ele>4</ele>
        <time>2018-03-08T00:28:05Z</time>
      </trkpt>
      <trkpt lat="46.69133" lon="-1.92971">
        <ele>4</ele>
        <time>2018-03-08T00:29:05Z</time>
      </trkpt>
      <trkpt lat="46.69107" lon="-1.92948">
        <ele>4</ele>
        <time>2018-03-08T00:30:05Z</time>
      </trkpt>
      <trkpt lat="46.69095" lon="-1.92938">
        <ele>4</ele>
        <time>2018-03-08T00:31:05Z</time>
      </trkpt>
      <trkpt lat="46.69068" lon="-1.92907">
        <ele>4</ele>
        <time>2018-03-08T00:32:05Z</time>
      </trkpt>
      <trkpt lat="46.69055" lon="-1.9289">
        <ele>4</ele>
        <time>2018-03-08T00:33:05Z</time>
      </trkpt>
      <trkpt lat="46.69038" lon="-1.92867">
        <ele>4</ele>
        <time>2018-03-08T00:34:05Z</time>
      </trkpt>
      <trkpt lat="46.69014" lon="-1.92836">
        <ele>4</ele>
        <time>2018-03-08T00:35:05Z</time>
      </trkpt>
      <trkpt lat="46.68993" lon="-1.92806">
        <ele>4</ele>
        <time>2018-03-08T00:36:05Z</time>
      </trkpt>
      <trkpt lat="46.68992" lon="-1.92805">
        <ele>4</ele>
        <time>2018-03-08T00:37:05Z</time>
      </trkpt>
      <trkpt lat="46.68977" lon="-1.92784">
        <ele>4</ele>
        <time>2018-03-08T00:38:05Z</time>
      </trkpt>
      <trkpt lat="46.68969" lon="-1.92774">
        <ele>4</ele>
        <time>2018-03-08T00:39:05Z</time>
      </trkpt>
      <trkpt lat="46.68965" lon="-1.92769">
        <ele>4</ele>
        <time>2018-03-08T00:40:05Z</time>
      </trkpt>
      <trkpt lat="46.68955" lon="-1.92755">
        <ele>4</ele>
        <time>2018-03-08T00:41:05Z</time>
      </trkpt>
      <trkpt lat="46.68947" lon="-1.92747">
        <ele>4</ele>
        <time>2018-03-08T00:42:05Z</time>
      </trkpt>
      <trkpt lat="46.68936" lon="-1.92737">
        <ele>4</ele>
        <time>2018-03-08T00:43:05Z</time>
      </trkpt>
      <trkpt lat="46.68926" lon="-1.9273">
        <ele>4</ele>
        <time>2018-03-08T00:44:05Z</time>
      </trkpt>
      <trkpt lat="46.68913" lon="-1.92723">
        <ele>4</ele>
        <time>2018-03-08T00:45:05Z</time>
      </trkpt>
      <trkpt lat="46.68897" lon="-1.92716">
        <ele>4</ele>
        <time>2018-03-08T00:46:05Z</time>
      </trkpt>
      <trkpt lat="46.68881" lon="-1.92711">
        <ele>5</ele>
        <time>2018-03-08T00:47:05Z</time>
      </trkpt>
      <trkpt lat="46.68869" lon="-1.92706">
        <ele>5</ele>
        <time>2018-03-08T00:48:05Z</time>
      </trkpt>
      <trkpt lat="46.6886" lon="-1.92704">
        <ele>6</ele>
        <time>2018-03-08T00:49:05Z</time>
      </trkpt>
      <trkpt lat="46.68859" lon="-1.92704">
        <ele>6</ele>
        <time>2018-03-08T00:50:05Z</time>
      </trkpt>
      <trkpt lat="46.68851" lon="-1.92698">
        <ele>6</ele>
        <time>2018-03-08T00:51:05Z</time>
      </trkpt>
      <trkpt lat="46.68851" lon="-1.92698">
        <ele>6</ele>
        <time>2018-03-08T00:52:05Z</time>
      </trkpt>
      <trkpt lat="46.68851" lon="-1.92699">
        <ele>6</ele>
        <time>2018-03-08T00:53:05Z</time>
      </trkpt>
      <trkpt lat="46.6885" lon="-1.92699">
        <ele>6</ele>
        <time>2018-03-08T00:54:05Z</time>
      </trkpt>
      <trkpt lat="46.68849" lon="-1.927">
        <ele>6</ele>
        <time>2018-03-08T00:55:05Z</time>
      </trkpt>
      <trkpt lat="46.68848" lon="-1.927">
        <ele>6</ele>
        <time>2018-03-08T00:56:05Z</time>
      </trkpt>
      <trkpt lat="46.68848" lon="-1.92701">
        <ele>6</ele>
        <time>2018-03-08T00:57:05Z</time>
      </trkpt>
      <trkpt lat="46.68847" lon="-1.92701">
        <ele>6</ele>
        <time>2018-03-08T00:58:05Z</time>
      </trkpt>
      <trkpt lat="46.68846" lon="-1.92701">
        <ele>6</ele>
        <time>2018-03-08T00:59:05Z</time>
      </trkpt>
      <trkpt lat="46.68845" lon="-1.92701">
        <ele>6</ele>
        <time>2018-03-08T01:00:05Z</time>
      </trkpt>
      <trkpt lat="46.68844" lon="-1.92701">
        <ele>7</ele>
        <time>2018-03-08T01:01:05Z</time>
      </trkpt>
      <trkpt lat="46.68844" lon="-1.927">
        <ele>7</ele>
        <time>2018-03-08T01:02:05Z</time>
      </trkpt>
      <trkpt lat="46.68843" lon="-1.927">
        <ele>7</ele>
        <time>2018-03-08T01:03:05Z</time>
      </trkpt>
      <trkpt lat="46.68842" lon="-1.92699">
        <ele>7</ele>
        <time>2018-03-08T01:04:05Z</time>
      </trkpt>
      <trkpt lat="46.68837" lon="-1.927">
        <ele>7</ele>
        <time>2018-03-08T01:05:05Z</time>
      </trkpt>
      <trkpt lat="46.68833" lon="-1.92701">
        <ele>7</ele>
        <time>2018-03-08T01:06:05Z</time>
      </trkpt>
      <trkpt lat="46.68828" lon="-1.927">
        <ele>7</ele>
        <time>2018-03-08T01:07:05Z</time>
      </trkpt>
      <trkpt lat="46.68827" lon="-1.927">
        <ele>7</ele>
        <time>2018-03-08T01:08:05Z</time>
      </trkpt>
      <trkpt lat="46.68827" lon="-1.92701">
        <ele>7</ele>
        <time>2018-03-08T01:09:05Z</time>
      </trkpt>
      <trkpt lat="46.68826" lon="-1.92701">
        <ele>7</ele>
        <time>2018-03-08T01:10:05Z</time>
      </trkpt>
      <trkpt lat="46.68826" lon="-1.92702">
        <ele>7</ele>
        <time>2018-03-08T01:11:05Z</time>
      </trkpt>
      <trkpt lat="46.68825" lon="-1.92702">
        <ele>7</ele>
        <time>2018-03-08T01:12:05Z</time>
      </trkpt>
      <trkpt lat="46.68825" lon="-1.92703">
        <ele>7</ele>
        <time>2018-03-08T01:13:05Z</time>
      </trkpt>
      <trkpt lat="46.68824" lon="-1.92703">
        <ele>7</ele>
        <time>2018-03-08T01:14:05Z</time>
      </trkpt>
      <trkpt lat="46.68823" lon="-1.92703">
        <ele>7</ele>
        <time>2018-03-08T01:15:05Z</time>
      </trkpt>
      <trkpt lat="46.68822" lon="-1.92703">
        <ele>7</ele>
        <time>2018-03-08T01:16:05Z</time>
      </trkpt>
      <trkpt lat="46.68821" lon="-1.92703">
        <ele>7</ele>
        <time>2018-03-08T01:17:05Z</time>
      </trkpt>
      <trkpt lat="46.68821" lon="-1.92702">
        <ele>7</ele>
        <time>2018-03-08T01:18:05Z</time>
      </trkpt>
      <trkpt lat="46.6882" lon="-1.92702">
        <ele>7</ele>
        <time>2018-03-08T01:19:05Z</time>
      </trkpt>
      <trkpt lat="46.6882" lon="-1.92701">
        <ele>7</ele>
        <time>2018-03-08T01:20:05Z</time>
      </trkpt>
      <trkpt lat="46.68819" lon="-1.92701">
        <ele>7</ele>
        <time>2018-03-08T01:21:05Z</time>
      </trkpt>
      <trkpt lat="46.68819" lon="-1.927">
        <ele>7</ele>
        <time>2018-03-08T01:22:05Z</time>
      </trkpt>
      <trkpt lat="46.68818" lon="-1.927">
        <ele>7</ele>
        <time>2018-03-08T01:23:05Z</time>
      </trkpt>
      <trkpt lat="46.68818" lon="-1.92699">
        <ele>7</ele>
        <time>2018-03-08T01:24:05Z</time>
      </trkpt>
      <trkpt lat="46.68818" lon="-1.92698">
        <ele>7</ele>
        <time>2018-03-08T01:25:05Z</time>
      </trkpt>
      <trkpt lat="46.68817" lon="-1.92698">
        <ele>7</ele>
        <time>2018-03-08T01:26:05Z</time>
      </trkpt>
      <trkpt lat="46.68817" lon="-1.92697">
        <ele>7</ele>
        <time>2018-03-08T01:27:05Z</time>
      </trkpt>
      <trkpt lat="46.68817" lon="-1.92696">
        <ele>7</ele>
        <time>2018-03-08T01:28:05Z</time>
      </trkpt>
      <trkpt lat="46.68817" lon="-1.92695">
        <ele>7</ele>
        <time>2018-03-08T01:29:05Z</time>
      </trkpt>
      <trkpt lat="46.68817" lon="-1.92694">
        <ele>7</ele>
        <time>2018-03-08T01:30:05Z</time>
      </trkpt>
      <trkpt lat="46.68817" lon="-1.92693">
        <ele>7</ele>
        <time>2018-03-08T01:31:05Z</time>
      </trkpt>
      <trkpt lat="46.68817" lon="-1.92692">
        <ele>7</ele>
        <time>2018-03-08T01:32:05Z</time>
      </trkpt>
      <trkpt lat="46.68817" lon="-1.92691">
        <ele>7</ele>
        <time>2018-03-08T01:33:05Z</time>
      </trkpt>
      <trkpt lat="46.68817" lon="-1.9269">
        <ele>7</ele>
        <time>2018-03-08T01:34:05Z</time>
      </trkpt>
      <trkpt lat="46.68804" lon="-1.92685">
        <ele>7</ele>
        <time>2018-03-08T01:35:05Z</time>
      </trkpt>
      <trkpt lat="46.68787" lon="-1.9268">
        <ele>8</ele>
        <time>2018-03-08T01:36:05Z</time>
      </trkpt>
      <trkpt lat="46.68776" lon="-1.92676">
        <ele>8</ele>
        <time>2018-03-08T01:37:05Z</time>
      </trkpt>
      <trkpt lat="46.6876" lon="-1.92669">
        <ele>8</ele>
        <time>2018-03-08T01:38:05Z</time>
      </trkpt>
      <trkpt lat="46.68759" lon="-1.92668">
        <ele>8</ele>
        <time>2018-03-08T01:39:05Z</time>
      </trkpt>
      <trkpt lat="46.68733" lon="-1.92654">
        <ele>8</ele>
        <time>2018-03-08T01:40:05Z</time>
      </trkpt>
      <trkpt lat="46.68732" lon="-1.92654">
        <ele>8</ele>
        <time>2018-03-08T01:41:05Z</time>
      </trkpt>
      <trkpt lat="46.68707" lon="-1.92638">
        <ele>9</ele>
        <time>2018-03-08T01:42:05Z</time>
      </trkpt>
      <trkpt lat="46.68669" lon="-1.92615">
        <ele>10</ele>
        <time>2018-03-08T01:43:05Z</time>
      </trkpt>
      <trkpt lat="46.68651" lon="-1.92602">
        <ele>10</ele>
        <time>2018-03-08T01:44:05Z</time>
      </trkpt>
      <trkpt lat="46.68644" lon="-1.92596">
        <ele>10</ele>
        <time>2018-03-08T01:45:05Z</time>
      </trkpt>
      <trkpt lat="46.68635" lon="-1.92588">
        <ele>10</ele>
        <time>2018-03-08T01:46:05Z</time>
      </trkpt>
      <trkpt lat="46.68634" lon="-1.92586">
        <ele>10</ele>
        <time>2018-03-08T01:47:05Z</time>
      </trkpt>
      <trkpt lat="46.68629" lon="-1.9258">
        <ele>10</ele>
        <time>2018-03-08T01:48:05Z</time>
      </trkpt>
      <trkpt lat="46.68625" lon="-1.92575">
        <ele>10</ele>
        <time>2018-03-08T01:49:05Z</time>
      </trkpt>
      <trkpt lat="46.68616" lon="-1.92563">
        <ele>10</ele>
        <time>2018-03-08T01:50:05Z</time>
      </trkpt>
      <trkpt lat="46.68605" lon="-1.92548">
        <ele>10</ele>
        <time>2018-03-08T01:51:05Z</time>
      </trkpt>
      <trkpt lat="46.68594" lon="-1.92534">
        <ele>10</ele>
        <time>2018-03-08T01:52:05Z</time>
      </trkpt>
      <trkpt lat="46.68589" lon="-1.92528">
        <ele>10</ele>
        <time>2018-03-08T01:53:05Z</time>
      </trkpt>
      <trkpt lat="46.68567" lon="-1.925">
        <ele>10</ele>
        <time>2018-03-08T01:54:05Z</time>
      </trkpt>
      <trkpt lat="46.68549" lon="-1.92476">
        <ele>10</ele>
        <time>2018-03-08T01:55:05Z</time>
      </trkpt>
      <trkpt lat="46.68538" lon="-1.92464">
        <ele>10</ele>
        <time>2018-03-08T01:56:05Z</time>
      </trkpt>
      <trkpt lat="46.68532" lon="-1.92456">
        <ele>10</ele>
        <time>2018-03-08T01:57:05Z</time>
      </trkpt>
      <trkpt lat="46.68528" lon="-1.9245">
        <ele>10</ele>
        <time>2018-03-08T01:58:05Z</time>
      </trkpt>
      <trkpt lat="46.68514" lon="-1.92436">
        <ele>10</ele>
        <time>2018-03-08T01:59:05Z</time>
      </trkpt>
      <trkpt lat="46.68505" lon="-1.92428">
        <ele>10</ele>
        <time>2018-03-08T02:00:05Z</time>
      </trkpt>
      <trkpt lat="46.68495" lon="-1.9242">
        <ele>10</ele>
        <time>2018-03-08T02:01:05Z</time>
      </trkpt>
      <trkpt lat="46.68487" lon="-1.92415">
        <ele>10</ele>
        <time>2018-03-08T02:02:05Z</time>
      </trkpt>
      <trkpt lat="46.68481" lon="-1.92411">
        <ele>10</ele>
        <time>2018-03-08T02:03:05Z</time>
      </trkpt>
      <trkpt lat="46.68472" lon="-1.92408">
        <ele>10</ele>
        <time>2018-03-08T02:04:05Z</time>
      </trkpt>
      <trkpt lat="46.68463" lon="-1.92406">
        <ele>10</ele>
        <time>2018-03-08T02:05:05Z</time>
      </trkpt>
      <trkpt lat="46.68454" lon="-1.92404">
        <ele>10</ele>
        <time>2018-03-08T02:06:05Z</time>
      </trkpt>
      <trkpt lat="46.68447" lon="-1.92403">
        <ele>10</ele>
        <time>2018-03-08T02:07:05Z</time>
      </trkpt>
      <trkpt lat="46.68435" lon="-1.924">
        <ele>10</ele>
        <time>2018-03-08T02:08:05Z</time>
      </trkpt>
      <trkpt lat="46.68426" lon="-1.92396">
        <ele>10</ele>
        <time>2018-03-08T02:09:05Z</time>
      </trkpt>
      <trkpt lat="46.68413" lon="-1.92388">
        <ele>10</ele>
        <time>2018-03-08T02:10:05Z</time>
      </trkpt>
      <trkpt lat="46.68403" lon="-1.9238">
        <ele>10</ele>
        <time>2018-03-08T02:11:05Z</time>
      </trkpt>
      <trkpt lat="46.68389" lon="-1.92363">
        <ele>10</ele>
        <time>2018-03-08T02:12:05Z</time>
      </trkpt>
      <trkpt lat="46.6838" lon="-1.92351">
        <ele>10</ele>
        <time>2018-03-08T02:13:05Z</time>
      </trkpt>
      <trkpt lat="46.68377" lon="-1.92346">
        <ele>10</ele>
        <time>2018-03-08T02:14:05Z</time>
      </trkpt>
      <trkpt lat="46.6837" lon="-1.92334">
        <ele>10</ele>
        <time>2018-03-08T02:15:05Z</time>
      </trkpt>
      <trkpt lat="46.68355" lon="-1.92305">
        <ele>10</ele>
        <time>2018-03-08T02:16:05Z</time>
      </trkpt>
      <trkpt lat="46.6833" lon="-1.92261">
        <ele>9</ele>
        <time>2018-03-08T02:17:05Z</time>
      </trkpt>
      <trkpt lat="46.6832" lon="-1.92245">
        <ele>9</ele>
        <time>2018-03-08T02:18:05Z</time>
      </trkpt>
      <trkpt lat="46.68306" lon="-1.92219">
        <ele>9</ele>
        <time>2018-03-08T02:19:05Z</time>
      </trkpt>
      <trkpt lat="46.68291" lon="-1.92193">
        <ele>8</ele>
        <time>2018-03-08T02:20:05Z</time>
      </trkpt>
      <trkpt lat="46.68286" lon="-1.92186">
        <ele>8</ele>
        <time>2018-03-08T02:21:05Z</time>
      </trkpt>
      <trkpt lat="46.68277" lon="-1.92172">
        <ele>8</ele>
        <time>2018-03-08T02:22:05Z</time>
      </trkpt>
      <trkpt lat="46.68267" lon="-1.92157">
        <ele>7</ele>
        <time>2018-03-08T02:23:05Z</time>
      </trkpt>
      <trkpt lat="46.68255" lon="-1.9214">
        <ele>7</ele>
        <time>2018-03-08T02:24:05Z</time>
      </trkpt>
      <trkpt lat="46.6823" lon="-1.92107">
        <ele>7</ele>
        <time>2018-03-08T02:25:05Z</time>
      </trkpt>
      <trkpt lat="46.68227" lon="-1.92103">
        <ele>7</ele>
        <time>2018-03-08T02:26:05Z</time>
      </trkpt>
      <trkpt lat="46.68224" lon="-1.92098">
        <ele>7</ele>
        <time>2018-03-08T02:27:05Z</time>
      </trkpt>
      <trkpt lat="46.68224" lon="-1.92097">
        <ele>7</ele>
        <time>2018-03-08T02:28:05Z</time>
      </trkpt>
      <trkpt lat="46.6822" lon="-1.92091">
        <ele>7</ele>
        <time>2018-03-08T02:29:05Z</time>
      </trkpt>
      <trkpt lat="46.68208" lon="-1.92073">
        <ele>7</ele>
        <time>2018-03-08T02:30:05Z</time>
      </trkpt>
      <trkpt lat="46.68198" lon="-1.92057">
        <ele>7</ele>
        <time>2018-03-08T02:31:05Z</time>
      </trkpt>
      <trkpt lat="46.68174" lon="-1.92025">
        <ele>8</ele>
        <time>2018-03-08T02:32:05Z</time>
      </trkpt>
      <trkpt lat="46.68158" lon="-1.92003">
        <ele>8</ele>
        <time>2018-03-08T02:33:05Z</time>
      </trkpt>
      <trkpt lat="46.68115" lon="-1.91941">
        <ele>8</ele>
        <time>2018-03-08T02:34:05Z</time>
      </trkpt>
      <trkpt lat="46.68083" lon="-1.91897">
        <ele>8</ele>
        <time>2018-03-08T02:35:05Z</time>
      </trkpt>
      <trkpt lat="46.68057" lon="-1.91858">
        <ele>8</ele>
        <time>2018-03-08T02:36:05Z</time>
      </trkpt>
      <trkpt lat="46.68041" lon="-1.91836">
        <ele>8</ele>
        <time>2018-03-08T02:37:05Z</time>
      </trkpt>
      <trkpt lat="46.68033" lon="-1.91825">
        <ele>8</ele>
        <time>2018-03-08T02:38:05Z</time>
      </trkpt>
      <trkpt lat="46.68022" lon="-1.91808">
        <ele>8</ele>
        <time>2018-03-08T02:39:05Z</time>
      </trkpt>
      <trkpt lat="46.68" lon="-1.91776">
        <ele>8</ele>
        <time>2018-03-08T02:40:05Z</time>
      </trkpt>
      <trkpt lat="46.67972" lon="-1.91737">
        <ele>7</ele>
        <time>2018-03-08T02:41:05Z</time>
      </trkpt>
      <trkpt lat="46.67947" lon="-1.91703">
        <ele>7</ele>
        <time>2018-03-08T02:42:05Z</time>
      </trkpt>
      <trkpt lat="46.67928" lon="-1.91675">
        <ele>7</ele>
        <time>2018-03-08T02:43:05Z</time>
      </trkpt>
      <trkpt lat="46.67898" lon="-1.91633">
        <ele>7</ele>
        <time>2018-03-08T02:44:05Z</time>
      </trkpt>
      <trkpt lat="46.67883" lon="-1.91611">
        <ele>6</ele>
        <time>2018-03-08T02:45:05Z</time>
      </trkpt>
      <trkpt lat="46.67864" lon="-1.91583">
        <ele>6</ele>
        <time>2018-03-08T02:46:05Z</time>
      </trkpt>
      <trkpt lat="46.6784" lon="-1.91552">
        <ele>6</ele>
        <time>2018-03-08T02:47:05Z</time>
      </trkpt>
      <trkpt lat="46.67831" lon="-1.91538">
        <ele>6</ele>
        <time>2018-03-08T02:48:05Z</time>
      </trkpt>
      <trkpt lat="46.67783" lon="-1.91471">
        <ele>6</ele>
        <time>2018-03-08T02:49:05Z</time>
      </trkpt>
      <trkpt lat="46.67747" lon="-1.9142">
        <ele>6</ele>
        <time>2018-03-08T02:50:05Z</time>
      </trkpt>
      <trkpt lat="46.67743" lon="-1.91414">
        <ele>6</ele>
        <time>2018-03-08T02:51:05Z</time>
      </trkpt>
      <trkpt lat="46.67704" lon="-1.91358">
        <ele>5</ele>
        <time>2018-03-08T02:52:05Z</time>
      </trkpt>
      <trkpt lat="46.67662" lon="-1.91298">
        <ele>5</ele>
        <time>2018-03-08T02:53:05Z</time>
      </trkpt>
      <trkpt lat="46.67634" lon="-1.91261">
        <ele>5</ele>
        <time>2018-03-08T02:54:05Z</time>
      </trkpt>
      <trkpt lat="46.67612" lon="-1.91228">
        <ele>5</ele>
        <time>2018-03-08T02:55:05Z</time>
      </trkpt>
      <trkpt lat="46.67587" lon="-1.91194">
        <ele>6</ele>
        <time>2018-03-08T02:56:05Z</time>
      </trkpt>
      <trkpt lat="46.67578" lon="-1.91181">
        <ele>6</ele>
        <time>2018-03-08T02:57:05Z</time>
      </trkpt>
      <trkpt lat="46.67546" lon="-1.91137">
        <ele>5</ele>
        <time>2018-03-08T02:58:05Z</time>
      </trkpt>
      <trkpt lat="46.67518" lon="-1.91097">
        <ele>5</ele>
        <time>2018-03-08T02:59:05Z</time>
      </trkpt>
      <trkpt lat="46.6749" lon="-1.9106">
        <ele>5</ele>
        <time>2018-03-08T03:00:05Z</time>
      </trkpt>
      <trkpt lat="46.67469" lon="-1.9103">
        <ele>4</ele>
        <time>2018-03-08T03:01:05Z</time>
      </trkpt>
      <trkpt lat="46.67456" lon="-1.9101">
        <ele>4</ele>
        <time>2018-03-08T03:02:05Z</time>
      </trkpt>
      <trkpt lat="46.67452" lon="-1.91005">
        <ele>4</ele>
        <time>2018-03-08T03:03:05Z</time>
      </trkpt>
      <trkpt lat="46.67446" lon="-1.90996">
        <ele>4</ele>
        <time>2018-03-08T03:04:05Z</time>
      </trkpt>
      <trkpt lat="46.6744" lon="-1.90984">
        <ele>4</ele>
        <time>2018-03-08T03:05:05Z</time>
      </trkpt>
      <trkpt lat="46.67435" lon="-1.90971">
        <ele>3</ele>
        <time>2018-03-08T03:06:05Z</time>
      </trkpt>
      <trkpt lat="46.67435" lon="-1.90971">
        <ele>3</ele>
        <time>2018-03-08T03:07:05Z</time>
      </trkpt>
      <trkpt lat="46.67432" lon="-1.90969">
        <ele>3</ele>
        <time>2018-03-08T03:08:05Z</time>
      </trkpt>
      <trkpt lat="46.6743" lon="-1.90968">
        <ele>3</ele>
        <time>2018-03-08T03:09:05Z</time>
      </trkpt>
      <trkpt lat="46.67429" lon="-1.90967">
        <ele>3</ele>
        <time>2018-03-08T03:10:05Z</time>
      </trkpt>
      <trkpt lat="46.67427" lon="-1.90965">
        <ele>3</ele>
        <time>2018-03-08T03:11:05Z</time>
      </trkpt>
      <trkpt lat="46.67426" lon="-1.90964">
        <ele>3</ele>
        <time>2018-03-08T03:12:05Z</time>
      </trkpt>
      <trkpt lat="46.67424" lon="-1.90962">
        <ele>3</ele>
        <time>2018-03-08T03:13:05Z</time>
      </trkpt>
      <trkpt lat="46.67423" lon="-1.9096">
        <ele>3</ele>
        <time>2018-03-08T03:14:05Z</time>
      </trkpt>
      <trkpt lat="46.67422" lon="-1.90958">
        <ele>3</ele>
        <time>2018-03-08T03:15:05Z</time>
      </trkpt>
      <trkpt lat="46.67421" lon="-1.90956">
        <ele>3</ele>
        <time>2018-03-08T03:16:05Z</time>
      </trkpt>
      <trkpt lat="46.6742" lon="-1.90953">
        <ele>3</ele>
        <time>2018-03-08T03:17:05Z</time>
      </trkpt>
      <trkpt lat="46.6742" lon="-1.90951">
        <ele>3</ele>
        <time>2018-03-08T03:18:05Z</time>
      </trkpt>
      <trkpt lat="46.6742" lon="-1.9095">
        <ele>3</ele>
        <time>2018-03-08T03:19:05Z</time>
      </trkpt>
      <trkpt lat="46.67419" lon="-1.9095">
        <ele>3</ele>
        <time>2018-03-08T03:20:05Z</time>
      </trkpt>
      <trkpt lat="46.67419" lon="-1.90949">
        <ele>3</ele>
        <time>2018-03-08T03:21:05Z</time>
      </trkpt>
      <trkpt lat="46.67419" lon="-1.90948">
        <ele>3</ele>
        <time>2018-03-08T03:22:05Z</time>
      </trkpt>
      <trkpt lat="46.67419" lon="-1.90947">
        <ele>3</ele>
        <time>2018-03-08T03:23:05Z</time>
      </trkpt>
      <trkpt lat="46.67419" lon="-1.90946">
        <ele>3</ele>
        <time>2018-03-08T03:24:05Z</time>
      </trkpt>
      <trkpt lat="46.67414" lon="-1.90938">
        <ele>3</ele>
        <time>2018-03-08T03:25:05Z</time>
      </trkpt>
      <trkpt lat="46.67409" lon="-1.90932">
        <ele>3</ele>
        <time>2018-03-08T03:26:05Z</time>
      </trkpt>
      <trkpt lat="46.67407" lon="-1.90929">
        <ele>3</ele>
        <time>2018-03-08T03:27:05Z</time>
      </trkpt>
      <trkpt lat="46.67405" lon="-1.90925">
        <ele>3</ele>
        <time>2018-03-08T03:28:05Z</time>
      </trkpt>
      <trkpt lat="46.67398" lon="-1.90917">
        <ele>3</ele>
        <time>2018-03-08T03:29:05Z</time>
      </trkpt>
      <trkpt lat="46.67384" lon="-1.90901">
        <ele>3</ele>
        <time>2018-03-08T03:30:05Z</time>
      </trkpt>
      <trkpt lat="46.67344" lon="-1.90854">
        <ele>2</ele>
        <time>2018-03-08T03:31:05Z</time>
      </trkpt>
      <trkpt lat="46.67339" lon="-1.90844">
        <ele>2</ele>
        <time>2018-03-08T03:32:05Z</time>
      </trkpt>
      <trkpt lat="46.67336" lon="-1.9084">
        <ele>2</ele>
        <time>2018-03-08T03:33:05Z</time>
      </trkpt>
      <trkpt lat="46.67333" lon="-1.90837">
        <ele>2</ele>
        <time>2018-03-08T03:34:05Z</time>
      </trkpt>
      <trkpt lat="46.6733" lon="-1.90833">
        <ele>2</ele>
        <time>2018-03-08T03:35:05Z</time>
      </trkpt>
      <trkpt lat="46.67327" lon="-1.90829">
        <ele>2</ele>
        <time>2018-03-08T03:36:05Z</time>
      </trkpt>
      <trkpt lat="46.67323" lon="-1.90824">
        <ele>2</ele>
        <time>2018-03-08T03:37:05Z</time>
      </trkpt>
      <trkpt lat="46.6732" lon="-1.90819">
        <ele>2</ele>
        <time>2018-03-08T03:38:05Z</time>
      </trkpt>
      <trkpt lat="46.67313" lon="-1.9081">
        <ele>2</ele>
        <time>2018-03-08T03:39:05Z</time>
      </trkpt>
      <trkpt lat="46.67301" lon="-1.90794">
        <ele>2</ele>
        <time>2018-03-08T03:40:05Z</time>
      </trkpt>
      <trkpt lat="46.67282" lon="-1.90767">
        <ele>3</ele>
        <time>2018-03-08T03:41:05Z</time>
      </trkpt>
      <trkpt lat="46.67255" lon="-1.90729">
        <ele>3</ele>
        <time>2018-03-08T03:42:05Z</time>
      </trkpt>
      <trkpt lat="46.67226" lon="-1.90688">
        <ele>4</ele>
        <time>2018-03-08T03:43:05Z</time>
      </trkpt>
      <trkpt lat="46.67205" lon="-1.90658">
        <ele>4</ele>
        <time>2018-03-08T03:44:05Z</time>
      </trkpt>
      <trkpt lat="46.67166" lon="-1.90604">
        <ele>5</ele>
        <time>2018-03-08T03:45:05Z</time>
      </trkpt>
      <trkpt lat="46.67105" lon="-1.90518">
        <ele>5</ele>
        <time>2018-03-08T03:46:05Z</time>
      </trkpt>
      <trkpt lat="46.67097" lon="-1.90511">
        <ele>5</ele>
        <time>2018-03-08T03:47:05Z</time>
      </trkpt>
      <trkpt lat="46.67055" lon="-1.90456">
        <ele>5</ele>
        <time>2018-03-08T03:48:05Z</time>
      </trkpt>
      <trkpt lat="46.67046" lon="-1.90444">
        <ele>5</ele>
        <time>2018-03-08T03:49:05Z</time>
      </trkpt>
      <trkpt lat="46.67037" lon="-1.9043">
        <ele>5</ele>
        <time>2018-03-08T03:50:05Z</time>
      </trkpt>
      <trkpt lat="46.67034" lon="-1.90427">
        <ele>5</ele>
        <time>2018-03-08T03:51:05Z</time>
      </trkpt>
      <trkpt lat="46.67019" lon="-1.90408">
        <ele>5</ele>
        <time>2018-03-08T03:52:05Z</time>
      </trkpt>
      <trkpt lat="46.67018" lon="-1.90407">
        <ele>5</ele>
        <time>2018-03-08T03:53:05Z</time>
      </trkpt>
      <trkpt lat="46.67017" lon="-1.90406">
        <ele>5</ele>
        <time>2018-03-08T03:54:05Z</time>
      </trkpt>
      <trkpt lat="46.67016" lon="-1.90404">
        <ele>5</ele>
        <time>2018-03-08T03:55:05Z</time>
      </trkpt>
      <trkpt lat="46.67014" lon="-1.90402">
        <ele>5</ele>
        <time>2018-03-08T03:56:05Z</time>
      </trkpt>
      <trkpt lat="46.67012" lon="-1.90399">
        <ele>5</ele>
        <time>2018-03-08T03:57:05Z</time>
      </trkpt>
      <trkpt lat="46.66999" lon="-1.9038">
        <ele>5</ele>
        <time>2018-03-08T03:58:05Z</time>
      </trkpt>
      <trkpt lat="46.66997" lon="-1.90377">
        <ele>5</ele>
        <time>2018-03-08T03:59:05Z</time>
      </trkpt>
      <trkpt lat="46.66995" lon="-1.90374">
        <ele>5</ele>
        <time>2018-03-08T04:00:05Z</time>
      </trkpt>
      <trkpt lat="46.66993" lon="-1.90372">
        <ele>5</ele>
        <time>2018-03-08T04:01:05Z</time>
      </trkpt>
      <trkpt lat="46.66982" lon="-1.90356">
        <ele>5</ele>
        <time>2018-03-08T04:02:05Z</time>
      </trkpt>
      <trkpt lat="46.66982" lon="-1.90356">
        <ele>5</ele>
        <time>2018-03-08T04:03:05Z</time>
      </trkpt>
      <trkpt lat="46.66981" lon="-1.90356">
        <ele>5</ele>
        <time>2018-03-08T04:04:05Z</time>
      </trkpt>
      <trkpt lat="46.66979" lon="-1.90355">
        <ele>5</ele>
        <time>2018-03-08T04:05:05Z</time>
      </trkpt>
      <trkpt lat="46.66978" lon="-1.90355">
        <ele>5</ele>
        <time>2018-03-08T04:06:05Z</time>
      </trkpt>
      <trkpt lat="46.66977" lon="-1.90354">
        <ele>5</ele>
        <time>2018-03-08T04:07:05Z</time>
      </trkpt>
      <trkpt lat="46.66976" lon="-1.90353">
        <ele>5</ele>
        <time>2018-03-08T04:08:05Z</time>
      </trkpt>
      <trkpt lat="46.66975" lon="-1.90352">
        <ele>5</ele>
        <time>2018-03-08T04:09:05Z</time>
      </trkpt>
      <trkpt lat="46.66974" lon="-1.90351">
        <ele>5</ele>
        <time>2018-03-08T04:10:05Z</time>
      </trkpt>
      <trkpt lat="46.66973" lon="-1.9035">
        <ele>5</ele>
        <time>2018-03-08T04:11:05Z</time>
      </trkpt>
      <trkpt lat="46.66972" lon="-1.90349">
        <ele>5</ele>
        <time>2018-03-08T04:12:05Z</time>
      </trkpt>
      <trkpt lat="46.66971" lon="-1.90348">
        <ele>5</ele>
        <time>2018-03-08T04:13:05Z</time>
      </trkpt>
      <trkpt lat="46.6697" lon="-1.90346">
        <ele>5</ele>
        <time>2018-03-08T04:14:05Z</time>
      </trkpt>
      <trkpt lat="46.66969" lon="-1.90345">
        <ele>5</ele>
        <time>2018-03-08T04:15:05Z</time>
      </trkpt>
      <trkpt lat="46.66969" lon="-1.90343">
        <ele>5</ele>
        <time>2018-03-08T04:16:05Z</time>
      </trkpt>
      <trkpt lat="46.66968" lon="-1.90341">
        <ele>5</ele>
        <time>2018-03-08T04:17:05Z</time>
      </trkpt>
      <trkpt lat="46.66968" lon="-1.9034">
        <ele>5</ele>
        <time>2018-03-08T04:18:05Z</time>
      </trkpt>
      <trkpt lat="46.66967" lon="-1.90338">
        <ele>5</ele>
        <time>2018-03-08T04:19:05Z</time>
      </trkpt>
      <trkpt lat="46.66967" lon="-1.90335">
        <ele>5</ele>
        <time>2018-03-08T04:20:05Z</time>
      </trkpt>
      <trkpt lat="46.66967" lon="-1.90331">
        <ele>5</ele>
        <time>2018-03-08T04:21:05Z</time>
      </trkpt>
      <trkpt lat="46.66967" lon="-1.9033">
        <ele>5</ele>
        <time>2018-03-08T04:22:05Z</time>
      </trkpt>
      <trkpt lat="46.66967" lon="-1.90328">
        <ele>5</ele>
        <time>2018-03-08T04:23:05Z</time>
      </trkpt>
      <trkpt lat="46.66967" lon="-1.90326">
        <ele>5</ele>
        <time>2018-03-08T04:24:05Z</time>
      </trkpt>
      <trkpt lat="46.66968" lon="-1.90324">
        <ele>5</ele>
        <time>2018-03-08T04:25:05Z</time>
      </trkpt>
      <trkpt lat="46.66968" lon="-1.90323">
        <ele>5</ele>
        <time>2018-03-08T04:26:05Z</time>
      </trkpt>
      <trkpt lat="46.66968" lon="-1.90321">
        <ele>5</ele>
        <time>2018-03-08T04:27:05Z</time>
      </trkpt>
      <trkpt lat="46.66969" lon="-1.90319">
        <ele>5</ele>
        <time>2018-03-08T04:28:05Z</time>
      </trkpt>
      <trkpt lat="46.6697" lon="-1.90318">
        <ele>5</ele>
        <time>2018-03-08T04:29:05Z</time>
      </trkpt>
      <trkpt lat="46.6697" lon="-1.90316">
        <ele>5</ele>
        <time>2018-03-08T04:30:05Z</time>
      </trkpt>
      <trkpt lat="46.66971" lon="-1.90315">
        <ele>5</ele>
        <time>2018-03-08T04:31:05Z</time>
      </trkpt>
      <trkpt lat="46.66972" lon="-1.90314">
        <ele>5</ele>
        <time>2018-03-08T04:32:05Z</time>
      </trkpt>
      <trkpt lat="46.66973" lon="-1.90313">
        <ele>5</ele>
        <time>2018-03-08T04:33:05Z</time>
      </trkpt>
      <trkpt lat="46.66974" lon="-1.90312">
        <ele>5</ele>
        <time>2018-03-08T04:34:05Z</time>
      </trkpt>
      <trkpt lat="46.66975" lon="-1.90311">
        <ele>6</ele>
        <time>2018-03-08T04:35:05Z</time>
      </trkpt>
      <trkpt lat="46.66976" lon="-1.9031">
        <ele>6</ele>
        <time>2018-03-08T04:36:05Z</time>
      </trkpt>
      <trkpt lat="46.66976" lon="-1.90309">
        <ele>6</ele>
        <time>2018-03-08T04:37:05Z</time>
      </trkpt>
      <trkpt lat="46.66977" lon="-1.90309">
        <ele>6</ele>
        <time>2018-03-08T04:38:05Z</time>
      </trkpt>
      <trkpt lat="46.66978" lon="-1.90309">
        <ele>6</ele>
        <time>2018-03-08T04:39:05Z</time>
      </trkpt>
      <trkpt lat="46.66978" lon="-1.90308">
        <ele>6</ele>
        <time>2018-03-08T04:40:05Z</time>
      </trkpt>
      <trkpt lat="46.66981" lon="-1.903">
        <ele>6</ele>
        <time>2018-03-08T04:41:05Z</time>
      </trkpt>
      <trkpt lat="46.66985" lon="-1.90285">
        <ele>6</ele>
        <time>2018-03-08T04:42:05Z</time>
      </trkpt>
      <trkpt lat="46.66988" lon="-1.90274">
        <ele>6</ele>
        <time>2018-03-08T04:43:05Z</time>
      </trkpt>
      <trkpt lat="46.6699" lon="-1.90259">
        <ele>7</ele>
        <time>2018-03-08T04:44:05Z</time>
      </trkpt>
      <trkpt lat="46.66985" lon="-1.90224">
        <ele>7</ele>
        <time>2018-03-08T04:45:05Z</time>
      </trkpt>
      <trkpt lat="46.66981" lon="-1.90197">
        <ele>8</ele>
        <time>2018-03-08T04:46:05Z</time>
      </trkpt>
      <trkpt lat="46.66977" lon="-1.90166">
        <ele>8</ele>
        <time>2018-03-08T04:47:05Z</time>
      </trkpt>
      <trkpt lat="46.66972" lon="-1.9013">
        <ele>9</ele>
        <time>2018-03-08T04:48:05Z</time>
      </trkpt>
      <trkpt lat="46.66968" lon="-1.90096">
        <ele>9</ele>
        <time>2018-03-08T04:49:05Z</time>
      </trkpt>
      <trkpt lat="46.66964" lon="-1.9006">
        <ele>10</ele>
        <time>2018-03-08T04:50:05Z</time>
      </trkpt>
      <trkpt lat="46.66963" lon="-1.90055">
        <ele>10</ele>
        <time>2018-03-08T04:51:05Z</time>
      </trkpt>
      <trkpt lat="46.6696" lon="-1.90028">
        <ele>10</ele>
        <time>2018-03-08T04:52:05Z</time>
      </trkpt>
      <trkpt lat="46.66955" lon="-1.89998">
        <ele>10</ele>
        <time>2018-03-08T04:53:05Z</time>
      </trkpt>
      <trkpt lat="46.66951" lon="-1.8996">
        <ele>10</ele>
        <time>2018-03-08T04:54:05Z</time>
      </trkpt>
      <trkpt lat="46.66949" lon="-1.89948">
        <ele>11</ele>
        <time>2018-03-08T04:55:05Z</time>
      </trkpt>
      <trkpt lat="46.66944" lon="-1.89914">
        <ele>11</ele>
        <time>2018-03-08T04:56:05Z</time>
      </trkpt>
      <trkpt lat="46.6694" lon="-1.89885">
        <ele>11</ele>
        <time>2018-03-08T04:57:05Z</time>
      </trkpt>
      <trkpt lat="46.66938" lon="-1.89867">
        <ele>11</ele>
        <time>2018-03-08T04:58:05Z</time>
      </trkpt>
      <trkpt lat="46.66932" lon="-1.89826">
        <ele>11</ele>
        <time>2018-03-08T04:59:05Z</time>
      </trkpt>
      <trkpt lat="46.66931" lon="-1.8982">
        <ele>11</ele>
        <time>2018-03-08T05:00:05Z</time>
      </trkpt>
      <trkpt lat="46.66928" lon="-1.89797">
        <ele>11</ele>
        <time>2018-03-08T05:01:05Z</time>
      </trkpt>
      <trkpt lat="46.66928" lon="-1.89795">
        <ele>11</ele>
        <time>2018-03-08T05:02:05Z</time>
      </trkpt>
      <trkpt lat="46.66925" lon="-1.89768">
        <ele>11</ele>
        <time>2018-03-08T05:03:05Z</time>
      </trkpt>
      <trkpt lat="46.66922" lon="-1.89752">
        <ele>11</ele>
        <time>2018-03-08T05:04:05Z</time>
      </trkpt>
      <trkpt lat="46.6692" lon="-1.89738">
        <ele>11</ele>
        <time>2018-03-08T05:05:05Z</time>
      </trkpt>
      <trkpt lat="46.66917" lon="-1.89712">
        <ele>11</ele>
        <time>2018-03-08T05:06:05Z</time>
      </trkpt>
      <trkpt lat="46.66915" lon="-1.89697">
        <ele>12</ele>
        <time>2018-03-08T05:07:05Z</time>
      </trkpt>
      <trkpt lat="46.66911" lon="-1.89666">
        <ele>12</ele>
        <time>2018-03-08T05:08:05Z</time>
      </trkpt>
      <trkpt lat="46.66911" lon="-1.89664">
        <ele>12</ele>
        <time>2018-03-08T05:09:05Z</time>
      </trkpt>
      <trkpt lat="46.66904" lon="-1.89615">
        <ele>12</ele>
        <time>2018-03-08T05:10:05Z</time>
      </trkpt>
      <trkpt lat="46.66898" lon="-1.89575">
        <ele>13</ele>
        <time>2018-03-08T05:11:05Z</time>
      </trkpt>
      <trkpt lat="46.66897" lon="-1.89564">
        <ele>13</ele>
        <time>2018-03-08T05:12:05Z</time>
      </trkpt>
      <trkpt lat="46.66896" lon="-1.89555">
        <ele>12</ele>
        <time>2018-03-08T05:13:05Z</time>
      </trkpt>
      <trkpt lat="46.66894" lon="-1.89545">
        <ele>12</ele>
        <time>2018-03-08T05:14:05Z</time>
      </trkpt>
      <trkpt lat="46.66891" lon="-1.89517">
        <ele>12</ele>
        <time>2018-03-08T05:15:05Z</time>
      </trkpt>
      <trkpt lat="46.6689" lon="-1.89515">
        <ele>12</ele>
        <time>2018-03-08T05:16:05Z</time>
      </trkpt>
      <trkpt lat="46.66888" lon="-1.89499">
        <ele>12</ele>
        <time>2018-03-08T05:17:05Z</time>
      </trkpt>
      <trkpt lat="46.66887" lon="-1.89492">
        <ele>12</ele>
        <time>2018-03-08T05:18:05Z</time>
      </trkpt>
      <trkpt lat="46.66886" lon="-1.89484">
        <ele>12</ele>
        <time>2018-03-08T05:19:05Z</time>
      </trkpt>
      <trkpt lat="46.66886" lon="-1.89475">
        <ele>12</ele>
        <time>2018-03-08T05:20:05Z</time>
      </trkpt>
      <trkpt lat="46.66885" lon="-1.89467">
        <ele>12</ele>
        <time>2018-03-08T05:21:05Z</time>
      </trkpt>
      <trkpt lat="46.66885" lon="-1.8946">
        <ele>12</ele>
        <time>2018-03-08T05:22:05Z</time>
      </trkpt>
      <trkpt lat="46.66884" lon="-1.89451">
        <ele>12</ele>
        <time>2018-03-08T05:23:05Z</time>
      </trkpt>
      <trkpt lat="46.66884" lon="-1.89439">
        <ele>12</ele>
        <time>2018-03-08T05:24:05Z</time>
      </trkpt>
      <trkpt lat="46.66884" lon="-1.89421">
        <ele>12</ele>
        <time>2018-03-08T05:25:05Z</time>
      </trkpt>
      <trkpt lat="46.66885" lon="-1.89403">
        <ele>12</ele>
        <time>2018-03-08T05:26:05Z</time>
      </trkpt>
      <trkpt lat="46.66887" lon="-1.89385">
        <ele>12</ele>
        <time>2018-03-08T05:27:05Z</time>
      </trkpt>
      <trkpt lat="46.66889" lon="-1.89376">
        <ele>12</ele>
        <time>2018-03-08T05:28:05Z</time>
      </trkpt>
      <trkpt lat="46.66892" lon="-1.89362">
        <ele>12</ele>
        <time>2018-03-08T05:29:05Z</time>
      </trkpt>
      <trkpt lat="46.66896" lon="-1.89347">
        <ele>11</ele>
        <time>2018-03-08T05:30:05Z</time>
      </trkpt>
      <trkpt lat="46.66899" lon="-1.89335">
        <ele>11</ele>
        <time>2018-03-08T05:31:05Z</time>
      </trkpt>
      <trkpt lat="46.66901" lon="-1.89329">
        <ele>11</ele>
        <time>2018-03-08T05:32:05Z</time>
      </trkpt>
      <trkpt lat="46.66906" lon="-1.89314">
        <ele>11</ele>
        <time>2018-03-08T05:33:05Z</time>
      </trkpt>
      <trkpt lat="46.66909" lon="-1.89305">
        <ele>11</ele>
        <time>2018-03-08T05:34:05Z</time>
      </trkpt>
      <trkpt lat="46.66914" lon="-1.89286">
        <ele>11</ele>
        <time>2018-03-08T05:35:05Z</time>
      </trkpt>
      <trkpt lat="46.6691" lon="-1.89283">
        <ele>11</ele>
        <time>2018-03-08T05:36:05Z</time>
      </trkpt>
      <trkpt lat="46.66909" lon="-1.89278">
        <ele>11</ele>
        <time>2018-03-08T05:37:05Z</time>
      </trkpt>
      <trkpt lat="46.66909" lon="-1.89272">
        <ele>11</ele>
        <time>2018-03-08T05:38:05Z</time>
      </trkpt>
      <trkpt lat="46.66911" lon="-1.89267">
        <ele>11</ele>
        <time>2018-03-08T05:39:05Z</time>
      </trkpt>
      <trkpt lat="46.66914" lon="-1.89264">
        <ele>11</ele>
        <time>2018-03-08T05:40:05Z</time>
      </trkpt>
      <trkpt lat="46.66917" lon="-1.89263">
        <ele>11</ele>
        <time>2018-03-08T05:41:05Z</time>
      </trkpt>
      <trkpt lat="46.66919" lon="-1.89263">
        <ele>11</ele>
        <time>2018-03-08T05:42:05Z</time>
      </trkpt>
      <trkpt lat="46.66922" lon="-1.89264">
        <ele>11</ele>
        <time>2018-03-08T05:43:05Z</time>
      </trkpt>
      <trkpt lat="46.66926" lon="-1.89253">
        <ele>11</ele>
        <time>2018-03-08T05:44:05Z</time>
      </trkpt>
      <trkpt lat="46.66929" lon="-1.89245">
        <ele>11</ele>
        <time>2018-03-08T05:45:05Z</time>
      </trkpt>
      <trkpt lat="46.66941" lon="-1.89208">
        <ele>10</ele>
        <time>2018-03-08T05:46:05Z</time>
      </trkpt>
      <trkpt lat="46.66945" lon="-1.89198">
        <ele>10</ele>
        <time>2018-03-08T05:47:05Z</time>
      </trkpt>
      <trkpt lat="46.66954" lon="-1.89171">
        <ele>10</ele>
        <time>2018-03-08T05:48:05Z</time>
      </trkpt>
      <trkpt lat="46.66961" lon="-1.89149">
        <ele>10</ele>
        <time>2018-03-08T05:49:05Z</time>
      </trkpt>
      <trkpt lat="46.66969" lon="-1.89126">
        <ele>10</ele>
        <time>2018-03-08T05:50:05Z</time>
      </trkpt>
      <trkpt lat="46.66982" lon="-1.89082">
        <ele>9</ele>
        <time>2018-03-08T05:51:05Z</time>
      </trkpt>
      <trkpt lat="46.66985" lon="-1.89069">
        <ele>9</ele>
        <time>2018-03-08T05:52:05Z</time>
      </trkpt>
      <trkpt lat="46.66988" lon="-1.89056">
        <ele>8</ele>
        <time>2018-03-08T05:53:05Z</time>
      </trkpt>
      <trkpt lat="46.6699" lon="-1.89048">
        <ele>8</ele>
        <time>2018-03-08T05:54:05Z</time>
      </trkpt>
      <trkpt lat="46.66991" lon="-1.89041">
        <ele>8</ele>
        <time>2018-03-08T05:55:05Z</time>
      </trkpt>
      <trkpt lat="46.66993" lon="-1.89033">
        <ele>8</ele>
        <time>2018-03-08T05:56:05Z</time>
      </trkpt>
      <trkpt lat="46.66995" lon="-1.89024">
        <ele>8</ele>
        <time>2018-03-08T05:57:05Z</time>
      </trkpt>
      <trkpt lat="46.66998" lon="-1.8901">
        <ele>7</ele>
        <time>2018-03-08T05:58:05Z</time>
      </trkpt>
      <trkpt lat="46.67001" lon="-1.88998">
        <ele>7</ele>
        <time>2018-03-08T05:59:05Z</time>
      </trkpt>
      <trkpt lat="46.67003" lon="-1.88989">
        <ele>7</ele>
        <time>2018-03-08T06:00:05Z</time>
      </trkpt>
      <trkpt lat="46.67008" lon="-1.88964">
        <ele>7</ele>
        <time>2018-03-08T06:01:05Z</time>
      </trkpt>
      <trkpt lat="46.6701" lon="-1.88956">
        <ele>7</ele>
        <time>2018-03-08T06:02:05Z</time>
      </trkpt>
      <trkpt lat="46.67013" lon="-1.88939">
        <ele>8</ele>
        <time>2018-03-08T06:03:05Z</time>
      </trkpt>
      <trkpt lat="46.67016" lon="-1.88929">
        <ele>8</ele>
        <time>2018-03-08T06:04:05Z</time>
      </trkpt>
      <trkpt lat="46.67023" lon="-1.88898">
        <ele>8</ele>
        <time>2018-03-08T06:05:05Z</time>
      </trkpt>
      <trkpt lat="46.67029" lon="-1.88866">
        <ele>9</ele>
        <time>2018-03-08T06:06:05Z</time>
      </trkpt>
      <trkpt lat="46.67033" lon="-1.88851">
        <ele>10</ele>
        <time>2018-03-08T06:07:05Z</time>
      </trkpt>
      <trkpt lat="46.67039" lon="-1.88825">
        <ele>10</ele>
        <time>2018-03-08T06:08:05Z</time>
      </trkpt>
      <trkpt lat="46.67041" lon="-1.88816">
        <ele>10</ele>
        <time>2018-03-08T06:09:05Z</time>
      </trkpt>
      <trkpt lat="46.67047" lon="-1.88789">
        <ele>10</ele>
        <time>2018-03-08T06:10:05Z</time>
      </trkpt>
      <trkpt lat="46.67051" lon="-1.88769">
        <ele>11</ele>
        <time>2018-03-08T06:11:05Z</time>
      </trkpt>
      <trkpt lat="46.67056" lon="-1.88749">
        <ele>11</ele>
        <time>2018-03-08T06:12:05Z</time>
      </trkpt>
      <trkpt lat="46.67053" lon="-1.88747">
        <ele>11</ele>
        <time>2018-03-08T06:13:05Z</time>
      </trkpt>
      <trkpt lat="46.67051" lon="-1.88745">
        <ele>11</ele>
        <time>2018-03-08T06:14:05Z</time>
      </trkpt>
      <trkpt lat="46.6705" lon="-1.88741">
        <ele>11</ele>
        <time>2018-03-08T06:15:05Z</time>
      </trkpt>
      <trkpt lat="46.67049" lon="-1.88737">
        <ele>11</ele>
        <time>2018-03-08T06:16:05Z</time>
      </trkpt>
      <trkpt lat="46.67049" lon="-1.88732">
        <ele>11</ele>
        <time>2018-03-08T06:17:05Z</time>
      </trkpt>
      <trkpt lat="46.6705" lon="-1.88728">
        <ele>11</ele>
        <time>2018-03-08T06:18:05Z</time>
      </trkpt>
      <trkpt lat="46.67052" lon="-1.88726">
        <ele>11</ele>
        <time>2018-03-08T06:19:05Z</time>
      </trkpt>
      <trkpt lat="46.67054" lon="-1.88725">
        <ele>11</ele>
        <time>2018-03-08T06:20:05Z</time>
      </trkpt>
      <trkpt lat="46.67057" lon="-1.88724">
        <ele>11</ele>
        <time>2018-03-08T06:21:05Z</time>
      </trkpt>
      <trkpt lat="46.67061" lon="-1.88725">
        <ele>11</ele>
        <time>2018-03-08T06:22:05Z</time>
      </trkpt>
      <trkpt lat="46.67063" lon="-1.88716">
        <ele>11</ele>
        <time>2018-03-08T06:23:05Z</time>
      </trkpt>
      <trkpt lat="46.6708" lon="-1.88641">
        <ele>12</ele>
        <time>2018-03-08T06:24:05Z</time>
      </trkpt>
      <trkpt lat="46.67081" lon="-1.88634">
        <ele>12</ele>
        <time>2018-03-08T06:25:05Z</time>
      </trkpt>
      <trkpt lat="46.67091" lon="-1.8859">
        <ele>12</ele>
        <time>2018-03-08T06:26:05Z</time>
      </trkpt>
      <trkpt lat="46.67092" lon="-1.88586">
        <ele>12</ele>
        <time>2018-03-08T06:27:05Z</time>
      </trkpt>
      <trkpt lat="46.67103" lon="-1.88538">
        <ele>12</ele>
        <time>2018-03-08T06:28:05Z</time>
      </trkpt>
      <trkpt lat="46.67108" lon="-1.8852">
        <ele>12</ele>
        <time>2018-03-08T06:29:05Z</time>
      </trkpt>
      <trkpt lat="46.67113" lon="-1.88499">
        <ele>11</ele>
        <time>2018-03-08T06:30:05Z</time>
      </trkpt>
      <trkpt lat="46.6712" lon="-1.88468">
        <ele>11</ele>
        <time>2018-03-08T06:31:05Z</time>
      </trkpt>
      <trkpt lat="46.67128" lon="-1.88428">
        <ele>10</ele>
        <time>2018-03-08T06:32:05Z</time>
      </trkpt>
      <trkpt lat="46.67133" lon="-1.88408">
        <ele>10</ele>
        <time>2018-03-08T06:33:05Z</time>
      </trkpt>
      <trkpt lat="46.67135" lon="-1.88398">
        <ele>10</ele>
        <time>2018-03-08T06:34:05Z</time>
      </trkpt>
      <trkpt lat="46.67136" lon="-1.88388">
        <ele>10</ele>
        <time>2018-03-08T06:35:05Z</time>
      </trkpt>
      <trkpt lat="46.67138" lon="-1.88377">
        <ele>10</ele>
        <time>2018-03-08T06:36:05Z</time>
      </trkpt>
      <trkpt lat="46.67138" lon="-1.88369">
        <ele>9</ele>
        <time>2018-03-08T06:37:05Z</time>
      </trkpt>
      <trkpt lat="46.67139" lon="-1.88365">
        <ele>9</ele>
        <time>2018-03-08T06:38:05Z</time>
      </trkpt>
      <trkpt lat="46.67139" lon="-1.88356">
        <ele>9</ele>
        <time>2018-03-08T06:39:05Z</time>
      </trkpt>
      <trkpt lat="46.67139" lon="-1.88342">
        <ele>9</ele>
        <time>2018-03-08T06:40:05Z</time>
      </trkpt>
      <trkpt lat="46.67139" lon="-1.88336">
        <ele>9</ele>
        <time>2018-03-08T06:41:05Z</time>
      </trkpt>
      <trkpt lat="46.67139" lon="-1.8833">
        <ele>9</ele>
        <time>2018-03-08T06:42:05Z</time>
      </trkpt>
      <trkpt lat="46.67139" lon="-1.88324">
        <ele>9</ele>
        <time>2018-03-08T06:43:05Z</time>
      </trkpt>
      <trkpt lat="46.6714" lon="-1.88317">
        <ele>9</ele>
        <time>2018-03-08T06:44:05Z</time>
      </trkpt>
      <trkpt lat="46.67141" lon="-1.88306">
        <ele>9</ele>
        <time>2018-03-08T06:45:05Z</time>
      </trkpt>
      <trkpt lat="46.67141" lon="-1.88301">
        <ele>9</ele>
        <time>2018-03-08T06:46:05Z</time>
      </trkpt>
      <trkpt lat="46.67142" lon="-1.88295">
        <ele>9</ele>
        <time>2018-03-08T06:47:05Z</time>
      </trkpt>
      <trkpt lat="46.67143" lon="-1.88289">
        <ele>9</ele>
        <time>2018-03-08T06:48:05Z</time>
      </trkpt>
      <trkpt lat="46.67146" lon="-1.88277">
        <ele>8</ele>
        <time>2018-03-08T06:49:05Z</time>
      </trkpt>
      <trkpt lat="46.67148" lon="-1.8827">
        <ele>8</ele>
        <time>2018-03-08T06:50:05Z</time>
      </trkpt>
      <trkpt lat="46.67149" lon="-1.88266">
        <ele>8</ele>
        <time>2018-03-08T06:51:05Z</time>
      </trkpt>
      <trkpt lat="46.67152" lon="-1.88256">
        <ele>8</ele>
        <time>2018-03-08T06:52:05Z</time>
      </trkpt>
      <trkpt lat="46.67155" lon="-1.88246">
        <ele>8</ele>
        <time>2018-03-08T06:53:05Z</time>
      </trkpt>
      <trkpt lat="46.67156" lon="-1.88241">
        <ele>8</ele>
        <time>2018-03-08T06:54:05Z</time>
      </trkpt>
      <trkpt lat="46.67158" lon="-1.88235">
        <ele>8</ele>
        <time>2018-03-08T06:55:05Z</time>
      </trkpt>
      <trkpt lat="46.67159" lon="-1.8823">
        <ele>8</ele>
        <time>2018-03-08T06:56:05Z</time>
      </trkpt>
      <trkpt lat="46.67159" lon="-1.88229">
        <ele>8</ele>
        <time>2018-03-08T06:57:05Z</time>
      </trkpt>
      <trkpt lat="46.67162" lon="-1.8822">
        <ele>8</ele>
        <time>2018-03-08T06:58:05Z</time>
      </trkpt>
      <trkpt lat="46.67161" lon="-1.8822">
        <ele>8</ele>
        <time>2018-03-08T06:59:05Z</time>
      </trkpt>
      <trkpt lat="46.67161" lon="-1.88219">
        <ele>8</ele>
        <time>2018-03-08T07:00:05Z</time>
      </trkpt>
      <trkpt lat="46.6716" lon="-1.88219">
        <ele>8</ele>
        <time>2018-03-08T07:01:05Z</time>
      </trkpt>
      <trkpt lat="46.6716" lon="-1.88218">
        <ele>8</ele>
        <time>2018-03-08T07:02:05Z</time>
      </trkpt>
      <trkpt lat="46.67159" lon="-1.88218">
        <ele>8</ele>
        <time>2018-03-08T07:03:05Z</time>
      </trkpt>
      <trkpt lat="46.67159" lon="-1.88217">
        <ele>8</ele>
        <time>2018-03-08T07:04:05Z</time>
      </trkpt>
      <trkpt lat="46.67158" lon="-1.88216">
        <ele>8</ele>
        <time>2018-03-08T07:05:05Z</time>
      </trkpt>
      <trkpt lat="46.67158" lon="-1.88215">
        <ele>7</ele>
        <time>2018-03-08T07:06:05Z</time>
      </trkpt>
      <trkpt lat="46.67157" lon="-1.88215">
        <ele>7</ele>
        <time>2018-03-08T07:07:05Z</time>
      </trkpt>
      <trkpt lat="46.67157" lon="-1.88214">
        <ele>7</ele>
        <time>2018-03-08T07:08:05Z</time>
      </trkpt>
      <trkpt lat="46.67157" lon="-1.88213">
        <ele>7</ele>
        <time>2018-03-08T07:09:05Z</time>
      </trkpt>
      <trkpt lat="46.67157" lon="-1.88212">
        <ele>7</ele>
        <time>2018-03-08T07:10:05Z</time>
      </trkpt>
      <trkpt lat="46.67157" lon="-1.88211">
        <ele>7</ele>
        <time>2018-03-08T07:11:05Z</time>
      </trkpt>
      <trkpt lat="46.67156" lon="-1.8821">
        <ele>7</ele>
        <time>2018-03-08T07:12:05Z</time>
      </trkpt>
      <trkpt lat="46.67156" lon="-1.88209">
        <ele>7</ele>
        <time>2018-03-08T07:13:05Z</time>
      </trkpt>
      <trkpt lat="46.67156" lon="-1.88208">
        <ele>7</ele>
        <time>2018-03-08T07:14:05Z</time>
      </trkpt>
      <trkpt lat="46.67156" lon="-1.88207">
        <ele>7</ele>
        <time>2018-03-08T07:15:05Z</time>
      </trkpt>
      <trkpt lat="46.67156" lon="-1.88206">
        <ele>7</ele>
        <time>2018-03-08T07:16:05Z</time>
      </trkpt>
      <trkpt lat="46.67157" lon="-1.88205">
        <ele>7</ele>
        <time>2018-03-08T07:17:05Z</time>
      </trkpt>
      <trkpt lat="46.67157" lon="-1.88204">
        <ele>7</ele>
        <time>2018-03-08T07:18:05Z</time>
      </trkpt>
      <trkpt lat="46.67157" lon="-1.88203">
        <ele>7</ele>
        <time>2018-03-08T07:19:05Z</time>
      </trkpt>
      <trkpt lat="46.67157" lon="-1.88202">
        <ele>7</ele>
        <time>2018-03-08T07:20:05Z</time>
      </trkpt>
      <trkpt lat="46.67158" lon="-1.88201">
        <ele>7</ele>
        <time>2018-03-08T07:21:05Z</time>
      </trkpt>
      <trkpt lat="46.67158" lon="-1.882">
        <ele>7</ele>
        <time>2018-03-08T07:22:05Z</time>
      </trkpt>
      <trkpt lat="46.67159" lon="-1.88199">
        <ele>7</ele>
        <time>2018-03-08T07:23:05Z</time>
      </trkpt>
      <trkpt lat="46.67159" lon="-1.88198">
        <ele>7</ele>
        <time>2018-03-08T07:24:05Z</time>
      </trkpt>
      <trkpt lat="46.6716" lon="-1.88198">
        <ele>7</ele>
        <time>2018-03-08T07:25:05Z</time>
      </trkpt>
      <trkpt lat="46.6716" lon="-1.88197">
        <ele>7</ele>
        <time>2018-03-08T07:26:05Z</time>
      </trkpt>
      <trkpt lat="46.67161" lon="-1.88197">
        <ele>7</ele>
        <time>2018-03-08T07:27:05Z</time>
      </trkpt>
      <trkpt lat="46.67161" lon="-1.88196">
        <ele>7</ele>
        <time>2018-03-08T07:28:05Z</time>
      </trkpt>
      <trkpt lat="46.67162" lon="-1.88196">
        <ele>7</ele>
        <time>2018-03-08T07:29:05Z</time>
      </trkpt>
      <trkpt lat="46.67162" lon="-1.88195">
        <ele>7</ele>
        <time>2018-03-08T07:30:05Z</time>
      </trkpt>
      <trkpt lat="46.67163" lon="-1.88195">
        <ele>7</ele>
        <time>2018-03-08T07:31:05Z</time>
      </trkpt>
      <trkpt lat="46.67164" lon="-1.88195">
        <ele>7</ele>
        <time>2018-03-08T07:32:05Z</time>
      </trkpt>
      <trkpt lat="46.67165" lon="-1.88195">
        <ele>7</ele>
        <time>2018-03-08T07:33:05Z</time>
      </trkpt>
      <trkpt lat="46.67166" lon="-1.88195">
        <ele>7</ele>
        <time>2018-03-08T07:34:05Z</time>
      </trkpt>
      <trkpt lat="46.67167" lon="-1.88195">
        <ele>7</ele>
        <time>2018-03-08T07:35:05Z</time>
      </trkpt>
      <trkpt lat="46.67168" lon="-1.88195">
        <ele>7</ele>
        <time>2018-03-08T07:36:05Z</time>
      </trkpt>
      <trkpt lat="46.67172" lon="-1.88182">
        <ele>7</ele>
        <time>2018-03-08T07:37:05Z</time>
      </trkpt>
      <trkpt lat="46.67173" lon="-1.88176">
        <ele>7</ele>
        <time>2018-03-08T07:38:05Z</time>
      </trkpt>
      <trkpt lat="46.67174" lon="-1.8817">
        <ele>7</ele>
        <time>2018-03-08T07:39:05Z</time>
      </trkpt>
      <trkpt lat="46.67178" lon="-1.88145">
        <ele>8</ele>
        <time>2018-03-08T07:40:05Z</time>
      </trkpt>
      <trkpt lat="46.67183" lon="-1.88109">
        <ele>8</ele>
        <time>2018-03-08T07:41:05Z</time>
      </trkpt>
      <trkpt lat="46.67187" lon="-1.88081">
        <ele>9</ele>
        <time>2018-03-08T07:42:05Z</time>
      </trkpt>
      <trkpt lat="46.67193" lon="-1.88041">
        <ele>9</ele>
        <time>2018-03-08T07:43:05Z</time>
      </trkpt>
      <trkpt lat="46.67198" lon="-1.88006">
        <ele>10</ele>
        <time>2018-03-08T07:44:05Z</time>
      </trkpt>
      <trkpt lat="46.67202" lon="-1.87978">
        <ele>10</ele>
        <time>2018-03-08T07:45:05Z</time>
      </trkpt>
      <trkpt lat="46.67205" lon="-1.87955">
        <ele>10</ele>
        <time>2018-03-08T07:46:05Z</time>
      </trkpt>
      <trkpt lat="46.67208" lon="-1.87929">
        <ele>10</ele>
        <time>2018-03-08T07:47:05Z</time>
      </trkpt>
      <trkpt lat="46.67211" lon="-1.87909">
        <ele>10</ele>
        <time>2018-03-08T07:48:05Z</time>
      </trkpt>
      <trkpt lat="46.67213" lon="-1.87887">
        <ele>10</ele>
        <time>2018-03-08T07:49:05Z</time>
      </trkpt>
      <trkpt lat="46.67213" lon="-1.87872">
        <ele>10</ele>
        <time>2018-03-08T07:50:05Z</time>
      </trkpt>
      <trkpt lat="46.67213" lon="-1.87857">
        <ele>10</ele>
        <time>2018-03-08T07:51:05Z</time>
      </trkpt>
      <trkpt lat="46.67213" lon="-1.87839">
        <ele>10</ele>
        <time>2018-03-08T07:52:05Z</time>
      </trkpt>
      <trkpt lat="46.67213" lon="-1.87822">
        <ele>10</ele>
        <time>2018-03-08T07:53:05Z</time>
      </trkpt>
      <trkpt lat="46.67212" lon="-1.878">
        <ele>10</ele>
        <time>2018-03-08T07:54:05Z</time>
      </trkpt>
      <trkpt lat="46.67212" lon="-1.87783">
        <ele>10</ele>
        <time>2018-03-08T07:55:05Z</time>
      </trkpt>
      <trkpt lat="46.67212" lon="-1.87767">
        <ele>10</ele>
        <time>2018-03-08T07:56:05Z</time>
      </trkpt>
      <trkpt lat="46.67213" lon="-1.87744">
        <ele>10</ele>
        <time>2018-03-08T07:57:05Z</time>
      </trkpt>
      <trkpt lat="46.67214" lon="-1.87723">
        <ele>10</ele>
        <time>2018-03-08T07:58:05Z</time>
      </trkpt>
      <trkpt lat="46.67215" lon="-1.87698">
        <ele>11</ele>
        <time>2018-03-08T07:59:05Z</time>
      </trkpt>
      <trkpt lat="46.67217" lon="-1.87673">
        <ele>11</ele>
        <time>2018-03-08T08:00:05Z</time>
      </trkpt>
      <trkpt lat="46.67218" lon="-1.87652">
        <ele>11</ele>
        <time>2018-03-08T08:01:05Z</time>
      </trkpt>
      <trkpt lat="46.67219" lon="-1.87634">
        <ele>11</ele>
        <time>2018-03-08T08:02:05Z</time>
      </trkpt>
      <trkpt lat="46.67221" lon="-1.87616">
        <ele>11</ele>
        <time>2018-03-08T08:03:05Z</time>
      </trkpt>
      <trkpt lat="46.67224" lon="-1.87603">
        <ele>12</ele>
        <time>2018-03-08T08:04:05Z</time>
      </trkpt>
      <trkpt lat="46.67225" lon="-1.87591">
        <ele>12</ele>
        <time>2018-03-08T08:05:05Z</time>
      </trkpt>
      <trkpt lat="46.67226" lon="-1.8758">
        <ele>12</ele>
        <time>2018-03-08T08:06:05Z</time>
      </trkpt>
      <trkpt lat="46.6723" lon="-1.8755">
        <ele>12</ele>
        <time>2018-03-08T08:07:05Z</time>
      </trkpt>
      <trkpt lat="46.67232" lon="-1.87531">
        <ele>12</ele>
        <time>2018-03-08T08:08:05Z</time>
      </trkpt>
      <trkpt lat="46.67236" lon="-1.87498">
        <ele>12</ele>
        <time>2018-03-08T08:09:05Z</time>
      </trkpt>
      <trkpt lat="46.67243" lon="-1.87445">
        <ele>12</ele>
        <time>2018-03-08T08:10:05Z</time>
      </trkpt>
      <trkpt lat="46.67247" lon="-1.87411">
        <ele>12</ele>
        <time>2018-03-08T08:11:05Z</time>
      </trkpt>
      <trkpt lat="46.67247" lon="-1.87407">
        <ele>12</ele>
        <time>2018-03-08T08:12:05Z</time>
      </trkpt>
      <trkpt lat="46.6725" lon="-1.87377">
        <ele>12</ele>
        <time>2018-03-08T08:13:05Z</time>
      </trkpt>
      <trkpt lat="46.67251" lon="-1.87373">
        <ele>12</ele>
        <time>2018-03-08T08:14:05Z</time>
      </trkpt>
      <trkpt lat="46.67254" lon="-1.87333">
        <ele>11</ele>
        <time>2018-03-08T08:15:05Z</time>
      </trkpt>
      <trkpt lat="46.67256" lon="-1.87307">
        <ele>11</ele>
        <time>2018-03-08T08:16:05Z</time>
      </trkpt>
      <trkpt lat="46.6726" lon="-1.87256">
        <ele>10</ele>
        <time>2018-03-08T08:17:05Z</time>
      </trkpt>
      <trkpt lat="46.67261" lon="-1.87244">
        <ele>9</ele>
        <time>2018-03-08T08:18:05Z</time>
      </trkpt>
      <trkpt lat="46.67263" lon="-1.87218">
        <ele>9</ele>
        <time>2018-03-08T08:19:05Z</time>
      </trkpt>
      <trkpt lat="46.67264" lon="-1.87205">
        <ele>9</ele>
        <time>2018-03-08T08:20:05Z</time>
      </trkpt>
      <trkpt lat="46.67265" lon="-1.8718">
        <ele>8</ele>
        <time>2018-03-08T08:21:05Z</time>
      </trkpt>
      <trkpt lat="46.67267" lon="-1.87155">
        <ele>8</ele>
        <time>2018-03-08T08:22:05Z</time>
      </trkpt>
      <trkpt lat="46.67269" lon="-1.8713">
        <ele>9</ele>
        <time>2018-03-08T08:23:05Z</time>
      </trkpt>
      <trkpt lat="46.67272" lon="-1.87082">
        <ele>9</ele>
        <time>2018-03-08T08:24:05Z</time>
      </trkpt>
      <trkpt lat="46.67272" lon="-1.8707">
        <ele>9</ele>
        <time>2018-03-08T08:25:05Z</time>
      </trkpt>
      <trkpt lat="46.67273" lon="-1.87048">
        <ele>9</ele>
        <time>2018-03-08T08:26:05Z</time>
      </trkpt>
      <trkpt lat="46.67273" lon="-1.87028">
        <ele>8</ele>
        <time>2018-03-08T08:27:05Z</time>
      </trkpt>
      <trkpt lat="46.67271" lon="-1.87013">
        <ele>8</ele>
        <time>2018-03-08T08:28:05Z</time>
      </trkpt>
      <trkpt lat="46.67269" lon="-1.87004">
        <ele>7</ele>
        <time>2018-03-08T08:29:05Z</time>
      </trkpt>
      <trkpt lat="46.67267" lon="-1.86994">
        <ele>7</ele>
        <time>2018-03-08T08:30:05Z</time>
      </trkpt>
      <trkpt lat="46.67263" lon="-1.86983">
        <ele>6</ele>
        <time>2018-03-08T08:31:05Z</time>
      </trkpt>
      <trkpt lat="46.6726" lon="-1.86974">
        <ele>6</ele>
        <time>2018-03-08T08:32:05Z</time>
      </trkpt>
      <trkpt lat="46.67256" lon="-1.86965">
        <ele>5</ele>
        <time>2018-03-08T08:33:05Z</time>
      </trkpt>
      <trkpt lat="46.67251" lon="-1.86955">
        <ele>5</ele>
        <time>2018-03-08T08:34:05Z</time>
      </trkpt>
      <trkpt lat="46.67246" lon="-1.86946">
        <ele>5</ele>
        <time>2018-03-08T08:35:05Z</time>
      </trkpt>
      <trkpt lat="46.67228" lon="-1.8691">
        <ele>4</ele>
        <time>2018-03-08T08:36:05Z</time>
      </trkpt>
      <trkpt lat="46.67213" lon="-1.86883">
        <ele>3</ele>
        <time>2018-03-08T08:37:05Z</time>
      </trkpt>
      <trkpt lat="46.67209" lon="-1.86876">
        <ele>3</ele>
        <time>2018-03-08T08:38:05Z</time>
      </trkpt>
      <trkpt lat="46.67205" lon="-1.86869">
        <ele>3</ele>
        <time>2018-03-08T08:39:05Z</time>
      </trkpt>
      <trkpt lat="46.67202" lon="-1.86862">
        <ele>3</ele>
        <time>2018-03-08T08:40:05Z</time>
      </trkpt>
      <trkpt lat="46.67189" lon="-1.86841">
        <ele>3</ele>
        <time>2018-03-08T08:41:05Z</time>
      </trkpt>
      <trkpt lat="46.6718" lon="-1.86819">
        <ele>4</ele>
        <time>2018-03-08T08:42:05Z</time>
      </trkpt>
      <trkpt lat="46.67179" lon="-1.86815">
        <ele>4</ele>
        <time>2018-03-08T08:43:05Z</time>
      </trkpt>
      <trkpt lat="46.67177" lon="-1.86808">
        <ele>4</ele>
        <time>2018-03-08T08:44:05Z</time>
      </trkpt>
      <trkpt lat="46.67173" lon="-1.86797">
        <ele>4</ele>
        <time>2018-03-08T08:45:05Z</time>
      </trkpt>
      <trkpt lat="46.6717" lon="-1.86785">
        <ele>4</ele>
        <time>2018-03-08T08:46:05Z</time>
      </trkpt>
      <trkpt lat="46.67169" lon="-1.86772">
        <ele>5</ele>
        <time>2018-03-08T08:47:05Z</time>
      </trkpt>
      <trkpt lat="46.67167" lon="-1.86759">
        <ele>5</ele>
        <time>2018-03-08T08:48:05Z</time>
      </trkpt>
      <trkpt lat="46.67166" lon="-1.8675">
        <ele>5</ele>
        <time>2018-03-08T08:49:05Z</time>
      </trkpt>
      <trkpt lat="46.67166" lon="-1.86747">
        <ele>5</ele>
        <time>2018-03-08T08:50:05Z</time>
      </trkpt>
      <trkpt lat="46.67166" lon="-1.86732">
        <ele>6</ele>
        <time>2018-03-08T08:51:05Z</time>
      </trkpt>
      <trkpt lat="46.67166" lon="-1.86708">
        <ele>7</ele>
        <time>2018-03-08T08:52:05Z</time>
      </trkpt>
      <trkpt lat="46.67166" lon="-1.86704">
        <ele>7</ele>
        <time>2018-03-08T08:53:05Z</time>
      </trkpt>
      <trkpt lat="46.67166" lon="-1.86696">
        <ele>7</ele>
        <time>2018-03-08T08:54:05Z</time>
      </trkpt>
      <trkpt lat="46.67167" lon="-1.86684">
        <ele>7</ele>
        <time>2018-03-08T08:55:05Z</time>
      </trkpt>
      <trkpt lat="46.67168" lon="-1.86673">
        <ele>8</ele>
        <time>2018-03-08T08:56:05Z</time>
      </trkpt>
      <trkpt lat="46.67168" lon="-1.86671">
        <ele>8</ele>
        <time>2018-03-08T08:57:05Z</time>
      </trkpt>
      <trkpt lat="46.6717" lon="-1.86659">
        <ele>8</ele>
        <time>2018-03-08T08:58:05Z</time>
      </trkpt>
      <trkpt lat="46.67171" lon="-1.86648">
        <ele>8</ele>
        <time>2018-03-08T08:59:05Z</time>
      </trkpt>
      <trkpt lat="46.67172" lon="-1.86647">
        <ele>8</ele>
        <time>2018-03-08T09:00:05Z</time>
      </trkpt>
      <trkpt lat="46.67174" lon="-1.86635">
        <ele>8</ele>
        <time>2018-03-08T09:01:05Z</time>
      </trkpt>
      <trkpt lat="46.67176" lon="-1.86622">
        <ele>8</ele>
        <time>2018-03-08T09:02:05Z</time>
      </trkpt>
      <trkpt lat="46.67179" lon="-1.8661">
        <ele>8</ele>
        <time>2018-03-08T09:03:05Z</time>
      </trkpt>
      <trkpt lat="46.67183" lon="-1.86598">
        <ele>8</ele>
        <time>2018-03-08T09:04:05Z</time>
      </trkpt>
      <trkpt lat="46.6719" lon="-1.86574">
        <ele>8</ele>
        <time>2018-03-08T09:05:05Z</time>
      </trkpt>
      <trkpt lat="46.67196" lon="-1.86555">
        <ele>8</ele>
        <time>2018-03-08T09:06:05Z</time>
      </trkpt>
      <trkpt lat="46.67196" lon="-1.86553">
        <ele>8</ele>
        <time>2018-03-08T09:07:05Z</time>
      </trkpt>
      <trkpt lat="46.67202" lon="-1.86536">
        <ele>9</ele>
        <time>2018-03-08T09:08:05Z</time>
      </trkpt>
      <trkpt lat="46.67206" lon="-1.86523">
        <ele>9</ele>
        <time>2018-03-08T09:09:05Z</time>
      </trkpt>
      <trkpt lat="46.67214" lon="-1.86498">
        <ele>9</ele>
        <time>2018-03-08T09:10:05Z</time>
      </trkpt>
      <trkpt lat="46.67223" lon="-1.86467">
        <ele>10</ele>
        <time>2018-03-08T09:11:05Z</time>
      </trkpt>
      <trkpt lat="46.67229" lon="-1.86444">
        <ele>10</ele>
        <time>2018-03-08T09:12:05Z</time>
      </trkpt>
      <trkpt lat="46.67234" lon="-1.86421">
        <ele>10</ele>
        <time>2018-03-08T09:13:05Z</time>
      </trkpt>
      <trkpt lat="46.67235" lon="-1.86411">
        <ele>10</ele>
        <time>2018-03-08T09:14:05Z</time>
      </trkpt>
      <trkpt lat="46.67237" lon="-1.86399">
        <ele>10</ele>
        <time>2018-03-08T09:15:05Z</time>
      </trkpt>
      <trkpt lat="46.67241" lon="-1.8637">
        <ele>10</ele>
        <time>2018-03-08T09:16:05Z</time>
      </trkpt>
      <trkpt lat="46.67243" lon="-1.86336">
        <ele>10</ele>
        <time>2018-03-08T09:17:05Z</time>
      </trkpt>
      <trkpt lat="46.67245" lon="-1.863">
        <ele>10</ele>
        <time>2018-03-08T09:18:05Z</time>
      </trkpt>
      <trkpt lat="46.67246" lon="-1.86272">
        <ele>10</ele>
        <time>2018-03-08T09:19:05Z</time>
      </trkpt>
      <trkpt lat="46.67248" lon="-1.86257">
        <ele>10</ele>
        <time>2018-03-08T09:20:05Z</time>
      </trkpt>
      <trkpt lat="46.6725" lon="-1.86243">
        <ele>10</ele>
        <time>2018-03-08T09:21:05Z</time>
      </trkpt>
      <trkpt lat="46.67252" lon="-1.86237">
        <ele>11</ele>
        <time>2018-03-08T09:22:05Z</time>
      </trkpt>
      <trkpt lat="46.67255" lon="-1.86227">
        <ele>11</ele>
        <time>2018-03-08T09:23:05Z</time>
      </trkpt>
      <trkpt lat="46.67262" lon="-1.86208">
        <ele>11</ele>
        <time>2018-03-08T09:24:05Z</time>
      </trkpt>
      <trkpt lat="46.6727" lon="-1.86185">
        <ele>12</ele>
        <time>2018-03-08T09:25:05Z</time>
      </trkpt>
      <trkpt lat="46.67276" lon="-1.86168">
        <ele>12</ele>
        <time>2018-03-08T09:26:05Z</time>
      </trkpt>
      <trkpt lat="46.67277" lon="-1.86165">
        <ele>12</ele>
        <time>2018-03-08T09:27:05Z</time>
      </trkpt>
      <trkpt lat="46.67283" lon="-1.86141">
        <ele>12</ele>
        <time>2018-03-08T09:28:05Z</time>
      </trkpt>
      <trkpt lat="46.67288" lon="-1.8612">
        <ele>12</ele>
        <time>2018-03-08T09:29:05Z</time>
      </trkpt>
      <trkpt lat="46.67292" lon="-1.86098">
        <ele>12</ele>
        <time>2018-03-08T09:30:05Z</time>
      </trkpt>
      <trkpt lat="46.67295" lon="-1.86076">
        <ele>13</ele>
        <time>2018-03-08T09:31:05Z</time>
      </trkpt>
      <trkpt lat="46.67296" lon="-1.86068">
        <ele>13</ele>
        <time>2018-03-08T09:32:05Z</time>
      </trkpt>
      <trkpt lat="46.67298" lon="-1.86053">
        <ele>13</ele>
        <time>2018-03-08T09:33:05Z</time>
      </trkpt>
      <trkpt lat="46.673" lon="-1.86038">
        <ele>13</ele>
        <time>2018-03-08T09:34:05Z</time>
      </trkpt>
      <trkpt lat="46.67301" lon="-1.86022">
        <ele>14</ele>
        <time>2018-03-08T09:35:05Z</time>
      </trkpt>
      <trkpt lat="46.67305" lon="-1.85977">
        <ele>15</ele>
        <time>2018-03-08T09:36:05Z</time>
      </trkpt>
      <trkpt lat="46.67306" lon="-1.85959">
        <ele>15</ele>
        <time>2018-03-08T09:37:05Z</time>
      </trkpt>
      <trkpt lat="46.67306" lon="-1.8593">
        <ele>15</ele>
        <time>2018-03-08T09:38:05Z</time>
      </trkpt>
      <trkpt lat="46.67306" lon="-1.859">
        <ele>15</ele>
        <time>2018-03-08T09:39:05Z</time>
      </trkpt>
      <trkpt lat="46.67305" lon="-1.85869">
        <ele>16</ele>
        <time>2018-03-08T09:40:05Z</time>
      </trkpt>
      <trkpt lat="46.67304" lon="-1.8584">
        <ele>16</ele>
        <time>2018-03-08T09:41:05Z</time>
      </trkpt>
      <trkpt lat="46.67302" lon="-1.8581">
        <ele>16</ele>
        <time>2018-03-08T09:42:05Z</time>
      </trkpt>
      <trkpt lat="46.67299" lon="-1.85767">
        <ele>16</ele>
        <time>2018-03-08T09:43:05Z</time>
      </trkpt>
      <trkpt lat="46.67295" lon="-1.85721">
        <ele>15</ele>
        <time>2018-03-08T09:44:05Z</time>
      </trkpt>
      <trkpt lat="46.67291" lon="-1.85677">
        <ele>15</ele>
        <time>2018-03-08T09:45:05Z</time>
      </trkpt>
      <trkpt lat="46.67288" lon="-1.85647">
        <ele>15</ele>
        <time>2018-03-08T09:46:05Z</time>
      </trkpt>
      <trkpt lat="46.67285" lon="-1.85601">
        <ele>16</ele>
        <time>2018-03-08T09:47:05Z</time>
      </trkpt>
      <trkpt lat="46.67281" lon="-1.85556">
        <ele>17</ele>
        <time>2018-03-08T09:48:05Z</time>
      </trkpt>
      <trkpt lat="46.67279" lon="-1.85526">
        <ele>17</ele>
        <time>2018-03-08T09:49:05Z</time>
      </trkpt>
      <trkpt lat="46.67275" lon="-1.8548">
        <ele>18</ele>
        <time>2018-03-08T09:50:05Z</time>
      </trkpt>
      <trkpt lat="46.67271" lon="-1.85421">
        <ele>18</ele>
        <time>2018-03-08T09:51:05Z</time>
      </trkpt>
      <trkpt lat="46.67269" lon="-1.85388">
        <ele>19</ele>
        <time>2018-03-08T09:52:05Z</time>
      </trkpt>
      <trkpt lat="46.67266" lon="-1.85362">
        <ele>19</ele>
        <time>2018-03-08T09:53:05Z</time>
      </trkpt>
      <trkpt lat="46.67263" lon="-1.85339">
        <ele>20</ele>
        <time>2018-03-08T09:54:05Z</time>
      </trkpt>
      <trkpt lat="46.6726" lon="-1.85321">
        <ele>20</ele>
        <time>2018-03-08T09:55:05Z</time>
      </trkpt>
      <trkpt lat="46.67255" lon="-1.85296">
        <ele>19</ele>
        <time>2018-03-08T09:56:05Z</time>
      </trkpt>
      <trkpt lat="46.67248" lon="-1.85268">
        <ele>19</ele>
        <time>2018-03-08T09:57:05Z</time>
      </trkpt>
      <trkpt lat="46.67239" lon="-1.85237">
        <ele>19</ele>
        <time>2018-03-08T09:58:05Z</time>
      </trkpt>
      <trkpt lat="46.67224" lon="-1.85184">
        <ele>19</ele>
        <time>2018-03-08T09:59:05Z</time>
      </trkpt>
      <trkpt lat="46.67214" lon="-1.8515">
        <ele>19</ele>
        <time>2018-03-08T10:00:05Z</time>
      </trkpt>
      <trkpt lat="46.67201" lon="-1.85109">
        <ele>19</ele>
        <time>2018-03-08T10:01:05Z</time>
      </trkpt>
      <trkpt lat="46.6719" lon="-1.85073">
        <ele>19</ele>
        <time>2018-03-08T10:02:05Z</time>
      </trkpt>
      <trkpt lat="46.67185" lon="-1.85055">
        <ele>19</ele>
        <time>2018-03-08T10:03:05Z</time>
      </trkpt>
      <trkpt lat="46.67178" lon="-1.85027">
        <ele>19</ele>
        <time>2018-03-08T10:04:05Z</time>
      </trkpt>
      <trkpt lat="46.67175" lon="-1.85014">
        <ele>18</ele>
        <time>2018-03-08T10:05:05Z</time>
      </trkpt>
      <trkpt lat="46.67172" lon="-1.84999">
        <ele>18</ele>
        <time>2018-03-08T10:06:05Z</time>
      </trkpt>
      <trkpt lat="46.67168" lon="-1.84972">
        <ele>18</ele>
        <time>2018-03-08T10:07:05Z</time>
      </trkpt>
      <trkpt lat="46.67166" lon="-1.84956">
        <ele>18</ele>
        <time>2018-03-08T10:08:05Z</time>
      </trkpt>
      <trkpt lat="46.67165" lon="-1.84941">
        <ele>18</ele>
        <time>2018-03-08T10:09:05Z</time>
      </trkpt>
      <trkpt lat="46.67164" lon="-1.84926">
        <ele>18</ele>
        <time>2018-03-08T10:10:05Z</time>
      </trkpt>
      <trkpt lat="46.67164" lon="-1.84898">
        <ele>18</ele>
        <time>2018-03-08T10:11:05Z</time>
      </trkpt>
      <trkpt lat="46.67164" lon="-1.84883">
        <ele>18</ele>
        <time>2018-03-08T10:12:05Z</time>
      </trkpt>
      <trkpt lat="46.67165" lon="-1.84868">
        <ele>18</ele>
        <time>2018-03-08T10:13:05Z</time>
      </trkpt>
      <trkpt lat="46.67167" lon="-1.8484">
        <ele>18</ele>
        <time>2018-03-08T10:14:05Z</time>
      </trkpt>
      <trkpt lat="46.67171" lon="-1.84811">
        <ele>18</ele>
        <time>2018-03-08T10:15:05Z</time>
      </trkpt>
      <trkpt lat="46.67175" lon="-1.8478">
        <ele>19</ele>
        <time>2018-03-08T10:16:05Z</time>
      </trkpt>
      <trkpt lat="46.67175" lon="-1.84769">
        <ele>19</ele>
        <time>2018-03-08T10:17:05Z</time>
      </trkpt>
      <trkpt lat="46.67182" lon="-1.84714">
        <ele>20</ele>
        <time>2018-03-08T10:18:05Z</time>
      </trkpt>
      <trkpt lat="46.67191" lon="-1.84651">
        <ele>20</ele>
        <time>2018-03-08T10:19:05Z</time>
      </trkpt>
      <trkpt lat="46.67198" lon="-1.84599">
        <ele>20</ele>
        <time>2018-03-08T10:20:05Z</time>
      </trkpt>
      <trkpt lat="46.67205" lon="-1.84549">
        <ele>20</ele>
        <time>2018-03-08T10:21:05Z</time>
      </trkpt>
      <trkpt lat="46.67212" lon="-1.84497">
        <ele>21</ele>
        <time>2018-03-08T10:22:05Z</time>
      </trkpt>
      <trkpt lat="46.67219" lon="-1.84446">
        <ele>21</ele>
        <time>2018-03-08T10:23:05Z</time>
      </trkpt>
      <trkpt lat="46.67224" lon="-1.84411">
        <ele>21</ele>
        <time>2018-03-08T10:24:05Z</time>
      </trkpt>
      <trkpt lat="46.67226" lon="-1.84398">
        <ele>21</ele>
        <time>2018-03-08T10:25:05Z</time>
      </trkpt>
      <trkpt lat="46.6723" lon="-1.84361">
        <ele>21</ele>
        <time>2018-03-08T10:26:05Z</time>
      </trkpt>
      <trkpt lat="46.67237" lon="-1.84309">
        <ele>22</ele>
        <time>2018-03-08T10:27:05Z</time>
      </trkpt>
      <trkpt lat="46.67241" lon="-1.84276">
        <ele>22</ele>
        <time>2018-03-08T10:28:05Z</time>
      </trkpt>
      <trkpt lat="46.67245" lon="-1.84242">
        <ele>22</ele>
        <time>2018-03-08T10:29:05Z</time>
      </trkpt>
      <trkpt lat="46.67247" lon="-1.84225">
        <ele>21</ele>
        <time>2018-03-08T10:30:05Z</time>
      </trkpt>
      <trkpt lat="46.67248" lon="-1.84207">
        <ele>21</ele>
        <time>2018-03-08T10:31:05Z</time>
      </trkpt>
      <trkpt lat="46.6725" lon="-1.84185">
        <ele>20</ele>
        <time>2018-03-08T10:32:05Z</time>
      </trkpt>
      <trkpt lat="46.67251" lon="-1.84138">
        <ele>20</ele>
        <time>2018-03-08T10:33:05Z</time>
      </trkpt>
      <trkpt lat="46.67252" lon="-1.84121">
        <ele>20</ele>
        <time>2018-03-08T10:34:05Z</time>
      </trkpt>
      <trkpt lat="46.67254" lon="-1.84058">
        <ele>21</ele>
        <time>2018-03-08T10:35:05Z</time>
      </trkpt>
      <trkpt lat="46.67256" lon="-1.83985">
        <ele>22</ele>
        <time>2018-03-08T10:36:05Z</time>
      </trkpt>
      <trkpt lat="46.67257" lon="-1.83925">
        <ele>23</ele>
        <time>2018-03-08T10:37:05Z</time>
      </trkpt>
      <trkpt lat="46.67257" lon="-1.83897">
        <ele>23</ele>
        <time>2018-03-08T10:38:05Z</time>
      </trkpt>
      <trkpt lat="46.67256" lon="-1.83874">
        <ele>23</ele>
        <time>2018-03-08T10:39:05Z</time>
      </trkpt>
      <trkpt lat="46.67254" lon="-1.83845">
        <ele>23</ele>
        <time>2018-03-08T10:40:05Z</time>
      </trkpt>
      <trkpt lat="46.67252" lon="-1.83824">
        <ele>23</ele>
        <time>2018-03-08T10:41:05Z</time>
      </trkpt>
      <trkpt lat="46.67252" lon="-1.8382">
        <ele>23</ele>
        <time>2018-03-08T10:42:05Z</time>
      </trkpt>
      <trkpt lat="46.67251" lon="-1.83814">
        <ele>23</ele>
        <time>2018-03-08T10:43:05Z</time>
      </trkpt>
      <trkpt lat="46.67246" lon="-1.83765">
        <ele>23</ele>
        <time>2018-03-08T10:44:05Z</time>
      </trkpt>
      <trkpt lat="46.67241" lon="-1.83718">
        <ele>22</ele>
        <time>2018-03-08T10:45:05Z</time>
      </trkpt>
      <trkpt lat="46.67236" lon="-1.83657">
        <ele>21</ele>
        <time>2018-03-08T10:46:05Z</time>
      </trkpt>
      <trkpt lat="46.67229" lon="-1.83588">
        <ele>20</ele>
        <time>2018-03-08T10:47:05Z</time>
      </trkpt>
      <trkpt lat="46.67226" lon="-1.83557">
        <ele>20</ele>
        <time>2018-03-08T10:48:05Z</time>
      </trkpt>
      <trkpt lat="46.67223" lon="-1.8354">
        <ele>20</ele>
        <time>2018-03-08T10:49:05Z</time>
      </trkpt>
      <trkpt lat="46.67218" lon="-1.83519">
        <ele>20</ele>
        <time>2018-03-08T10:50:05Z</time>
      </trkpt>
      <trkpt lat="46.67214" lon="-1.83501">
        <ele>21</ele>
        <time>2018-03-08T10:51:05Z</time>
      </trkpt>
      <trkpt lat="46.67207" lon="-1.83477">
        <ele>21</ele>
        <time>2018-03-08T10:52:05Z</time>
      </trkpt>
      <trkpt lat="46.67201" lon="-1.83461">
        <ele>21</ele>
        <time>2018-03-08T10:53:05Z</time>
      </trkpt>
      <trkpt lat="46.67196" lon="-1.83446">
        <ele>21</ele>
        <time>2018-03-08T10:54:05Z</time>
      </trkpt>
      <trkpt lat="46.67186" lon="-1.83413">
        <ele>21</ele>
        <time>2018-03-08T10:55:05Z</time>
      </trkpt>
      <trkpt lat="46.67174" lon="-1.83374">
        <ele>22</ele>
        <time>2018-03-08T10:56:05Z</time>
      </trkpt>
      <trkpt lat="46.6716" lon="-1.83332">
        <ele>23</ele>
        <time>2018-03-08T10:57:05Z</time>
      </trkpt>
      <trkpt lat="46.67147" lon="-1.83295">
        <ele>22</ele>
        <time>2018-03-08T10:58:05Z</time>
      </trkpt>
      <trkpt lat="46.67135" lon="-1.83267">
        <ele>22</ele>
        <time>2018-03-08T10:59:05Z</time>
      </trkpt>
      <trkpt lat="46.6712" lon="-1.8323">
        <ele>22</ele>
        <time>2018-03-08T11:00:05Z</time>
      </trkpt>
      <trkpt lat="46.67104" lon="-1.83196">
        <ele>21</ele>
        <time>2018-03-08T11:01:05Z</time>
      </trkpt>
      <trkpt lat="46.67088" lon="-1.83161">
        <ele>21</ele>
        <time>2018-03-08T11:02:05Z</time>
      </trkpt>
      <trkpt lat="46.67068" lon="-1.83121">
        <ele>20</ele>
        <time>2018-03-08T11:03:05Z</time>
      </trkpt>
      <trkpt lat="46.67064" lon="-1.83112">
        <ele>20</ele>
        <time>2018-03-08T11:04:05Z</time>
      </trkpt>
      <trkpt lat="46.67063" lon="-1.83109">
        <ele>20</ele>
        <time>2018-03-08T11:05:05Z</time>
      </trkpt>
      <trkpt lat="46.67051" lon="-1.83086">
        <ele>19</ele>
        <time>2018-03-08T11:06:05Z</time>
      </trkpt>
      <trkpt lat="46.6704" lon="-1.83062">
        <ele>19</ele>
        <time>2018-03-08T11:07:05Z</time>
      </trkpt>
      <trkpt lat="46.67035" lon="-1.8305">
        <ele>18</ele>
        <time>2018-03-08T11:08:05Z</time>
      </trkpt>
      <trkpt lat="46.6703" lon="-1.83036">
        <ele>18</ele>
        <time>2018-03-08T11:09:05Z</time>
      </trkpt>
      <trkpt lat="46.67022" lon="-1.8301">
        <ele>18</ele>
        <time>2018-03-08T11:10:05Z</time>
      </trkpt>
      <trkpt lat="46.67014" lon="-1.82981">
        <ele>18</ele>
        <time>2018-03-08T11:11:05Z</time>
      </trkpt>
      <trkpt lat="46.67012" lon="-1.82975">
        <ele>18</ele>
        <time>2018-03-08T11:12:05Z</time>
      </trkpt>
      <trkpt lat="46.67012" lon="-1.82973">
        <ele>18</ele>
        <time>2018-03-08T11:13:05Z</time>
      </trkpt>
      <trkpt lat="46.67007" lon="-1.82957">
        <ele>18</ele>
        <time>2018-03-08T11:14:05Z</time>
      </trkpt>
      <trkpt lat="46.67005" lon="-1.82947">
        <ele>18</ele>
        <time>2018-03-08T11:15:05Z</time>
      </trkpt>
      <trkpt lat="46.67001" lon="-1.8293">
        <ele>18</ele>
        <time>2018-03-08T11:16:05Z</time>
      </trkpt>
      <trkpt lat="46.66997" lon="-1.82913">
        <ele>18</ele>
        <time>2018-03-08T11:17:05Z</time>
      </trkpt>
      <trkpt lat="46.66996" lon="-1.82904">
        <ele>18</ele>
        <time>2018-03-08T11:18:05Z</time>
      </trkpt>
      <trkpt lat="46.66995" lon="-1.82892">
        <ele>18</ele>
        <time>2018-03-08T11:19:05Z</time>
      </trkpt>
      <trkpt lat="46.66995" lon="-1.82876">
        <ele>18</ele>
        <time>2018-03-08T11:20:05Z</time>
      </trkpt>
      <trkpt lat="46.66995" lon="-1.82867">
        <ele>18</ele>
        <time>2018-03-08T11:21:05Z</time>
      </trkpt>
      <trkpt lat="46.66995" lon="-1.8286">
        <ele>18</ele>
        <time>2018-03-08T11:22:05Z</time>
      </trkpt>
      <trkpt lat="46.66995" lon="-1.82856">
        <ele>18</ele>
        <time>2018-03-08T11:23:05Z</time>
      </trkpt>
      <trkpt lat="46.66996" lon="-1.8285">
        <ele>18</ele>
        <time>2018-03-08T11:24:05Z</time>
      </trkpt>
      <trkpt lat="46.66997" lon="-1.82846">
        <ele>18</ele>
        <time>2018-03-08T11:25:05Z</time>
      </trkpt>
      <trkpt lat="46.67002" lon="-1.82833">
        <ele>18</ele>
        <time>2018-03-08T11:26:05Z</time>
      </trkpt>
      <trkpt lat="46.6701" lon="-1.82811">
        <ele>18</ele>
        <time>2018-03-08T11:27:05Z</time>
      </trkpt>
      <trkpt lat="46.67016" lon="-1.82794">
        <ele>18</ele>
        <time>2018-03-08T11:28:05Z</time>
      </trkpt>
      <trkpt lat="46.67021" lon="-1.82782">
        <ele>18</ele>
        <time>2018-03-08T11:29:05Z</time>
      </trkpt>
      <trkpt lat="46.67025" lon="-1.82771">
        <ele>18</ele>
        <time>2018-03-08T11:30:05Z</time>
      </trkpt>
      <trkpt lat="46.67029" lon="-1.82759">
        <ele>18</ele>
        <time>2018-03-08T11:31:05Z</time>
      </trkpt>
      <trkpt lat="46.67034" lon="-1.8274">
        <ele>19</ele>
        <time>2018-03-08T11:32:05Z</time>
      </trkpt>
      <trkpt lat="46.67039" lon="-1.82724">
        <ele>20</ele>
        <time>2018-03-08T11:33:05Z</time>
      </trkpt>
      <trkpt lat="46.67042" lon="-1.82709">
        <ele>20</ele>
        <time>2018-03-08T11:34:05Z</time>
      </trkpt>
      <trkpt lat="46.67043" lon="-1.82709">
        <ele>21</ele>
        <time>2018-03-08T11:35:05Z</time>
      </trkpt>
      <trkpt lat="46.67045" lon="-1.82699">
        <ele>21</ele>
        <time>2018-03-08T11:36:05Z</time>
      </trkpt>
      <trkpt lat="46.67045" lon="-1.82694">
        <ele>21</ele>
        <time>2018-03-08T11:37:05Z</time>
      </trkpt>
      <trkpt lat="46.67045" lon="-1.82694">
        <ele>21</ele>
        <time>2018-03-08T11:38:05Z</time>
      </trkpt>
      <trkpt lat="46.67045" lon="-1.82687">
        <ele>22</ele>
        <time>2018-03-08T11:39:05Z</time>
      </trkpt>
      <trkpt lat="46.67048" lon="-1.82684">
        <ele>22</ele>
        <time>2018-03-08T11:40:05Z</time>
      </trkpt>
      <trkpt lat="46.67059" lon="-1.82675">
        <ele>22</ele>
        <time>2018-03-08T11:41:05Z</time>
      </trkpt>
      <trkpt lat="46.67059" lon="-1.82675">
        <ele>22</ele>
        <time>2018-03-08T11:42:05Z</time>
      </trkpt>
      <trkpt lat="46.6706" lon="-1.82674">
        <ele>22</ele>
        <time>2018-03-08T11:43:05Z</time>
      </trkpt>
      <trkpt lat="46.6706" lon="-1.82673">
        <ele>22</ele>
        <time>2018-03-08T11:44:05Z</time>
      </trkpt>
      <trkpt lat="46.6706" lon="-1.82672">
        <ele>22</ele>
        <time>2018-03-08T11:45:05Z</time>
      </trkpt>
      <trkpt lat="46.6706" lon="-1.82671">
        <ele>23</ele>
        <time>2018-03-08T11:46:05Z</time>
      </trkpt>
      <trkpt lat="46.67061" lon="-1.8267">
        <ele>23</ele>
        <time>2018-03-08T11:47:05Z</time>
      </trkpt>
      <trkpt lat="46.67061" lon="-1.82669">
        <ele>23</ele>
        <time>2018-03-08T11:48:05Z</time>
      </trkpt>
      <trkpt lat="46.67061" lon="-1.82668">
        <ele>23</ele>
        <time>2018-03-08T11:49:05Z</time>
      </trkpt>
      <trkpt lat="46.67062" lon="-1.82667">
        <ele>23</ele>
        <time>2018-03-08T11:50:05Z</time>
      </trkpt>
      <trkpt lat="46.67063" lon="-1.82666">
        <ele>23</ele>
        <time>2018-03-08T11:51:05Z</time>
      </trkpt>
      <trkpt lat="46.67063" lon="-1.82665">
        <ele>23</ele>
        <time>2018-03-08T11:52:05Z</time>
      </trkpt>
      <trkpt lat="46.67064" lon="-1.82665">
        <ele>23</ele>
        <time>2018-03-08T11:53:05Z</time>
      </trkpt>
      <trkpt lat="46.67064" lon="-1.82664">
        <ele>23</ele>
        <time>2018-03-08T11:54:05Z</time>
      </trkpt>
      <trkpt lat="46.67065" lon="-1.82663">
        <ele>23</ele>
        <time>2018-03-08T11:55:05Z</time>
      </trkpt>
      <trkpt lat="46.67066" lon="-1.82663">
        <ele>23</ele>
        <time>2018-03-08T11:56:05Z</time>
      </trkpt>
      <trkpt lat="46.67067" lon="-1.82662">
        <ele>23</ele>
        <time>2018-03-08T11:57:05Z</time>
      </trkpt>
      <trkpt lat="46.67068" lon="-1.82662">
        <ele>23</ele>
        <time>2018-03-08T11:58:05Z</time>
      </trkpt>
      <trkpt lat="46.67069" lon="-1.82662">
        <ele>23</ele>
        <time>2018-03-08T11:59:05Z</time>
      </trkpt>
      <trkpt lat="46.67069" lon="-1.82661">
        <ele>23</ele>
        <time>2018-03-08T12:00:05Z</time>
      </trkpt>
      <trkpt lat="46.6707" lon="-1.82661">
        <ele>23</ele>
        <time>2018-03-08T12:01:05Z</time>
      </trkpt>
      <trkpt lat="46.67074" lon="-1.82649">
        <ele>24</ele>
        <time>2018-03-08T12:02:05Z</time>
      </trkpt>
      <trkpt lat="46.67077" lon="-1.82641">
        <ele>24</ele>
        <time>2018-03-08T12:03:05Z</time>
      </trkpt>
      <trkpt lat="46.67078" lon="-1.82634">
        <ele>25</ele>
        <time>2018-03-08T12:04:05Z</time>
      </trkpt>
      <trkpt lat="46.67079" lon="-1.82617">
        <ele>25</ele>
        <time>2018-03-08T12:05:05Z</time>
      </trkpt>
      <trkpt lat="46.6708" lon="-1.82612">
        <ele>26</ele>
        <time>2018-03-08T12:06:05Z</time>
      </trkpt>
      <trkpt lat="46.6708" lon="-1.82607">
        <ele>26</ele>
        <time>2018-03-08T12:07:05Z</time>
      </trkpt>
      <trkpt lat="46.67082" lon="-1.82601">
        <ele>26</ele>
        <time>2018-03-08T12:08:05Z</time>
      </trkpt>
      <trkpt lat="46.67084" lon="-1.82595">
        <ele>26</ele>
        <time>2018-03-08T12:09:05Z</time>
      </trkpt>
      <trkpt lat="46.67086" lon="-1.82589">
        <ele>27</ele>
        <time>2018-03-08T12:10:05Z</time>
      </trkpt>
      <trkpt lat="46.67088" lon="-1.82583">
        <ele>27</ele>
        <time>2018-03-08T12:11:05Z</time>
      </trkpt>
      <trkpt lat="46.67092" lon="-1.82577">
        <ele>27</ele>
        <time>2018-03-08T12:12:05Z</time>
      </trkpt>
      <trkpt lat="46.67098" lon="-1.82565">
        <ele>28</ele>
        <time>2018-03-08T12:13:05Z</time>
      </trkpt>
      <trkpt lat="46.67106" lon="-1.82553">
        <ele>29</ele>
        <time>2018-03-08T12:14:05Z</time>
      </trkpt>
      <trkpt lat="46.67113" lon="-1.82541">
        <ele>29</ele>
        <time>2018-03-08T12:15:05Z</time>
      </trkpt>
      <trkpt lat="46.67128" lon="-1.82518">
        <ele>30</ele>
        <time>2018-03-08T12:16:05Z</time>
      </trkpt>
      <trkpt lat="46.67136" lon="-1.82506">
        <ele>31</ele>
        <time>2018-03-08T12:17:05Z</time>
      </trkpt>
      <trkpt lat="46.67143" lon="-1.82493">
        <ele>31</ele>
        <time>2018-03-08T12:18:05Z</time>
      </trkpt>
      <trkpt lat="46.67149" lon="-1.8248">
        <ele>31</ele>
        <time>2018-03-08T12:19:05Z</time>
      </trkpt>
      <trkpt lat="46.67158" lon="-1.82461">
        <ele>31</ele>
        <time>2018-03-08T12:20:05Z</time>
      </trkpt>
      <trkpt lat="46.67172" lon="-1.82433">
        <ele>31</ele>
        <time>2018-03-08T12:21:05Z</time>
      </trkpt>
      <trkpt lat="46.67192" lon="-1.8239">
        <ele>32</ele>
        <time>2018-03-08T12:22:05Z</time>
      </trkpt>
      <trkpt lat="46.67207" lon="-1.82355">
        <ele>32</ele>
        <time>2018-03-08T12:23:05Z</time>
      </trkpt>
      <trkpt lat="46.67223" lon="-1.82319">
        <ele>32</ele>
        <time>2018-03-08T12:24:05Z</time>
      </trkpt>
      <trkpt lat="46.67229" lon="-1.82304">
        <ele>32</ele>
        <time>2018-03-08T12:25:05Z</time>
      </trkpt>
      <trkpt lat="46.67235" lon="-1.82289">
        <ele>32</ele>
        <time>2018-03-08T12:26:05Z</time>
      </trkpt>
      <trkpt lat="46.67245" lon="-1.82267">
        <ele>32</ele>
        <time>2018-03-08T12:27:05Z</time>
      </trkpt>
      <trkpt lat="46.67251" lon="-1.82252">
        <ele>32</ele>
        <time>2018-03-08T12:28:05Z</time>
      </trkpt>
      <trkpt lat="46.67261" lon="-1.8223">
        <ele>32</ele>
        <time>2018-03-08T12:29:05Z</time>
      </trkpt>
      <trkpt lat="46.6727" lon="-1.82207">
        <ele>32</ele>
        <time>2018-03-08T12:30:05Z</time>
      </trkpt>
      <trkpt lat="46.6728" lon="-1.82178">
        <ele>32</ele>
        <time>2018-03-08T12:31:05Z</time>
      </trkpt>
      <trkpt lat="46.67285" lon="-1.82162">
        <ele>32</ele>
        <time>2018-03-08T12:32:05Z</time>
      </trkpt>
      <trkpt lat="46.6729" lon="-1.82148">
        <ele>32</ele>
        <time>2018-03-08T12:33:05Z</time>
      </trkpt>
      <trkpt lat="46.67305" lon="-1.82105">
        <ele>32</ele>
        <time>2018-03-08T12:34:05Z</time>
      </trkpt>
      <trkpt lat="46.6731" lon="-1.8209">
        <ele>32</ele>
        <time>2018-03-08T12:35:05Z</time>
      </trkpt>
      <trkpt lat="46.67317" lon="-1.82062">
        <ele>33</ele>
        <time>2018-03-08T12:36:05Z</time>
      </trkpt>
      <trkpt lat="46.67327" lon="-1.82026">
        <ele>33</ele>
        <time>2018-03-08T12:37:05Z</time>
      </trkpt>
      <trkpt lat="46.6733" lon="-1.82015">
        <ele>33</ele>
        <time>2018-03-08T12:38:05Z</time>
      </trkpt>
      <trkpt lat="46.67337" lon="-1.81992">
        <ele>33</ele>
        <time>2018-03-08T12:39:05Z</time>
      </trkpt>
      <trkpt lat="46.67347" lon="-1.8196">
        <ele>33</ele>
        <time>2018-03-08T12:40:05Z</time>
      </trkpt>
      <trkpt lat="46.67353" lon="-1.81943">
        <ele>33</ele>
        <time>2018-03-08T12:41:05Z</time>
      </trkpt>
      <trkpt lat="46.67364" lon="-1.81917">
        <ele>32</ele>
        <time>2018-03-08T12:42:05Z</time>
      </trkpt>
      <trkpt lat="46.67373" lon="-1.81897">
        <ele>32</ele>
        <time>2018-03-08T12:43:05Z</time>
      </trkpt>
      <trkpt lat="46.67386" lon="-1.81865">
        <ele>32</ele>
        <time>2018-03-08T12:44:05Z</time>
      </trkpt>
      <trkpt lat="46.67391" lon="-1.81851">
        <ele>32</ele>
        <time>2018-03-08T12:45:05Z</time>
      </trkpt>
      <trkpt lat="46.67395" lon="-1.81838">
        <ele>32</ele>
        <time>2018-03-08T12:46:05Z</time>
      </trkpt>
      <trkpt lat="46.67399" lon="-1.81824">
        <ele>32</ele>
        <time>2018-03-08T12:47:05Z</time>
      </trkpt>
      <trkpt lat="46.67402" lon="-1.81808">
        <ele>32</ele>
        <time>2018-03-08T12:48:05Z</time>
      </trkpt>
      <trkpt lat="46.67406" lon="-1.81783">
        <ele>32</ele>
        <time>2018-03-08T12:49:05Z</time>
      </trkpt>
      <trkpt lat="46.6741" lon="-1.8174">
        <ele>32</ele>
        <time>2018-03-08T12:50:05Z</time>
      </trkpt>
      <trkpt lat="46.67414" lon="-1.81695">
        <ele>32</ele>
        <time>2018-03-08T12:51:05Z</time>
      </trkpt>
      <trkpt lat="46.67416" lon="-1.81674">
        <ele>32</ele>
        <time>2018-03-08T12:52:05Z</time>
      </trkpt>
      <trkpt lat="46.67418" lon="-1.81652">
        <ele>32</ele>
        <time>2018-03-08T12:53:05Z</time>
      </trkpt>
      <trkpt lat="46.67422" lon="-1.81623">
        <ele>32</ele>
        <time>2018-03-08T12:54:05Z</time>
      </trkpt>
      <trkpt lat="46.67426" lon="-1.81595">
        <ele>32</ele>
        <time>2018-03-08T12:55:05Z</time>
      </trkpt>
      <trkpt lat="46.67432" lon="-1.81568">
        <ele>33</ele>
        <time>2018-03-08T12:56:05Z</time>
      </trkpt>
      <trkpt lat="46.67442" lon="-1.81528">
        <ele>34</ele>
        <time>2018-03-08T12:57:05Z</time>
      </trkpt>
      <trkpt lat="46.67449" lon="-1.81501">
        <ele>35</ele>
        <time>2018-03-08T12:58:05Z</time>
      </trkpt>
      <trkpt lat="46.67457" lon="-1.81468">
        <ele>35</ele>
        <time>2018-03-08T12:59:05Z</time>
      </trkpt>
      <trkpt lat="46.67465" lon="-1.81438">
        <ele>35</ele>
        <time>2018-03-08T13:00:05Z</time>
      </trkpt>
      <trkpt lat="46.67471" lon="-1.8142">
        <ele>35</ele>
        <time>2018-03-08T13:01:05Z</time>
      </trkpt>
      <trkpt lat="46.67481" lon="-1.81393">
        <ele>35</ele>
        <time>2018-03-08T13:02:05Z</time>
      </trkpt>
      <trkpt lat="46.67488" lon="-1.8137">
        <ele>35</ele>
        <time>2018-03-08T13:03:05Z</time>
      </trkpt>
      <trkpt lat="46.67493" lon="-1.81347">
        <ele>35</ele>
        <time>2018-03-08T13:04:05Z</time>
      </trkpt>
      <trkpt lat="46.67498" lon="-1.81323">
        <ele>35</ele>
        <time>2018-03-08T13:05:05Z</time>
      </trkpt>
      <trkpt lat="46.67501" lon="-1.81301">
        <ele>35</ele>
        <time>2018-03-08T13:06:05Z</time>
      </trkpt>
      <trkpt lat="46.67503" lon="-1.81276">
        <ele>36</ele>
        <time>2018-03-08T13:07:05Z</time>
      </trkpt>
      <trkpt lat="46.67504" lon="-1.81254">
        <ele>36</ele>
        <time>2018-03-08T13:08:05Z</time>
      </trkpt>
      <trkpt lat="46.67504" lon="-1.81229">
        <ele>36</ele>
        <time>2018-03-08T13:09:05Z</time>
      </trkpt>
      <trkpt lat="46.67505" lon="-1.81206">
        <ele>35</ele>
        <time>2018-03-08T13:10:05Z</time>
      </trkpt>
      <trkpt lat="46.67505" lon="-1.81181">
        <ele>34</ele>
        <time>2018-03-08T13:11:05Z</time>
      </trkpt>
      <trkpt lat="46.67506" lon="-1.81156">
        <ele>34</ele>
        <time>2018-03-08T13:12:05Z</time>
      </trkpt>
      <trkpt lat="46.67506" lon="-1.81131">
        <ele>33</ele>
        <time>2018-03-08T13:13:05Z</time>
      </trkpt>
      <trkpt lat="46.67508" lon="-1.81105">
        <ele>32</ele>
        <time>2018-03-08T13:14:05Z</time>
      </trkpt>
      <trkpt lat="46.67511" lon="-1.81078">
        <ele>31</ele>
        <time>2018-03-08T13:15:05Z</time>
      </trkpt>
      <trkpt lat="46.67514" lon="-1.81053">
        <ele>32</ele>
        <time>2018-03-08T13:16:05Z</time>
      </trkpt>
      <trkpt lat="46.67518" lon="-1.81026">
        <ele>32</ele>
        <time>2018-03-08T13:17:05Z</time>
      </trkpt>
      <trkpt lat="46.67521" lon="-1.81013">
        <ele>32</ele>
        <time>2018-03-08T13:18:05Z</time>
      </trkpt>
      <trkpt lat="46.67525" lon="-1.80989">
        <ele>33</ele>
        <time>2018-03-08T13:19:05Z</time>
      </trkpt>
      <trkpt lat="46.67545" lon="-1.80903">
        <ele>35</ele>
        <time>2018-03-08T13:20:05Z</time>
      </trkpt>
      <trkpt lat="46.67555" lon="-1.80865">
        <ele>35</ele>
        <time>2018-03-08T13:21:05Z</time>
      </trkpt>
      <trkpt lat="46.67562" lon="-1.80834">
        <ele>35</ele>
        <time>2018-03-08T13:22:05Z</time>
      </trkpt>
      <trkpt lat="46.67565" lon="-1.80813">
        <ele>36</ele>
        <time>2018-03-08T13:23:05Z</time>
      </trkpt>
      <trkpt lat="46.67569" lon="-1.80785">
        <ele>36</ele>
        <time>2018-03-08T13:24:05Z</time>
      </trkpt>
      <trkpt lat="46.67571" lon="-1.80759">
        <ele>36</ele>
        <time>2018-03-08T13:25:05Z</time>
      </trkpt>
      <trkpt lat="46.67573" lon="-1.80732">
        <ele>36</ele>
        <time>2018-03-08T13:26:05Z</time>
      </trkpt>
      <trkpt lat="46.67573" lon="-1.80715">
        <ele>36</ele>
        <time>2018-03-08T13:27:05Z</time>
      </trkpt>
      <trkpt lat="46.67572" lon="-1.80697">
        <ele>37</ele>
        <time>2018-03-08T13:28:05Z</time>
      </trkpt>
      <trkpt lat="46.67571" lon="-1.80684">
        <ele>37</ele>
        <time>2018-03-08T13:29:05Z</time>
      </trkpt>
      <trkpt lat="46.6757" lon="-1.80645">
        <ele>37</ele>
        <time>2018-03-08T13:30:05Z</time>
      </trkpt>
      <trkpt lat="46.67571" lon="-1.80611">
        <ele>38</ele>
        <time>2018-03-08T13:31:05Z</time>
      </trkpt>
      <trkpt lat="46.67571" lon="-1.80579">
        <ele>38</ele>
        <time>2018-03-08T13:32:05Z</time>
      </trkpt>
      <trkpt lat="46.67572" lon="-1.80542">
        <ele>37</ele>
        <time>2018-03-08T13:33:05Z</time>
      </trkpt>
      <trkpt lat="46.67572" lon="-1.80522">
        <ele>37</ele>
        <time>2018-03-08T13:34:05Z</time>
      </trkpt>
      <trkpt lat="46.67571" lon="-1.80495">
        <ele>37</ele>
        <time>2018-03-08T13:35:05Z</time>
      </trkpt>
      <trkpt lat="46.67571" lon="-1.80464">
        <ele>37</ele>
        <time>2018-03-08T13:36:05Z</time>
      </trkpt>
      <trkpt lat="46.67571" lon="-1.80439">
        <ele>37</ele>
        <time>2018-03-08T13:37:05Z</time>
      </trkpt>
      <trkpt lat="46.6757" lon="-1.80409">
        <ele>37</ele>
        <time>2018-03-08T13:38:05Z</time>
      </trkpt>
      <trkpt lat="46.6757" lon="-1.80378">
        <ele>37</ele>
        <time>2018-03-08T13:39:05Z</time>
      </trkpt>
      <trkpt lat="46.6757" lon="-1.80352">
        <ele>37</ele>
        <time>2018-03-08T13:40:05Z</time>
      </trkpt>
      <trkpt lat="46.67569" lon="-1.80328">
        <ele>37</ele>
        <time>2018-03-08T13:41:05Z</time>
      </trkpt>
      <trkpt lat="46.67569" lon="-1.8031">
        <ele>37</ele>
        <time>2018-03-08T13:42:05Z</time>
      </trkpt>
      <trkpt lat="46.67566" lon="-1.80289">
        <ele>36</ele>
        <time>2018-03-08T13:43:05Z</time>
      </trkpt>
      <trkpt lat="46.67564" lon="-1.80267">
        <ele>36</ele>
        <time>2018-03-08T13:44:05Z</time>
      </trkpt>
      <trkpt lat="46.67559" lon="-1.80243">
        <ele>36</ele>
        <time>2018-03-08T13:45:05Z</time>
      </trkpt>
      <trkpt lat="46.67555" lon="-1.80217">
        <ele>36</ele>
        <time>2018-03-08T13:46:05Z</time>
      </trkpt>
      <trkpt lat="46.67551" lon="-1.80193">
        <ele>36</ele>
        <time>2018-03-08T13:47:05Z</time>
      </trkpt>
      <trkpt lat="46.67549" lon="-1.80168">
        <ele>37</ele>
        <time>2018-03-08T13:48:05Z</time>
      </trkpt>
      <trkpt lat="46.67548" lon="-1.8014">
        <ele>37</ele>
        <time>2018-03-08T13:49:05Z</time>
      </trkpt>
      <trkpt lat="46.67548" lon="-1.80112">
        <ele>38</ele>
        <time>2018-03-08T13:50:05Z</time>
      </trkpt>
      <trkpt lat="46.67549" lon="-1.80084">
        <ele>38</ele>
        <time>2018-03-08T13:51:05Z</time>
      </trkpt>
      <trkpt lat="46.6755" lon="-1.80059">
        <ele>38</ele>
        <time>2018-03-08T13:52:05Z</time>
      </trkpt>
      <trkpt lat="46.67553" lon="-1.80032">
        <ele>39</ele>
        <time>2018-03-08T13:53:05Z</time>
      </trkpt>
      <trkpt lat="46.67553" lon="-1.80026">
        <ele>39</ele>
        <time>2018-03-08T13:54:05Z</time>
      </trkpt>
      <trkpt lat="46.67556" lon="-1.79998">
        <ele>39</ele>
        <time>2018-03-08T13:55:05Z</time>
      </trkpt>
      <trkpt lat="46.67558" lon="-1.79986">
        <ele>39</ele>
        <time>2018-03-08T13:56:05Z</time>
      </trkpt>
      <trkpt lat="46.6756" lon="-1.79973">
        <ele>39</ele>
        <time>2018-03-08T13:57:05Z</time>
      </trkpt>
      <trkpt lat="46.67561" lon="-1.79961">
        <ele>40</ele>
        <time>2018-03-08T13:58:05Z</time>
      </trkpt>
      <trkpt lat="46.67568" lon="-1.79939">
        <ele>40</ele>
        <time>2018-03-08T13:59:05Z</time>
      </trkpt>
      <trkpt lat="46.67575" lon="-1.79917">
        <ele>41</ele>
        <time>2018-03-08T14:00:05Z</time>
      </trkpt>
      <trkpt lat="46.67579" lon="-1.79906">
        <ele>41</ele>
        <time>2018-03-08T14:01:05Z</time>
      </trkpt>
      <trkpt lat="46.67583" lon="-1.79895">
        <ele>41</ele>
        <time>2018-03-08T14:02:05Z</time>
      </trkpt>
      <trkpt lat="46.67589" lon="-1.79878">
        <ele>42</ele>
        <time>2018-03-08T14:03:05Z</time>
      </trkpt>
      <trkpt lat="46.67594" lon="-1.79861">
        <ele>42</ele>
        <time>2018-03-08T14:04:05Z</time>
      </trkpt>
      <trkpt lat="46.67597" lon="-1.79849">
        <ele>42</ele>
        <time>2018-03-08T14:05:05Z</time>
      </trkpt>
      <trkpt lat="46.67599" lon="-1.79837">
        <ele>42</ele>
        <time>2018-03-08T14:06:05Z</time>
      </trkpt>
      <trkpt lat="46.67601" lon="-1.79826">
        <ele>42</ele>
        <time>2018-03-08T14:07:05Z</time>
      </trkpt>
      <trkpt lat="46.67603" lon="-1.79809">
        <ele>42</ele>
        <time>2018-03-08T14:08:05Z</time>
      </trkpt>
      <trkpt lat="46.67604" lon="-1.79787">
        <ele>42</ele>
        <time>2018-03-08T14:09:05Z</time>
      </trkpt>
      <trkpt lat="46.67605" lon="-1.79761">
        <ele>41</ele>
        <time>2018-03-08T14:10:05Z</time>
      </trkpt>
      <trkpt lat="46.67607" lon="-1.79732">
        <ele>41</ele>
        <time>2018-03-08T14:11:05Z</time>
      </trkpt>
      <trkpt lat="46.6761" lon="-1.79707">
        <ele>41</ele>
        <time>2018-03-08T14:12:05Z</time>
      </trkpt>
      <trkpt lat="46.67613" lon="-1.79687">
        <ele>41</ele>
        <time>2018-03-08T14:13:05Z</time>
      </trkpt>
      <trkpt lat="46.6762" lon="-1.79658">
        <ele>40</ele>
        <time>2018-03-08T14:14:05Z</time>
      </trkpt>
      <trkpt lat="46.67625" lon="-1.79639">
        <ele>40</ele>
        <time>2018-03-08T14:15:05Z</time>
      </trkpt>
      <trkpt lat="46.6763" lon="-1.79615">
        <ele>40</ele>
        <time>2018-03-08T14:16:05Z</time>
      </trkpt>
      <trkpt lat="46.67633" lon="-1.79592">
        <ele>40</ele>
        <time>2018-03-08T14:17:05Z</time>
      </trkpt>
      <trkpt lat="46.67634" lon="-1.79568">
        <ele>40</ele>
        <time>2018-03-08T14:18:05Z</time>
      </trkpt>
      <trkpt lat="46.67634" lon="-1.79556">
        <ele>40</ele>
        <time>2018-03-08T14:19:05Z</time>
      </trkpt>
      <trkpt lat="46.67634" lon="-1.79544">
        <ele>40</ele>
        <time>2018-03-08T14:20:05Z</time>
      </trkpt>
      <trkpt lat="46.67631" lon="-1.79521">
        <ele>39</ele>
        <time>2018-03-08T14:21:05Z</time>
      </trkpt>
      <trkpt lat="46.67629" lon="-1.79509">
        <ele>39</ele>
        <time>2018-03-08T14:22:05Z</time>
      </trkpt>
      <trkpt lat="46.67627" lon="-1.79499">
        <ele>39</ele>
        <time>2018-03-08T14:23:05Z</time>
      </trkpt>
      <trkpt lat="46.67623" lon="-1.79488">
        <ele>40</ele>
        <time>2018-03-08T14:24:05Z</time>
      </trkpt>
      <trkpt lat="46.6762" lon="-1.79477">
        <ele>40</ele>
        <time>2018-03-08T14:25:05Z</time>
      </trkpt>
      <trkpt lat="46.67609" lon="-1.7945">
        <ele>40</ele>
        <time>2018-03-08T14:26:05Z</time>
      </trkpt>
      <trkpt lat="46.67599" lon="-1.79426">
        <ele>41</ele>
        <time>2018-03-08T14:27:05Z</time>
      </trkpt>
      <trkpt lat="46.67596" lon="-1.79417">
        <ele>41</ele>
        <time>2018-03-08T14:28:05Z</time>
      </trkpt>
      <trkpt lat="46.67593" lon="-1.79407">
        <ele>41</ele>
        <time>2018-03-08T14:29:05Z</time>
      </trkpt>
      <trkpt lat="46.6759" lon="-1.79398">
        <ele>41</ele>
        <time>2018-03-08T14:30:05Z</time>
      </trkpt>
      <trkpt lat="46.67586" lon="-1.79387">
        <ele>41</ele>
        <time>2018-03-08T14:31:05Z</time>
      </trkpt>
      <trkpt lat="46.67583" lon="-1.79372">
        <ele>42</ele>
        <time>2018-03-08T14:32:05Z</time>
      </trkpt>
      <trkpt lat="46.67581" lon="-1.79355">
        <ele>42</ele>
        <time>2018-03-08T14:33:05Z</time>
      </trkpt>
      <trkpt lat="46.6758" lon="-1.7934">
        <ele>42</ele>
        <time>2018-03-08T14:34:05Z</time>
      </trkpt>
      <trkpt lat="46.6758" lon="-1.79328">
        <ele>42</ele>
        <time>2018-03-08T14:35:05Z</time>
      </trkpt>
      <trkpt lat="46.67579" lon="-1.79279">
        <ele>43</ele>
        <time>2018-03-08T14:36:05Z</time>
      </trkpt>
      <trkpt lat="46.67578" lon="-1.79253">
        <ele>43</ele>
        <time>2018-03-08T14:37:05Z</time>
      </trkpt>
      <trkpt lat="46.67577" lon="-1.79214">
        <ele>43</ele>
        <time>2018-03-08T14:38:05Z</time>
      </trkpt>
      <trkpt lat="46.67576" lon="-1.79175">
        <ele>43</ele>
        <time>2018-03-08T14:39:05Z</time>
      </trkpt>
      <trkpt lat="46.67576" lon="-1.79159">
        <ele>43</ele>
        <time>2018-03-08T14:40:05Z</time>
      </trkpt>
      <trkpt lat="46.67576" lon="-1.79128">
        <ele>42</ele>
        <time>2018-03-08T14:41:05Z</time>
      </trkpt>
      <trkpt lat="46.67575" lon="-1.79106">
        <ele>42</ele>
        <time>2018-03-08T14:42:05Z</time>
      </trkpt>
      <trkpt lat="46.67572" lon="-1.79082">
        <ele>42</ele>
        <time>2018-03-08T14:43:05Z</time>
      </trkpt>
      <trkpt lat="46.67569" lon="-1.79056">
        <ele>41</ele>
        <time>2018-03-08T14:44:05Z</time>
      </trkpt>
      <trkpt lat="46.67565" lon="-1.79025">
        <ele>41</ele>
        <time>2018-03-08T14:45:05Z</time>
      </trkpt>
      <trkpt lat="46.67559" lon="-1.7899">
        <ele>40</ele>
        <time>2018-03-08T14:46:05Z</time>
      </trkpt>
      <trkpt lat="46.67556" lon="-1.78967">
        <ele>39</ele>
        <time>2018-03-08T14:47:05Z</time>
      </trkpt>
      <trkpt lat="46.67551" lon="-1.78936">
        <ele>37</ele>
        <time>2018-03-08T14:48:05Z</time>
      </trkpt>
      <trkpt lat="46.67545" lon="-1.78909">
        <ele>36</ele>
        <time>2018-03-08T14:49:05Z</time>
      </trkpt>
      <trkpt lat="46.6754" lon="-1.78889">
        <ele>36</ele>
        <time>2018-03-08T14:50:05Z</time>
      </trkpt>
      <trkpt lat="46.67532" lon="-1.7886">
        <ele>36</ele>
        <time>2018-03-08T14:51:05Z</time>
      </trkpt>
      <trkpt lat="46.67527" lon="-1.78838">
        <ele>36</ele>
        <time>2018-03-08T14:52:05Z</time>
      </trkpt>
      <trkpt lat="46.67523" lon="-1.78821">
        <ele>36</ele>
        <time>2018-03-08T14:53:05Z</time>
      </trkpt>
      <trkpt lat="46.67515" lon="-1.78791">
        <ele>36</ele>
        <time>2018-03-08T14:54:05Z</time>
      </trkpt>
      <trkpt lat="46.67513" lon="-1.78783">
        <ele>36</ele>
        <time>2018-03-08T14:55:05Z</time>
      </trkpt>
      <trkpt lat="46.67506" lon="-1.78755">
        <ele>36</ele>
        <time>2018-03-08T14:56:05Z</time>
      </trkpt>
      <trkpt lat="46.67499" lon="-1.78726">
        <ele>36</ele>
        <time>2018-03-08T14:57:05Z</time>
      </trkpt>
      <trkpt lat="46.67491" lon="-1.78695">
        <ele>36</ele>
        <time>2018-03-08T14:58:05Z</time>
      </trkpt>
      <trkpt lat="46.67481" lon="-1.78658">
        <ele>36</ele>
        <time>2018-03-08T14:59:05Z</time>
      </trkpt>
      <trkpt lat="46.67471" lon="-1.78619">
        <ele>35</ele>
        <time>2018-03-08T15:00:05Z</time>
      </trkpt>
      <trkpt lat="46.67465" lon="-1.78601">
        <ele>35</ele>
        <time>2018-03-08T15:01:05Z</time>
      </trkpt>
      <trkpt lat="46.67462" lon="-1.78591">
        <ele>35</ele>
        <time>2018-03-08T15:02:05Z</time>
      </trkpt>
      <trkpt lat="46.67457" lon="-1.78584">
        <ele>36</ele>
        <time>2018-03-08T15:03:05Z</time>
      </trkpt>
      <trkpt lat="46.67454" lon="-1.78576">
        <ele>36</ele>
        <time>2018-03-08T15:04:05Z</time>
      </trkpt>
      <trkpt lat="46.6745" lon="-1.7857">
        <ele>36</ele>
        <time>2018-03-08T15:05:05Z</time>
      </trkpt>
      <trkpt lat="46.67448" lon="-1.78566">
        <ele>36</ele>
        <time>2018-03-08T15:06:05Z</time>
      </trkpt>
      <trkpt lat="46.67445" lon="-1.78562">
        <ele>36</ele>
        <time>2018-03-08T15:07:05Z</time>
      </trkpt>
      <trkpt lat="46.67442" lon="-1.78559">
        <ele>36</ele>
        <time>2018-03-08T15:08:05Z</time>
      </trkpt>
      <trkpt lat="46.67435" lon="-1.78542">
        <ele>36</ele>
        <time>2018-03-08T15:09:05Z</time>
      </trkpt>
      <trkpt lat="46.67433" lon="-1.78533">
        <ele>36</ele>
        <time>2018-03-08T15:10:05Z</time>
      </trkpt>
      <trkpt lat="46.67431" lon="-1.78524">
        <ele>36</ele>
        <time>2018-03-08T15:11:05Z</time>
      </trkpt>
      <trkpt lat="46.67421" lon="-1.78499">
        <ele>36</ele>
        <time>2018-03-08T15:12:05Z</time>
      </trkpt>
      <trkpt lat="46.6741" lon="-1.78476">
        <ele>36</ele>
        <time>2018-03-08T15:13:05Z</time>
      </trkpt>
      <trkpt lat="46.67402" lon="-1.78457">
        <ele>37</ele>
        <time>2018-03-08T15:14:05Z</time>
      </trkpt>
      <trkpt lat="46.67389" lon="-1.78426">
        <ele>37</ele>
        <time>2018-03-08T15:15:05Z</time>
      </trkpt>
      <trkpt lat="46.67379" lon="-1.78401">
        <ele>37</ele>
        <time>2018-03-08T15:16:05Z</time>
      </trkpt>
      <trkpt lat="46.67373" lon="-1.78382">
        <ele>37</ele>
        <time>2018-03-08T15:17:05Z</time>
      </trkpt>
      <trkpt lat="46.67368" lon="-1.78363">
        <ele>37</ele>
        <time>2018-03-08T15:18:05Z</time>
      </trkpt>
      <trkpt lat="46.67362" lon="-1.78345">
        <ele>37</ele>
        <time>2018-03-08T15:19:05Z</time>
      </trkpt>
      <trkpt lat="46.67355" lon="-1.78325">
        <ele>37</ele>
        <time>2018-03-08T15:20:05Z</time>
      </trkpt>
      <trkpt lat="46.67351" lon="-1.78317">
        <ele>37</ele>
        <time>2018-03-08T15:21:05Z</time>
      </trkpt>
      <trkpt lat="46.67347" lon="-1.78309">
        <ele>37</ele>
        <time>2018-03-08T15:22:05Z</time>
      </trkpt>
      <trkpt lat="46.67341" lon="-1.78301">
        <ele>37</ele>
        <time>2018-03-08T15:23:05Z</time>
      </trkpt>
      <trkpt lat="46.67336" lon="-1.78294">
        <ele>37</ele>
        <time>2018-03-08T15:24:05Z</time>
      </trkpt>
      <trkpt lat="46.6733" lon="-1.78289">
        <ele>37</ele>
        <time>2018-03-08T15:25:05Z</time>
      </trkpt>
      <trkpt lat="46.67324" lon="-1.78284">
        <ele>37</ele>
        <time>2018-03-08T15:26:05Z</time>
      </trkpt>
      <trkpt lat="46.67315" lon="-1.78278">
        <ele>37</ele>
        <time>2018-03-08T15:27:05Z</time>
      </trkpt>
      <trkpt lat="46.67307" lon="-1.78274">
        <ele>37</ele>
        <time>2018-03-08T15:28:05Z</time>
      </trkpt>
      <trkpt lat="46.67273" lon="-1.78259">
        <ele>37</ele>
        <time>2018-03-08T15:29:05Z</time>
      </trkpt>
      <trkpt lat="46.67251" lon="-1.78249">
        <ele>37</ele>
        <time>2018-03-08T15:30:05Z</time>
      </trkpt>
      <trkpt lat="46.67221" lon="-1.78237">
        <ele>38</ele>
        <time>2018-03-08T15:31:05Z</time>
      </trkpt>
      <trkpt lat="46.67208" lon="-1.7823">
        <ele>38</ele>
        <time>2018-03-08T15:32:05Z</time>
      </trkpt>
      <trkpt lat="46.67201" lon="-1.78226">
        <ele>38</ele>
        <time>2018-03-08T15:33:05Z</time>
      </trkpt>
      <trkpt lat="46.67196" lon="-1.78221">
        <ele>39</ele>
        <time>2018-03-08T15:34:05Z</time>
      </trkpt>
      <trkpt lat="46.67186" lon="-1.78212">
        <ele>39</ele>
        <time>2018-03-08T15:35:05Z</time>
      </trkpt>
      <trkpt lat="46.67181" lon="-1.78202">
        <ele>39</ele>
        <time>2018-03-08T15:36:05Z</time>
      </trkpt>
      <trkpt lat="46.67176" lon="-1.78192">
        <ele>39</ele>
        <time>2018-03-08T15:37:05Z</time>
      </trkpt>
      <trkpt lat="46.67174" lon="-1.78185">
        <ele>40</ele>
        <time>2018-03-08T15:38:05Z</time>
      </trkpt>
      <trkpt lat="46.67172" lon="-1.78177">
        <ele>40</ele>
        <time>2018-03-08T15:39:05Z</time>
      </trkpt>
      <trkpt lat="46.67169" lon="-1.78158">
        <ele>40</ele>
        <time>2018-03-08T15:40:05Z</time>
      </trkpt>
      <trkpt lat="46.67165" lon="-1.78136">
        <ele>40</ele>
        <time>2018-03-08T15:41:05Z</time>
      </trkpt>
      <trkpt lat="46.67161" lon="-1.78106">
        <ele>41</ele>
        <time>2018-03-08T15:42:05Z</time>
      </trkpt>
      <trkpt lat="46.67158" lon="-1.78077">
        <ele>41</ele>
        <time>2018-03-08T15:43:05Z</time>
      </trkpt>
      <trkpt lat="46.67157" lon="-1.7806">
        <ele>41</ele>
        <time>2018-03-08T15:44:05Z</time>
      </trkpt>
      <trkpt lat="46.67155" lon="-1.78038">
        <ele>41</ele>
        <time>2018-03-08T15:45:05Z</time>
      </trkpt>
      <trkpt lat="46.67155" lon="-1.78015">
        <ele>41</ele>
        <time>2018-03-08T15:46:05Z</time>
      </trkpt>
      <trkpt lat="46.67154" lon="-1.77993">
        <ele>41</ele>
        <time>2018-03-08T15:47:05Z</time>
      </trkpt>
      <trkpt lat="46.67152" lon="-1.77971">
        <ele>42</ele>
        <time>2018-03-08T15:48:05Z</time>
      </trkpt>
      <trkpt lat="46.67147" lon="-1.77951">
        <ele>42</ele>
        <time>2018-03-08T15:49:05Z</time>
      </trkpt>
      <trkpt lat="46.6714" lon="-1.77931">
        <ele>42</ele>
        <time>2018-03-08T15:50:05Z</time>
      </trkpt>
      <trkpt lat="46.67132" lon="-1.77911">
        <ele>43</ele>
        <time>2018-03-08T15:51:05Z</time>
      </trkpt>
      <trkpt lat="46.67116" lon="-1.77878">
        <ele>43</ele>
        <time>2018-03-08T15:52:05Z</time>
      </trkpt>
      <trkpt lat="46.67095" lon="-1.77835">
        <ele>43</ele>
        <time>2018-03-08T15:53:05Z</time>
      </trkpt>
      <trkpt lat="46.67069" lon="-1.77781">
        <ele>44</ele>
        <time>2018-03-08T15:54:05Z</time>
      </trkpt>
      <trkpt lat="46.6706" lon="-1.77764">
        <ele>44</ele>
        <time>2018-03-08T15:55:05Z</time>
      </trkpt>
      <trkpt lat="46.67055" lon="-1.77752">
        <ele>44</ele>
        <time>2018-03-08T15:56:05Z</time>
      </trkpt>
      <trkpt lat="46.67054" lon="-1.7775">
        <ele>44</ele>
        <time>2018-03-08T15:57:05Z</time>
      </trkpt>
      <trkpt lat="46.67033" lon="-1.77706">
        <ele>45</ele>
        <time>2018-03-08T15:58:05Z</time>
      </trkpt>
      <trkpt lat="46.67016" lon="-1.77669">
        <ele>45</ele>
        <time>2018-03-08T15:59:05Z</time>
      </trkpt>
      <trkpt lat="46.66998" lon="-1.77631">
        <ele>45</ele>
        <time>2018-03-08T16:00:05Z</time>
      </trkpt>
      <trkpt lat="46.66984" lon="-1.77605">
        <ele>46</ele>
        <time>2018-03-08T16:01:05Z</time>
      </trkpt>
      <trkpt lat="46.66971" lon="-1.77577">
        <ele>46</ele>
        <time>2018-03-08T16:02:05Z</time>
      </trkpt>
      <trkpt lat="46.66962" lon="-1.77558">
        <ele>46</ele>
        <time>2018-03-08T16:03:05Z</time>
      </trkpt>
      <trkpt lat="46.6696" lon="-1.77551">
        <ele>46</ele>
        <time>2018-03-08T16:04:05Z</time>
      </trkpt>
      <trkpt lat="46.66959" lon="-1.77544">
        <ele>46</ele>
        <time>2018-03-08T16:05:05Z</time>
      </trkpt>
      <trkpt lat="46.66958" lon="-1.77537">
        <ele>47</ele>
        <time>2018-03-08T16:06:05Z</time>
      </trkpt>
      <trkpt lat="46.66957" lon="-1.77528">
        <ele>47</ele>
        <time>2018-03-08T16:07:05Z</time>
      </trkpt>
      <trkpt lat="46.66957" lon="-1.7752">
        <ele>47</ele>
        <time>2018-03-08T16:08:05Z</time>
      </trkpt>
      <trkpt lat="46.66957" lon="-1.77515">
        <ele>47</ele>
        <time>2018-03-08T16:09:05Z</time>
      </trkpt>
      <trkpt lat="46.66957" lon="-1.7751">
        <ele>47</ele>
        <time>2018-03-08T16:10:05Z</time>
      </trkpt>
      <trkpt lat="46.66958" lon="-1.77501">
        <ele>47</ele>
        <time>2018-03-08T16:11:05Z</time>
      </trkpt>
      <trkpt lat="46.6696" lon="-1.77493">
        <ele>47</ele>
        <time>2018-03-08T16:12:05Z</time>
      </trkpt>
      <trkpt lat="46.66962" lon="-1.77484">
        <ele>47</ele>
        <time>2018-03-08T16:13:05Z</time>
      </trkpt>
      <trkpt lat="46.66964" lon="-1.77476">
        <ele>47</ele>
        <time>2018-03-08T16:14:05Z</time>
      </trkpt>
      <trkpt lat="46.66967" lon="-1.77465">
        <ele>47</ele>
        <time>2018-03-08T16:15:05Z</time>
      </trkpt>
      <trkpt lat="46.66971" lon="-1.77451">
        <ele>47</ele>
        <time>2018-03-08T16:16:05Z</time>
      </trkpt>
      <trkpt lat="46.6698" lon="-1.77417">
        <ele>47</ele>
        <time>2018-03-08T16:17:05Z</time>
      </trkpt>
      <trkpt lat="46.66988" lon="-1.77391">
        <ele>47</ele>
        <time>2018-03-08T16:18:05Z</time>
      </trkpt>
      <trkpt lat="46.66994" lon="-1.77369">
        <ele>47</ele>
        <time>2018-03-08T16:19:05Z</time>
      </trkpt>
      <trkpt lat="46.67001" lon="-1.77341">
        <ele>48</ele>
        <time>2018-03-08T16:20:05Z</time>
      </trkpt>
      <trkpt lat="46.67005" lon="-1.77325">
        <ele>48</ele>
        <time>2018-03-08T16:21:05Z</time>
      </trkpt>
      <trkpt lat="46.67008" lon="-1.77312">
        <ele>48</ele>
        <time>2018-03-08T16:22:05Z</time>
      </trkpt>
      <trkpt lat="46.6701" lon="-1.77298">
        <ele>48</ele>
        <time>2018-03-08T16:23:05Z</time>
      </trkpt>
      <trkpt lat="46.67015" lon="-1.77269">
        <ele>49</ele>
        <time>2018-03-08T16:24:05Z</time>
      </trkpt>
      <trkpt lat="46.67021" lon="-1.77237">
        <ele>49</ele>
        <time>2018-03-08T16:25:05Z</time>
      </trkpt>
      <trkpt lat="46.6703" lon="-1.77186">
        <ele>49</ele>
        <time>2018-03-08T16:26:05Z</time>
      </trkpt>
      <trkpt lat="46.67038" lon="-1.77144">
        <ele>50</ele>
        <time>2018-03-08T16:27:05Z</time>
      </trkpt>
      <trkpt lat="46.67044" lon="-1.77105">
        <ele>50</ele>
        <time>2018-03-08T16:28:05Z</time>
      </trkpt>
      <trkpt lat="46.67048" lon="-1.77084">
        <ele>51</ele>
        <time>2018-03-08T16:29:05Z</time>
      </trkpt>
      <trkpt lat="46.6705" lon="-1.77071">
        <ele>51</ele>
        <time>2018-03-08T16:30:05Z</time>
      </trkpt>
      <trkpt lat="46.6705" lon="-1.77066">
        <ele>51</ele>
        <time>2018-03-08T16:31:05Z</time>
      </trkpt>
      <trkpt lat="46.67052" lon="-1.77057">
        <ele>51</ele>
        <time>2018-03-08T16:32:05Z</time>
      </trkpt>
      <trkpt lat="46.67053" lon="-1.77046">
        <ele>51</ele>
        <time>2018-03-08T16:33:05Z</time>
      </trkpt>
      <trkpt lat="46.67055" lon="-1.77029">
        <ele>51</ele>
        <time>2018-03-08T16:34:05Z</time>
      </trkpt>
      <trkpt lat="46.67061" lon="-1.7699">
        <ele>52</ele>
        <time>2018-03-08T16:35:05Z</time>
      </trkpt>
      <trkpt lat="46.67067" lon="-1.76944">
        <ele>52</ele>
        <time>2018-03-08T16:36:05Z</time>
      </trkpt>
      <trkpt lat="46.6707" lon="-1.76927">
        <ele>52</ele>
        <time>2018-03-08T16:37:05Z</time>
      </trkpt>
      <trkpt lat="46.67073" lon="-1.76914">
        <ele>52</ele>
        <time>2018-03-08T16:38:05Z</time>
      </trkpt>
      <trkpt lat="46.67075" lon="-1.76904">
        <ele>52</ele>
        <time>2018-03-08T16:39:05Z</time>
      </trkpt>
      <trkpt lat="46.67084" lon="-1.76857">
        <ele>52</ele>
        <time>2018-03-08T16:40:05Z</time>
      </trkpt>
      <trkpt lat="46.67095" lon="-1.76807">
        <ele>52</ele>
        <time>2018-03-08T16:41:05Z</time>
      </trkpt>
      <trkpt lat="46.67103" lon="-1.76772">
        <ele>52</ele>
        <time>2018-03-08T16:42:05Z</time>
      </trkpt>
      <trkpt lat="46.67104" lon="-1.76764">
        <ele>52</ele>
        <time>2018-03-08T16:43:05Z</time>
      </trkpt>
      <trkpt lat="46.67107" lon="-1.76753">
        <ele>52</ele>
        <time>2018-03-08T16:44:05Z</time>
      </trkpt>
      <trkpt lat="46.67108" lon="-1.76743">
        <ele>52</ele>
        <time>2018-03-08T16:45:05Z</time>
      </trkpt>
      <trkpt lat="46.67109" lon="-1.76734">
        <ele>52</ele>
        <time>2018-03-08T16:46:05Z</time>
      </trkpt>
      <trkpt lat="46.6711" lon="-1.76721">
        <ele>52</ele>
        <time>2018-03-08T16:47:05Z</time>
      </trkpt>
      <trkpt lat="46.67112" lon="-1.76704">
        <ele>52</ele>
        <time>2018-03-08T16:48:05Z</time>
      </trkpt>
      <trkpt lat="46.67114" lon="-1.76683">
        <ele>51</ele>
        <time>2018-03-08T16:49:05Z</time>
      </trkpt>
      <trkpt lat="46.67115" lon="-1.76663">
        <ele>51</ele>
        <time>2018-03-08T16:50:05Z</time>
      </trkpt>
      <trkpt lat="46.67117" lon="-1.7664">
        <ele>51</ele>
        <time>2018-03-08T16:51:05Z</time>
      </trkpt>
      <trkpt lat="46.67119" lon="-1.76618">
        <ele>51</ele>
        <time>2018-03-08T16:52:05Z</time>
      </trkpt>
      <trkpt lat="46.67121" lon="-1.76604">
        <ele>50</ele>
        <time>2018-03-08T16:53:05Z</time>
      </trkpt>
      <trkpt lat="46.67121" lon="-1.76598">
        <ele>50</ele>
        <time>2018-03-08T16:54:05Z</time>
      </trkpt>
      <trkpt lat="46.67123" lon="-1.76589">
        <ele>50</ele>
        <time>2018-03-08T16:55:05Z</time>
      </trkpt>
      <trkpt lat="46.67125" lon="-1.76581">
        <ele>50</ele>
        <time>2018-03-08T16:56:05Z</time>
      </trkpt>
      <trkpt lat="46.67126" lon="-1.76576">
        <ele>50</ele>
        <time>2018-03-08T16:57:05Z</time>
      </trkpt>
      <trkpt lat="46.6713" lon="-1.7656">
        <ele>50</ele>
        <time>2018-03-08T16:58:05Z</time>
      </trkpt>
      <trkpt lat="46.67133" lon="-1.76546">
        <ele>50</ele>
        <time>2018-03-08T16:59:05Z</time>
      </trkpt>
      <trkpt lat="46.6714" lon="-1.76523">
        <ele>50</ele>
        <time>2018-03-08T17:00:05Z</time>
      </trkpt>
      <trkpt lat="46.6715" lon="-1.76484">
        <ele>50</ele>
        <time>2018-03-08T17:01:05Z</time>
      </trkpt>
      <trkpt lat="46.67166" lon="-1.76425">
        <ele>50</ele>
        <time>2018-03-08T17:02:05Z</time>
      </trkpt>
      <trkpt lat="46.67171" lon="-1.76406">
        <ele>50</ele>
        <time>2018-03-08T17:03:05Z</time>
      </trkpt>
      <trkpt lat="46.67176" lon="-1.76389">
        <ele>51</ele>
        <time>2018-03-08T17:04:05Z</time>
      </trkpt>
      <trkpt lat="46.6718" lon="-1.7638">
        <ele>51</ele>
        <time>2018-03-08T17:05:05Z</time>
      </trkpt>
      <trkpt lat="46.67182" lon="-1.76374">
        <ele>51</ele>
        <time>2018-03-08T17:06:05Z</time>
      </trkpt>
      <trkpt lat="46.67184" lon="-1.76371">
        <ele>51</ele>
        <time>2018-03-08T17:07:05Z</time>
      </trkpt>
      <trkpt lat="46.67187" lon="-1.76364">
        <ele>51</ele>
        <time>2018-03-08T17:08:05Z</time>
      </trkpt>
      <trkpt lat="46.672" lon="-1.76338">
        <ele>51</ele>
        <time>2018-03-08T17:09:05Z</time>
      </trkpt>
      <trkpt lat="46.67207" lon="-1.76324">
        <ele>51</ele>
        <time>2018-03-08T17:10:05Z</time>
      </trkpt>
      <trkpt lat="46.67214" lon="-1.76309">
        <ele>51</ele>
        <time>2018-03-08T17:11:05Z</time>
      </trkpt>
      <trkpt lat="46.67226" lon="-1.76284">
        <ele>51</ele>
        <time>2018-03-08T17:12:05Z</time>
      </trkpt>
      <trkpt lat="46.67234" lon="-1.76268">
        <ele>51</ele>
        <time>2018-03-08T17:13:05Z</time>
      </trkpt>
      <trkpt lat="46.67244" lon="-1.76243">
        <ele>51</ele>
        <time>2018-03-08T17:14:05Z</time>
      </trkpt>
      <trkpt lat="46.67249" lon="-1.76231">
        <ele>51</ele>
        <time>2018-03-08T17:15:05Z</time>
      </trkpt>
      <trkpt lat="46.67255" lon="-1.76217">
        <ele>51</ele>
        <time>2018-03-08T17:16:05Z</time>
      </trkpt>
      <trkpt lat="46.67262" lon="-1.76199">
        <ele>52</ele>
        <time>2018-03-08T17:17:05Z</time>
      </trkpt>
      <trkpt lat="46.67267" lon="-1.76183">
        <ele>52</ele>
        <time>2018-03-08T17:18:05Z</time>
      </trkpt>
      <trkpt lat="46.67269" lon="-1.76175">
        <ele>52</ele>
        <time>2018-03-08T17:19:05Z</time>
      </trkpt>
      <trkpt lat="46.6727" lon="-1.76168">
        <ele>52</ele>
        <time>2018-03-08T17:20:05Z</time>
      </trkpt>
      <trkpt lat="46.67272" lon="-1.76156">
        <ele>52</ele>
        <time>2018-03-08T17:21:05Z</time>
      </trkpt>
      <trkpt lat="46.67274" lon="-1.76138">
        <ele>52</ele>
        <time>2018-03-08T17:22:05Z</time>
      </trkpt>
      <trkpt lat="46.67277" lon="-1.76114">
        <ele>52</ele>
        <time>2018-03-08T17:23:05Z</time>
      </trkpt>
      <trkpt lat="46.67281" lon="-1.7608">
        <ele>52</ele>
        <time>2018-03-08T17:24:05Z</time>
      </trkpt>
      <trkpt lat="46.67285" lon="-1.76045">
        <ele>52</ele>
        <time>2018-03-08T17:25:05Z</time>
      </trkpt>
      <trkpt lat="46.67289" lon="-1.76008">
        <ele>52</ele>
        <time>2018-03-08T17:26:05Z</time>
      </trkpt>
      <trkpt lat="46.67292" lon="-1.75975">
        <ele>52</ele>
        <time>2018-03-08T17:27:05Z</time>
      </trkpt>
      <trkpt lat="46.67295" lon="-1.75945">
        <ele>52</ele>
        <time>2018-03-08T17:28:05Z</time>
      </trkpt>
      <trkpt lat="46.67298" lon="-1.75924">
        <ele>52</ele>
        <time>2018-03-08T17:29:05Z</time>
      </trkpt>
      <trkpt lat="46.67296" lon="-1.75918">
        <ele>52</ele>
        <time>2018-03-08T17:30:05Z</time>
      </trkpt>
      <trkpt lat="46.67297" lon="-1.75892">
        <ele>52</ele>
        <time>2018-03-08T17:31:05Z</time>
      </trkpt>
      <trkpt lat="46.67296" lon="-1.75877">
        <ele>52</ele>
        <time>2018-03-08T17:32:05Z</time>
      </trkpt>
      <trkpt lat="46.67296" lon="-1.75873">
        <ele>52</ele>
        <time>2018-03-08T17:33:05Z</time>
      </trkpt>
      <trkpt lat="46.67296" lon="-1.75864">
        <ele>52</ele>
        <time>2018-03-08T17:34:05Z</time>
      </trkpt>
      <trkpt lat="46.67296" lon="-1.75854">
        <ele>52</ele>
        <time>2018-03-08T17:35:05Z</time>
      </trkpt>
      <trkpt lat="46.67296" lon="-1.75839">
        <ele>52</ele>
        <time>2018-03-08T17:36:05Z</time>
      </trkpt>
      <trkpt lat="46.67296" lon="-1.75835">
        <ele>52</ele>
        <time>2018-03-08T17:37:05Z</time>
      </trkpt>
      <trkpt lat="46.67292" lon="-1.75796">
        <ele>52</ele>
        <time>2018-03-08T17:38:05Z</time>
      </trkpt>
      <trkpt lat="46.67293" lon="-1.75779">
        <ele>52</ele>
        <time>2018-03-08T17:39:05Z</time>
      </trkpt>
      <trkpt lat="46.6729" lon="-1.75767">
        <ele>52</ele>
        <time>2018-03-08T17:40:05Z</time>
      </trkpt>
      <trkpt lat="46.67288" lon="-1.75759">
        <ele>52</ele>
        <time>2018-03-08T17:41:05Z</time>
      </trkpt>
      <trkpt lat="46.67286" lon="-1.75751">
        <ele>52</ele>
        <time>2018-03-08T17:42:05Z</time>
      </trkpt>
      <trkpt lat="46.67285" lon="-1.75745">
        <ele>52</ele>
        <time>2018-03-08T17:43:05Z</time>
      </trkpt>
      <trkpt lat="46.67283" lon="-1.75731">
        <ele>52</ele>
        <time>2018-03-08T17:44:05Z</time>
      </trkpt>
      <trkpt lat="46.67278" lon="-1.75703">
        <ele>51</ele>
        <time>2018-03-08T17:45:05Z</time>
      </trkpt>
      <trkpt lat="46.67273" lon="-1.75664">
        <ele>51</ele>
        <time>2018-03-08T17:46:05Z</time>
      </trkpt>
      <trkpt lat="46.67268" lon="-1.7563">
        <ele>51</ele>
        <time>2018-03-08T17:47:05Z</time>
      </trkpt>
      <trkpt lat="46.67265" lon="-1.75607">
        <ele>50</ele>
        <time>2018-03-08T17:48:05Z</time>
      </trkpt>
      <trkpt lat="46.67262" lon="-1.75584">
        <ele>50</ele>
        <time>2018-03-08T17:49:05Z</time>
      </trkpt>
      <trkpt lat="46.67258" lon="-1.75551">
        <ele>51</ele>
        <time>2018-03-08T17:50:05Z</time>
      </trkpt>
      <trkpt lat="46.67253" lon="-1.75521">
        <ele>51</ele>
        <time>2018-03-08T17:51:05Z</time>
      </trkpt>
      <trkpt lat="46.6725" lon="-1.75503">
        <ele>51</ele>
        <time>2018-03-08T17:52:05Z</time>
      </trkpt>
      <trkpt lat="46.67246" lon="-1.75487">
        <ele>51</ele>
        <time>2018-03-08T17:53:05Z</time>
      </trkpt>
      <trkpt lat="46.67244" lon="-1.75477">
        <ele>51</ele>
        <time>2018-03-08T17:54:05Z</time>
      </trkpt>
      <trkpt lat="46.67241" lon="-1.75466">
        <ele>51</ele>
        <time>2018-03-08T17:55:05Z</time>
      </trkpt>
      <trkpt lat="46.67235" lon="-1.75442">
        <ele>51</ele>
        <time>2018-03-08T17:56:05Z</time>
      </trkpt>
      <trkpt lat="46.67227" lon="-1.75411">
        <ele>51</ele>
        <time>2018-03-08T17:57:05Z</time>
      </trkpt>
      <trkpt lat="46.67226" lon="-1.75404">
        <ele>51</ele>
        <time>2018-03-08T17:58:05Z</time>
      </trkpt>
      <trkpt lat="46.67225" lon="-1.75397">
        <ele>51</ele>
        <time>2018-03-08T17:59:05Z</time>
      </trkpt>
      <trkpt lat="46.67224" lon="-1.75388">
        <ele>52</ele>
        <time>2018-03-08T18:00:05Z</time>
      </trkpt>
      <trkpt lat="46.67224" lon="-1.75382">
        <ele>52</ele>
        <time>2018-03-08T18:01:05Z</time>
      </trkpt>
      <trkpt lat="46.67223" lon="-1.75374">
        <ele>52</ele>
        <time>2018-03-08T18:02:05Z</time>
      </trkpt>
      <trkpt lat="46.67223" lon="-1.75364">
        <ele>52</ele>
        <time>2018-03-08T18:03:05Z</time>
      </trkpt>
      <trkpt lat="46.67224" lon="-1.75333">
        <ele>53</ele>
        <time>2018-03-08T18:04:05Z</time>
      </trkpt>
      <trkpt lat="46.67224" lon="-1.75307">
        <ele>54</ele>
        <time>2018-03-08T18:05:05Z</time>
      </trkpt>
      <trkpt lat="46.67225" lon="-1.75255">
        <ele>55</ele>
        <time>2018-03-08T18:06:05Z</time>
      </trkpt>
      <trkpt lat="46.67226" lon="-1.75212">
        <ele>54</ele>
        <time>2018-03-08T18:07:05Z</time>
      </trkpt>
      <trkpt lat="46.67226" lon="-1.75207">
        <ele>54</ele>
        <time>2018-03-08T18:08:05Z</time>
      </trkpt>
      <trkpt lat="46.67226" lon="-1.75202">
        <ele>54</ele>
        <time>2018-03-08T18:09:05Z</time>
      </trkpt>
      <trkpt lat="46.67227" lon="-1.75197">
        <ele>54</ele>
        <time>2018-03-08T18:10:05Z</time>
      </trkpt>
      <trkpt lat="46.67228" lon="-1.75191">
        <ele>54</ele>
        <time>2018-03-08T18:11:05Z</time>
      </trkpt>
      <trkpt lat="46.67229" lon="-1.75188">
        <ele>54</ele>
        <time>2018-03-08T18:12:05Z</time>
      </trkpt>
      <trkpt lat="46.67231" lon="-1.75183">
        <ele>54</ele>
        <time>2018-03-08T18:13:05Z</time>
      </trkpt>
      <trkpt lat="46.67233" lon="-1.75177">
        <ele>54</ele>
        <time>2018-03-08T18:14:05Z</time>
      </trkpt>
      <trkpt lat="46.67237" lon="-1.75172">
        <ele>54</ele>
        <time>2018-03-08T18:15:05Z</time>
      </trkpt>
      <trkpt lat="46.67244" lon="-1.75162">
        <ele>54</ele>
        <time>2018-03-08T18:16:05Z</time>
      </trkpt>
      <trkpt lat="46.67246" lon="-1.75157">
        <ele>54</ele>
        <time>2018-03-08T18:17:05Z</time>
      </trkpt>
      <trkpt lat="46.67253" lon="-1.75145">
        <ele>54</ele>
        <time>2018-03-08T18:18:05Z</time>
      </trkpt>
      <trkpt lat="46.67264" lon="-1.7513">
        <ele>54</ele>
        <time>2018-03-08T18:19:05Z</time>
      </trkpt>
      <trkpt lat="46.67282" lon="-1.75101">
        <ele>54</ele>
        <time>2018-03-08T18:20:05Z</time>
      </trkpt>
      <trkpt lat="46.67286" lon="-1.75095">
        <ele>54</ele>
        <time>2018-03-08T18:21:05Z</time>
      </trkpt>
      <trkpt lat="46.67293" lon="-1.75087">
        <ele>55</ele>
        <time>2018-03-08T18:22:05Z</time>
      </trkpt>
      <trkpt lat="46.67296" lon="-1.75081">
        <ele>55</ele>
        <time>2018-03-08T18:23:05Z</time>
      </trkpt>
      <trkpt lat="46.67299" lon="-1.75077">
        <ele>55</ele>
        <time>2018-03-08T18:24:05Z</time>
      </trkpt>
      <trkpt lat="46.673" lon="-1.75074">
        <ele>55</ele>
        <time>2018-03-08T18:25:05Z</time>
      </trkpt>
      <trkpt lat="46.67302" lon="-1.7507">
        <ele>55</ele>
        <time>2018-03-08T18:26:05Z</time>
      </trkpt>
      <trkpt lat="46.67305" lon="-1.75064">
        <ele>55</ele>
        <time>2018-03-08T18:27:05Z</time>
      </trkpt>
      <trkpt lat="46.67307" lon="-1.75056">
        <ele>55</ele>
        <time>2018-03-08T18:28:05Z</time>
      </trkpt>
      <trkpt lat="46.67312" lon="-1.75037">
        <ele>55</ele>
        <time>2018-03-08T18:29:05Z</time>
      </trkpt>
      <trkpt lat="46.67315" lon="-1.75025">
        <ele>55</ele>
        <time>2018-03-08T18:30:05Z</time>
      </trkpt>
      <trkpt lat="46.67317" lon="-1.75017">
        <ele>55</ele>
        <time>2018-03-08T18:31:05Z</time>
      </trkpt>
      <trkpt lat="46.67318" lon="-1.75011">
        <ele>56</ele>
        <time>2018-03-08T18:32:05Z</time>
      </trkpt>
      <trkpt lat="46.6732" lon="-1.75006">
        <ele>56</ele>
        <time>2018-03-08T18:33:05Z</time>
      </trkpt>
      <trkpt lat="46.67323" lon="-1.74998">
        <ele>56</ele>
        <time>2018-03-08T18:34:05Z</time>
      </trkpt>
      <trkpt lat="46.67329" lon="-1.74984">
        <ele>56</ele>
        <time>2018-03-08T18:35:05Z</time>
      </trkpt>
      <trkpt lat="46.6733" lon="-1.74979">
        <ele>56</ele>
        <time>2018-03-08T18:36:05Z</time>
      </trkpt>
      <trkpt lat="46.67331" lon="-1.74975">
        <ele>56</ele>
        <time>2018-03-08T18:37:05Z</time>
      </trkpt>
      <trkpt lat="46.67333" lon="-1.74969">
        <ele>56</ele>
        <time>2018-03-08T18:38:05Z</time>
      </trkpt>
      <trkpt lat="46.67334" lon="-1.74964">
        <ele>56</ele>
        <time>2018-03-08T18:39:05Z</time>
      </trkpt>
      <trkpt lat="46.67336" lon="-1.74959">
        <ele>56</ele>
        <time>2018-03-08T18:40:05Z</time>
      </trkpt>
      <trkpt lat="46.67337" lon="-1.74956">
        <ele>56</ele>
        <time>2018-03-08T18:41:05Z</time>
      </trkpt>
      <trkpt lat="46.67338" lon="-1.74952">
        <ele>56</ele>
        <time>2018-03-08T18:42:05Z</time>
      </trkpt>
      <trkpt lat="46.6734" lon="-1.74943">
        <ele>56</ele>
        <time>2018-03-08T18:43:05Z</time>
      </trkpt>
      <trkpt lat="46.67344" lon="-1.74923">
        <ele>56</ele>
        <time>2018-03-08T18:44:05Z</time>
      </trkpt>
      <trkpt lat="46.67349" lon="-1.74904">
        <ele>56</ele>
        <time>2018-03-08T18:45:05Z</time>
      </trkpt>
      <trkpt lat="46.67351" lon="-1.74898">
        <ele>56</ele>
        <time>2018-03-08T18:46:05Z</time>
      </trkpt>
      <trkpt lat="46.67353" lon="-1.7489">
        <ele>56</ele>
        <time>2018-03-08T18:47:05Z</time>
      </trkpt>
      <trkpt lat="46.67354" lon="-1.74887">
        <ele>56</ele>
        <time>2018-03-08T18:48:05Z</time>
      </trkpt>
      <trkpt lat="46.67356" lon="-1.74883">
        <ele>56</ele>
        <time>2018-03-08T18:49:05Z</time>
      </trkpt>
      <trkpt lat="46.67358" lon="-1.74879">
        <ele>56</ele>
        <time>2018-03-08T18:50:05Z</time>
      </trkpt>
      <trkpt lat="46.67367" lon="-1.7486">
        <ele>56</ele>
        <time>2018-03-08T18:51:05Z</time>
      </trkpt>
      <trkpt lat="46.6738" lon="-1.74835">
        <ele>56</ele>
        <time>2018-03-08T18:52:05Z</time>
      </trkpt>
      <trkpt lat="46.67402" lon="-1.74791">
        <ele>56</ele>
        <time>2018-03-08T18:53:05Z</time>
      </trkpt>
      <trkpt lat="46.67414" lon="-1.74767">
        <ele>57</ele>
        <time>2018-03-08T18:54:05Z</time>
      </trkpt>
      <trkpt lat="46.67419" lon="-1.74759">
        <ele>57</ele>
        <time>2018-03-08T18:55:05Z</time>
      </trkpt>
      <trkpt lat="46.67434" lon="-1.74731">
        <ele>57</ele>
        <time>2018-03-08T18:56:05Z</time>
      </trkpt>
      <trkpt lat="46.67453" lon="-1.74697">
        <ele>58</ele>
        <time>2018-03-08T18:57:05Z</time>
      </trkpt>
      <trkpt lat="46.6746" lon="-1.74685">
        <ele>58</ele>
        <time>2018-03-08T18:58:05Z</time>
      </trkpt>
      <trkpt lat="46.67464" lon="-1.74677">
        <ele>58</ele>
        <time>2018-03-08T18:59:05Z</time>
      </trkpt>
      <trkpt lat="46.6747" lon="-1.74665">
        <ele>58</ele>
        <time>2018-03-08T19:00:05Z</time>
      </trkpt>
      <trkpt lat="46.67472" lon="-1.74661">
        <ele>58</ele>
        <time>2018-03-08T19:01:05Z</time>
      </trkpt>
      <trkpt lat="46.67479" lon="-1.74645">
        <ele>58</ele>
        <time>2018-03-08T19:02:05Z</time>
      </trkpt>
      <trkpt lat="46.67483" lon="-1.74636">
        <ele>58</ele>
        <time>2018-03-08T19:03:05Z</time>
      </trkpt>
      <trkpt lat="46.67486" lon="-1.7463">
        <ele>58</ele>
        <time>2018-03-08T19:04:05Z</time>
      </trkpt>
      <trkpt lat="46.6749" lon="-1.7462">
        <ele>58</ele>
        <time>2018-03-08T19:05:05Z</time>
      </trkpt>
      <trkpt lat="46.67493" lon="-1.74612">
        <ele>58</ele>
        <time>2018-03-08T19:06:05Z</time>
      </trkpt>
      <trkpt lat="46.67496" lon="-1.74603">
        <ele>58</ele>
        <time>2018-03-08T19:07:05Z</time>
      </trkpt>
      <trkpt lat="46.675" lon="-1.74593">
        <ele>58</ele>
        <time>2018-03-08T19:08:05Z</time>
      </trkpt>
      <trkpt lat="46.67502" lon="-1.74587">
        <ele>58</ele>
        <time>2018-03-08T19:09:05Z</time>
      </trkpt>
      <trkpt lat="46.67504" lon="-1.74584">
        <ele>58</ele>
        <time>2018-03-08T19:10:05Z</time>
      </trkpt>
      <trkpt lat="46.67505" lon="-1.7458">
        <ele>58</ele>
        <time>2018-03-08T19:11:05Z</time>
      </trkpt>
      <trkpt lat="46.67508" lon="-1.74569">
        <ele>57</ele>
        <time>2018-03-08T19:12:05Z</time>
      </trkpt>
      <trkpt lat="46.67513" lon="-1.74555">
        <ele>57</ele>
        <time>2018-03-08T19:13:05Z</time>
      </trkpt>
      <trkpt lat="46.67517" lon="-1.74543">
        <ele>57</ele>
        <time>2018-03-08T19:14:05Z</time>
      </trkpt>
      <trkpt lat="46.6752" lon="-1.74532">
        <ele>56</ele>
        <time>2018-03-08T19:15:05Z</time>
      </trkpt>
      <trkpt lat="46.67523" lon="-1.7452">
        <ele>56</ele>
        <time>2018-03-08T19:16:05Z</time>
      </trkpt>
      <trkpt lat="46.67528" lon="-1.74505">
        <ele>56</ele>
        <time>2018-03-08T19:17:05Z</time>
      </trkpt>
      <trkpt lat="46.67532" lon="-1.74489">
        <ele>56</ele>
        <time>2018-03-08T19:18:05Z</time>
      </trkpt>
      <trkpt lat="46.67533" lon="-1.74483">
        <ele>56</ele>
        <time>2018-03-08T19:19:05Z</time>
      </trkpt>
      <trkpt lat="46.67535" lon="-1.74478">
        <ele>56</ele>
        <time>2018-03-08T19:20:05Z</time>
      </trkpt>
      <trkpt lat="46.67536" lon="-1.74472">
        <ele>56</ele>
        <time>2018-03-08T19:21:05Z</time>
      </trkpt>
      <trkpt lat="46.67537" lon="-1.74466">
        <ele>56</ele>
        <time>2018-03-08T19:22:05Z</time>
      </trkpt>
      <trkpt lat="46.67539" lon="-1.7445">
        <ele>56</ele>
        <time>2018-03-08T19:23:05Z</time>
      </trkpt>
      <trkpt lat="46.67541" lon="-1.7444">
        <ele>56</ele>
        <time>2018-03-08T19:24:05Z</time>
      </trkpt>
      <trkpt lat="46.67546" lon="-1.74405">
        <ele>56</ele>
        <time>2018-03-08T19:25:05Z</time>
      </trkpt>
      <trkpt lat="46.67548" lon="-1.7439">
        <ele>56</ele>
        <time>2018-03-08T19:26:05Z</time>
      </trkpt>
      <trkpt lat="46.6755" lon="-1.74375">
        <ele>56</ele>
        <time>2018-03-08T19:27:05Z</time>
      </trkpt>
      <trkpt lat="46.6755" lon="-1.74368">
        <ele>56</ele>
        <time>2018-03-08T19:28:05Z</time>
      </trkpt>
      <trkpt lat="46.67551" lon="-1.74362">
        <ele>56</ele>
        <time>2018-03-08T19:29:05Z</time>
      </trkpt>
      <trkpt lat="46.67551" lon="-1.74355">
        <ele>56</ele>
        <time>2018-03-08T19:30:05Z</time>
      </trkpt>
      <trkpt lat="46.67551" lon="-1.74348">
        <ele>55</ele>
        <time>2018-03-08T19:31:05Z</time>
      </trkpt>
      <trkpt lat="46.67551" lon="-1.74341">
        <ele>55</ele>
        <time>2018-03-08T19:32:05Z</time>
      </trkpt>
      <trkpt lat="46.67551" lon="-1.74311">
        <ele>55</ele>
        <time>2018-03-08T19:33:05Z</time>
      </trkpt>
      <trkpt lat="46.6755" lon="-1.74269">
        <ele>56</ele>
        <time>2018-03-08T19:34:05Z</time>
      </trkpt>
      <trkpt lat="46.6755" lon="-1.74219">
        <ele>56</ele>
        <time>2018-03-08T19:35:05Z</time>
      </trkpt>
      <trkpt lat="46.6755" lon="-1.74196">
        <ele>56</ele>
        <time>2018-03-08T19:36:05Z</time>
      </trkpt>
      <trkpt lat="46.67551" lon="-1.74185">
        <ele>55</ele>
        <time>2018-03-08T19:37:05Z</time>
      </trkpt>
      <trkpt lat="46.67551" lon="-1.74173">
        <ele>55</ele>
        <time>2018-03-08T19:38:05Z</time>
      </trkpt>
      <trkpt lat="46.67553" lon="-1.74134">
        <ele>56</ele>
        <time>2018-03-08T19:39:05Z</time>
      </trkpt>
      <trkpt lat="46.67554" lon="-1.74112">
        <ele>56</ele>
        <time>2018-03-08T19:40:05Z</time>
      </trkpt>
      <trkpt lat="46.67556" lon="-1.74086">
        <ele>56</ele>
        <time>2018-03-08T19:41:05Z</time>
      </trkpt>
      <trkpt lat="46.67558" lon="-1.7407">
        <ele>56</ele>
        <time>2018-03-08T19:42:05Z</time>
      </trkpt>
      <trkpt lat="46.67559" lon="-1.74058">
        <ele>56</ele>
        <time>2018-03-08T19:43:05Z</time>
      </trkpt>
      <trkpt lat="46.67561" lon="-1.74041">
        <ele>56</ele>
        <time>2018-03-08T19:44:05Z</time>
      </trkpt>
      <trkpt lat="46.67562" lon="-1.7403">
        <ele>56</ele>
        <time>2018-03-08T19:45:05Z</time>
      </trkpt>
      <trkpt lat="46.67564" lon="-1.7402">
        <ele>56</ele>
        <time>2018-03-08T19:46:05Z</time>
      </trkpt>
      <trkpt lat="46.67565" lon="-1.74013">
        <ele>56</ele>
        <time>2018-03-08T19:47:05Z</time>
      </trkpt>
      <trkpt lat="46.67567" lon="-1.74002">
        <ele>56</ele>
        <time>2018-03-08T19:48:05Z</time>
      </trkpt>
      <trkpt lat="46.6757" lon="-1.73991">
        <ele>56</ele>
        <time>2018-03-08T19:49:05Z</time>
      </trkpt>
      <trkpt lat="46.67573" lon="-1.73977">
        <ele>56</ele>
        <time>2018-03-08T19:50:05Z</time>
      </trkpt>
      <trkpt lat="46.67584" lon="-1.73933">
        <ele>57</ele>
        <time>2018-03-08T19:51:05Z</time>
      </trkpt>
      <trkpt lat="46.67588" lon="-1.73917">
        <ele>57</ele>
        <time>2018-03-08T19:52:05Z</time>
      </trkpt>
      <trkpt lat="46.676" lon="-1.7387">
        <ele>57</ele>
        <time>2018-03-08T19:53:05Z</time>
      </trkpt>
      <trkpt lat="46.67616" lon="-1.73811">
        <ele>57</ele>
        <time>2018-03-08T19:54:05Z</time>
      </trkpt>
      <trkpt lat="46.67626" lon="-1.73772">
        <ele>56</ele>
        <time>2018-03-08T19:55:05Z</time>
      </trkpt>
      <trkpt lat="46.67628" lon="-1.73767">
        <ele>56</ele>
        <time>2018-03-08T19:56:05Z</time>
      </trkpt>
      <trkpt lat="46.6763" lon="-1.7376">
        <ele>56</ele>
        <time>2018-03-08T19:57:05Z</time>
      </trkpt>
      <trkpt lat="46.67635" lon="-1.73748">
        <ele>56</ele>
        <time>2018-03-08T19:58:05Z</time>
      </trkpt>
      <trkpt lat="46.67638" lon="-1.73739">
        <ele>56</ele>
        <time>2018-03-08T19:59:05Z</time>
      </trkpt>
      <trkpt lat="46.67641" lon="-1.73732">
        <ele>56</ele>
        <time>2018-03-08T20:00:05Z</time>
      </trkpt>
      <trkpt lat="46.67646" lon="-1.73722">
        <ele>55</ele>
        <time>2018-03-08T20:01:05Z</time>
      </trkpt>
      <trkpt lat="46.67649" lon="-1.73715">
        <ele>55</ele>
        <time>2018-03-08T20:02:05Z</time>
      </trkpt>
      <trkpt lat="46.67654" lon="-1.73705">
        <ele>55</ele>
        <time>2018-03-08T20:03:05Z</time>
      </trkpt>
      <trkpt lat="46.67673" lon="-1.7367">
        <ele>55</ele>
        <time>2018-03-08T20:04:05Z</time>
      </trkpt>
      <trkpt lat="46.67688" lon="-1.73647">
        <ele>55</ele>
        <time>2018-03-08T20:05:05Z</time>
      </trkpt>
      <trkpt lat="46.67702" lon="-1.73625">
        <ele>56</ele>
        <time>2018-03-08T20:06:05Z</time>
      </trkpt>
      <trkpt lat="46.67717" lon="-1.73602">
        <ele>56</ele>
        <time>2018-03-08T20:07:05Z</time>
      </trkpt>
      <trkpt lat="46.67736" lon="-1.73571">
        <ele>56</ele>
        <time>2018-03-08T20:08:05Z</time>
      </trkpt>
      <trkpt lat="46.6776" lon="-1.73529">
        <ele>57</ele>
        <time>2018-03-08T20:09:05Z</time>
      </trkpt>
      <trkpt lat="46.6778" lon="-1.73487">
        <ele>57</ele>
        <time>2018-03-08T20:10:05Z</time>
      </trkpt>
      <trkpt lat="46.67788" lon="-1.73472">
        <ele>56</ele>
        <time>2018-03-08T20:11:05Z</time>
      </trkpt>
      <trkpt lat="46.67794" lon="-1.7346">
        <ele>56</ele>
        <time>2018-03-08T20:12:05Z</time>
      </trkpt>
      <trkpt lat="46.67807" lon="-1.73435">
        <ele>55</ele>
        <time>2018-03-08T20:13:05Z</time>
      </trkpt>
      <trkpt lat="46.67828" lon="-1.734">
        <ele>55</ele>
        <time>2018-03-08T20:14:05Z</time>
      </trkpt>
      <trkpt lat="46.67858" lon="-1.7336">
        <ele>54</ele>
        <time>2018-03-08T20:15:05Z</time>
      </trkpt>
      <trkpt lat="46.67883" lon="-1.73328">
        <ele>54</ele>
        <time>2018-03-08T20:16:05Z</time>
      </trkpt>
      <trkpt lat="46.67895" lon="-1.73314">
        <ele>54</ele>
        <time>2018-03-08T20:17:05Z</time>
      </trkpt>
      <trkpt lat="46.67918" lon="-1.73284">
        <ele>55</ele>
        <time>2018-03-08T20:18:05Z</time>
      </trkpt>
      <trkpt lat="46.67943" lon="-1.73253">
        <ele>55</ele>
        <time>2018-03-08T20:19:05Z</time>
      </trkpt>
      <trkpt lat="46.67973" lon="-1.73214">
        <ele>56</ele>
        <time>2018-03-08T20:20:05Z</time>
      </trkpt>
      <trkpt lat="46.6799" lon="-1.7319">
        <ele>56</ele>
        <time>2018-03-08T20:21:05Z</time>
      </trkpt>
      <trkpt lat="46.68017" lon="-1.73152">
        <ele>57</ele>
        <time>2018-03-08T20:22:05Z</time>
      </trkpt>
      <trkpt lat="46.6804" lon="-1.73107">
        <ele>57</ele>
        <time>2018-03-08T20:23:05Z</time>
      </trkpt>
      <trkpt lat="46.68052" lon="-1.73087">
        <ele>57</ele>
        <time>2018-03-08T20:24:05Z</time>
      </trkpt>
      <trkpt lat="46.68058" lon="-1.73071">
        <ele>57</ele>
        <time>2018-03-08T20:25:05Z</time>
      </trkpt>
      <trkpt lat="46.68075" lon="-1.73037">
        <ele>57</ele>
        <time>2018-03-08T20:26:05Z</time>
      </trkpt>
      <trkpt lat="46.68099" lon="-1.72985">
        <ele>57</ele>
        <time>2018-03-08T20:27:05Z</time>
      </trkpt>
      <trkpt lat="46.68124" lon="-1.72932">
        <ele>57</ele>
        <time>2018-03-08T20:28:05Z</time>
      </trkpt>
      <trkpt lat="46.68155" lon="-1.72862">
        <ele>57</ele>
        <time>2018-03-08T20:29:05Z</time>
      </trkpt>
      <trkpt lat="46.68164" lon="-1.72843">
        <ele>57</ele>
        <time>2018-03-08T20:30:05Z</time>
      </trkpt>
      <trkpt lat="46.68183" lon="-1.72801">
        <ele>56</ele>
        <time>2018-03-08T20:31:05Z</time>
      </trkpt>
      <trkpt lat="46.68205" lon="-1.72753">
        <ele>56</ele>
        <time>2018-03-08T20:32:05Z</time>
      </trkpt>
      <trkpt lat="46.68228" lon="-1.72705">
        <ele>56</ele>
        <time>2018-03-08T20:33:05Z</time>
      </trkpt>
      <trkpt lat="46.68252" lon="-1.72655">
        <ele>56</ele>
        <time>2018-03-08T20:34:05Z</time>
      </trkpt>
      <trkpt lat="46.68263" lon="-1.72627">
        <ele>56</ele>
        <time>2018-03-08T20:35:05Z</time>
      </trkpt>
      <trkpt lat="46.68266" lon="-1.72621">
        <ele>56</ele>
        <time>2018-03-08T20:36:05Z</time>
      </trkpt>
      <trkpt lat="46.68269" lon="-1.7261">
        <ele>56</ele>
        <time>2018-03-08T20:37:05Z</time>
      </trkpt>
      <trkpt lat="46.68269" lon="-1.7261">
        <ele>56</ele>
        <time>2018-03-08T20:38:05Z</time>
      </trkpt>
      <trkpt lat="46.68279" lon="-1.72616">
        <ele>57</ele>
        <time>2018-03-08T20:39:05Z</time>
      </trkpt>
      <trkpt lat="46.68324" lon="-1.72642">
        <ele>57</ele>
        <time>2018-03-08T20:40:05Z</time>
      </trkpt>
      <trkpt lat="46.68356" lon="-1.72659">
        <ele>57</ele>
        <time>2018-03-08T20:41:05Z</time>
      </trkpt>
      <trkpt lat="46.68389" lon="-1.72678">
        <ele>56</ele>
        <time>2018-03-08T20:42:05Z</time>
      </trkpt>
      <trkpt lat="46.68442" lon="-1.72708">
        <ele>57</ele>
        <time>2018-03-08T20:43:05Z</time>
      </trkpt>
      <trkpt lat="46.68472" lon="-1.72724">
        <ele>57</ele>
        <time>2018-03-08T20:44:05Z</time>
      </trkpt>
      <trkpt lat="46.68485" lon="-1.72728">
        <ele>57</ele>
        <time>2018-03-08T20:45:05Z</time>
      </trkpt>
      <trkpt lat="46.68496" lon="-1.72727">
        <ele>57</ele>
        <time>2018-03-08T20:46:05Z</time>
      </trkpt>
      <trkpt lat="46.685" lon="-1.72726">
        <ele>57</ele>
        <time>2018-03-08T20:47:05Z</time>
      </trkpt>
      <trkpt lat="46.685" lon="-1.72726">
        <ele>57</ele>
        <time>2018-03-08T20:48:05Z</time>
      </trkpt>
      <trkpt lat="46.68506" lon="-1.72723">
        <ele>57</ele>
        <time>2018-03-08T20:49:05Z</time>
      </trkpt>
      <trkpt lat="46.68518" lon="-1.72712">
        <ele>57</ele>
        <time>2018-03-08T20:50:05Z</time>
      </trkpt>
      <trkpt lat="46.68528" lon="-1.72692">
        <ele>57</ele>
        <time>2018-03-08T20:51:05Z</time>
      </trkpt>
      <trkpt lat="46.68543" lon="-1.72652">
        <ele>57</ele>
        <time>2018-03-08T20:52:05Z</time>
      </trkpt>
      <trkpt lat="46.68564" lon="-1.72594">
        <ele>56</ele>
        <time>2018-03-08T20:53:05Z</time>
      </trkpt>
      <trkpt lat="46.68581" lon="-1.72547">
        <ele>57</ele>
        <time>2018-03-08T20:54:05Z</time>
      </trkpt>
      <trkpt lat="46.68584" lon="-1.72539">
        <ele>57</ele>
        <time>2018-03-08T20:55:05Z</time>
      </trkpt>
      <trkpt lat="46.68601" lon="-1.72488">
        <ele>58</ele>
        <time>2018-03-08T20:56:05Z</time>
      </trkpt>
      <trkpt lat="46.68613" lon="-1.72454">
        <ele>58</ele>
        <time>2018-03-08T20:57:05Z</time>
      </trkpt>
      <trkpt lat="46.68629" lon="-1.72407">
        <ele>58</ele>
        <time>2018-03-08T20:58:05Z</time>
      </trkpt>
      <trkpt lat="46.68639" lon="-1.72376">
        <ele>58</ele>
        <time>2018-03-08T20:59:05Z</time>
      </trkpt>
      <trkpt lat="46.6866" lon="-1.7231">
        <ele>57</ele>
        <time>2018-03-08T21:00:05Z</time>
      </trkpt>
      <trkpt lat="46.6867" lon="-1.7228">
        <ele>57</ele>
        <time>2018-03-08T21:01:05Z</time>
      </trkpt>
      <trkpt lat="46.68677" lon="-1.72258">
        <ele>57</ele>
        <time>2018-03-08T21:02:05Z</time>
      </trkpt>
      <trkpt lat="46.68685" lon="-1.72232">
        <ele>57</ele>
        <time>2018-03-08T21:03:05Z</time>
      </trkpt>
      <trkpt lat="46.68691" lon="-1.72216">
        <ele>57</ele>
        <time>2018-03-08T21:04:05Z</time>
      </trkpt>
      <trkpt lat="46.68692" lon="-1.72214">
        <ele>57</ele>
        <time>2018-03-08T21:05:05Z</time>
      </trkpt>
      <trkpt lat="46.68697" lon="-1.72203">
        <ele>57</ele>
        <time>2018-03-08T21:06:05Z</time>
      </trkpt>
      <trkpt lat="46.68704" lon="-1.72193">
        <ele>57</ele>
        <time>2018-03-08T21:07:05Z</time>
      </trkpt>
      <trkpt lat="46.68709" lon="-1.72185">
        <ele>57</ele>
        <time>2018-03-08T21:08:05Z</time>
      </trkpt>
      <trkpt lat="46.68721" lon="-1.72171">
        <ele>57</ele>
        <time>2018-03-08T21:09:05Z</time>
      </trkpt>
      <trkpt lat="46.68725" lon="-1.72166">
        <ele>57</ele>
        <time>2018-03-08T21:10:05Z</time>
      </trkpt>
      <trkpt lat="46.68728" lon="-1.72163">
        <ele>57</ele>
        <time>2018-03-08T21:11:05Z</time>
      </trkpt>
      <trkpt lat="46.68731" lon="-1.72158">
        <ele>57</ele>
        <time>2018-03-08T21:12:05Z</time>
      </trkpt>
      <trkpt lat="46.68731" lon="-1.72158">
        <ele>57</ele>
        <time>2018-03-08T21:13:05Z</time>
      </trkpt>
      <trkpt lat="46.68734" lon="-1.72156">
        <ele>57</ele>
        <time>2018-03-08T21:14:05Z</time>
      </trkpt>
      <trkpt lat="46.68741" lon="-1.72152">
        <ele>57</ele>
        <time>2018-03-08T21:15:05Z</time>
      </trkpt>
      <trkpt lat="46.68747" lon="-1.72152">
        <ele>57</ele>
        <time>2018-03-08T21:16:05Z</time>
      </trkpt>
      <trkpt lat="46.68758" lon="-1.72153">
        <ele>57</ele>
        <time>2018-03-08T21:17:05Z</time>
      </trkpt>
      <trkpt lat="46.68769" lon="-1.72156">
        <ele>57</ele>
        <time>2018-03-08T21:18:05Z</time>
      </trkpt>
      <trkpt lat="46.68806" lon="-1.72168">
        <ele>57</ele>
        <time>2018-03-08T21:19:05Z</time>
      </trkpt>
      <trkpt lat="46.68839" lon="-1.72179">
        <ele>57</ele>
        <time>2018-03-08T21:20:05Z</time>
      </trkpt>
      <trkpt lat="46.68855" lon="-1.72184">
        <ele>57</ele>
        <time>2018-03-08T21:21:05Z</time>
      </trkpt>
      <trkpt lat="46.68906" lon="-1.722">
        <ele>57</ele>
        <time>2018-03-08T21:22:05Z</time>
      </trkpt>
      <trkpt lat="46.68951" lon="-1.72215">
        <ele>56</ele>
        <time>2018-03-08T21:23:05Z</time>
      </trkpt>
      <trkpt lat="46.68986" lon="-1.72226">
        <ele>55</ele>
        <time>2018-03-08T21:24:05Z</time>
      </trkpt>
      <trkpt lat="46.69024" lon="-1.72238">
        <ele>55</ele>
        <time>2018-03-08T21:25:05Z</time>
      </trkpt>
      <trkpt lat="46.69052" lon="-1.72247">
        <ele>55</ele>
        <time>2018-03-08T21:26:05Z</time>
      </trkpt>
      <trkpt lat="46.69066" lon="-1.72252">
        <ele>55</ele>
        <time>2018-03-08T21:27:05Z</time>
      </trkpt>
      <trkpt lat="46.69089" lon="-1.7226">
        <ele>55</ele>
        <time>2018-03-08T21:28:05Z</time>
      </trkpt>
      <trkpt lat="46.69104" lon="-1.72264">
        <ele>54</ele>
        <time>2018-03-08T21:29:05Z</time>
      </trkpt>
      <trkpt lat="46.69128" lon="-1.72272">
        <ele>54</ele>
        <time>2018-03-08T21:30:05Z</time>
      </trkpt>
      <trkpt lat="46.69132" lon="-1.72273">
        <ele>54</ele>
        <time>2018-03-08T21:31:05Z</time>
      </trkpt>
      <trkpt lat="46.69164" lon="-1.72284">
        <ele>53</ele>
        <time>2018-03-08T21:32:05Z</time>
      </trkpt>
      <trkpt lat="46.69183" lon="-1.7229">
        <ele>53</ele>
        <time>2018-03-08T21:33:05Z</time>
      </trkpt>
      <trkpt lat="46.69187" lon="-1.72291">
        <ele>52</ele>
        <time>2018-03-08T21:34:05Z</time>
      </trkpt>
      <trkpt lat="46.69211" lon="-1.723">
        <ele>52</ele>
        <time>2018-03-08T21:35:05Z</time>
      </trkpt>
      <trkpt lat="46.69243" lon="-1.7231">
        <ele>51</ele>
        <time>2018-03-08T21:36:05Z</time>
      </trkpt>
      <trkpt lat="46.69251" lon="-1.72312">
        <ele>50</ele>
        <time>2018-03-08T21:37:05Z</time>
      </trkpt>
      <trkpt lat="46.69305" lon="-1.7233">
        <ele>50</ele>
        <time>2018-03-08T21:38:05Z</time>
      </trkpt>
      <trkpt lat="46.69319" lon="-1.72335">
        <ele>50</ele>
        <time>2018-03-08T21:39:05Z</time>
      </trkpt>
      <trkpt lat="46.69348" lon="-1.72345">
        <ele>50</ele>
        <time>2018-03-08T21:40:05Z</time>
      </trkpt>
      <trkpt lat="46.69368" lon="-1.72352">
        <ele>49</ele>
        <time>2018-03-08T21:41:05Z</time>
      </trkpt>
      <trkpt lat="46.69405" lon="-1.72364">
        <ele>49</ele>
        <time>2018-03-08T21:42:05Z</time>
      </trkpt>
      <trkpt lat="46.69421" lon="-1.72369">
        <ele>49</ele>
        <time>2018-03-08T21:43:05Z</time>
      </trkpt>
      <trkpt lat="46.69424" lon="-1.7237">
        <ele>49</ele>
        <time>2018-03-08T21:44:05Z</time>
      </trkpt>
      <trkpt lat="46.69461" lon="-1.72382">
        <ele>49</ele>
        <time>2018-03-08T21:45:05Z</time>
      </trkpt>
      <trkpt lat="46.69511" lon="-1.72398">
        <ele>50</ele>
        <time>2018-03-08T21:46:05Z</time>
      </trkpt>
      <trkpt lat="46.69578" lon="-1.72421">
        <ele>51</ele>
        <time>2018-03-08T21:47:05Z</time>
      </trkpt>
      <trkpt lat="46.69614" lon="-1.72432">
        <ele>51</ele>
        <time>2018-03-08T21:48:05Z</time>
      </trkpt>
      <trkpt lat="46.69644" lon="-1.72442">
        <ele>51</ele>
        <time>2018-03-08T21:49:05Z</time>
      </trkpt>
      <trkpt lat="46.69686" lon="-1.72456">
        <ele>51</ele>
        <time>2018-03-08T21:50:05Z</time>
      </trkpt>
      <trkpt lat="46.69703" lon="-1.72462">
        <ele>51</ele>
        <time>2018-03-08T21:51:05Z</time>
      </trkpt>
      <trkpt lat="46.69729" lon="-1.7247">
        <ele>52</ele>
        <time>2018-03-08T21:52:05Z</time>
      </trkpt>
      <trkpt lat="46.69764" lon="-1.72481">
        <ele>52</ele>
        <time>2018-03-08T21:53:05Z</time>
      </trkpt>
      <trkpt lat="46.69801" lon="-1.72494">
        <ele>51</ele>
        <time>2018-03-08T21:54:05Z</time>
      </trkpt>
      <trkpt lat="46.69839" lon="-1.72506">
        <ele>51</ele>
        <time>2018-03-08T21:55:05Z</time>
      </trkpt>
      <trkpt lat="46.69841" lon="-1.72506">
        <ele>51</ele>
        <time>2018-03-08T21:56:05Z</time>
      </trkpt>
      <trkpt lat="46.69848" lon="-1.72509">
        <ele>51</ele>
        <time>2018-03-08T21:57:05Z</time>
      </trkpt>
      <trkpt lat="46.69875" lon="-1.72517">
        <ele>51</ele>
        <time>2018-03-08T21:58:05Z</time>
      </trkpt>
      <trkpt lat="46.69908" lon="-1.72528">
        <ele>52</ele>
        <time>2018-03-08T21:59:05Z</time>
      </trkpt>
      <trkpt lat="46.69947" lon="-1.7254">
        <ele>51</ele>
        <time>2018-03-08T22:00:05Z</time>
      </trkpt>
      <trkpt lat="46.69963" lon="-1.72546">
        <ele>51</ele>
        <time>2018-03-08T22:01:05Z</time>
      </trkpt>
      <trkpt lat="46.69995" lon="-1.72556">
        <ele>51</ele>
        <time>2018-03-08T22:02:05Z</time>
      </trkpt>
      <trkpt lat="46.70038" lon="-1.7257">
        <ele>52</ele>
        <time>2018-03-08T22:03:05Z</time>
      </trkpt>
      <trkpt lat="46.7004" lon="-1.72571">
        <ele>52</ele>
        <time>2018-03-08T22:04:05Z</time>
      </trkpt>
      <trkpt lat="46.70043" lon="-1.72572">
        <ele>52</ele>
        <time>2018-03-08T22:05:05Z</time>
      </trkpt>
      <trkpt lat="46.70068" lon="-1.72579">
        <ele>53</ele>
        <time>2018-03-08T22:06:05Z</time>
      </trkpt>
      <trkpt lat="46.70095" lon="-1.72587">
        <ele>53</ele>
        <time>2018-03-08T22:07:05Z</time>
      </trkpt>
      <trkpt lat="46.70124" lon="-1.72594">
        <ele>54</ele>
        <time>2018-03-08T22:08:05Z</time>
      </trkpt>
      <trkpt lat="46.70147" lon="-1.726">
        <ele>55</ele>
        <time>2018-03-08T22:09:05Z</time>
      </trkpt>
      <trkpt lat="46.70165" lon="-1.72604">
        <ele>55</ele>
        <time>2018-03-08T22:10:05Z</time>
      </trkpt>
      <trkpt lat="46.70181" lon="-1.72606">
        <ele>55</ele>
        <time>2018-03-08T22:11:05Z</time>
      </trkpt>
      <trkpt lat="46.70198" lon="-1.72604">
        <ele>55</ele>
        <time>2018-03-08T22:12:05Z</time>
      </trkpt>
      <trkpt lat="46.70216" lon="-1.726">
        <ele>55</ele>
        <time>2018-03-08T22:13:05Z</time>
      </trkpt>
      <trkpt lat="46.70237" lon="-1.72592">
        <ele>54</ele>
        <time>2018-03-08T22:14:05Z</time>
      </trkpt>
      <trkpt lat="46.70272" lon="-1.7256">
        <ele>54</ele>
        <time>2018-03-08T22:15:05Z</time>
      </trkpt>
      <trkpt lat="46.70298" lon="-1.72527">
        <ele>54</ele>
        <time>2018-03-08T22:16:05Z</time>
      </trkpt>
      <trkpt lat="46.70338" lon="-1.72453">
        <ele>53</ele>
        <time>2018-03-08T22:17:05Z</time>
      </trkpt>
      <trkpt lat="46.70421" lon="-1.72296">
        <ele>52</ele>
        <time>2018-03-08T22:18:05Z</time>
      </trkpt>
      <trkpt lat="46.70444" lon="-1.72269">
        <ele>51</ele>
        <time>2018-03-08T22:19:05Z</time>
      </trkpt>
      <trkpt lat="46.70459" lon="-1.72258">
        <ele>51</ele>
        <time>2018-03-08T22:20:05Z</time>
      </trkpt>
      <trkpt lat="46.70486" lon="-1.72254">
        <ele>50</ele>
        <time>2018-03-08T22:21:05Z</time>
      </trkpt>
      <trkpt lat="46.70496" lon="-1.72254">
        <ele>50</ele>
        <time>2018-03-08T22:22:05Z</time>
      </trkpt>
      <trkpt lat="46.70506" lon="-1.72258">
        <ele>50</ele>
        <time>2018-03-08T22:23:05Z</time>
      </trkpt>
      <trkpt lat="46.70509" lon="-1.72259">
        <ele>50</ele>
        <time>2018-03-08T22:24:05Z</time>
      </trkpt>
      <trkpt lat="46.70529" lon="-1.72259">
        <ele>51</ele>
        <time>2018-03-08T22:25:05Z</time>
      </trkpt>
      <trkpt lat="46.70529" lon="-1.72259">
        <ele>51</ele>
        <time>2018-03-08T22:26:05Z</time>
      </trkpt>
      <trkpt lat="46.7053" lon="-1.72256">
        <ele>51</ele>
        <time>2018-03-08T22:27:05Z</time>
      </trkpt>
      <trkpt lat="46.70531" lon="-1.72254">
        <ele>50</ele>
        <time>2018-03-08T22:28:05Z</time>
      </trkpt>
      <trkpt lat="46.70532" lon="-1.72252">
        <ele>50</ele>
        <time>2018-03-08T22:29:05Z</time>
      </trkpt>
      <trkpt lat="46.70534" lon="-1.7225">
        <ele>50</ele>
        <time>2018-03-08T22:30:05Z</time>
      </trkpt>
      <trkpt lat="46.70535" lon="-1.72248">
        <ele>50</ele>
        <time>2018-03-08T22:31:05Z</time>
      </trkpt>
      <trkpt lat="46.70537" lon="-1.72246">
        <ele>50</ele>
        <time>2018-03-08T22:32:05Z</time>
      </trkpt>
      <trkpt lat="46.70538" lon="-1.72244">
        <ele>50</ele>
        <time>2018-03-08T22:33:05Z</time>
      </trkpt>
      <trkpt lat="46.7054" lon="-1.72242">
        <ele>50</ele>
        <time>2018-03-08T22:34:05Z</time>
      </trkpt>
      <trkpt lat="46.70541" lon="-1.72241">
        <ele>50</ele>
        <time>2018-03-08T22:35:05Z</time>
      </trkpt>
      <trkpt lat="46.70543" lon="-1.72239">
        <ele>51</ele>
        <time>2018-03-08T22:36:05Z</time>
      </trkpt>
      <trkpt lat="46.70546" lon="-1.72238">
        <ele>51</ele>
        <time>2018-03-08T22:37:05Z</time>
      </trkpt>
      <trkpt lat="46.70548" lon="-1.72238">
        <ele>51</ele>
        <time>2018-03-08T22:38:05Z</time>
      </trkpt>
      <trkpt lat="46.7055" lon="-1.72238">
        <ele>51</ele>
        <time>2018-03-08T22:39:05Z</time>
      </trkpt>
      <trkpt lat="46.70553" lon="-1.72239">
        <ele>51</ele>
        <time>2018-03-08T22:40:05Z</time>
      </trkpt>
      <trkpt lat="46.70555" lon="-1.7224">
        <ele>51</ele>
        <time>2018-03-08T22:41:05Z</time>
      </trkpt>
      <trkpt lat="46.70556" lon="-1.7224">
        <ele>51</ele>
        <time>2018-03-08T22:42:05Z</time>
      </trkpt>
      <trkpt lat="46.70564" lon="-1.72246">
        <ele>51</ele>
        <time>2018-03-08T22:43:05Z</time>
      </trkpt>
      <trkpt lat="46.70566" lon="-1.72248">
        <ele>51</ele>
        <time>2018-03-08T22:44:05Z</time>
      </trkpt>
      <trkpt lat="46.70567" lon="-1.72249">
        <ele>51</ele>
        <time>2018-03-08T22:45:05Z</time>
      </trkpt>
      <trkpt lat="46.70568" lon="-1.72252">
        <ele>51</ele>
        <time>2018-03-08T22:46:05Z</time>
      </trkpt>
      <trkpt lat="46.70569" lon="-1.72254">
        <ele>51</ele>
        <time>2018-03-08T22:47:05Z</time>
      </trkpt>
      <trkpt lat="46.7057" lon="-1.72256">
        <ele>51</ele>
        <time>2018-03-08T22:48:05Z</time>
      </trkpt>
      <trkpt lat="46.70571" lon="-1.72258">
        <ele>51</ele>
        <time>2018-03-08T22:49:05Z</time>
      </trkpt>
      <trkpt lat="46.70572" lon="-1.7226">
        <ele>51</ele>
        <time>2018-03-08T22:50:05Z</time>
      </trkpt>
      <trkpt lat="46.70573" lon="-1.72263">
        <ele>51</ele>
        <time>2018-03-08T22:51:05Z</time>
      </trkpt>
      <trkpt lat="46.70574" lon="-1.72265">
        <ele>51</ele>
        <time>2018-03-08T22:52:05Z</time>
      </trkpt>
      <trkpt lat="46.70574" lon="-1.72267">
        <ele>51</ele>
        <time>2018-03-08T22:53:05Z</time>
      </trkpt>
      <trkpt lat="46.70575" lon="-1.72269">
        <ele>51</ele>
        <time>2018-03-08T22:54:05Z</time>
      </trkpt>
      <trkpt lat="46.70575" lon="-1.72271">
        <ele>51</ele>
        <time>2018-03-08T22:55:05Z</time>
      </trkpt>
      <trkpt lat="46.70576" lon="-1.72273">
        <ele>51</ele>
        <time>2018-03-08T22:56:05Z</time>
      </trkpt>
      <trkpt lat="46.70576" lon="-1.72276">
        <ele>52</ele>
        <time>2018-03-08T22:57:05Z</time>
      </trkpt>
      <trkpt lat="46.70577" lon="-1.72278">
        <ele>52</ele>
        <time>2018-03-08T22:58:05Z</time>
      </trkpt>
      <trkpt lat="46.70577" lon="-1.7228">
        <ele>52</ele>
        <time>2018-03-08T22:59:05Z</time>
      </trkpt>
      <trkpt lat="46.70576" lon="-1.72286">
        <ele>52</ele>
        <time>2018-03-08T23:00:05Z</time>
      </trkpt>
      <trkpt lat="46.70575" lon="-1.72292">
        <ele>52</ele>
        <time>2018-03-08T23:01:05Z</time>
      </trkpt>
      <trkpt lat="46.70573" lon="-1.72298">
        <ele>52</ele>
        <time>2018-03-08T23:02:05Z</time>
      </trkpt>
      <trkpt lat="46.7057" lon="-1.72303">
        <ele>52</ele>
        <time>2018-03-08T23:03:05Z</time>
      </trkpt>
      <trkpt lat="46.70567" lon="-1.72308">
        <ele>52</ele>
        <time>2018-03-08T23:04:05Z</time>
      </trkpt>
      <trkpt lat="46.70564" lon="-1.72312">
        <ele>52</ele>
        <time>2018-03-08T23:05:05Z</time>
      </trkpt>
      <trkpt lat="46.70561" lon="-1.72315">
        <ele>53</ele>
        <time>2018-03-08T23:06:05Z</time>
      </trkpt>
      <trkpt lat="46.70557" lon="-1.72318">
        <ele>53</ele>
        <time>2018-03-08T23:07:05Z</time>
      </trkpt>
      <trkpt lat="46.70552" lon="-1.72351">
        <ele>53</ele>
        <time>2018-03-08T23:08:05Z</time>
      </trkpt>
      <trkpt lat="46.7055" lon="-1.7236">
        <ele>53</ele>
        <time>2018-03-08T23:09:05Z</time>
      </trkpt>
      <trkpt lat="46.70549" lon="-1.72388">
        <ele>53</ele>
        <time>2018-03-08T23:10:05Z</time>
      </trkpt>
      <trkpt lat="46.70543" lon="-1.72409">
        <ele>53</ele>
        <time>2018-03-08T23:11:05Z</time>
      </trkpt>
      <trkpt lat="46.70536" lon="-1.72431">
        <ele>52</ele>
        <time>2018-03-08T23:12:05Z</time>
      </trkpt>
      <trkpt lat="46.70521" lon="-1.7246">
        <ele>52</ele>
        <time>2018-03-08T23:13:05Z</time>
      </trkpt>
      <trkpt lat="46.7052" lon="-1.72463">
        <ele>52</ele>
        <time>2018-03-08T23:14:05Z</time>
      </trkpt>
      <trkpt lat="46.705" lon="-1.72503">
        <ele>53</ele>
        <time>2018-03-08T23:15:05Z</time>
      </trkpt>
      <trkpt lat="46.70499" lon="-1.72504">
        <ele>53</ele>
        <time>2018-03-08T23:16:05Z</time>
      </trkpt>
      <trkpt lat="46.70499" lon="-1.72504">
        <ele>53</ele>
        <time>2018-03-08T23:17:05Z</time>
      </trkpt>
      <trkpt lat="46.70527" lon="-1.7253">
        <ele>52</ele>
        <time>2018-03-08T23:18:05Z</time>
      </trkpt>
      <trkpt lat="46.7053" lon="-1.72537">
        <ele>52</ele>
        <time>2018-03-08T23:19:05Z</time>
      </trkpt>
      <trkpt lat="46.70538" lon="-1.72542">
        <ele>52</ele>
        <time>2018-03-08T23:20:05Z</time>
      </trkpt>
      <trkpt lat="46.70548" lon="-1.7255">
        <ele>52</ele>
        <time>2018-03-08T23:21:05Z</time>
      </trkpt>
      <trkpt lat="46.70562" lon="-1.72563">
        <ele>51</ele>
        <time>2018-03-08T23:22:05Z</time>
      </trkpt>
      <trkpt lat="46.70573" lon="-1.72578">
        <ele>51</ele>
        <time>2018-03-08T23:23:05Z</time>
      </trkpt>
      <trkpt lat="46.70576" lon="-1.72582">
        <ele>51</ele>
        <time>2018-03-08T23:24:05Z</time>
      </trkpt>
      <trkpt lat="46.70583" lon="-1.72593">
        <ele>51</ele>
        <time>2018-03-08T23:25:05Z</time>
      </trkpt>
      <trkpt lat="46.70587" lon="-1.72601">
        <ele>51</ele>
        <time>2018-03-08T23:26:05Z</time>
      </trkpt>
      <trkpt lat="46.70593" lon="-1.72611">
        <ele>51</ele>
        <time>2018-03-08T23:27:05Z</time>
      </trkpt>
      <trkpt lat="46.706" lon="-1.72626">
        <ele>51</ele>
        <time>2018-03-08T23:28:05Z</time>
      </trkpt>
      <trkpt lat="46.70606" lon="-1.72639">
        <ele>51</ele>
        <time>2018-03-08T23:29:05Z</time>
      </trkpt>
      <trkpt lat="46.70617" lon="-1.72664">
        <ele>50</ele>
        <time>2018-03-08T23:30:05Z</time>
      </trkpt>
      <trkpt lat="46.70631" lon="-1.72693">
        <ele>50</ele>
        <time>2018-03-08T23:31:05Z</time>
      </trkpt>
      <trkpt lat="46.70646" lon="-1.72721">
        <ele>50</ele>
        <time>2018-03-08T23:32:05Z</time>
      </trkpt>
      <trkpt lat="46.70657" lon="-1.72737">
        <ele>51</ele>
        <time>2018-03-08T23:33:05Z</time>
      </trkpt>
      <trkpt lat="46.70669" lon="-1.72751">
        <ele>51</ele>
        <time>2018-03-08T23:34:05Z</time>
      </trkpt>
      <trkpt lat="46.70691" lon="-1.72771">
        <ele>51</ele>
        <time>2018-03-08T23:35:05Z</time>
      </trkpt>
      <trkpt lat="46.70717" lon="-1.72788">
        <ele>51</ele>
        <time>2018-03-08T23:36:05Z</time>
      </trkpt>
      <trkpt lat="46.70751" lon="-1.72802">
        <ele>51</ele>
        <time>2018-03-08T23:37:05Z</time>
      </trkpt>
      <trkpt lat="46.70795" lon="-1.72817">
        <ele>50</ele>
        <time>2018-03-08T23:38:05Z</time>
      </trkpt>
      <trkpt lat="46.70836" lon="-1.72831">
        <ele>50</ele>
        <time>2018-03-08T23:39:05Z</time>
      </trkpt>
      <trkpt lat="46.70903" lon="-1.72852">
        <ele>49</ele>
        <time>2018-03-08T23:40:05Z</time>
      </trkpt>
      <trkpt lat="46.70947" lon="-1.72866">
        <ele>49</ele>
        <time>2018-03-08T23:41:05Z</time>
      </trkpt>
      <trkpt lat="46.70967" lon="-1.72873">
        <ele>49</ele>
        <time>2018-03-08T23:42:05Z</time>
      </trkpt>
      <trkpt lat="46.70985" lon="-1.72879">
        <ele>50</ele>
        <time>2018-03-08T23:43:05Z</time>
      </trkpt>
      <trkpt lat="46.70989" lon="-1.72881">
        <ele>50</ele>
        <time>2018-03-08T23:44:05Z</time>
      </trkpt>
      <trkpt lat="46.71055" lon="-1.72902">
        <ele>51</ele>
        <time>2018-03-08T23:45:05Z</time>
      </trkpt>
      <trkpt lat="46.71091" lon="-1.72914">
        <ele>51</ele>
        <time>2018-03-08T23:46:05Z</time>
      </trkpt>
      <trkpt lat="46.71137" lon="-1.72929">
        <ele>51</ele>
        <time>2018-03-08T23:47:05Z</time>
      </trkpt>
      <trkpt lat="46.71199" lon="-1.7295">
        <ele>50</ele>
        <time>2018-03-08T23:48:05Z</time>
      </trkpt>
      <trkpt lat="46.71297" lon="-1.72981">
        <ele>49</ele>
        <time>2018-03-08T23:49:05Z</time>
      </trkpt>
      <trkpt lat="46.71378" lon="-1.73007">
        <ele>48</ele>
        <time>2018-03-08T23:50:05Z</time>
      </trkpt>
      <trkpt lat="46.7142" lon="-1.7302">
        <ele>47</ele>
        <time>2018-03-08T23:51:05Z</time>
      </trkpt>
      <trkpt lat="46.71447" lon="-1.73029">
        <ele>47</ele>
        <time>2018-03-08T23:52:05Z</time>
      </trkpt>
      <trkpt lat="46.71456" lon="-1.73032">
        <ele>47</ele>
        <time>2018-03-08T23:53:05Z</time>
      </trkpt>
      <trkpt lat="46.71505" lon="-1.73047">
        <ele>48</ele>
        <time>2018-03-08T23:54:05Z</time>
      </trkpt>
      <trkpt lat="46.7156" lon="-1.73065">
        <ele>49</ele>
        <time>2018-03-08T23:55:05Z</time>
      </trkpt>
      <trkpt lat="46.71581" lon="-1.73071">
        <ele>49</ele>
        <time>2018-03-08T23:56:05Z</time>
      </trkpt>
      <trkpt lat="46.71616" lon="-1.73083">
        <ele>50</ele>
        <time>2018-03-08T23:57:05Z</time>
      </trkpt>
      <trkpt lat="46.71625" lon="-1.73086">
        <ele>51</ele>
        <time>2018-03-08T23:58:05Z</time>
      </trkpt>
      <trkpt lat="46.71657" lon="-1.73097">
        <ele>52</ele>
        <time>2018-03-08T23:59:05Z</time>
      </trkpt>
      <trkpt lat="46.71701" lon="-1.7311">
        <ele>51</ele>
        <time>2018-03-09T00:00:05Z</time>
      </trkpt>
      <trkpt lat="46.71755" lon="-1.73127">
        <ele>50</ele>
        <time>2018-03-09T00:01:05Z</time>
      </trkpt>
      <trkpt lat="46.71807" lon="-1.73143">
        <ele>49</ele>
        <time>2018-03-09T00:02:05Z</time>
      </trkpt>
      <trkpt lat="46.71842" lon="-1.73154">
        <ele>49</ele>
        <time>2018-03-09T00:03:05Z</time>
      </trkpt>
      <trkpt lat="46.71887" lon="-1.73168">
        <ele>48</ele>
        <time>2018-03-09T00:04:05Z</time>
      </trkpt>
      <trkpt lat="46.71953" lon="-1.7319">
        <ele>47</ele>
        <time>2018-03-09T00:05:05Z</time>
      </trkpt>
      <trkpt lat="46.72002" lon="-1.73205">
        <ele>47</ele>
        <time>2018-03-09T00:06:05Z</time>
      </trkpt>
      <trkpt lat="46.7203" lon="-1.73215">
        <ele>47</ele>
        <time>2018-03-09T00:07:05Z</time>
      </trkpt>
      <trkpt lat="46.72083" lon="-1.73232">
        <ele>47</ele>
        <time>2018-03-09T00:08:05Z</time>
      </trkpt>
      <trkpt lat="46.72138" lon="-1.73249">
        <ele>47</ele>
        <time>2018-03-09T00:09:05Z</time>
      </trkpt>
      <trkpt lat="46.72152" lon="-1.73254">
        <ele>47</ele>
        <time>2018-03-09T00:10:05Z</time>
      </trkpt>
      <trkpt lat="46.72162" lon="-1.73257">
        <ele>47</ele>
        <time>2018-03-09T00:11:05Z</time>
      </trkpt>
      <trkpt lat="46.72209" lon="-1.73272">
        <ele>46</ele>
        <time>2018-03-09T00:12:05Z</time>
      </trkpt>
      <trkpt lat="46.72257" lon="-1.73287">
        <ele>45</ele>
        <time>2018-03-09T00:13:05Z</time>
      </trkpt>
      <trkpt lat="46.72331" lon="-1.7331">
        <ele>46</ele>
        <time>2018-03-09T00:14:05Z</time>
      </trkpt>
      <trkpt lat="46.72398" lon="-1.73331">
        <ele>47</ele>
        <time>2018-03-09T00:15:05Z</time>
      </trkpt>
      <trkpt lat="46.72422" lon="-1.73339">
        <ele>47</ele>
        <time>2018-03-09T00:16:05Z</time>
      </trkpt>
      <trkpt lat="46.72488" lon="-1.73359">
        <ele>49</ele>
        <time>2018-03-09T00:17:05Z</time>
      </trkpt>
      <trkpt lat="46.72593" lon="-1.73392">
        <ele>50</ele>
        <time>2018-03-09T00:18:05Z</time>
      </trkpt>
      <trkpt lat="46.72699" lon="-1.73426">
        <ele>47</ele>
        <time>2018-03-09T00:19:05Z</time>
      </trkpt>
      <trkpt lat="46.72783" lon="-1.73452">
        <ele>46</ele>
        <time>2018-03-09T00:20:05Z</time>
      </trkpt>
      <trkpt lat="46.72814" lon="-1.73462">
        <ele>46</ele>
        <time>2018-03-09T00:21:05Z</time>
      </trkpt>
      <trkpt lat="46.72838" lon="-1.7347">
        <ele>46</ele>
        <time>2018-03-09T00:22:05Z</time>
      </trkpt>
      <trkpt lat="46.72878" lon="-1.73482">
        <ele>45</ele>
        <time>2018-03-09T00:23:05Z</time>
      </trkpt>
      <trkpt lat="46.72962" lon="-1.73507">
        <ele>43</ele>
        <time>2018-03-09T00:24:05Z</time>
      </trkpt>
      <trkpt lat="46.7299" lon="-1.73516">
        <ele>42</ele>
        <time>2018-03-09T00:25:05Z</time>
      </trkpt>
      <trkpt lat="46.73" lon="-1.73519">
        <ele>42</ele>
        <time>2018-03-09T00:26:05Z</time>
      </trkpt>
      <trkpt lat="46.73016" lon="-1.73525">
        <ele>42</ele>
        <time>2018-03-09T00:27:05Z</time>
      </trkpt>
      <trkpt lat="46.7303" lon="-1.7353">
        <ele>42</ele>
        <time>2018-03-09T00:28:05Z</time>
      </trkpt>
      <trkpt lat="46.7304" lon="-1.73535">
        <ele>42</ele>
        <time>2018-03-09T00:29:05Z</time>
      </trkpt>
      <trkpt lat="46.73049" lon="-1.73539">
        <ele>42</ele>
        <time>2018-03-09T00:30:05Z</time>
      </trkpt>
      <trkpt lat="46.73059" lon="-1.73544">
        <ele>42</ele>
        <time>2018-03-09T00:31:05Z</time>
      </trkpt>
      <trkpt lat="46.73067" lon="-1.73549">
        <ele>42</ele>
        <time>2018-03-09T00:32:05Z</time>
      </trkpt>
      <trkpt lat="46.73075" lon="-1.73554">
        <ele>42</ele>
        <time>2018-03-09T00:33:05Z</time>
      </trkpt>
      <trkpt lat="46.73087" lon="-1.73563">
        <ele>42</ele>
        <time>2018-03-09T00:34:05Z</time>
      </trkpt>
      <trkpt lat="46.73103" lon="-1.73577">
        <ele>42</ele>
        <time>2018-03-09T00:35:05Z</time>
      </trkpt>
      <trkpt lat="46.7313" lon="-1.73604">
        <ele>42</ele>
        <time>2018-03-09T00:36:05Z</time>
      </trkpt>
      <trkpt lat="46.7315" lon="-1.73629">
        <ele>42</ele>
        <time>2018-03-09T00:37:05Z</time>
      </trkpt>
      <trkpt lat="46.7318" lon="-1.73671">
        <ele>42</ele>
        <time>2018-03-09T00:38:05Z</time>
      </trkpt>
      <trkpt lat="46.732" lon="-1.73698">
        <ele>42</ele>
        <time>2018-03-09T00:39:05Z</time>
      </trkpt>
      <trkpt lat="46.73282" lon="-1.73817">
        <ele>42</ele>
        <time>2018-03-09T00:40:05Z</time>
      </trkpt>
      <trkpt lat="46.73291" lon="-1.7383">
        <ele>42</ele>
        <time>2018-03-09T00:41:05Z</time>
      </trkpt>
      <trkpt lat="46.73346" lon="-1.73908">
        <ele>42</ele>
        <time>2018-03-09T00:42:05Z</time>
      </trkpt>
      <trkpt lat="46.73408" lon="-1.73997">
        <ele>39</ele>
        <time>2018-03-09T00:43:05Z</time>
      </trkpt>
      <trkpt lat="46.73423" lon="-1.74019">
        <ele>39</ele>
        <time>2018-03-09T00:44:05Z</time>
      </trkpt>
      <trkpt lat="46.73461" lon="-1.74073">
        <ele>39</ele>
        <time>2018-03-09T00:45:05Z</time>
      </trkpt>
      <trkpt lat="46.73527" lon="-1.74166">
        <ele>38</ele>
        <time>2018-03-09T00:46:05Z</time>
      </trkpt>
      <trkpt lat="46.73588" lon="-1.74253">
        <ele>36</ele>
        <time>2018-03-09T00:47:05Z</time>
      </trkpt>
      <trkpt lat="46.73628" lon="-1.74309">
        <ele>35</ele>
        <time>2018-03-09T00:48:05Z</time>
      </trkpt>
      <trkpt lat="46.73636" lon="-1.74319">
        <ele>35</ele>
        <time>2018-03-09T00:49:05Z</time>
      </trkpt>
      <trkpt lat="46.7374" lon="-1.74467">
        <ele>33</ele>
        <time>2018-03-09T00:50:05Z</time>
      </trkpt>
      <trkpt lat="46.73807" lon="-1.74562">
        <ele>37</ele>
        <time>2018-03-09T00:51:05Z</time>
      </trkpt>
      <trkpt lat="46.73814" lon="-1.74572">
        <ele>38</ele>
        <time>2018-03-09T00:52:05Z</time>
      </trkpt>
      <trkpt lat="46.7382" lon="-1.74581">
        <ele>38</ele>
        <time>2018-03-09T00:53:05Z</time>
      </trkpt>
      <trkpt lat="46.73827" lon="-1.7459">
        <ele>38</ele>
        <time>2018-03-09T00:54:05Z</time>
      </trkpt>
      <trkpt lat="46.73833" lon="-1.74599">
        <ele>38</ele>
        <time>2018-03-09T00:55:05Z</time>
      </trkpt>
      <trkpt lat="46.7384" lon="-1.74607">
        <ele>38</ele>
        <time>2018-03-09T00:56:05Z</time>
      </trkpt>
      <trkpt lat="46.73848" lon="-1.74615">
        <ele>38</ele>
        <time>2018-03-09T00:57:05Z</time>
      </trkpt>
      <trkpt lat="46.73854" lon="-1.74622">
        <ele>38</ele>
        <time>2018-03-09T00:58:05Z</time>
      </trkpt>
      <trkpt lat="46.73869" lon="-1.74634">
        <ele>38</ele>
        <time>2018-03-09T00:59:05Z</time>
      </trkpt>
      <trkpt lat="46.73877" lon="-1.74639">
        <ele>38</ele>
        <time>2018-03-09T01:00:05Z</time>
      </trkpt>
      <trkpt lat="46.73884" lon="-1.74643">
        <ele>38</ele>
        <time>2018-03-09T01:01:05Z</time>
      </trkpt>
      <trkpt lat="46.73892" lon="-1.74646">
        <ele>38</ele>
        <time>2018-03-09T01:02:05Z</time>
      </trkpt>
      <trkpt lat="46.73899" lon="-1.74649">
        <ele>38</ele>
        <time>2018-03-09T01:03:05Z</time>
      </trkpt>
      <trkpt lat="46.73906" lon="-1.74651">
        <ele>38</ele>
        <time>2018-03-09T01:04:05Z</time>
      </trkpt>
      <trkpt lat="46.73913" lon="-1.74653">
        <ele>38</ele>
        <time>2018-03-09T01:05:05Z</time>
      </trkpt>
      <trkpt lat="46.73919" lon="-1.74654">
        <ele>38</ele>
        <time>2018-03-09T01:06:05Z</time>
      </trkpt>
      <trkpt lat="46.73922" lon="-1.74654">
        <ele>38</ele>
        <time>2018-03-09T01:07:05Z</time>
      </trkpt>
      <trkpt lat="46.7393" lon="-1.74655">
        <ele>38</ele>
        <time>2018-03-09T01:08:05Z</time>
      </trkpt>
      <trkpt lat="46.73938" lon="-1.74655">
        <ele>38</ele>
        <time>2018-03-09T01:09:05Z</time>
      </trkpt>
      <trkpt lat="46.73952" lon="-1.74656">
        <ele>37</ele>
        <time>2018-03-09T01:10:05Z</time>
      </trkpt>
      <trkpt lat="46.73957" lon="-1.74655">
        <ele>37</ele>
        <time>2018-03-09T01:11:05Z</time>
      </trkpt>
      <trkpt lat="46.7396" lon="-1.74655">
        <ele>37</ele>
        <time>2018-03-09T01:12:05Z</time>
      </trkpt>
      <trkpt lat="46.73968" lon="-1.74654">
        <ele>37</ele>
        <time>2018-03-09T01:13:05Z</time>
      </trkpt>
      <trkpt lat="46.74032" lon="-1.74638">
        <ele>36</ele>
        <time>2018-03-09T01:14:05Z</time>
      </trkpt>
      <trkpt lat="46.74046" lon="-1.74636">
        <ele>36</ele>
        <time>2018-03-09T01:15:05Z</time>
      </trkpt>
      <trkpt lat="46.74065" lon="-1.74635">
        <ele>36</ele>
        <time>2018-03-09T01:16:05Z</time>
      </trkpt>
      <trkpt lat="46.74088" lon="-1.74637">
        <ele>36</ele>
        <time>2018-03-09T01:17:05Z</time>
      </trkpt>
      <trkpt lat="46.74113" lon="-1.7464">
        <ele>36</ele>
        <time>2018-03-09T01:18:05Z</time>
      </trkpt>
      <trkpt lat="46.74118" lon="-1.7464">
        <ele>36</ele>
        <time>2018-03-09T01:19:05Z</time>
      </trkpt>
      <trkpt lat="46.74151" lon="-1.74646">
        <ele>36</ele>
        <time>2018-03-09T01:20:05Z</time>
      </trkpt>
      <trkpt lat="46.74172" lon="-1.74652">
        <ele>36</ele>
        <time>2018-03-09T01:21:05Z</time>
      </trkpt>
      <trkpt lat="46.742" lon="-1.7466">
        <ele>34</ele>
        <time>2018-03-09T01:22:05Z</time>
      </trkpt>
      <trkpt lat="46.74217" lon="-1.74665">
        <ele>34</ele>
        <time>2018-03-09T01:23:05Z</time>
      </trkpt>
      <trkpt lat="46.74233" lon="-1.74669">
        <ele>33</ele>
        <time>2018-03-09T01:24:05Z</time>
      </trkpt>
      <trkpt lat="46.74242" lon="-1.74671">
        <ele>32</ele>
        <time>2018-03-09T01:25:05Z</time>
      </trkpt>
      <trkpt lat="46.74247" lon="-1.74672">
        <ele>32</ele>
        <time>2018-03-09T01:26:05Z</time>
      </trkpt>
      <trkpt lat="46.74256" lon="-1.74673">
        <ele>32</ele>
        <time>2018-03-09T01:27:05Z</time>
      </trkpt>
      <trkpt lat="46.74267" lon="-1.74673">
        <ele>32</ele>
        <time>2018-03-09T01:28:05Z</time>
      </trkpt>
      <trkpt lat="46.74279" lon="-1.74673">
        <ele>32</ele>
        <time>2018-03-09T01:29:05Z</time>
      </trkpt>
      <trkpt lat="46.74296" lon="-1.74669">
        <ele>31</ele>
        <time>2018-03-09T01:30:05Z</time>
      </trkpt>
      <trkpt lat="46.74322" lon="-1.74664">
        <ele>31</ele>
        <time>2018-03-09T01:31:05Z</time>
      </trkpt>
      <trkpt lat="46.74375" lon="-1.74651">
        <ele>30</ele>
        <time>2018-03-09T01:32:05Z</time>
      </trkpt>
      <trkpt lat="46.74454" lon="-1.74632">
        <ele>28</ele>
        <time>2018-03-09T01:33:05Z</time>
      </trkpt>
      <trkpt lat="46.74508" lon="-1.74621">
        <ele>26</ele>
        <time>2018-03-09T01:34:05Z</time>
      </trkpt>
      <trkpt lat="46.74533" lon="-1.74615">
        <ele>26</ele>
        <time>2018-03-09T01:35:05Z</time>
      </trkpt>
      <trkpt lat="46.74542" lon="-1.74612">
        <ele>25</ele>
        <time>2018-03-09T01:36:05Z</time>
      </trkpt>
      <trkpt lat="46.74548" lon="-1.7461">
        <ele>25</ele>
        <time>2018-03-09T01:37:05Z</time>
      </trkpt>
      <trkpt lat="46.74551" lon="-1.74609">
        <ele>25</ele>
        <time>2018-03-09T01:38:05Z</time>
      </trkpt>
      <trkpt lat="46.74567" lon="-1.74604">
        <ele>25</ele>
        <time>2018-03-09T01:39:05Z</time>
      </trkpt>
      <trkpt lat="46.74573" lon="-1.74601">
        <ele>25</ele>
        <time>2018-03-09T01:40:05Z</time>
      </trkpt>
      <trkpt lat="46.74578" lon="-1.74598">
        <ele>24</ele>
        <time>2018-03-09T01:41:05Z</time>
      </trkpt>
      <trkpt lat="46.74584" lon="-1.74594">
        <ele>24</ele>
        <time>2018-03-09T01:42:05Z</time>
      </trkpt>
      <trkpt lat="46.74597" lon="-1.74586">
        <ele>24</ele>
        <time>2018-03-09T01:43:05Z</time>
      </trkpt>
      <trkpt lat="46.74603" lon="-1.74581">
        <ele>24</ele>
        <time>2018-03-09T01:44:05Z</time>
      </trkpt>
      <trkpt lat="46.74606" lon="-1.74576">
        <ele>23</ele>
        <time>2018-03-09T01:45:05Z</time>
      </trkpt>
      <trkpt lat="46.74617" lon="-1.74563">
        <ele>22</ele>
        <time>2018-03-09T01:46:05Z</time>
      </trkpt>
      <trkpt lat="46.74631" lon="-1.74544">
        <ele>21</ele>
        <time>2018-03-09T01:47:05Z</time>
      </trkpt>
      <trkpt lat="46.74667" lon="-1.74493">
        <ele>20</ele>
        <time>2018-03-09T01:48:05Z</time>
      </trkpt>
      <trkpt lat="46.74688" lon="-1.74462">
        <ele>19</ele>
        <time>2018-03-09T01:49:05Z</time>
      </trkpt>
      <trkpt lat="46.74699" lon="-1.74442">
        <ele>18</ele>
        <time>2018-03-09T01:50:05Z</time>
      </trkpt>
      <trkpt lat="46.74707" lon="-1.74428">
        <ele>18</ele>
        <time>2018-03-09T01:51:05Z</time>
      </trkpt>
      <trkpt lat="46.74715" lon="-1.74412">
        <ele>17</ele>
        <time>2018-03-09T01:52:05Z</time>
      </trkpt>
      <trkpt lat="46.74719" lon="-1.74402">
        <ele>17</ele>
        <time>2018-03-09T01:53:05Z</time>
      </trkpt>
      <trkpt lat="46.74724" lon="-1.74388">
        <ele>17</ele>
        <time>2018-03-09T01:54:05Z</time>
      </trkpt>
      <trkpt lat="46.74729" lon="-1.74372">
        <ele>16</ele>
        <time>2018-03-09T01:55:05Z</time>
      </trkpt>
      <trkpt lat="46.74732" lon="-1.74359">
        <ele>16</ele>
        <time>2018-03-09T01:56:05Z</time>
      </trkpt>
      <trkpt lat="46.74735" lon="-1.74347">
        <ele>15</ele>
        <time>2018-03-09T01:57:05Z</time>
      </trkpt>
      <trkpt lat="46.74738" lon="-1.74327">
        <ele>14</ele>
        <time>2018-03-09T01:58:05Z</time>
      </trkpt>
      <trkpt lat="46.74739" lon="-1.74314">
        <ele>14</ele>
        <time>2018-03-09T01:59:05Z</time>
      </trkpt>
      <trkpt lat="46.7474" lon="-1.743">
        <ele>14</ele>
        <time>2018-03-09T02:00:05Z</time>
      </trkpt>
      <trkpt lat="46.74741" lon="-1.74282">
        <ele>14</ele>
        <time>2018-03-09T02:01:05Z</time>
      </trkpt>
      <trkpt lat="46.74742" lon="-1.74239">
        <ele>14</ele>
        <time>2018-03-09T02:02:05Z</time>
      </trkpt>
      <trkpt lat="46.74741" lon="-1.74229">
        <ele>14</ele>
        <time>2018-03-09T02:03:05Z</time>
      </trkpt>
      <trkpt lat="46.7474" lon="-1.74216">
        <ele>13</ele>
        <time>2018-03-09T02:04:05Z</time>
      </trkpt>
      <trkpt lat="46.74738" lon="-1.74205">
        <ele>13</ele>
        <time>2018-03-09T02:05:05Z</time>
      </trkpt>
      <trkpt lat="46.74736" lon="-1.74196">
        <ele>13</ele>
        <time>2018-03-09T02:06:05Z</time>
      </trkpt>
      <trkpt lat="46.74734" lon="-1.74192">
        <ele>13</ele>
        <time>2018-03-09T02:07:05Z</time>
      </trkpt>
      <trkpt lat="46.74732" lon="-1.74188">
        <ele>13</ele>
        <time>2018-03-09T02:08:05Z</time>
      </trkpt>
      <trkpt lat="46.74729" lon="-1.74181">
        <ele>13</ele>
        <time>2018-03-09T02:09:05Z</time>
      </trkpt>
      <trkpt lat="46.74733" lon="-1.74169">
        <ele>13</ele>
        <time>2018-03-09T02:10:05Z</time>
      </trkpt>
      <trkpt lat="46.74735" lon="-1.74165">
        <ele>12</ele>
        <time>2018-03-09T02:11:05Z</time>
      </trkpt>
      <trkpt lat="46.74736" lon="-1.74163">
        <ele>12</ele>
        <time>2018-03-09T02:12:05Z</time>
      </trkpt>
      <trkpt lat="46.74756" lon="-1.74143">
        <ele>11</ele>
        <time>2018-03-09T02:13:05Z</time>
      </trkpt>
      <trkpt lat="46.74762" lon="-1.74138">
        <ele>12</ele>
        <time>2018-03-09T02:14:05Z</time>
      </trkpt>
      <trkpt lat="46.7477" lon="-1.74131">
        <ele>12</ele>
        <time>2018-03-09T02:15:05Z</time>
      </trkpt>
      <trkpt lat="46.74778" lon="-1.74124">
        <ele>13</ele>
        <time>2018-03-09T02:16:05Z</time>
      </trkpt>
      <trkpt lat="46.74787" lon="-1.74117">
        <ele>13</ele>
        <time>2018-03-09T02:17:05Z</time>
      </trkpt>
      <trkpt lat="46.748" lon="-1.74108">
        <ele>14</ele>
        <time>2018-03-09T02:18:05Z</time>
      </trkpt>
      <trkpt lat="46.74805" lon="-1.74105">
        <ele>14</ele>
        <time>2018-03-09T02:19:05Z</time>
      </trkpt>
      <trkpt lat="46.74807" lon="-1.74104">
        <ele>15</ele>
        <time>2018-03-09T02:20:05Z</time>
      </trkpt>
      <trkpt lat="46.7481" lon="-1.74103">
        <ele>15</ele>
        <time>2018-03-09T02:21:05Z</time>
      </trkpt>
      <trkpt lat="46.74816" lon="-1.741">
        <ele>15</ele>
        <time>2018-03-09T02:22:05Z</time>
      </trkpt>
      <trkpt lat="46.74838" lon="-1.7409">
        <ele>17</ele>
        <time>2018-03-09T02:23:05Z</time>
      </trkpt>
      <trkpt lat="46.74839" lon="-1.74089">
        <ele>17</ele>
        <time>2018-03-09T02:24:05Z</time>
      </trkpt>
      <trkpt lat="46.74841" lon="-1.74088">
        <ele>17</ele>
        <time>2018-03-09T02:25:05Z</time>
      </trkpt>
      <trkpt lat="46.74851" lon="-1.74084">
        <ele>18</ele>
        <time>2018-03-09T02:26:05Z</time>
      </trkpt>
      <trkpt lat="46.74851" lon="-1.74084">
        <ele>18</ele>
        <time>2018-03-09T02:27:05Z</time>
      </trkpt>
      <trkpt lat="46.74855" lon="-1.74091">
        <ele>18</ele>
        <time>2018-03-09T02:28:05Z</time>
      </trkpt>
      <trkpt lat="46.74858" lon="-1.74095">
        <ele>19</ele>
        <time>2018-03-09T02:29:05Z</time>
      </trkpt>
      <trkpt lat="46.74862" lon="-1.74098">
        <ele>19</ele>
        <time>2018-03-09T02:30:05Z</time>
      </trkpt>
      <trkpt lat="46.74866" lon="-1.741">
        <ele>19</ele>
        <time>2018-03-09T02:31:05Z</time>
      </trkpt>
      <trkpt lat="46.7487" lon="-1.741">
        <ele>19</ele>
        <time>2018-03-09T02:32:05Z</time>
      </trkpt>
      <trkpt lat="46.74874" lon="-1.741">
        <ele>20</ele>
        <time>2018-03-09T02:33:05Z</time>
      </trkpt>
      <trkpt lat="46.74882" lon="-1.74098">
        <ele>20</ele>
        <time>2018-03-09T02:34:05Z</time>
      </trkpt>
      <trkpt lat="46.74891" lon="-1.74095">
        <ele>21</ele>
        <time>2018-03-09T02:35:05Z</time>
      </trkpt>
      <trkpt lat="46.74901" lon="-1.74091">
        <ele>22</ele>
        <time>2018-03-09T02:36:05Z</time>
      </trkpt>
      <trkpt lat="46.74909" lon="-1.74087">
        <ele>22</ele>
        <time>2018-03-09T02:37:05Z</time>
      </trkpt>
      <trkpt lat="46.74922" lon="-1.74079">
        <ele>23</ele>
        <time>2018-03-09T02:38:05Z</time>
      </trkpt>
      <trkpt lat="46.74935" lon="-1.74074">
        <ele>24</ele>
        <time>2018-03-09T02:39:05Z</time>
      </trkpt>
      <trkpt lat="46.74947" lon="-1.74071">
        <ele>25</ele>
        <time>2018-03-09T02:40:05Z</time>
      </trkpt>
      <trkpt lat="46.7496" lon="-1.74069">
        <ele>26</ele>
        <time>2018-03-09T02:41:05Z</time>
      </trkpt>
      <trkpt lat="46.74971" lon="-1.74069">
        <ele>26</ele>
        <time>2018-03-09T02:42:05Z</time>
      </trkpt>
      <trkpt lat="46.74987" lon="-1.74069">
        <ele>27</ele>
        <time>2018-03-09T02:43:05Z</time>
      </trkpt>
      <trkpt lat="46.74991" lon="-1.74069">
        <ele>28</ele>
        <time>2018-03-09T02:44:05Z</time>
      </trkpt>
      <trkpt lat="46.74994" lon="-1.74075">
        <ele>28</ele>
        <time>2018-03-09T02:45:05Z</time>
      </trkpt>
      <trkpt lat="46.74996" lon="-1.74078">
        <ele>28</ele>
        <time>2018-03-09T02:46:05Z</time>
      </trkpt>
      <trkpt lat="46.74999" lon="-1.7408">
        <ele>28</ele>
        <time>2018-03-09T02:47:05Z</time>
      </trkpt>
      <trkpt lat="46.75003" lon="-1.74085">
        <ele>28</ele>
        <time>2018-03-09T02:48:05Z</time>
      </trkpt>
      <trkpt lat="46.75003" lon="-1.74085">
        <ele>28</ele>
        <time>2018-03-09T02:49:05Z</time>
      </trkpt>
      <trkpt lat="46.75005" lon="-1.74083">
        <ele>28</ele>
        <time>2018-03-09T02:50:05Z</time>
      </trkpt>
      <trkpt lat="46.75006" lon="-1.74083">
        <ele>29</ele>
        <time>2018-03-09T02:51:05Z</time>
      </trkpt>
      <trkpt lat="46.75008" lon="-1.74083">
        <ele>29</ele>
        <time>2018-03-09T02:52:05Z</time>
      </trkpt>
      <trkpt lat="46.75009" lon="-1.74083">
        <ele>29</ele>
        <time>2018-03-09T02:53:05Z</time>
      </trkpt>
      <trkpt lat="46.7501" lon="-1.74085">
        <ele>29</ele>
        <time>2018-03-09T02:54:05Z</time>
      </trkpt>
      <trkpt lat="46.75011" lon="-1.74087">
        <ele>29</ele>
        <time>2018-03-09T02:55:05Z</time>
      </trkpt>
      <trkpt lat="46.75012" lon="-1.74089">
        <ele>29</ele>
        <time>2018-03-09T02:56:05Z</time>
      </trkpt>
      <trkpt lat="46.75011" lon="-1.74091">
        <ele>29</ele>
        <time>2018-03-09T02:57:05Z</time>
      </trkpt>
      <trkpt lat="46.75011" lon="-1.74093">
        <ele>29</ele>
        <time>2018-03-09T02:58:05Z</time>
      </trkpt>
      <trkpt lat="46.7501" lon="-1.74094">
        <ele>28</ele>
        <time>2018-03-09T02:59:05Z</time>
      </trkpt>
      <trkpt lat="46.75009" lon="-1.74095">
        <ele>28</ele>
        <time>2018-03-09T03:00:05Z</time>
      </trkpt>
      <trkpt lat="46.75007" lon="-1.74095">
        <ele>28</ele>
        <time>2018-03-09T03:01:05Z</time>
      </trkpt>
      <trkpt lat="46.75007" lon="-1.7411">
        <ele>27</ele>
        <time>2018-03-09T03:02:05Z</time>
      </trkpt>
      <trkpt lat="46.75007" lon="-1.74123">
        <ele>27</ele>
        <time>2018-03-09T03:03:05Z</time>
      </trkpt>
      <trkpt lat="46.75006" lon="-1.74134">
        <ele>26</ele>
        <time>2018-03-09T03:04:05Z</time>
      </trkpt>
      <trkpt lat="46.75005" lon="-1.74145">
        <ele>25</ele>
        <time>2018-03-09T03:05:05Z</time>
      </trkpt>
      <trkpt lat="46.75003" lon="-1.74154">
        <ele>25</ele>
        <time>2018-03-09T03:06:05Z</time>
      </trkpt>
      <trkpt lat="46.75002" lon="-1.74162">
        <ele>24</ele>
        <time>2018-03-09T03:07:05Z</time>
      </trkpt>
      <trkpt lat="46.75001" lon="-1.74175">
        <ele>23</ele>
        <time>2018-03-09T03:08:05Z</time>
      </trkpt>
      <trkpt lat="46.75006" lon="-1.74188">
        <ele>23</ele>
        <time>2018-03-09T03:09:05Z</time>
      </trkpt>
      <trkpt lat="46.75011" lon="-1.74202">
        <ele>22</ele>
        <time>2018-03-09T03:10:05Z</time>
      </trkpt>
      <trkpt lat="46.75014" lon="-1.74211">
        <ele>22</ele>
        <time>2018-03-09T03:11:05Z</time>
      </trkpt>
      <trkpt lat="46.75017" lon="-1.7422">
        <ele>22</ele>
        <time>2018-03-09T03:12:05Z</time>
      </trkpt>
      <trkpt lat="46.75019" lon="-1.74229">
        <ele>22</ele>
        <time>2018-03-09T03:13:05Z</time>
      </trkpt>
      <trkpt lat="46.7502" lon="-1.74239">
        <ele>21</ele>
        <time>2018-03-09T03:14:05Z</time>
      </trkpt>
      <trkpt lat="46.7502" lon="-1.74245">
        <ele>21</ele>
        <time>2018-03-09T03:15:05Z</time>
      </trkpt>
      <trkpt lat="46.75019" lon="-1.74251">
        <ele>21</ele>
        <time>2018-03-09T03:16:05Z</time>
      </trkpt>
      <trkpt lat="46.75018" lon="-1.74257">
        <ele>21</ele>
        <time>2018-03-09T03:17:05Z</time>
      </trkpt>
      <trkpt lat="46.75016" lon="-1.74262">
        <ele>20</ele>
        <time>2018-03-09T03:18:05Z</time>
      </trkpt>
      <trkpt lat="46.75015" lon="-1.74267">
        <ele>20</ele>
        <time>2018-03-09T03:19:05Z</time>
      </trkpt>
      <trkpt lat="46.75009" lon="-1.74284">
        <ele>20</ele>
        <time>2018-03-09T03:20:05Z</time>
      </trkpt>
      <trkpt lat="46.75005" lon="-1.74295">
        <ele>20</ele>
        <time>2018-03-09T03:21:05Z</time>
      </trkpt>
      <trkpt lat="46.75003" lon="-1.74301">
        <ele>20</ele>
        <time>2018-03-09T03:22:05Z</time>
      </trkpt>
      <trkpt lat="46.75002" lon="-1.74307">
        <ele>20</ele>
        <time>2018-03-09T03:23:05Z</time>
      </trkpt>
      <trkpt lat="46.75001" lon="-1.74313">
        <ele>20</ele>
        <time>2018-03-09T03:24:05Z</time>
      </trkpt>
      <trkpt lat="46.75001" lon="-1.74319">
        <ele>20</ele>
        <time>2018-03-09T03:25:05Z</time>
      </trkpt>
      <trkpt lat="46.75001" lon="-1.74325">
        <ele>20</ele>
        <time>2018-03-09T03:26:05Z</time>
      </trkpt>
      <trkpt lat="46.75001" lon="-1.7433">
        <ele>20</ele>
        <time>2018-03-09T03:27:05Z</time>
      </trkpt>
      <trkpt lat="46.75002" lon="-1.74336">
        <ele>20</ele>
        <time>2018-03-09T03:28:05Z</time>
      </trkpt>
      <trkpt lat="46.75003" lon="-1.74341">
        <ele>21</ele>
        <time>2018-03-09T03:29:05Z</time>
      </trkpt>
      <trkpt lat="46.75004" lon="-1.74346">
        <ele>21</ele>
        <time>2018-03-09T03:30:05Z</time>
      </trkpt>
      <trkpt lat="46.75006" lon="-1.7435">
        <ele>21</ele>
        <time>2018-03-09T03:31:05Z</time>
      </trkpt>
      <trkpt lat="46.75008" lon="-1.74355">
        <ele>21</ele>
        <time>2018-03-09T03:32:05Z</time>
      </trkpt>
      <trkpt lat="46.7501" lon="-1.74359">
        <ele>22</ele>
        <time>2018-03-09T03:33:05Z</time>
      </trkpt>
      <trkpt lat="46.75012" lon="-1.74362">
        <ele>22</ele>
        <time>2018-03-09T03:34:05Z</time>
      </trkpt>
      <trkpt lat="46.75015" lon="-1.74365">
        <ele>22</ele>
        <time>2018-03-09T03:35:05Z</time>
      </trkpt>
      <trkpt lat="46.75019" lon="-1.74368">
        <ele>23</ele>
        <time>2018-03-09T03:36:05Z</time>
      </trkpt>
      <trkpt lat="46.75022" lon="-1.74369">
        <ele>24</ele>
        <time>2018-03-09T03:37:05Z</time>
      </trkpt>
      <trkpt lat="46.75026" lon="-1.74371">
        <ele>24</ele>
        <time>2018-03-09T03:38:05Z</time>
      </trkpt>
      <trkpt lat="46.75042" lon="-1.74378">
        <ele>27</ele>
        <time>2018-03-09T03:39:05Z</time>
      </trkpt>
      <trkpt lat="46.75046" lon="-1.74379">
        <ele>27</ele>
        <time>2018-03-09T03:40:05Z</time>
      </trkpt>
      <trkpt lat="46.7505" lon="-1.7438">
        <ele>28</ele>
        <time>2018-03-09T03:41:05Z</time>
      </trkpt>
      <trkpt lat="46.75055" lon="-1.7438">
        <ele>29</ele>
        <time>2018-03-09T03:42:05Z</time>
      </trkpt>
      <trkpt lat="46.75059" lon="-1.74379">
        <ele>30</ele>
        <time>2018-03-09T03:43:05Z</time>
      </trkpt>
      <trkpt lat="46.75064" lon="-1.74378">
        <ele>30</ele>
        <time>2018-03-09T03:44:05Z</time>
      </trkpt>
      <trkpt lat="46.75068" lon="-1.74377">
        <ele>31</ele>
        <time>2018-03-09T03:45:05Z</time>
      </trkpt>
      <trkpt lat="46.75072" lon="-1.74376">
        <ele>32</ele>
        <time>2018-03-09T03:46:05Z</time>
      </trkpt>
      <trkpt lat="46.75088" lon="-1.74369">
        <ele>34</ele>
        <time>2018-03-09T03:47:05Z</time>
      </trkpt>
      <trkpt lat="46.75091" lon="-1.74368">
        <ele>34</ele>
        <time>2018-03-09T03:48:05Z</time>
      </trkpt>
      <trkpt lat="46.75095" lon="-1.74367">
        <ele>35</ele>
        <time>2018-03-09T03:49:05Z</time>
      </trkpt>
      <trkpt lat="46.75098" lon="-1.74367">
        <ele>35</ele>
        <time>2018-03-09T03:50:05Z</time>
      </trkpt>
      <trkpt lat="46.75101" lon="-1.74368">
        <ele>36</ele>
        <time>2018-03-09T03:51:05Z</time>
      </trkpt>
      <trkpt lat="46.75104" lon="-1.74369">
        <ele>36</ele>
        <time>2018-03-09T03:52:05Z</time>
      </trkpt>
      <trkpt lat="46.75107" lon="-1.74371">
        <ele>36</ele>
        <time>2018-03-09T03:53:05Z</time>
      </trkpt>
      <trkpt lat="46.75109" lon="-1.74374">
        <ele>36</ele>
        <time>2018-03-09T03:54:05Z</time>
      </trkpt>
      <trkpt lat="46.75112" lon="-1.74377">
        <ele>37</ele>
        <time>2018-03-09T03:55:05Z</time>
      </trkpt>
      <trkpt lat="46.75113" lon="-1.74381">
        <ele>37</ele>
        <time>2018-03-09T03:56:05Z</time>
      </trkpt>
      <trkpt lat="46.75115" lon="-1.74385">
        <ele>37</ele>
        <time>2018-03-09T03:57:05Z</time>
      </trkpt>
      <trkpt lat="46.75117" lon="-1.74389">
        <ele>37</ele>
        <time>2018-03-09T03:58:05Z</time>
      </trkpt>
      <trkpt lat="46.75118" lon="-1.74392">
        <ele>37</ele>
        <time>2018-03-09T03:59:05Z</time>
      </trkpt>
      <trkpt lat="46.75119" lon="-1.74397">
        <ele>37</ele>
        <time>2018-03-09T04:00:05Z</time>
      </trkpt>
      <trkpt lat="46.75121" lon="-1.74404">
        <ele>38</ele>
        <time>2018-03-09T04:01:05Z</time>
      </trkpt>
      <trkpt lat="46.75122" lon="-1.74408">
        <ele>38</ele>
        <time>2018-03-09T04:02:05Z</time>
      </trkpt>
      <trkpt lat="46.75123" lon="-1.74419">
        <ele>38</ele>
        <time>2018-03-09T04:03:05Z</time>
      </trkpt>
      <trkpt lat="46.75123" lon="-1.74426">
        <ele>37</ele>
        <time>2018-03-09T04:04:05Z</time>
      </trkpt>
      <trkpt lat="46.75123" lon="-1.74434">
        <ele>37</ele>
        <time>2018-03-09T04:05:05Z</time>
      </trkpt>
      <trkpt lat="46.75124" lon="-1.74444">
        <ele>37</ele>
        <time>2018-03-09T04:06:05Z</time>
      </trkpt>
      <trkpt lat="46.75126" lon="-1.74459">
        <ele>37</ele>
        <time>2018-03-09T04:07:05Z</time>
      </trkpt>
      <trkpt lat="46.75127" lon="-1.74469">
        <ele>36</ele>
        <time>2018-03-09T04:08:05Z</time>
      </trkpt>
      <trkpt lat="46.75129" lon="-1.74482">
        <ele>36</ele>
        <time>2018-03-09T04:09:05Z</time>
      </trkpt>
      <trkpt lat="46.75131" lon="-1.74489">
        <ele>36</ele>
        <time>2018-03-09T04:10:05Z</time>
      </trkpt>
      <trkpt lat="46.75132" lon="-1.74496">
        <ele>36</ele>
        <time>2018-03-09T04:11:05Z</time>
      </trkpt>
      <trkpt lat="46.75135" lon="-1.74502">
        <ele>36</ele>
        <time>2018-03-09T04:12:05Z</time>
      </trkpt>
      <trkpt lat="46.75137" lon="-1.74507">
        <ele>36</ele>
        <time>2018-03-09T04:13:05Z</time>
      </trkpt>
      <trkpt lat="46.7514" lon="-1.74513">
        <ele>36</ele>
        <time>2018-03-09T04:14:05Z</time>
      </trkpt>
      <trkpt lat="46.75144" lon="-1.74518">
        <ele>36</ele>
        <time>2018-03-09T04:15:05Z</time>
      </trkpt>
      <trkpt lat="46.7515" lon="-1.74528">
        <ele>37</ele>
        <time>2018-03-09T04:16:05Z</time>
      </trkpt>
      <trkpt lat="46.75153" lon="-1.74533">
        <ele>37</ele>
        <time>2018-03-09T04:17:05Z</time>
      </trkpt>
      <trkpt lat="46.75156" lon="-1.74538">
        <ele>37</ele>
        <time>2018-03-09T04:18:05Z</time>
      </trkpt>
      <trkpt lat="46.75158" lon="-1.74543">
        <ele>37</ele>
        <time>2018-03-09T04:19:05Z</time>
      </trkpt>
      <trkpt lat="46.7516" lon="-1.74549">
        <ele>37</ele>
        <time>2018-03-09T04:20:05Z</time>
      </trkpt>
      <trkpt lat="46.75161" lon="-1.74555">
        <ele>37</ele>
        <time>2018-03-09T04:21:05Z</time>
      </trkpt>
      <trkpt lat="46.7516" lon="-1.74561">
        <ele>37</ele>
        <time>2018-03-09T04:22:05Z</time>
      </trkpt>
      <trkpt lat="46.75159" lon="-1.74566">
        <ele>37</ele>
        <time>2018-03-09T04:23:05Z</time>
      </trkpt>
      <trkpt lat="46.75158" lon="-1.74571">
        <ele>36</ele>
        <time>2018-03-09T04:24:05Z</time>
      </trkpt>
      <trkpt lat="46.75155" lon="-1.74577">
        <ele>36</ele>
        <time>2018-03-09T04:25:05Z</time>
      </trkpt>
      <trkpt lat="46.75149" lon="-1.74587">
        <ele>35</ele>
        <time>2018-03-09T04:26:05Z</time>
      </trkpt>
      <trkpt lat="46.75147" lon="-1.74593">
        <ele>35</ele>
        <time>2018-03-09T04:27:05Z</time>
      </trkpt>
      <trkpt lat="46.75144" lon="-1.74599">
        <ele>34</ele>
        <time>2018-03-09T04:28:05Z</time>
      </trkpt>
      <trkpt lat="46.75143" lon="-1.74606">
        <ele>34</ele>
        <time>2018-03-09T04:29:05Z</time>
      </trkpt>
      <trkpt lat="46.75142" lon="-1.74612">
        <ele>34</ele>
        <time>2018-03-09T04:30:05Z</time>
      </trkpt>
      <trkpt lat="46.75142" lon="-1.74619">
        <ele>34</ele>
        <time>2018-03-09T04:31:05Z</time>
      </trkpt>
      <trkpt lat="46.75142" lon="-1.74626">
        <ele>34</ele>
        <time>2018-03-09T04:32:05Z</time>
      </trkpt>
      <trkpt lat="46.75144" lon="-1.74633">
        <ele>34</ele>
        <time>2018-03-09T04:33:05Z</time>
      </trkpt>
      <trkpt lat="46.75146" lon="-1.7464">
        <ele>34</ele>
        <time>2018-03-09T04:34:05Z</time>
      </trkpt>
      <trkpt lat="46.75148" lon="-1.74646">
        <ele>34</ele>
        <time>2018-03-09T04:35:05Z</time>
      </trkpt>
      <trkpt lat="46.75157" lon="-1.74668">
        <ele>35</ele>
        <time>2018-03-09T04:36:05Z</time>
      </trkpt>
      <trkpt lat="46.75166" lon="-1.74688">
        <ele>35</ele>
        <time>2018-03-09T04:37:05Z</time>
      </trkpt>
      <trkpt lat="46.75166" lon="-1.74688">
        <ele>35</ele>
        <time>2018-03-09T04:38:05Z</time>
      </trkpt>
      <trkpt lat="46.75177" lon="-1.7471">
        <ele>35</ele>
        <time>2018-03-09T04:39:05Z</time>
      </trkpt>
      <trkpt lat="46.75193" lon="-1.74738">
        <ele>36</ele>
        <time>2018-03-09T04:40:05Z</time>
      </trkpt>
      <trkpt lat="46.75207" lon="-1.74759">
        <ele>36</ele>
        <time>2018-03-09T04:41:05Z</time>
      </trkpt>
      <trkpt lat="46.75216" lon="-1.74772">
        <ele>36</ele>
        <time>2018-03-09T04:42:05Z</time>
      </trkpt>
      <trkpt lat="46.75226" lon="-1.74785">
        <ele>36</ele>
        <time>2018-03-09T04:43:05Z</time>
      </trkpt>
      <trkpt lat="46.75229" lon="-1.74791">
        <ele>36</ele>
        <time>2018-03-09T04:44:05Z</time>
      </trkpt>
      <trkpt lat="46.75232" lon="-1.74798">
        <ele>35</ele>
        <time>2018-03-09T04:45:05Z</time>
      </trkpt>
      <trkpt lat="46.75235" lon="-1.74806">
        <ele>35</ele>
        <time>2018-03-09T04:46:05Z</time>
      </trkpt>
      <trkpt lat="46.75238" lon="-1.74814">
        <ele>35</ele>
        <time>2018-03-09T04:47:05Z</time>
      </trkpt>
      <trkpt lat="46.7524" lon="-1.74831">
        <ele>34</ele>
        <time>2018-03-09T04:48:05Z</time>
      </trkpt>
      <trkpt lat="46.75242" lon="-1.74849">
        <ele>34</ele>
        <time>2018-03-09T04:49:05Z</time>
      </trkpt>
      <trkpt lat="46.75245" lon="-1.74867">
        <ele>34</ele>
        <time>2018-03-09T04:50:05Z</time>
      </trkpt>
      <trkpt lat="46.75248" lon="-1.74886">
        <ele>34</ele>
        <time>2018-03-09T04:51:05Z</time>
      </trkpt>
      <trkpt lat="46.7525" lon="-1.74896">
        <ele>33</ele>
        <time>2018-03-09T04:52:05Z</time>
      </trkpt>
      <trkpt lat="46.75252" lon="-1.74906">
        <ele>33</ele>
        <time>2018-03-09T04:53:05Z</time>
      </trkpt>
      <trkpt lat="46.75254" lon="-1.74915">
        <ele>33</ele>
        <time>2018-03-09T04:54:05Z</time>
      </trkpt>
      <trkpt lat="46.75256" lon="-1.74937">
        <ele>33</ele>
        <time>2018-03-09T04:55:05Z</time>
      </trkpt>
      <trkpt lat="46.75257" lon="-1.74948">
        <ele>33</ele>
        <time>2018-03-09T04:56:05Z</time>
      </trkpt>
      <trkpt lat="46.75258" lon="-1.74982">
        <ele>33</ele>
        <time>2018-03-09T04:57:05Z</time>
      </trkpt>
      <trkpt lat="46.75261" lon="-1.75016">
        <ele>33</ele>
        <time>2018-03-09T04:58:05Z</time>
      </trkpt>
      <trkpt lat="46.75263" lon="-1.75047">
        <ele>32</ele>
        <time>2018-03-09T04:59:05Z</time>
      </trkpt>
      <trkpt lat="46.75266" lon="-1.75076">
        <ele>32</ele>
        <time>2018-03-09T05:00:05Z</time>
      </trkpt>
      <trkpt lat="46.75269" lon="-1.75092">
        <ele>31</ele>
        <time>2018-03-09T05:01:05Z</time>
      </trkpt>
      <trkpt lat="46.75275" lon="-1.75121">
        <ele>31</ele>
        <time>2018-03-09T05:02:05Z</time>
      </trkpt>
      <trkpt lat="46.75279" lon="-1.75149">
        <ele>31</ele>
        <time>2018-03-09T05:03:05Z</time>
      </trkpt>
      <trkpt lat="46.7528" lon="-1.75158">
        <ele>31</ele>
        <time>2018-03-09T05:04:05Z</time>
      </trkpt>
      <trkpt lat="46.7528" lon="-1.75167">
        <ele>31</ele>
        <time>2018-03-09T05:05:05Z</time>
      </trkpt>
      <trkpt lat="46.7528" lon="-1.75176">
        <ele>31</ele>
        <time>2018-03-09T05:06:05Z</time>
      </trkpt>
      <trkpt lat="46.7528" lon="-1.75184">
        <ele>31</ele>
        <time>2018-03-09T05:07:05Z</time>
      </trkpt>
      <trkpt lat="46.75279" lon="-1.75193">
        <ele>31</ele>
        <time>2018-03-09T05:08:05Z</time>
      </trkpt>
      <trkpt lat="46.75277" lon="-1.75204">
        <ele>31</ele>
        <time>2018-03-09T05:09:05Z</time>
      </trkpt>
      <trkpt lat="46.75275" lon="-1.75212">
        <ele>31</ele>
        <time>2018-03-09T05:10:05Z</time>
      </trkpt>
      <trkpt lat="46.7527" lon="-1.7523">
        <ele>31</ele>
        <time>2018-03-09T05:11:05Z</time>
      </trkpt>
      <trkpt lat="46.75266" lon="-1.75244">
        <ele>31</ele>
        <time>2018-03-09T05:12:05Z</time>
      </trkpt>
      <trkpt lat="46.75258" lon="-1.75288">
        <ele>31</ele>
        <time>2018-03-09T05:13:05Z</time>
      </trkpt>
      <trkpt lat="46.75249" lon="-1.75356">
        <ele>30</ele>
        <time>2018-03-09T05:14:05Z</time>
      </trkpt>
      <trkpt lat="46.75238" lon="-1.75418">
        <ele>29</ele>
        <time>2018-03-09T05:15:05Z</time>
      </trkpt>
      <trkpt lat="46.75225" lon="-1.75516">
        <ele>24</ele>
        <time>2018-03-09T05:16:05Z</time>
      </trkpt>
      <trkpt lat="46.75217" lon="-1.75588">
        <ele>22</ele>
        <time>2018-03-09T05:17:05Z</time>
      </trkpt>
      <trkpt lat="46.75211" lon="-1.75626">
        <ele>20</ele>
        <time>2018-03-09T05:18:05Z</time>
      </trkpt>
      <trkpt lat="46.752" lon="-1.75697">
        <ele>17</ele>
        <time>2018-03-09T05:19:05Z</time>
      </trkpt>
      <trkpt lat="46.75199" lon="-1.75718">
        <ele>16</ele>
        <time>2018-03-09T05:20:05Z</time>
      </trkpt>
      <trkpt lat="46.75196" lon="-1.75745">
        <ele>15</ele>
        <time>2018-03-09T05:21:05Z</time>
      </trkpt>
      <trkpt lat="46.75197" lon="-1.75768">
        <ele>14</ele>
        <time>2018-03-09T05:22:05Z</time>
      </trkpt>
      <trkpt lat="46.75198" lon="-1.75796">
        <ele>14</ele>
        <time>2018-03-09T05:23:05Z</time>
      </trkpt>
      <trkpt lat="46.752" lon="-1.75827">
        <ele>13</ele>
        <time>2018-03-09T05:24:05Z</time>
      </trkpt>
      <trkpt lat="46.752" lon="-1.75856">
        <ele>14</ele>
        <time>2018-03-09T05:25:05Z</time>
      </trkpt>
      <trkpt lat="46.75199" lon="-1.75875">
        <ele>15</ele>
        <time>2018-03-09T05:26:05Z</time>
      </trkpt>
      <trkpt lat="46.75198" lon="-1.75894">
        <ele>15</ele>
        <time>2018-03-09T05:27:05Z</time>
      </trkpt>
      <trkpt lat="46.75195" lon="-1.75912">
        <ele>16</ele>
        <time>2018-03-09T05:28:05Z</time>
      </trkpt>
      <trkpt lat="46.75191" lon="-1.75928">
        <ele>16</ele>
        <time>2018-03-09T05:29:05Z</time>
      </trkpt>
      <trkpt lat="46.75185" lon="-1.75944">
        <ele>17</ele>
        <time>2018-03-09T05:30:05Z</time>
      </trkpt>
      <trkpt lat="46.75176" lon="-1.75967">
        <ele>18</ele>
        <time>2018-03-09T05:31:05Z</time>
      </trkpt>
      <trkpt lat="46.75158" lon="-1.76003">
        <ele>19</ele>
        <time>2018-03-09T05:32:05Z</time>
      </trkpt>
      <trkpt lat="46.75144" lon="-1.7603">
        <ele>18</ele>
        <time>2018-03-09T05:33:05Z</time>
      </trkpt>
      <trkpt lat="46.75136" lon="-1.76043">
        <ele>18</ele>
        <time>2018-03-09T05:34:05Z</time>
      </trkpt>
      <trkpt lat="46.75107" lon="-1.761">
        <ele>18</ele>
        <time>2018-03-09T05:35:05Z</time>
      </trkpt>
      <trkpt lat="46.75057" lon="-1.76193">
        <ele>16</ele>
        <time>2018-03-09T05:36:05Z</time>
      </trkpt>
      <trkpt lat="46.75021" lon="-1.76262">
        <ele>16</ele>
        <time>2018-03-09T05:37:05Z</time>
      </trkpt>
      <trkpt lat="46.75016" lon="-1.76273">
        <ele>16</ele>
        <time>2018-03-09T05:38:05Z</time>
      </trkpt>
      <trkpt lat="46.7501" lon="-1.76285">
        <ele>16</ele>
        <time>2018-03-09T05:39:05Z</time>
      </trkpt>
      <trkpt lat="46.74978" lon="-1.76363">
        <ele>16</ele>
        <time>2018-03-09T05:40:05Z</time>
      </trkpt>
      <trkpt lat="46.74971" lon="-1.76384">
        <ele>17</ele>
        <time>2018-03-09T05:41:05Z</time>
      </trkpt>
      <trkpt lat="46.74968" lon="-1.76395">
        <ele>17</ele>
        <time>2018-03-09T05:42:05Z</time>
      </trkpt>
      <trkpt lat="46.74964" lon="-1.76405">
        <ele>17</ele>
        <time>2018-03-09T05:43:05Z</time>
      </trkpt>
      <trkpt lat="46.74962" lon="-1.76416">
        <ele>17</ele>
        <time>2018-03-09T05:44:05Z</time>
      </trkpt>
      <trkpt lat="46.74957" lon="-1.76436">
        <ele>18</ele>
        <time>2018-03-09T05:45:05Z</time>
      </trkpt>
      <trkpt lat="46.74953" lon="-1.76461">
        <ele>18</ele>
        <time>2018-03-09T05:46:05Z</time>
      </trkpt>
      <trkpt lat="46.74936" lon="-1.76546">
        <ele>19</ele>
        <time>2018-03-09T05:47:05Z</time>
      </trkpt>
      <trkpt lat="46.74929" lon="-1.76585">
        <ele>20</ele>
        <time>2018-03-09T05:48:05Z</time>
      </trkpt>
      <trkpt lat="46.74925" lon="-1.76613">
        <ele>20</ele>
        <time>2018-03-09T05:49:05Z</time>
      </trkpt>
      <trkpt lat="46.74923" lon="-1.76647">
        <ele>21</ele>
        <time>2018-03-09T05:50:05Z</time>
      </trkpt>
      <trkpt lat="46.74923" lon="-1.76687">
        <ele>21</ele>
        <time>2018-03-09T05:51:05Z</time>
      </trkpt>
      <trkpt lat="46.74924" lon="-1.76725">
        <ele>22</ele>
        <time>2018-03-09T05:52:05Z</time>
      </trkpt>
      <trkpt lat="46.74924" lon="-1.76821">
        <ele>24</ele>
        <time>2018-03-09T05:53:05Z</time>
      </trkpt>
      <trkpt lat="46.74926" lon="-1.76873">
        <ele>23</ele>
        <time>2018-03-09T05:54:05Z</time>
      </trkpt>
      <trkpt lat="46.74927" lon="-1.76934">
        <ele>23</ele>
        <time>2018-03-09T05:55:05Z</time>
      </trkpt>
      <trkpt lat="46.74928" lon="-1.76988">
        <ele>23</ele>
        <time>2018-03-09T05:56:05Z</time>
      </trkpt>
      <trkpt lat="46.74927" lon="-1.7701">
        <ele>23</ele>
        <time>2018-03-09T05:57:05Z</time>
      </trkpt>
      <trkpt lat="46.74927" lon="-1.77037">
        <ele>24</ele>
        <time>2018-03-09T05:58:05Z</time>
      </trkpt>
      <trkpt lat="46.74925" lon="-1.77082">
        <ele>25</ele>
        <time>2018-03-09T05:59:05Z</time>
      </trkpt>
      <trkpt lat="46.74919" lon="-1.7714">
        <ele>24</ele>
        <time>2018-03-09T06:00:05Z</time>
      </trkpt>
      <trkpt lat="46.74913" lon="-1.77212">
        <ele>23</ele>
        <time>2018-03-09T06:01:05Z</time>
      </trkpt>
      <trkpt lat="46.74907" lon="-1.77273">
        <ele>22</ele>
        <time>2018-03-09T06:02:05Z</time>
      </trkpt>
      <trkpt lat="46.74905" lon="-1.77302">
        <ele>22</ele>
        <time>2018-03-09T06:03:05Z</time>
      </trkpt>
      <trkpt lat="46.74905" lon="-1.77324">
        <ele>22</ele>
        <time>2018-03-09T06:04:05Z</time>
      </trkpt>
      <trkpt lat="46.74906" lon="-1.77348">
        <ele>22</ele>
        <time>2018-03-09T06:05:05Z</time>
      </trkpt>
      <trkpt lat="46.74908" lon="-1.77372">
        <ele>22</ele>
        <time>2018-03-09T06:06:05Z</time>
      </trkpt>
      <trkpt lat="46.74912" lon="-1.77395">
        <ele>23</ele>
        <time>2018-03-09T06:07:05Z</time>
      </trkpt>
      <trkpt lat="46.74916" lon="-1.77421">
        <ele>23</ele>
        <time>2018-03-09T06:08:05Z</time>
      </trkpt>
      <trkpt lat="46.7492" lon="-1.77451">
        <ele>24</ele>
        <time>2018-03-09T06:09:05Z</time>
      </trkpt>
      <trkpt lat="46.74922" lon="-1.77474">
        <ele>24</ele>
        <time>2018-03-09T06:10:05Z</time>
      </trkpt>
      <trkpt lat="46.74922" lon="-1.7748">
        <ele>24</ele>
        <time>2018-03-09T06:11:05Z</time>
      </trkpt>
      <trkpt lat="46.74922" lon="-1.7749">
        <ele>25</ele>
        <time>2018-03-09T06:12:05Z</time>
      </trkpt>
      <trkpt lat="46.74922" lon="-1.775">
        <ele>25</ele>
        <time>2018-03-09T06:13:05Z</time>
      </trkpt>
      <trkpt lat="46.74921" lon="-1.77541">
        <ele>24</ele>
        <time>2018-03-09T06:14:05Z</time>
      </trkpt>
      <trkpt lat="46.74918" lon="-1.77588">
        <ele>24</ele>
        <time>2018-03-09T06:15:05Z</time>
      </trkpt>
      <trkpt lat="46.74916" lon="-1.77646">
        <ele>23</ele>
        <time>2018-03-09T06:16:05Z</time>
      </trkpt>
      <trkpt lat="46.74916" lon="-1.77692">
        <ele>23</ele>
        <time>2018-03-09T06:17:05Z</time>
      </trkpt>
      <trkpt lat="46.74916" lon="-1.77737">
        <ele>24</ele>
        <time>2018-03-09T06:18:05Z</time>
      </trkpt>
      <trkpt lat="46.74917" lon="-1.77766">
        <ele>24</ele>
        <time>2018-03-09T06:19:05Z</time>
      </trkpt>
      <trkpt lat="46.74919" lon="-1.77789">
        <ele>24</ele>
        <time>2018-03-09T06:20:05Z</time>
      </trkpt>
      <trkpt lat="46.74921" lon="-1.77813">
        <ele>24</ele>
        <time>2018-03-09T06:21:05Z</time>
      </trkpt>
      <trkpt lat="46.74929" lon="-1.77876">
        <ele>23</ele>
        <time>2018-03-09T06:22:05Z</time>
      </trkpt>
      <trkpt lat="46.7494" lon="-1.77952">
        <ele>22</ele>
        <time>2018-03-09T06:23:05Z</time>
      </trkpt>
      <trkpt lat="46.74945" lon="-1.77983">
        <ele>21</ele>
        <time>2018-03-09T06:24:05Z</time>
      </trkpt>
      <trkpt lat="46.74949" lon="-1.78004">
        <ele>21</ele>
        <time>2018-03-09T06:25:05Z</time>
      </trkpt>
      <trkpt lat="46.74963" lon="-1.78056">
        <ele>19</ele>
        <time>2018-03-09T06:26:05Z</time>
      </trkpt>
      <trkpt lat="46.74976" lon="-1.781">
        <ele>18</ele>
        <time>2018-03-09T06:27:05Z</time>
      </trkpt>
      <trkpt lat="46.74976" lon="-1.781">
        <ele>18</ele>
        <time>2018-03-09T06:28:05Z</time>
      </trkpt>
      <trkpt lat="46.75005" lon="-1.78197">
        <ele>17</ele>
        <time>2018-03-09T06:29:05Z</time>
      </trkpt>
      <trkpt lat="46.75015" lon="-1.78234">
        <ele>17</ele>
        <time>2018-03-09T06:30:05Z</time>
      </trkpt>
      <trkpt lat="46.75021" lon="-1.78257">
        <ele>17</ele>
        <time>2018-03-09T06:31:05Z</time>
      </trkpt>
      <trkpt lat="46.7503" lon="-1.78289">
        <ele>17</ele>
        <time>2018-03-09T06:32:05Z</time>
      </trkpt>
      <trkpt lat="46.75039" lon="-1.78322">
        <ele>17</ele>
        <time>2018-03-09T06:33:05Z</time>
      </trkpt>
      <trkpt lat="46.75046" lon="-1.78342">
        <ele>16</ele>
        <time>2018-03-09T06:34:05Z</time>
      </trkpt>
      <trkpt lat="46.75055" lon="-1.78369">
        <ele>16</ele>
        <time>2018-03-09T06:35:05Z</time>
      </trkpt>
      <trkpt lat="46.75067" lon="-1.784">
        <ele>16</ele>
        <time>2018-03-09T06:36:05Z</time>
      </trkpt>
      <trkpt lat="46.75074" lon="-1.78419">
        <ele>16</ele>
        <time>2018-03-09T06:37:05Z</time>
      </trkpt>
      <trkpt lat="46.75079" lon="-1.78432">
        <ele>16</ele>
        <time>2018-03-09T06:38:05Z</time>
      </trkpt>
      <trkpt lat="46.75079" lon="-1.78432">
        <ele>16</ele>
        <time>2018-03-09T06:39:05Z</time>
      </trkpt>
      <trkpt lat="46.75094" lon="-1.78467">
        <ele>16</ele>
        <time>2018-03-09T06:40:05Z</time>
      </trkpt>
      <trkpt lat="46.75112" lon="-1.78508">
        <ele>16</ele>
        <time>2018-03-09T06:41:05Z</time>
      </trkpt>
      <trkpt lat="46.75127" lon="-1.78542">
        <ele>16</ele>
        <time>2018-03-09T06:42:05Z</time>
      </trkpt>
      <trkpt lat="46.75132" lon="-1.78553">
        <ele>16</ele>
        <time>2018-03-09T06:43:05Z</time>
      </trkpt>
      <trkpt lat="46.75147" lon="-1.78584">
        <ele>16</ele>
        <time>2018-03-09T06:44:05Z</time>
      </trkpt>
      <trkpt lat="46.75149" lon="-1.78589">
        <ele>16</ele>
        <time>2018-03-09T06:45:05Z</time>
      </trkpt>
      <trkpt lat="46.75158" lon="-1.78607">
        <ele>16</ele>
        <time>2018-03-09T06:46:05Z</time>
      </trkpt>
      <trkpt lat="46.75172" lon="-1.78629">
        <ele>15</ele>
        <time>2018-03-09T06:47:05Z</time>
      </trkpt>
      <trkpt lat="46.75177" lon="-1.78639">
        <ele>15</ele>
        <time>2018-03-09T06:48:05Z</time>
      </trkpt>
      <trkpt lat="46.75184" lon="-1.78651">
        <ele>15</ele>
        <time>2018-03-09T06:49:05Z</time>
      </trkpt>
      <trkpt lat="46.75189" lon="-1.78661">
        <ele>15</ele>
        <time>2018-03-09T06:50:05Z</time>
      </trkpt>
      <trkpt lat="46.75198" lon="-1.78686">
        <ele>15</ele>
        <time>2018-03-09T06:51:05Z</time>
      </trkpt>
      <trkpt lat="46.7521" lon="-1.78716">
        <ele>14</ele>
        <time>2018-03-09T06:52:05Z</time>
      </trkpt>
      <trkpt lat="46.7522" lon="-1.78743">
        <ele>13</ele>
        <time>2018-03-09T06:53:05Z</time>
      </trkpt>
      <trkpt lat="46.75226" lon="-1.78763">
        <ele>14</ele>
        <time>2018-03-09T06:54:05Z</time>
      </trkpt>
      <trkpt lat="46.75235" lon="-1.78787">
        <ele>14</ele>
        <time>2018-03-09T06:55:05Z</time>
      </trkpt>
      <trkpt lat="46.75241" lon="-1.78811">
        <ele>14</ele>
        <time>2018-03-09T06:56:05Z</time>
      </trkpt>
      <trkpt lat="46.75247" lon="-1.78833">
        <ele>15</ele>
        <time>2018-03-09T06:57:05Z</time>
      </trkpt>
      <trkpt lat="46.75253" lon="-1.78857">
        <ele>16</ele>
        <time>2018-03-09T06:58:05Z</time>
      </trkpt>
      <trkpt lat="46.75262" lon="-1.78886">
        <ele>16</ele>
        <time>2018-03-09T06:59:05Z</time>
      </trkpt>
      <trkpt lat="46.75272" lon="-1.78914">
        <ele>16</ele>
        <time>2018-03-09T07:00:05Z</time>
      </trkpt>
      <trkpt lat="46.75286" lon="-1.78949">
        <ele>16</ele>
        <time>2018-03-09T07:01:05Z</time>
      </trkpt>
      <trkpt lat="46.75303" lon="-1.78996">
        <ele>16</ele>
        <time>2018-03-09T07:02:05Z</time>
      </trkpt>
      <trkpt lat="46.75321" lon="-1.79043">
        <ele>15</ele>
        <time>2018-03-09T07:03:05Z</time>
      </trkpt>
      <trkpt lat="46.75339" lon="-1.79089">
        <ele>15</ele>
        <time>2018-03-09T07:04:05Z</time>
      </trkpt>
      <trkpt lat="46.75342" lon="-1.79098">
        <ele>15</ele>
        <time>2018-03-09T07:05:05Z</time>
      </trkpt>
      <trkpt lat="46.75353" lon="-1.79124">
        <ele>15</ele>
        <time>2018-03-09T07:06:05Z</time>
      </trkpt>
      <trkpt lat="46.7536" lon="-1.79143">
        <ele>15</ele>
        <time>2018-03-09T07:07:05Z</time>
      </trkpt>
      <trkpt lat="46.75363" lon="-1.79154">
        <ele>15</ele>
        <time>2018-03-09T07:08:05Z</time>
      </trkpt>
      <trkpt lat="46.75364" lon="-1.79163">
        <ele>15</ele>
        <time>2018-03-09T07:09:05Z</time>
      </trkpt>
      <trkpt lat="46.75365" lon="-1.79171">
        <ele>15</ele>
        <time>2018-03-09T07:10:05Z</time>
      </trkpt>
      <trkpt lat="46.75364" lon="-1.79181">
        <ele>15</ele>
        <time>2018-03-09T07:11:05Z</time>
      </trkpt>
      <trkpt lat="46.7536" lon="-1.79197">
        <ele>14</ele>
        <time>2018-03-09T07:12:05Z</time>
      </trkpt>
      <trkpt lat="46.75349" lon="-1.79239">
        <ele>12</ele>
        <time>2018-03-09T07:13:05Z</time>
      </trkpt>
      <trkpt lat="46.75345" lon="-1.79253">
        <ele>12</ele>
        <time>2018-03-09T07:14:05Z</time>
      </trkpt>
      <trkpt lat="46.7534" lon="-1.79264">
        <ele>12</ele>
        <time>2018-03-09T07:15:05Z</time>
      </trkpt>
      <trkpt lat="46.75335" lon="-1.79274">
        <ele>11</ele>
        <time>2018-03-09T07:16:05Z</time>
      </trkpt>
      <trkpt lat="46.75327" lon="-1.79285">
        <ele>11</ele>
        <time>2018-03-09T07:17:05Z</time>
      </trkpt>
      <trkpt lat="46.7531" lon="-1.79308">
        <ele>11</ele>
        <time>2018-03-09T07:18:05Z</time>
      </trkpt>
      <trkpt lat="46.75303" lon="-1.79321">
        <ele>11</ele>
        <time>2018-03-09T07:19:05Z</time>
      </trkpt>
      <trkpt lat="46.75296" lon="-1.79333">
        <ele>11</ele>
        <time>2018-03-09T07:20:05Z</time>
      </trkpt>
      <trkpt lat="46.75287" lon="-1.79355">
        <ele>12</ele>
        <time>2018-03-09T07:21:05Z</time>
      </trkpt>
      <trkpt lat="46.75275" lon="-1.79388">
        <ele>12</ele>
        <time>2018-03-09T07:22:05Z</time>
      </trkpt>
      <trkpt lat="46.75268" lon="-1.79409">
        <ele>12</ele>
        <time>2018-03-09T07:23:05Z</time>
      </trkpt>
      <trkpt lat="46.75265" lon="-1.79422">
        <ele>12</ele>
        <time>2018-03-09T07:24:05Z</time>
      </trkpt>
      <trkpt lat="46.75261" lon="-1.79439">
        <ele>13</ele>
        <time>2018-03-09T07:25:05Z</time>
      </trkpt>
      <trkpt lat="46.75259" lon="-1.79456">
        <ele>13</ele>
        <time>2018-03-09T07:26:05Z</time>
      </trkpt>
      <trkpt lat="46.75256" lon="-1.79494">
        <ele>13</ele>
        <time>2018-03-09T07:27:05Z</time>
      </trkpt>
      <trkpt lat="46.75254" lon="-1.79519">
        <ele>14</ele>
        <time>2018-03-09T07:28:05Z</time>
      </trkpt>
      <trkpt lat="46.75252" lon="-1.79539">
        <ele>14</ele>
        <time>2018-03-09T07:29:05Z</time>
      </trkpt>
      <trkpt lat="46.75251" lon="-1.79544">
        <ele>14</ele>
        <time>2018-03-09T07:30:05Z</time>
      </trkpt>
      <trkpt lat="46.75248" lon="-1.79559">
        <ele>14</ele>
        <time>2018-03-09T07:31:05Z</time>
      </trkpt>
      <trkpt lat="46.75245" lon="-1.79573">
        <ele>15</ele>
        <time>2018-03-09T07:32:05Z</time>
      </trkpt>
      <trkpt lat="46.75241" lon="-1.79594">
        <ele>15</ele>
        <time>2018-03-09T07:33:05Z</time>
      </trkpt>
      <trkpt lat="46.75232" lon="-1.79628">
        <ele>16</ele>
        <time>2018-03-09T07:34:05Z</time>
      </trkpt>
      <trkpt lat="46.75228" lon="-1.79642">
        <ele>16</ele>
        <time>2018-03-09T07:35:05Z</time>
      </trkpt>
      <trkpt lat="46.75222" lon="-1.79655">
        <ele>17</ele>
        <time>2018-03-09T07:36:05Z</time>
      </trkpt>
      <trkpt lat="46.75216" lon="-1.79667">
        <ele>17</ele>
        <time>2018-03-09T07:37:05Z</time>
      </trkpt>
      <trkpt lat="46.75209" lon="-1.79681">
        <ele>17</ele>
        <time>2018-03-09T07:38:05Z</time>
      </trkpt>
      <trkpt lat="46.752" lon="-1.79697">
        <ele>17</ele>
        <time>2018-03-09T07:39:05Z</time>
      </trkpt>
      <trkpt lat="46.75183" lon="-1.79729">
        <ele>17</ele>
        <time>2018-03-09T07:40:05Z</time>
      </trkpt>
      <trkpt lat="46.75177" lon="-1.79742">
        <ele>17</ele>
        <time>2018-03-09T07:41:05Z</time>
      </trkpt>
      <trkpt lat="46.75174" lon="-1.79754">
        <ele>17</ele>
        <time>2018-03-09T07:42:05Z</time>
      </trkpt>
      <trkpt lat="46.75169" lon="-1.79774">
        <ele>17</ele>
        <time>2018-03-09T07:43:05Z</time>
      </trkpt>
      <trkpt lat="46.75165" lon="-1.79795">
        <ele>16</ele>
        <time>2018-03-09T07:44:05Z</time>
      </trkpt>
      <trkpt lat="46.75159" lon="-1.79816">
        <ele>16</ele>
        <time>2018-03-09T07:45:05Z</time>
      </trkpt>
      <trkpt lat="46.7515" lon="-1.79844">
        <ele>15</ele>
        <time>2018-03-09T07:46:05Z</time>
      </trkpt>
      <trkpt lat="46.75142" lon="-1.79868">
        <ele>15</ele>
        <time>2018-03-09T07:47:05Z</time>
      </trkpt>
      <trkpt lat="46.75131" lon="-1.79902">
        <ele>15</ele>
        <time>2018-03-09T07:48:05Z</time>
      </trkpt>
      <trkpt lat="46.75124" lon="-1.79919">
        <ele>15</ele>
        <time>2018-03-09T07:49:05Z</time>
      </trkpt>
      <trkpt lat="46.7512" lon="-1.79928">
        <ele>15</ele>
        <time>2018-03-09T07:50:05Z</time>
      </trkpt>
      <trkpt lat="46.75115" lon="-1.79936">
        <ele>15</ele>
        <time>2018-03-09T07:51:05Z</time>
      </trkpt>
      <trkpt lat="46.75109" lon="-1.79943">
        <ele>14</ele>
        <time>2018-03-09T07:52:05Z</time>
      </trkpt>
      <trkpt lat="46.75103" lon="-1.79946">
        <ele>14</ele>
        <time>2018-03-09T07:53:05Z</time>
      </trkpt>
      <trkpt lat="46.75099" lon="-1.79949">
        <ele>14</ele>
        <time>2018-03-09T07:54:05Z</time>
      </trkpt>
      <trkpt lat="46.75064" lon="-1.79966">
        <ele>14</ele>
        <time>2018-03-09T07:55:05Z</time>
      </trkpt>
      <trkpt lat="46.75035" lon="-1.79982">
        <ele>13</ele>
        <time>2018-03-09T07:56:05Z</time>
      </trkpt>
      <trkpt lat="46.75017" lon="-1.79991">
        <ele>13</ele>
        <time>2018-03-09T07:57:05Z</time>
      </trkpt>
      <trkpt lat="46.75017" lon="-1.79991">
        <ele>13</ele>
        <time>2018-03-09T07:58:05Z</time>
      </trkpt>
      <trkpt lat="46.75021" lon="-1.80014">
        <ele>13</ele>
        <time>2018-03-09T07:59:05Z</time>
      </trkpt>
      <trkpt lat="46.75026" lon="-1.80044">
        <ele>13</ele>
        <time>2018-03-09T08:00:05Z</time>
      </trkpt>
      <trkpt lat="46.75034" lon="-1.80092">
        <ele>12</ele>
        <time>2018-03-09T08:01:05Z</time>
      </trkpt>
      <trkpt lat="46.75039" lon="-1.80125">
        <ele>12</ele>
        <time>2018-03-09T08:02:05Z</time>
      </trkpt>
      <trkpt lat="46.75039" lon="-1.80127">
        <ele>12</ele>
        <time>2018-03-09T08:03:05Z</time>
      </trkpt>
      <trkpt lat="46.75048" lon="-1.8018">
        <ele>13</ele>
        <time>2018-03-09T08:04:05Z</time>
      </trkpt>
      <trkpt lat="46.75055" lon="-1.80218">
        <ele>15</ele>
        <time>2018-03-09T08:05:05Z</time>
      </trkpt>
      <trkpt lat="46.75059" lon="-1.80247">
        <ele>16</ele>
        <time>2018-03-09T08:06:05Z</time>
      </trkpt>
      <trkpt lat="46.75066" lon="-1.80298">
        <ele>16</ele>
        <time>2018-03-09T08:07:05Z</time>
      </trkpt>
      <trkpt lat="46.75066" lon="-1.803">
        <ele>16</ele>
        <time>2018-03-09T08:08:05Z</time>
      </trkpt>
      <trkpt lat="46.75079" lon="-1.8038">
        <ele>15</ele>
        <time>2018-03-09T08:09:05Z</time>
      </trkpt>
      <trkpt lat="46.75088" lon="-1.80437">
        <ele>14</ele>
        <time>2018-03-09T08:10:05Z</time>
      </trkpt>
      <trkpt lat="46.75097" lon="-1.80489">
        <ele>15</ele>
        <time>2018-03-09T08:11:05Z</time>
      </trkpt>
      <trkpt lat="46.75102" lon="-1.80526">
        <ele>14</ele>
        <time>2018-03-09T08:12:05Z</time>
      </trkpt>
      <trkpt lat="46.75113" lon="-1.80589">
        <ele>14</ele>
        <time>2018-03-09T08:13:05Z</time>
      </trkpt>
      <trkpt lat="46.75115" lon="-1.80604">
        <ele>13</ele>
        <time>2018-03-09T08:14:05Z</time>
      </trkpt>
      <trkpt lat="46.75127" lon="-1.80676">
        <ele>11</ele>
        <time>2018-03-09T08:15:05Z</time>
      </trkpt>
      <trkpt lat="46.7513" lon="-1.80699">
        <ele>11</ele>
        <time>2018-03-09T08:16:05Z</time>
      </trkpt>
      <trkpt lat="46.75135" lon="-1.8073">
        <ele>11</ele>
        <time>2018-03-09T08:17:05Z</time>
      </trkpt>
      <trkpt lat="46.75144" lon="-1.80784">
        <ele>11</ele>
        <time>2018-03-09T08:18:05Z</time>
      </trkpt>
      <trkpt lat="46.75157" lon="-1.80862">
        <ele>11</ele>
        <time>2018-03-09T08:19:05Z</time>
      </trkpt>
      <trkpt lat="46.75169" lon="-1.80939">
        <ele>11</ele>
        <time>2018-03-09T08:20:05Z</time>
      </trkpt>
      <trkpt lat="46.75185" lon="-1.81037">
        <ele>10</ele>
        <time>2018-03-09T08:21:05Z</time>
      </trkpt>
      <trkpt lat="46.75195" lon="-1.81098">
        <ele>10</ele>
        <time>2018-03-09T08:22:05Z</time>
      </trkpt>
      <trkpt lat="46.752" lon="-1.81132">
        <ele>10</ele>
        <time>2018-03-09T08:23:05Z</time>
      </trkpt>
      <trkpt lat="46.75204" lon="-1.81152">
        <ele>10</ele>
        <time>2018-03-09T08:24:05Z</time>
      </trkpt>
      <trkpt lat="46.75207" lon="-1.81169">
        <ele>10</ele>
        <time>2018-03-09T08:25:05Z</time>
      </trkpt>
      <trkpt lat="46.7521" lon="-1.81184">
        <ele>10</ele>
        <time>2018-03-09T08:26:05Z</time>
      </trkpt>
      <trkpt lat="46.75215" lon="-1.81201">
        <ele>10</ele>
        <time>2018-03-09T08:27:05Z</time>
      </trkpt>
      <trkpt lat="46.7522" lon="-1.81224">
        <ele>10</ele>
        <time>2018-03-09T08:28:05Z</time>
      </trkpt>
      <trkpt lat="46.75226" lon="-1.81242">
        <ele>10</ele>
        <time>2018-03-09T08:29:05Z</time>
      </trkpt>
      <trkpt lat="46.75244" lon="-1.81293">
        <ele>10</ele>
        <time>2018-03-09T08:30:05Z</time>
      </trkpt>
      <trkpt lat="46.75256" lon="-1.81322">
        <ele>10</ele>
        <time>2018-03-09T08:31:05Z</time>
      </trkpt>
      <trkpt lat="46.75272" lon="-1.81358">
        <ele>10</ele>
        <time>2018-03-09T08:32:05Z</time>
      </trkpt>
      <trkpt lat="46.75278" lon="-1.81373">
        <ele>10</ele>
        <time>2018-03-09T08:33:05Z</time>
      </trkpt>
      <trkpt lat="46.75311" lon="-1.81446">
        <ele>9</ele>
        <time>2018-03-09T08:34:05Z</time>
      </trkpt>
      <trkpt lat="46.7533" lon="-1.81491">
        <ele>9</ele>
        <time>2018-03-09T08:35:05Z</time>
      </trkpt>
      <trkpt lat="46.75354" lon="-1.81545">
        <ele>8</ele>
        <time>2018-03-09T08:36:05Z</time>
      </trkpt>
      <trkpt lat="46.75378" lon="-1.81599">
        <ele>9</ele>
        <time>2018-03-09T08:37:05Z</time>
      </trkpt>
      <trkpt lat="46.75399" lon="-1.81648">
        <ele>9</ele>
        <time>2018-03-09T08:38:05Z</time>
      </trkpt>
      <trkpt lat="46.75429" lon="-1.81716">
        <ele>9</ele>
        <time>2018-03-09T08:39:05Z</time>
      </trkpt>
      <trkpt lat="46.75447" lon="-1.81754">
        <ele>9</ele>
        <time>2018-03-09T08:40:05Z</time>
      </trkpt>
      <trkpt lat="46.75456" lon="-1.81772">
        <ele>9</ele>
        <time>2018-03-09T08:41:05Z</time>
      </trkpt>
      <trkpt lat="46.7546" lon="-1.81778">
        <ele>9</ele>
        <time>2018-03-09T08:42:05Z</time>
      </trkpt>
      <trkpt lat="46.75467" lon="-1.8179">
        <ele>9</ele>
        <time>2018-03-09T08:43:05Z</time>
      </trkpt>
      <trkpt lat="46.75474" lon="-1.81802">
        <ele>9</ele>
        <time>2018-03-09T08:44:05Z</time>
      </trkpt>
      <trkpt lat="46.75484" lon="-1.81816">
        <ele>9</ele>
        <time>2018-03-09T08:45:05Z</time>
      </trkpt>
      <trkpt lat="46.75493" lon="-1.81829">
        <ele>9</ele>
        <time>2018-03-09T08:46:05Z</time>
      </trkpt>
      <trkpt lat="46.75502" lon="-1.8184">
        <ele>9</ele>
        <time>2018-03-09T08:47:05Z</time>
      </trkpt>
      <trkpt lat="46.75509" lon="-1.8185">
        <ele>9</ele>
        <time>2018-03-09T08:48:05Z</time>
      </trkpt>
      <trkpt lat="46.75516" lon="-1.81858">
        <ele>9</ele>
        <time>2018-03-09T08:49:05Z</time>
      </trkpt>
      <trkpt lat="46.75525" lon="-1.81869">
        <ele>8</ele>
        <time>2018-03-09T08:50:05Z</time>
      </trkpt>
      <trkpt lat="46.75533" lon="-1.81879">
        <ele>8</ele>
        <time>2018-03-09T08:51:05Z</time>
      </trkpt>
      <trkpt lat="46.75541" lon="-1.81887">
        <ele>8</ele>
        <time>2018-03-09T08:52:05Z</time>
      </trkpt>
      <trkpt lat="46.7555" lon="-1.81896">
        <ele>8</ele>
        <time>2018-03-09T08:53:05Z</time>
      </trkpt>
      <trkpt lat="46.75582" lon="-1.81925">
        <ele>7</ele>
        <time>2018-03-09T08:54:05Z</time>
      </trkpt>
      <trkpt lat="46.75614" lon="-1.81951">
        <ele>6</ele>
        <time>2018-03-09T08:55:05Z</time>
      </trkpt>
      <trkpt lat="46.75644" lon="-1.81975">
        <ele>6</ele>
        <time>2018-03-09T08:56:05Z</time>
      </trkpt>
      <trkpt lat="46.75704" lon="-1.82024">
        <ele>6</ele>
        <time>2018-03-09T08:57:05Z</time>
      </trkpt>
      <trkpt lat="46.75739" lon="-1.82054">
        <ele>7</ele>
        <time>2018-03-09T08:58:05Z</time>
      </trkpt>
      <trkpt lat="46.75767" lon="-1.82077">
        <ele>7</ele>
        <time>2018-03-09T08:59:05Z</time>
      </trkpt>
      <trkpt lat="46.75783" lon="-1.8209">
        <ele>7</ele>
        <time>2018-03-09T09:00:05Z</time>
      </trkpt>
      <trkpt lat="46.75796" lon="-1.82103">
        <ele>7</ele>
        <time>2018-03-09T09:01:05Z</time>
      </trkpt>
      <trkpt lat="46.75806" lon="-1.82114">
        <ele>7</ele>
        <time>2018-03-09T09:02:05Z</time>
      </trkpt>
      <trkpt lat="46.75815" lon="-1.82124">
        <ele>7</ele>
        <time>2018-03-09T09:03:05Z</time>
      </trkpt>
      <trkpt lat="46.75824" lon="-1.82136">
        <ele>7</ele>
        <time>2018-03-09T09:04:05Z</time>
      </trkpt>
      <trkpt lat="46.7583" lon="-1.82144">
        <ele>7</ele>
        <time>2018-03-09T09:05:05Z</time>
      </trkpt>
      <trkpt lat="46.7584" lon="-1.82159">
        <ele>7</ele>
        <time>2018-03-09T09:06:05Z</time>
      </trkpt>
      <trkpt lat="46.7585" lon="-1.82177">
        <ele>7</ele>
        <time>2018-03-09T09:07:05Z</time>
      </trkpt>
      <trkpt lat="46.75858" lon="-1.82191">
        <ele>7</ele>
        <time>2018-03-09T09:08:05Z</time>
      </trkpt>
      <trkpt lat="46.75867" lon="-1.82208">
        <ele>7</ele>
        <time>2018-03-09T09:09:05Z</time>
      </trkpt>
      <trkpt lat="46.75877" lon="-1.8223">
        <ele>7</ele>
        <time>2018-03-09T09:10:05Z</time>
      </trkpt>
      <trkpt lat="46.75883" lon="-1.82246">
        <ele>7</ele>
        <time>2018-03-09T09:11:05Z</time>
      </trkpt>
      <trkpt lat="46.75884" lon="-1.82249">
        <ele>7</ele>
        <time>2018-03-09T09:12:05Z</time>
      </trkpt>
      <trkpt lat="46.75886" lon="-1.82253">
        <ele>7</ele>
        <time>2018-03-09T09:13:05Z</time>
      </trkpt>
      <trkpt lat="46.75889" lon="-1.82262">
        <ele>7</ele>
        <time>2018-03-09T09:14:05Z</time>
      </trkpt>
      <trkpt lat="46.75893" lon="-1.82273">
        <ele>7</ele>
        <time>2018-03-09T09:15:05Z</time>
      </trkpt>
      <trkpt lat="46.75897" lon="-1.82285">
        <ele>7</ele>
        <time>2018-03-09T09:16:05Z</time>
      </trkpt>
      <trkpt lat="46.759" lon="-1.82298">
        <ele>7</ele>
        <time>2018-03-09T09:17:05Z</time>
      </trkpt>
      <trkpt lat="46.75905" lon="-1.82318">
        <ele>7</ele>
        <time>2018-03-09T09:18:05Z</time>
      </trkpt>
      <trkpt lat="46.75908" lon="-1.82329">
        <ele>7</ele>
        <time>2018-03-09T09:19:05Z</time>
      </trkpt>
      <trkpt lat="46.75913" lon="-1.82347">
        <ele>7</ele>
        <time>2018-03-09T09:20:05Z</time>
      </trkpt>
      <trkpt lat="46.75923" lon="-1.82387">
        <ele>7</ele>
        <time>2018-03-09T09:21:05Z</time>
      </trkpt>
      <trkpt lat="46.75946" lon="-1.82477">
        <ele>7</ele>
        <time>2018-03-09T09:22:05Z</time>
      </trkpt>
      <trkpt lat="46.75964" lon="-1.82552">
        <ele>8</ele>
        <time>2018-03-09T09:23:05Z</time>
      </trkpt>
      <trkpt lat="46.7598" lon="-1.82616">
        <ele>8</ele>
        <time>2018-03-09T09:24:05Z</time>
      </trkpt>
      <trkpt lat="46.75996" lon="-1.82677">
        <ele>8</ele>
        <time>2018-03-09T09:25:05Z</time>
      </trkpt>
      <trkpt lat="46.76007" lon="-1.8272">
        <ele>8</ele>
        <time>2018-03-09T09:26:05Z</time>
      </trkpt>
      <trkpt lat="46.7601" lon="-1.82731">
        <ele>8</ele>
        <time>2018-03-09T09:27:05Z</time>
      </trkpt>
      <trkpt lat="46.76021" lon="-1.82775">
        <ele>8</ele>
        <time>2018-03-09T09:28:05Z</time>
      </trkpt>
      <trkpt lat="46.76023" lon="-1.82781">
        <ele>8</ele>
        <time>2018-03-09T09:29:05Z</time>
      </trkpt>
      <trkpt lat="46.76032" lon="-1.82816">
        <ele>8</ele>
        <time>2018-03-09T09:30:05Z</time>
      </trkpt>
      <trkpt lat="46.76041" lon="-1.82855">
        <ele>8</ele>
        <time>2018-03-09T09:31:05Z</time>
      </trkpt>
      <trkpt lat="46.76055" lon="-1.82908">
        <ele>7</ele>
        <time>2018-03-09T09:32:05Z</time>
      </trkpt>
      <trkpt lat="46.76062" lon="-1.82937">
        <ele>8</ele>
        <time>2018-03-09T09:33:05Z</time>
      </trkpt>
      <trkpt lat="46.76069" lon="-1.82964">
        <ele>9</ele>
        <time>2018-03-09T09:34:05Z</time>
      </trkpt>
      <trkpt lat="46.76083" lon="-1.8302">
        <ele>11</ele>
        <time>2018-03-09T09:35:05Z</time>
      </trkpt>
      <trkpt lat="46.76093" lon="-1.83059">
        <ele>12</ele>
        <time>2018-03-09T09:36:05Z</time>
      </trkpt>
      <trkpt lat="46.76103" lon="-1.83097">
        <ele>13</ele>
        <time>2018-03-09T09:37:05Z</time>
      </trkpt>
      <trkpt lat="46.76113" lon="-1.83134">
        <ele>13</ele>
        <time>2018-03-09T09:38:05Z</time>
      </trkpt>
      <trkpt lat="46.76126" lon="-1.83183">
        <ele>13</ele>
        <time>2018-03-09T09:39:05Z</time>
      </trkpt>
      <trkpt lat="46.76134" lon="-1.83214">
        <ele>14</ele>
        <time>2018-03-09T09:40:05Z</time>
      </trkpt>
      <trkpt lat="46.76137" lon="-1.83226">
        <ele>14</ele>
        <time>2018-03-09T09:41:05Z</time>
      </trkpt>
      <trkpt lat="46.76147" lon="-1.83267">
        <ele>15</ele>
        <time>2018-03-09T09:42:05Z</time>
      </trkpt>
      <trkpt lat="46.76155" lon="-1.83296">
        <ele>15</ele>
        <time>2018-03-09T09:43:05Z</time>
      </trkpt>
      <trkpt lat="46.76165" lon="-1.83332">
        <ele>16</ele>
        <time>2018-03-09T09:44:05Z</time>
      </trkpt>
      <trkpt lat="46.76182" lon="-1.834">
        <ele>17</ele>
        <time>2018-03-09T09:45:05Z</time>
      </trkpt>
      <trkpt lat="46.76187" lon="-1.83416">
        <ele>17</ele>
        <time>2018-03-09T09:46:05Z</time>
      </trkpt>
      <trkpt lat="46.76199" lon="-1.83463">
        <ele>17</ele>
        <time>2018-03-09T09:47:05Z</time>
      </trkpt>
      <trkpt lat="46.76211" lon="-1.8351">
        <ele>17</ele>
        <time>2018-03-09T09:48:05Z</time>
      </trkpt>
      <trkpt lat="46.76221" lon="-1.83549">
        <ele>17</ele>
        <time>2018-03-09T09:49:05Z</time>
      </trkpt>
      <trkpt lat="46.76223" lon="-1.83558">
        <ele>17</ele>
        <time>2018-03-09T09:50:05Z</time>
      </trkpt>
      <trkpt lat="46.76229" lon="-1.83581">
        <ele>17</ele>
        <time>2018-03-09T09:51:05Z</time>
      </trkpt>
      <trkpt lat="46.76232" lon="-1.83593">
        <ele>17</ele>
        <time>2018-03-09T09:52:05Z</time>
      </trkpt>
      <trkpt lat="46.76235" lon="-1.83602">
        <ele>18</ele>
        <time>2018-03-09T09:53:05Z</time>
      </trkpt>
      <trkpt lat="46.76236" lon="-1.83607">
        <ele>18</ele>
        <time>2018-03-09T09:54:05Z</time>
      </trkpt>
      <trkpt lat="46.76241" lon="-1.83628">
        <ele>18</ele>
        <time>2018-03-09T09:55:05Z</time>
      </trkpt>
      <trkpt lat="46.76242" lon="-1.83635">
        <ele>18</ele>
        <time>2018-03-09T09:56:05Z</time>
      </trkpt>
      <trkpt lat="46.76244" lon="-1.83645">
        <ele>18</ele>
        <time>2018-03-09T09:57:05Z</time>
      </trkpt>
      <trkpt lat="46.76245" lon="-1.83656">
        <ele>19</ele>
        <time>2018-03-09T09:58:05Z</time>
      </trkpt>
      <trkpt lat="46.76247" lon="-1.83667">
        <ele>19</ele>
        <time>2018-03-09T09:59:05Z</time>
      </trkpt>
      <trkpt lat="46.76247" lon="-1.83667">
        <ele>19</ele>
        <time>2018-03-09T10:00:05Z</time>
      </trkpt>
      <trkpt lat="46.7624" lon="-1.83666">
        <ele>19</ele>
        <time>2018-03-09T10:01:05Z</time>
      </trkpt>
      <trkpt lat="46.76234" lon="-1.83668">
        <ele>19</ele>
        <time>2018-03-09T10:02:05Z</time>
      </trkpt>
      <trkpt lat="46.76226" lon="-1.83672">
        <ele>19</ele>
        <time>2018-03-09T10:03:05Z</time>
      </trkpt>
      <trkpt lat="46.76218" lon="-1.83677">
        <ele>19</ele>
        <time>2018-03-09T10:04:05Z</time>
      </trkpt>
      <trkpt lat="46.76212" lon="-1.83682">
        <ele>19</ele>
        <time>2018-03-09T10:05:05Z</time>
      </trkpt>
      <trkpt lat="46.7621" lon="-1.83684">
        <ele>19</ele>
        <time>2018-03-09T10:06:05Z</time>
      </trkpt>
      <trkpt lat="46.76207" lon="-1.83687">
        <ele>19</ele>
        <time>2018-03-09T10:07:05Z</time>
      </trkpt>
      <trkpt lat="46.762" lon="-1.83696">
        <ele>19</ele>
        <time>2018-03-09T10:08:05Z</time>
      </trkpt>
      <trkpt lat="46.76195" lon="-1.83703">
        <ele>19</ele>
        <time>2018-03-09T10:09:05Z</time>
      </trkpt>
      <trkpt lat="46.76191" lon="-1.8371">
        <ele>19</ele>
        <time>2018-03-09T10:10:05Z</time>
      </trkpt>
      <trkpt lat="46.76186" lon="-1.83718">
        <ele>19</ele>
        <time>2018-03-09T10:11:05Z</time>
      </trkpt>
      <trkpt lat="46.76182" lon="-1.83724">
        <ele>20</ele>
        <time>2018-03-09T10:12:05Z</time>
      </trkpt>
      <trkpt lat="46.76182" lon="-1.83724">
        <ele>20</ele>
        <time>2018-03-09T10:13:05Z</time>
      </trkpt>
      <trkpt lat="46.76184" lon="-1.8373">
        <ele>20</ele>
        <time>2018-03-09T10:14:05Z</time>
      </trkpt>
      <trkpt lat="46.76187" lon="-1.83737">
        <ele>20</ele>
        <time>2018-03-09T10:15:05Z</time>
      </trkpt>
      <trkpt lat="46.76191" lon="-1.83745">
        <ele>20</ele>
        <time>2018-03-09T10:16:05Z</time>
      </trkpt>
      <trkpt lat="46.76194" lon="-1.83752">
        <ele>20</ele>
        <time>2018-03-09T10:17:05Z</time>
      </trkpt>
      <trkpt lat="46.76196" lon="-1.8376">
        <ele>20</ele>
        <time>2018-03-09T10:18:05Z</time>
      </trkpt>
      <trkpt lat="46.76198" lon="-1.83765">
        <ele>20</ele>
        <time>2018-03-09T10:19:05Z</time>
      </trkpt>
      <trkpt lat="46.762" lon="-1.8377">
        <ele>20</ele>
        <time>2018-03-09T10:20:05Z</time>
      </trkpt>
      <trkpt lat="46.762" lon="-1.8377">
        <ele>20</ele>
        <time>2018-03-09T10:21:05Z</time>
      </trkpt>
      <trkpt lat="46.76202" lon="-1.83774">
        <ele>20</ele>
        <time>2018-03-09T10:22:05Z</time>
      </trkpt>
      <trkpt lat="46.76205" lon="-1.8378">
        <ele>20</ele>
        <time>2018-03-09T10:23:05Z</time>
      </trkpt>
      <trkpt lat="46.76213" lon="-1.83788">
        <ele>20</ele>
        <time>2018-03-09T10:24:05Z</time>
      </trkpt>
      <trkpt lat="46.76219" lon="-1.83793">
        <ele>20</ele>
        <time>2018-03-09T10:25:05Z</time>
      </trkpt>
      <trkpt lat="46.76223" lon="-1.83795">
        <ele>19</ele>
        <time>2018-03-09T10:26:05Z</time>
      </trkpt>
      <trkpt lat="46.76234" lon="-1.83801">
        <ele>19</ele>
        <time>2018-03-09T10:27:05Z</time>
      </trkpt>
      <trkpt lat="46.76246" lon="-1.83807">
        <ele>19</ele>
        <time>2018-03-09T10:28:05Z</time>
      </trkpt>
      <trkpt lat="46.7625" lon="-1.83809">
        <ele>19</ele>
        <time>2018-03-09T10:29:05Z</time>
      </trkpt>
      <trkpt lat="46.7626" lon="-1.83813">
        <ele>19</ele>
        <time>2018-03-09T10:30:05Z</time>
      </trkpt>
      <trkpt lat="46.76284" lon="-1.83821">
        <ele>19</ele>
        <time>2018-03-09T10:31:05Z</time>
      </trkpt>
      <trkpt lat="46.76308" lon="-1.8383">
        <ele>18</ele>
        <time>2018-03-09T10:32:05Z</time>
      </trkpt>
      <trkpt lat="46.76339" lon="-1.83843">
        <ele>18</ele>
        <time>2018-03-09T10:33:05Z</time>
      </trkpt>
      <trkpt lat="46.76352" lon="-1.83849">
        <ele>18</ele>
        <time>2018-03-09T10:34:05Z</time>
      </trkpt>
      <trkpt lat="46.76361" lon="-1.83852">
        <ele>18</ele>
        <time>2018-03-09T10:35:05Z</time>
      </trkpt>
      <trkpt lat="46.76371" lon="-1.83854">
        <ele>18</ele>
        <time>2018-03-09T10:36:05Z</time>
      </trkpt>
      <trkpt lat="46.76376" lon="-1.83855">
        <ele>18</ele>
        <time>2018-03-09T10:37:05Z</time>
      </trkpt>
      <trkpt lat="46.76381" lon="-1.83852">
        <ele>18</ele>
        <time>2018-03-09T10:38:05Z</time>
      </trkpt>
      <trkpt lat="46.76387" lon="-1.83854">
        <ele>18</ele>
        <time>2018-03-09T10:39:05Z</time>
      </trkpt>
      <trkpt lat="46.76399" lon="-1.83855">
        <ele>19</ele>
        <time>2018-03-09T10:40:05Z</time>
      </trkpt>
      <trkpt lat="46.76419" lon="-1.83856">
        <ele>19</ele>
        <time>2018-03-09T10:41:05Z</time>
      </trkpt>
      <trkpt lat="46.76426" lon="-1.83857">
        <ele>19</ele>
        <time>2018-03-09T10:42:05Z</time>
      </trkpt>
      <trkpt lat="46.76429" lon="-1.8386">
        <ele>19</ele>
        <time>2018-03-09T10:43:05Z</time>
      </trkpt>
      <trkpt lat="46.76437" lon="-1.83861">
        <ele>19</ele>
        <time>2018-03-09T10:44:05Z</time>
      </trkpt>
      <trkpt lat="46.76442" lon="-1.83862">
        <ele>19</ele>
        <time>2018-03-09T10:45:05Z</time>
      </trkpt>
      <trkpt lat="46.76446" lon="-1.83862">
        <ele>19</ele>
        <time>2018-03-09T10:46:05Z</time>
      </trkpt>
      <trkpt lat="46.76463" lon="-1.83864">
        <ele>19</ele>
        <time>2018-03-09T10:47:05Z</time>
      </trkpt>
      <trkpt lat="46.76485" lon="-1.83866">
        <ele>19</ele>
        <time>2018-03-09T10:48:05Z</time>
      </trkpt>
      <trkpt lat="46.76503" lon="-1.83869">
        <ele>20</ele>
        <time>2018-03-09T10:49:05Z</time>
      </trkpt>
      <trkpt lat="46.76517" lon="-1.83872">
        <ele>20</ele>
        <time>2018-03-09T10:50:05Z</time>
      </trkpt>
      <trkpt lat="46.76523" lon="-1.83874">
        <ele>20</ele>
        <time>2018-03-09T10:51:05Z</time>
      </trkpt>
      <trkpt lat="46.76529" lon="-1.83876">
        <ele>20</ele>
        <time>2018-03-09T10:52:05Z</time>
      </trkpt>
      <trkpt lat="46.76534" lon="-1.83878">
        <ele>20</ele>
        <time>2018-03-09T10:53:05Z</time>
      </trkpt>
      <trkpt lat="46.76541" lon="-1.8388">
        <ele>20</ele>
        <time>2018-03-09T10:54:05Z</time>
      </trkpt>
      <trkpt lat="46.76545" lon="-1.83882">
        <ele>20</ele>
        <time>2018-03-09T10:55:05Z</time>
      </trkpt>
      <trkpt lat="46.76551" lon="-1.83884">
        <ele>20</ele>
        <time>2018-03-09T10:56:05Z</time>
      </trkpt>
      <trkpt lat="46.76562" lon="-1.83888">
        <ele>20</ele>
        <time>2018-03-09T10:57:05Z</time>
      </trkpt>
      <trkpt lat="46.76566" lon="-1.8389">
        <ele>20</ele>
        <time>2018-03-09T10:58:05Z</time>
      </trkpt>
      <trkpt lat="46.76573" lon="-1.83897">
        <ele>21</ele>
        <time>2018-03-09T10:59:05Z</time>
      </trkpt>
      <trkpt lat="46.76577" lon="-1.83903">
        <ele>21</ele>
        <time>2018-03-09T11:00:05Z</time>
      </trkpt>
      <trkpt lat="46.7658" lon="-1.83907">
        <ele>21</ele>
        <time>2018-03-09T11:01:05Z</time>
      </trkpt>
      <trkpt lat="46.76584" lon="-1.83912">
        <ele>21</ele>
        <time>2018-03-09T11:02:05Z</time>
      </trkpt>
      <trkpt lat="46.76588" lon="-1.8392">
        <ele>21</ele>
        <time>2018-03-09T11:03:05Z</time>
      </trkpt>
      <trkpt lat="46.76591" lon="-1.83927">
        <ele>21</ele>
        <time>2018-03-09T11:04:05Z</time>
      </trkpt>
      <trkpt lat="46.76613" lon="-1.8398">
        <ele>21</ele>
        <time>2018-03-09T11:05:05Z</time>
      </trkpt>
      <trkpt lat="46.76649" lon="-1.84071">
        <ele>20</ele>
        <time>2018-03-09T11:06:05Z</time>
      </trkpt>
      <trkpt lat="46.7665" lon="-1.84074">
        <ele>20</ele>
        <time>2018-03-09T11:07:05Z</time>
      </trkpt>
      <trkpt lat="46.7666" lon="-1.841">
        <ele>20</ele>
        <time>2018-03-09T11:08:05Z</time>
      </trkpt>
      <trkpt lat="46.76682" lon="-1.84155">
        <ele>20</ele>
        <time>2018-03-09T11:09:05Z</time>
      </trkpt>
      <trkpt lat="46.76687" lon="-1.84167">
        <ele>20</ele>
        <time>2018-03-09T11:10:05Z</time>
      </trkpt>
      <trkpt lat="46.76693" lon="-1.84184">
        <ele>20</ele>
        <time>2018-03-09T11:11:05Z</time>
      </trkpt>
      <trkpt lat="46.76698" lon="-1.84199">
        <ele>20</ele>
        <time>2018-03-09T11:12:05Z</time>
      </trkpt>
      <trkpt lat="46.76702" lon="-1.84212">
        <ele>20</ele>
        <time>2018-03-09T11:13:05Z</time>
      </trkpt>
      <trkpt lat="46.76705" lon="-1.84226">
        <ele>20</ele>
        <time>2018-03-09T11:14:05Z</time>
      </trkpt>
      <trkpt lat="46.76707" lon="-1.84237">
        <ele>20</ele>
        <time>2018-03-09T11:15:05Z</time>
      </trkpt>
      <trkpt lat="46.7671" lon="-1.84253">
        <ele>19</ele>
        <time>2018-03-09T11:16:05Z</time>
      </trkpt>
      <trkpt lat="46.76712" lon="-1.84267">
        <ele>19</ele>
        <time>2018-03-09T11:17:05Z</time>
      </trkpt>
      <trkpt lat="46.76713" lon="-1.84291">
        <ele>19</ele>
        <time>2018-03-09T11:18:05Z</time>
      </trkpt>
      <trkpt lat="46.76714" lon="-1.84317">
        <ele>19</ele>
        <time>2018-03-09T11:19:05Z</time>
      </trkpt>
      <trkpt lat="46.76714" lon="-1.84361">
        <ele>19</ele>
        <time>2018-03-09T11:20:05Z</time>
      </trkpt>
      <trkpt lat="46.76714" lon="-1.84368">
        <ele>19</ele>
        <time>2018-03-09T11:21:05Z</time>
      </trkpt>
      <trkpt lat="46.76714" lon="-1.84385">
        <ele>19</ele>
        <time>2018-03-09T11:22:05Z</time>
      </trkpt>
      <trkpt lat="46.76716" lon="-1.84404">
        <ele>18</ele>
        <time>2018-03-09T11:23:05Z</time>
      </trkpt>
      <trkpt lat="46.76718" lon="-1.84424">
        <ele>18</ele>
        <time>2018-03-09T11:24:05Z</time>
      </trkpt>
      <trkpt lat="46.7672" lon="-1.84438">
        <ele>18</ele>
        <time>2018-03-09T11:25:05Z</time>
      </trkpt>
      <trkpt lat="46.76724" lon="-1.84468">
        <ele>18</ele>
        <time>2018-03-09T11:26:05Z</time>
      </trkpt>
      <trkpt lat="46.7673" lon="-1.84503">
        <ele>18</ele>
        <time>2018-03-09T11:27:05Z</time>
      </trkpt>
      <trkpt lat="46.76737" lon="-1.84537">
        <ele>18</ele>
        <time>2018-03-09T11:28:05Z</time>
      </trkpt>
      <trkpt lat="46.7674" lon="-1.84558">
        <ele>18</ele>
        <time>2018-03-09T11:29:05Z</time>
      </trkpt>
      <trkpt lat="46.76749" lon="-1.84613">
        <ele>18</ele>
        <time>2018-03-09T11:30:05Z</time>
      </trkpt>
      <trkpt lat="46.76751" lon="-1.84624">
        <ele>17</ele>
        <time>2018-03-09T11:31:05Z</time>
      </trkpt>
      <trkpt lat="46.76765" lon="-1.84703">
        <ele>17</ele>
        <time>2018-03-09T11:32:05Z</time>
      </trkpt>
      <trkpt lat="46.76777" lon="-1.84769">
        <ele>16</ele>
        <time>2018-03-09T11:33:05Z</time>
      </trkpt>
      <trkpt lat="46.7679" lon="-1.84848">
        <ele>15</ele>
        <time>2018-03-09T11:34:05Z</time>
      </trkpt>
      <trkpt lat="46.76799" lon="-1.84895">
        <ele>15</ele>
        <time>2018-03-09T11:35:05Z</time>
      </trkpt>
      <trkpt lat="46.76802" lon="-1.84914">
        <ele>15</ele>
        <time>2018-03-09T11:36:05Z</time>
      </trkpt>
      <trkpt lat="46.76809" lon="-1.8495">
        <ele>15</ele>
        <time>2018-03-09T11:37:05Z</time>
      </trkpt>
      <trkpt lat="46.76812" lon="-1.84973">
        <ele>15</ele>
        <time>2018-03-09T11:38:05Z</time>
      </trkpt>
      <trkpt lat="46.76814" lon="-1.84994">
        <ele>15</ele>
        <time>2018-03-09T11:39:05Z</time>
      </trkpt>
      <trkpt lat="46.76815" lon="-1.85012">
        <ele>15</ele>
        <time>2018-03-09T11:40:05Z</time>
      </trkpt>
      <trkpt lat="46.76816" lon="-1.85032">
        <ele>15</ele>
        <time>2018-03-09T11:41:05Z</time>
      </trkpt>
      <trkpt lat="46.76817" lon="-1.85053">
        <ele>15</ele>
        <time>2018-03-09T11:42:05Z</time>
      </trkpt>
      <trkpt lat="46.76817" lon="-1.8509">
        <ele>15</ele>
        <time>2018-03-09T11:43:05Z</time>
      </trkpt>
      <trkpt lat="46.76815" lon="-1.85142">
        <ele>14</ele>
        <time>2018-03-09T11:44:05Z</time>
      </trkpt>
      <trkpt lat="46.76815" lon="-1.85176">
        <ele>13</ele>
        <time>2018-03-09T11:45:05Z</time>
      </trkpt>
      <trkpt lat="46.76815" lon="-1.85199">
        <ele>13</ele>
        <time>2018-03-09T11:46:05Z</time>
      </trkpt>
      <trkpt lat="46.76816" lon="-1.85221">
        <ele>13</ele>
        <time>2018-03-09T11:47:05Z</time>
      </trkpt>
      <trkpt lat="46.76818" lon="-1.85241">
        <ele>13</ele>
        <time>2018-03-09T11:48:05Z</time>
      </trkpt>
      <trkpt lat="46.76818" lon="-1.85242">
        <ele>13</ele>
        <time>2018-03-09T11:49:05Z</time>
      </trkpt>
      <trkpt lat="46.76822" lon="-1.85266">
        <ele>13</ele>
        <time>2018-03-09T11:50:05Z</time>
      </trkpt>
      <trkpt lat="46.76828" lon="-1.85291">
        <ele>13</ele>
        <time>2018-03-09T11:51:05Z</time>
      </trkpt>
      <trkpt lat="46.76835" lon="-1.85316">
        <ele>13</ele>
        <time>2018-03-09T11:52:05Z</time>
      </trkpt>
      <trkpt lat="46.76851" lon="-1.85366">
        <ele>13</ele>
        <time>2018-03-09T11:53:05Z</time>
      </trkpt>
      <trkpt lat="46.76857" lon="-1.85383">
        <ele>13</ele>
        <time>2018-03-09T11:54:05Z</time>
      </trkpt>
      <trkpt lat="46.76866" lon="-1.85412">
        <ele>14</ele>
        <time>2018-03-09T11:55:05Z</time>
      </trkpt>
      <trkpt lat="46.76874" lon="-1.85433">
        <ele>14</ele>
        <time>2018-03-09T11:56:05Z</time>
      </trkpt>
      <trkpt lat="46.76894" lon="-1.85495">
        <ele>14</ele>
        <time>2018-03-09T11:57:05Z</time>
      </trkpt>
      <trkpt lat="46.76902" lon="-1.85518">
        <ele>14</ele>
        <time>2018-03-09T11:58:05Z</time>
      </trkpt>
      <trkpt lat="46.76909" lon="-1.85537">
        <ele>14</ele>
        <time>2018-03-09T11:59:05Z</time>
      </trkpt>
      <trkpt lat="46.76915" lon="-1.85553">
        <ele>13</ele>
        <time>2018-03-09T12:00:05Z</time>
      </trkpt>
      <trkpt lat="46.76922" lon="-1.8557">
        <ele>13</ele>
        <time>2018-03-09T12:01:05Z</time>
      </trkpt>
      <trkpt lat="46.76928" lon="-1.85584">
        <ele>13</ele>
        <time>2018-03-09T12:02:05Z</time>
      </trkpt>
      <trkpt lat="46.76932" lon="-1.85591">
        <ele>13</ele>
        <time>2018-03-09T12:03:05Z</time>
      </trkpt>
      <trkpt lat="46.76936" lon="-1.856">
        <ele>12</ele>
        <time>2018-03-09T12:04:05Z</time>
      </trkpt>
      <trkpt lat="46.76961" lon="-1.85652">
        <ele>12</ele>
        <time>2018-03-09T12:05:05Z</time>
      </trkpt>
      <trkpt lat="46.76963" lon="-1.85656">
        <ele>12</ele>
        <time>2018-03-09T12:06:05Z</time>
      </trkpt>
      <trkpt lat="46.76981" lon="-1.8569">
        <ele>12</ele>
        <time>2018-03-09T12:07:05Z</time>
      </trkpt>
      <trkpt lat="46.77" lon="-1.85725">
        <ele>12</ele>
        <time>2018-03-09T12:08:05Z</time>
      </trkpt>
      <trkpt lat="46.7701" lon="-1.85744">
        <ele>13</ele>
        <time>2018-03-09T12:09:05Z</time>
      </trkpt>
      <trkpt lat="46.7702" lon="-1.85765">
        <ele>13</ele>
        <time>2018-03-09T12:10:05Z</time>
      </trkpt>
      <trkpt lat="46.77025" lon="-1.85775">
        <ele>12</ele>
        <time>2018-03-09T12:11:05Z</time>
      </trkpt>
      <trkpt lat="46.77037" lon="-1.85796">
        <ele>12</ele>
        <time>2018-03-09T12:12:05Z</time>
      </trkpt>
      <trkpt lat="46.77069" lon="-1.85859">
        <ele>12</ele>
        <time>2018-03-09T12:13:05Z</time>
      </trkpt>
      <trkpt lat="46.77097" lon="-1.85912">
        <ele>12</ele>
        <time>2018-03-09T12:14:05Z</time>
      </trkpt>
      <trkpt lat="46.77146" lon="-1.86007">
        <ele>9</ele>
        <time>2018-03-09T12:15:05Z</time>
      </trkpt>
      <trkpt lat="46.77179" lon="-1.86071">
        <ele>9</ele>
        <time>2018-03-09T12:16:05Z</time>
      </trkpt>
      <trkpt lat="46.77215" lon="-1.8614">
        <ele>9</ele>
        <time>2018-03-09T12:17:05Z</time>
      </trkpt>
      <trkpt lat="46.77242" lon="-1.86193">
        <ele>9</ele>
        <time>2018-03-09T12:18:05Z</time>
      </trkpt>
      <trkpt lat="46.77248" lon="-1.86204">
        <ele>9</ele>
        <time>2018-03-09T12:19:05Z</time>
      </trkpt>
      <trkpt lat="46.77255" lon="-1.86217">
        <ele>9</ele>
        <time>2018-03-09T12:20:05Z</time>
      </trkpt>
      <trkpt lat="46.77263" lon="-1.86232">
        <ele>9</ele>
        <time>2018-03-09T12:21:05Z</time>
      </trkpt>
      <trkpt lat="46.7727" lon="-1.86244">
        <ele>9</ele>
        <time>2018-03-09T12:22:05Z</time>
      </trkpt>
      <trkpt lat="46.77277" lon="-1.86254">
        <ele>9</ele>
        <time>2018-03-09T12:23:05Z</time>
      </trkpt>
      <trkpt lat="46.77284" lon="-1.86265">
        <ele>9</ele>
        <time>2018-03-09T12:24:05Z</time>
      </trkpt>
      <trkpt lat="46.7729" lon="-1.86274">
        <ele>9</ele>
        <time>2018-03-09T12:25:05Z</time>
      </trkpt>
      <trkpt lat="46.77298" lon="-1.86284">
        <ele>9</ele>
        <time>2018-03-09T12:26:05Z</time>
      </trkpt>
      <trkpt lat="46.77305" lon="-1.86293">
        <ele>8</ele>
        <time>2018-03-09T12:27:05Z</time>
      </trkpt>
      <trkpt lat="46.77314" lon="-1.86303">
        <ele>8</ele>
        <time>2018-03-09T12:28:05Z</time>
      </trkpt>
      <trkpt lat="46.77318" lon="-1.86308">
        <ele>8</ele>
        <time>2018-03-09T12:29:05Z</time>
      </trkpt>
      <trkpt lat="46.77327" lon="-1.86318">
        <ele>8</ele>
        <time>2018-03-09T12:30:05Z</time>
      </trkpt>
      <trkpt lat="46.7742" lon="-1.86419">
        <ele>8</ele>
        <time>2018-03-09T12:31:05Z</time>
      </trkpt>
      <trkpt lat="46.77481" lon="-1.86487">
        <ele>7</ele>
        <time>2018-03-09T12:32:05Z</time>
      </trkpt>
      <trkpt lat="46.77537" lon="-1.86549">
        <ele>7</ele>
        <time>2018-03-09T12:33:05Z</time>
      </trkpt>
      <trkpt lat="46.77568" lon="-1.86583">
        <ele>7</ele>
        <time>2018-03-09T12:34:05Z</time>
      </trkpt>
      <trkpt lat="46.77578" lon="-1.86596">
        <ele>7</ele>
        <time>2018-03-09T12:35:05Z</time>
      </trkpt>
      <trkpt lat="46.77587" lon="-1.86608">
        <ele>7</ele>
        <time>2018-03-09T12:36:05Z</time>
      </trkpt>
      <trkpt lat="46.77594" lon="-1.86622">
        <ele>7</ele>
        <time>2018-03-09T12:37:05Z</time>
      </trkpt>
      <trkpt lat="46.77599" lon="-1.86633">
        <ele>7</ele>
        <time>2018-03-09T12:38:05Z</time>
      </trkpt>
      <trkpt lat="46.77604" lon="-1.86646">
        <ele>7</ele>
        <time>2018-03-09T12:39:05Z</time>
      </trkpt>
      <trkpt lat="46.77609" lon="-1.8666">
        <ele>7</ele>
        <time>2018-03-09T12:40:05Z</time>
      </trkpt>
      <trkpt lat="46.77614" lon="-1.86675">
        <ele>7</ele>
        <time>2018-03-09T12:41:05Z</time>
      </trkpt>
      <trkpt lat="46.77618" lon="-1.86688">
        <ele>7</ele>
        <time>2018-03-09T12:42:05Z</time>
      </trkpt>
      <trkpt lat="46.77622" lon="-1.86702">
        <ele>7</ele>
        <time>2018-03-09T12:43:05Z</time>
      </trkpt>
      <trkpt lat="46.77625" lon="-1.86715">
        <ele>7</ele>
        <time>2018-03-09T12:44:05Z</time>
      </trkpt>
      <trkpt lat="46.77628" lon="-1.86731">
        <ele>7</ele>
        <time>2018-03-09T12:45:05Z</time>
      </trkpt>
      <trkpt lat="46.77632" lon="-1.86756">
        <ele>7</ele>
        <time>2018-03-09T12:46:05Z</time>
      </trkpt>
      <trkpt lat="46.77641" lon="-1.86822">
        <ele>7</ele>
        <time>2018-03-09T12:47:05Z</time>
      </trkpt>
      <trkpt lat="46.7765" lon="-1.86891">
        <ele>7</ele>
        <time>2018-03-09T12:48:05Z</time>
      </trkpt>
      <trkpt lat="46.7766" lon="-1.86961">
        <ele>6</ele>
        <time>2018-03-09T12:49:05Z</time>
      </trkpt>
      <trkpt lat="46.77673" lon="-1.87067">
        <ele>5</ele>
        <time>2018-03-09T12:50:05Z</time>
      </trkpt>
      <trkpt lat="46.77686" lon="-1.87156">
        <ele>5</ele>
        <time>2018-03-09T12:51:05Z</time>
      </trkpt>
      <trkpt lat="46.77691" lon="-1.87204">
        <ele>5</ele>
        <time>2018-03-09T12:52:05Z</time>
      </trkpt>
      <trkpt lat="46.77696" lon="-1.8724">
        <ele>4</ele>
        <time>2018-03-09T12:53:05Z</time>
      </trkpt>
      <trkpt lat="46.77696" lon="-1.87244">
        <ele>4</ele>
        <time>2018-03-09T12:54:05Z</time>
      </trkpt>
      <trkpt lat="46.77705" lon="-1.87303">
        <ele>4</ele>
        <time>2018-03-09T12:55:05Z</time>
      </trkpt>
      <trkpt lat="46.77716" lon="-1.87374">
        <ele>5</ele>
        <time>2018-03-09T12:56:05Z</time>
      </trkpt>
      <trkpt lat="46.77731" lon="-1.87481">
        <ele>5</ele>
        <time>2018-03-09T12:57:05Z</time>
      </trkpt>
      <trkpt lat="46.77739" lon="-1.87534">
        <ele>4</ele>
        <time>2018-03-09T12:58:05Z</time>
      </trkpt>
      <trkpt lat="46.7775" lon="-1.87601">
        <ele>5</ele>
        <time>2018-03-09T12:59:05Z</time>
      </trkpt>
      <trkpt lat="46.77752" lon="-1.87616">
        <ele>5</ele>
        <time>2018-03-09T13:00:05Z</time>
      </trkpt>
      <trkpt lat="46.77758" lon="-1.87653">
        <ele>4</ele>
        <time>2018-03-09T13:01:05Z</time>
      </trkpt>
      <trkpt lat="46.77758" lon="-1.87653">
        <ele>4</ele>
        <time>2018-03-09T13:02:05Z</time>
      </trkpt>
      <trkpt lat="46.77759" lon="-1.87655">
        <ele>4</ele>
        <time>2018-03-09T13:03:05Z</time>
      </trkpt>
      <trkpt lat="46.7776" lon="-1.87656">
        <ele>4</ele>
        <time>2018-03-09T13:04:05Z</time>
      </trkpt>
      <trkpt lat="46.77761" lon="-1.87657">
        <ele>4</ele>
        <time>2018-03-09T13:05:05Z</time>
      </trkpt>
      <trkpt lat="46.77762" lon="-1.87658">
        <ele>4</ele>
        <time>2018-03-09T13:06:05Z</time>
      </trkpt>
      <trkpt lat="46.77763" lon="-1.8766">
        <ele>4</ele>
        <time>2018-03-09T13:07:05Z</time>
      </trkpt>
      <trkpt lat="46.77763" lon="-1.87661">
        <ele>4</ele>
        <time>2018-03-09T13:08:05Z</time>
      </trkpt>
      <trkpt lat="46.77764" lon="-1.87663">
        <ele>4</ele>
        <time>2018-03-09T13:09:05Z</time>
      </trkpt>
      <trkpt lat="46.77765" lon="-1.87665">
        <ele>4</ele>
        <time>2018-03-09T13:10:05Z</time>
      </trkpt>
      <trkpt lat="46.77765" lon="-1.87667">
        <ele>4</ele>
        <time>2018-03-09T13:11:05Z</time>
      </trkpt>
      <trkpt lat="46.77765" lon="-1.87668">
        <ele>4</ele>
        <time>2018-03-09T13:12:05Z</time>
      </trkpt>
      <trkpt lat="46.77766" lon="-1.8767">
        <ele>4</ele>
        <time>2018-03-09T13:13:05Z</time>
      </trkpt>
      <trkpt lat="46.77766" lon="-1.87672">
        <ele>4</ele>
        <time>2018-03-09T13:14:05Z</time>
      </trkpt>
      <trkpt lat="46.77777" lon="-1.8768">
        <ele>4</ele>
        <time>2018-03-09T13:15:05Z</time>
      </trkpt>
      <trkpt lat="46.77791" lon="-1.87691">
        <ele>4</ele>
        <time>2018-03-09T13:16:05Z</time>
      </trkpt>
      <trkpt lat="46.77856" lon="-1.87714">
        <ele>4</ele>
        <time>2018-03-09T13:17:05Z</time>
      </trkpt>
      <trkpt lat="46.77865" lon="-1.87718">
        <ele>4</ele>
        <time>2018-03-09T13:18:05Z</time>
      </trkpt>
      <trkpt lat="46.77912" lon="-1.87736">
        <ele>5</ele>
        <time>2018-03-09T13:19:05Z</time>
      </trkpt>
      <trkpt lat="46.77967" lon="-1.87758">
        <ele>3</ele>
        <time>2018-03-09T13:20:05Z</time>
      </trkpt>
      <trkpt lat="46.77999" lon="-1.87771">
        <ele>2</ele>
        <time>2018-03-09T13:21:05Z</time>
      </trkpt>
      <trkpt lat="46.78034" lon="-1.87785">
        <ele>3</ele>
        <time>2018-03-09T13:22:05Z</time>
      </trkpt>
      <trkpt lat="46.78059" lon="-1.87794">
        <ele>4</ele>
        <time>2018-03-09T13:23:05Z</time>
      </trkpt>
      <trkpt lat="46.78068" lon="-1.87799">
        <ele>4</ele>
        <time>2018-03-09T13:24:05Z</time>
      </trkpt>
      <trkpt lat="46.78082" lon="-1.87805">
        <ele>4</ele>
        <time>2018-03-09T13:25:05Z</time>
      </trkpt>
      <trkpt lat="46.78107" lon="-1.87813">
        <ele>5</ele>
        <time>2018-03-09T13:26:05Z</time>
      </trkpt>
      <trkpt lat="46.78109" lon="-1.87813">
        <ele>5</ele>
        <time>2018-03-09T13:27:05Z</time>
      </trkpt>
      <trkpt lat="46.78184" lon="-1.87842">
        <ele>6</ele>
        <time>2018-03-09T13:28:05Z</time>
      </trkpt>
      <trkpt lat="46.78246" lon="-1.87865">
        <ele>5</ele>
        <time>2018-03-09T13:29:05Z</time>
      </trkpt>
      <trkpt lat="46.7826" lon="-1.8787">
        <ele>5</ele>
        <time>2018-03-09T13:30:05Z</time>
      </trkpt>
      <trkpt lat="46.78302" lon="-1.87884">
        <ele>5</ele>
        <time>2018-03-09T13:31:05Z</time>
      </trkpt>
      <trkpt lat="46.7831" lon="-1.87887">
        <ele>5</ele>
        <time>2018-03-09T13:32:05Z</time>
      </trkpt>
      <trkpt lat="46.78367" lon="-1.87908">
        <ele>6</ele>
        <time>2018-03-09T13:33:05Z</time>
      </trkpt>
      <trkpt lat="46.78401" lon="-1.87921">
        <ele>7</ele>
        <time>2018-03-09T13:34:05Z</time>
      </trkpt>
      <trkpt lat="46.78421" lon="-1.87928">
        <ele>8</ele>
        <time>2018-03-09T13:35:05Z</time>
      </trkpt>
      <trkpt lat="46.78475" lon="-1.87947">
        <ele>6</ele>
        <time>2018-03-09T13:36:05Z</time>
      </trkpt>
      <trkpt lat="46.78501" lon="-1.87957">
        <ele>6</ele>
        <time>2018-03-09T13:37:05Z</time>
      </trkpt>
      <trkpt lat="46.78526" lon="-1.87967">
        <ele>6</ele>
        <time>2018-03-09T13:38:05Z</time>
      </trkpt>
      <trkpt lat="46.78582" lon="-1.8799">
        <ele>6</ele>
        <time>2018-03-09T13:39:05Z</time>
      </trkpt>
      <trkpt lat="46.786" lon="-1.87996">
        <ele>6</ele>
        <time>2018-03-09T13:40:05Z</time>
      </trkpt>
      <trkpt lat="46.78669" lon="-1.88024">
        <ele>5</ele>
        <time>2018-03-09T13:41:05Z</time>
      </trkpt>
      <trkpt lat="46.78706" lon="-1.88037">
        <ele>4</ele>
        <time>2018-03-09T13:42:05Z</time>
      </trkpt>
      <trkpt lat="46.78733" lon="-1.88048">
        <ele>4</ele>
        <time>2018-03-09T13:43:05Z</time>
      </trkpt>
      <trkpt lat="46.78741" lon="-1.88051">
        <ele>4</ele>
        <time>2018-03-09T13:44:05Z</time>
      </trkpt>
      <trkpt lat="46.78749" lon="-1.88056">
        <ele>4</ele>
        <time>2018-03-09T13:45:05Z</time>
      </trkpt>
      <trkpt lat="46.78757" lon="-1.88061">
        <ele>5</ele>
        <time>2018-03-09T13:46:05Z</time>
      </trkpt>
      <trkpt lat="46.78764" lon="-1.88068">
        <ele>5</ele>
        <time>2018-03-09T13:47:05Z</time>
      </trkpt>
      <trkpt lat="46.78771" lon="-1.88075">
        <ele>5</ele>
        <time>2018-03-09T13:48:05Z</time>
      </trkpt>
      <trkpt lat="46.7878" lon="-1.88085">
        <ele>5</ele>
        <time>2018-03-09T13:49:05Z</time>
      </trkpt>
      <trkpt lat="46.78798" lon="-1.88106">
        <ele>5</ele>
        <time>2018-03-09T13:50:05Z</time>
      </trkpt>
      <trkpt lat="46.78808" lon="-1.88119">
        <ele>5</ele>
        <time>2018-03-09T13:51:05Z</time>
      </trkpt>
      <trkpt lat="46.78821" lon="-1.88134">
        <ele>4</ele>
        <time>2018-03-09T13:52:05Z</time>
      </trkpt>
      <trkpt lat="46.78834" lon="-1.88145">
        <ele>4</ele>
        <time>2018-03-09T13:53:05Z</time>
      </trkpt>
      <trkpt lat="46.78857" lon="-1.88171">
        <ele>4</ele>
        <time>2018-03-09T13:54:05Z</time>
      </trkpt>
      <trkpt lat="46.78868" lon="-1.88183">
        <ele>3</ele>
        <time>2018-03-09T13:55:05Z</time>
      </trkpt>
      <trkpt lat="46.78871" lon="-1.88186">
        <ele>3</ele>
        <time>2018-03-09T13:56:05Z</time>
      </trkpt>
      <trkpt lat="46.78876" lon="-1.8819">
        <ele>3</ele>
        <time>2018-03-09T13:57:05Z</time>
      </trkpt>
      <trkpt lat="46.78881" lon="-1.88194">
        <ele>3</ele>
        <time>2018-03-09T13:58:05Z</time>
      </trkpt>
      <trkpt lat="46.78882" lon="-1.88196">
        <ele>3</ele>
        <time>2018-03-09T13:59:05Z</time>
      </trkpt>
      <trkpt lat="46.78889" lon="-1.882">
        <ele>3</ele>
        <time>2018-03-09T14:00:05Z</time>
      </trkpt>
      <trkpt lat="46.78895" lon="-1.88203">
        <ele>3</ele>
        <time>2018-03-09T14:01:05Z</time>
      </trkpt>
      <trkpt lat="46.78895" lon="-1.88203">
        <ele>3</ele>
        <time>2018-03-09T14:02:05Z</time>
      </trkpt>
      <trkpt lat="46.78894" lon="-1.88211">
        <ele>3</ele>
        <time>2018-03-09T14:03:05Z</time>
      </trkpt>
      <trkpt lat="46.78894" lon="-1.88213">
        <ele>3</ele>
        <time>2018-03-09T14:04:05Z</time>
      </trkpt>
      <trkpt lat="46.78893" lon="-1.88216">
        <ele>3</ele>
        <time>2018-03-09T14:05:05Z</time>
      </trkpt>
      <trkpt lat="46.78894" lon="-1.88219">
        <ele>3</ele>
        <time>2018-03-09T14:06:05Z</time>
      </trkpt>
      <trkpt lat="46.78904" lon="-1.88232">
        <ele>4</ele>
        <time>2018-03-09T14:07:05Z</time>
      </trkpt>
      <trkpt lat="46.78918" lon="-1.88252">
        <ele>4</ele>
        <time>2018-03-09T14:08:05Z</time>
      </trkpt>
      <trkpt lat="46.78939" lon="-1.88278">
        <ele>5</ele>
        <time>2018-03-09T14:09:05Z</time>
      </trkpt>
      <trkpt lat="46.78971" lon="-1.88317">
        <ele>6</ele>
        <time>2018-03-09T14:10:05Z</time>
      </trkpt>
      <trkpt lat="46.78978" lon="-1.88325">
        <ele>6</ele>
        <time>2018-03-09T14:11:05Z</time>
      </trkpt>
      <trkpt lat="46.7901" lon="-1.88365">
        <ele>7</ele>
        <time>2018-03-09T14:12:05Z</time>
      </trkpt>
      <trkpt lat="46.79029" lon="-1.88391">
        <ele>7</ele>
        <time>2018-03-09T14:13:05Z</time>
      </trkpt>
      <trkpt lat="46.79039" lon="-1.88404">
        <ele>7</ele>
        <time>2018-03-09T14:14:05Z</time>
      </trkpt>
      <trkpt lat="46.79048" lon="-1.88418">
        <ele>8</ele>
        <time>2018-03-09T14:15:05Z</time>
      </trkpt>
      <trkpt lat="46.79056" lon="-1.88431">
        <ele>8</ele>
        <time>2018-03-09T14:16:05Z</time>
      </trkpt>
      <trkpt lat="46.79063" lon="-1.88445">
        <ele>8</ele>
        <time>2018-03-09T14:17:05Z</time>
      </trkpt>
      <trkpt lat="46.79064" lon="-1.88447">
        <ele>8</ele>
        <time>2018-03-09T14:18:05Z</time>
      </trkpt>
      <trkpt lat="46.79073" lon="-1.88466">
        <ele>8</ele>
        <time>2018-03-09T14:19:05Z</time>
      </trkpt>
      <trkpt lat="46.79087" lon="-1.88497">
        <ele>9</ele>
        <time>2018-03-09T14:20:05Z</time>
      </trkpt>
      <trkpt lat="46.79096" lon="-1.88516">
        <ele>9</ele>
        <time>2018-03-09T14:21:05Z</time>
      </trkpt>
      <trkpt lat="46.79103" lon="-1.88534">
        <ele>9</ele>
        <time>2018-03-09T14:22:05Z</time>
      </trkpt>
      <trkpt lat="46.79109" lon="-1.88552">
        <ele>9</ele>
        <time>2018-03-09T14:23:05Z</time>
      </trkpt>
      <trkpt lat="46.79126" lon="-1.88601">
        <ele>10</ele>
        <time>2018-03-09T14:24:05Z</time>
      </trkpt>
      <trkpt lat="46.79137" lon="-1.88636">
        <ele>10</ele>
        <time>2018-03-09T14:25:05Z</time>
      </trkpt>
      <trkpt lat="46.79155" lon="-1.88689">
        <ele>11</ele>
        <time>2018-03-09T14:26:05Z</time>
      </trkpt>
      <trkpt lat="46.79168" lon="-1.88728">
        <ele>11</ele>
        <time>2018-03-09T14:27:05Z</time>
      </trkpt>
      <trkpt lat="46.79191" lon="-1.888">
        <ele>10</ele>
        <time>2018-03-09T14:28:05Z</time>
      </trkpt>
      <trkpt lat="46.79195" lon="-1.88812">
        <ele>10</ele>
        <time>2018-03-09T14:29:05Z</time>
      </trkpt>
      <trkpt lat="46.79223" lon="-1.88898">
        <ele>10</ele>
        <time>2018-03-09T14:30:05Z</time>
      </trkpt>
      <trkpt lat="46.79238" lon="-1.88948">
        <ele>10</ele>
        <time>2018-03-09T14:31:05Z</time>
      </trkpt>
      <trkpt lat="46.7924" lon="-1.88954">
        <ele>10</ele>
        <time>2018-03-09T14:32:05Z</time>
      </trkpt>
      <trkpt lat="46.79242" lon="-1.8896">
        <ele>10</ele>
        <time>2018-03-09T14:33:05Z</time>
      </trkpt>
      <trkpt lat="46.79246" lon="-1.88972">
        <ele>10</ele>
        <time>2018-03-09T14:34:05Z</time>
      </trkpt>
      <trkpt lat="46.79251" lon="-1.88988">
        <ele>10</ele>
        <time>2018-03-09T14:35:05Z</time>
      </trkpt>
      <trkpt lat="46.79259" lon="-1.89011">
        <ele>10</ele>
        <time>2018-03-09T14:36:05Z</time>
      </trkpt>
      <trkpt lat="46.79269" lon="-1.89045">
        <ele>11</ele>
        <time>2018-03-09T14:37:05Z</time>
      </trkpt>
      <trkpt lat="46.79275" lon="-1.89069">
        <ele>11</ele>
        <time>2018-03-09T14:38:05Z</time>
      </trkpt>
      <trkpt lat="46.79281" lon="-1.8909">
        <ele>11</ele>
        <time>2018-03-09T14:39:05Z</time>
      </trkpt>
      <trkpt lat="46.79287" lon="-1.89116">
        <ele>11</ele>
        <time>2018-03-09T14:40:05Z</time>
      </trkpt>
      <trkpt lat="46.79293" lon="-1.8915">
        <ele>11</ele>
        <time>2018-03-09T14:41:05Z</time>
      </trkpt>
      <trkpt lat="46.79303" lon="-1.89211">
        <ele>11</ele>
        <time>2018-03-09T14:42:05Z</time>
      </trkpt>
      <trkpt lat="46.79316" lon="-1.89292">
        <ele>11</ele>
        <time>2018-03-09T14:43:05Z</time>
      </trkpt>
      <trkpt lat="46.79327" lon="-1.89346">
        <ele>10</ele>
        <time>2018-03-09T14:44:05Z</time>
      </trkpt>
      <trkpt lat="46.79335" lon="-1.89378">
        <ele>10</ele>
        <time>2018-03-09T14:45:05Z</time>
      </trkpt>
      <trkpt lat="46.79338" lon="-1.8939">
        <ele>10</ele>
        <time>2018-03-09T14:46:05Z</time>
      </trkpt>
      <trkpt lat="46.7934" lon="-1.89395">
        <ele>10</ele>
        <time>2018-03-09T14:47:05Z</time>
      </trkpt>
      <trkpt lat="46.79347" lon="-1.89416">
        <ele>10</ele>
        <time>2018-03-09T14:48:05Z</time>
      </trkpt>
      <trkpt lat="46.79353" lon="-1.89434">
        <ele>10</ele>
        <time>2018-03-09T14:49:05Z</time>
      </trkpt>
      <trkpt lat="46.79359" lon="-1.89451">
        <ele>10</ele>
        <time>2018-03-09T14:50:05Z</time>
      </trkpt>
      <trkpt lat="46.79366" lon="-1.89468">
        <ele>11</ele>
        <time>2018-03-09T14:51:05Z</time>
      </trkpt>
      <trkpt lat="46.79367" lon="-1.89473">
        <ele>11</ele>
        <time>2018-03-09T14:52:05Z</time>
      </trkpt>
      <trkpt lat="46.79371" lon="-1.89482">
        <ele>11</ele>
        <time>2018-03-09T14:53:05Z</time>
      </trkpt>
      <trkpt lat="46.79378" lon="-1.89497">
        <ele>11</ele>
        <time>2018-03-09T14:54:05Z</time>
      </trkpt>
      <trkpt lat="46.79394" lon="-1.89527">
        <ele>10</ele>
        <time>2018-03-09T14:55:05Z</time>
      </trkpt>
      <trkpt lat="46.79402" lon="-1.89541">
        <ele>10</ele>
        <time>2018-03-09T14:56:05Z</time>
      </trkpt>
      <trkpt lat="46.79422" lon="-1.89578">
        <ele>10</ele>
        <time>2018-03-09T14:57:05Z</time>
      </trkpt>
      <trkpt lat="46.79431" lon="-1.89596">
        <ele>10</ele>
        <time>2018-03-09T14:58:05Z</time>
      </trkpt>
      <trkpt lat="46.7946" lon="-1.8965">
        <ele>11</ele>
        <time>2018-03-09T14:59:05Z</time>
      </trkpt>
      <trkpt lat="46.79461" lon="-1.89653">
        <ele>11</ele>
        <time>2018-03-09T15:00:05Z</time>
      </trkpt>
      <trkpt lat="46.79468" lon="-1.89665">
        <ele>11</ele>
        <time>2018-03-09T15:01:05Z</time>
      </trkpt>
      <trkpt lat="46.79489" lon="-1.89707">
        <ele>12</ele>
        <time>2018-03-09T15:02:05Z</time>
      </trkpt>
      <trkpt lat="46.79499" lon="-1.89725">
        <ele>12</ele>
        <time>2018-03-09T15:03:05Z</time>
      </trkpt>
      <trkpt lat="46.79512" lon="-1.8975">
        <ele>12</ele>
        <time>2018-03-09T15:04:05Z</time>
      </trkpt>
      <trkpt lat="46.79539" lon="-1.89802">
        <ele>11</ele>
        <time>2018-03-09T15:05:05Z</time>
      </trkpt>
      <trkpt lat="46.79543" lon="-1.89811">
        <ele>11</ele>
        <time>2018-03-09T15:06:05Z</time>
      </trkpt>
      <trkpt lat="46.79549" lon="-1.89822">
        <ele>11</ele>
        <time>2018-03-09T15:07:05Z</time>
      </trkpt>
      <trkpt lat="46.79553" lon="-1.89834">
        <ele>11</ele>
        <time>2018-03-09T15:08:05Z</time>
      </trkpt>
      <trkpt lat="46.79558" lon="-1.89861">
        <ele>11</ele>
        <time>2018-03-09T15:09:05Z</time>
      </trkpt>
      <trkpt lat="46.79568" lon="-1.89907">
        <ele>12</ele>
        <time>2018-03-09T15:10:05Z</time>
      </trkpt>
      <trkpt lat="46.7958" lon="-1.89955">
        <ele>12</ele>
        <time>2018-03-09T15:11:05Z</time>
      </trkpt>
      <trkpt lat="46.79585" lon="-1.89972">
        <ele>12</ele>
        <time>2018-03-09T15:12:05Z</time>
      </trkpt>
      <trkpt lat="46.79588" lon="-1.89986">
        <ele>12</ele>
        <time>2018-03-09T15:13:05Z</time>
      </trkpt>
      <trkpt lat="46.79593" lon="-1.90002">
        <ele>12</ele>
        <time>2018-03-09T15:14:05Z</time>
      </trkpt>
      <trkpt lat="46.79604" lon="-1.90035">
        <ele>11</ele>
        <time>2018-03-09T15:15:05Z</time>
      </trkpt>
      <trkpt lat="46.79609" lon="-1.90046">
        <ele>11</ele>
        <time>2018-03-09T15:16:05Z</time>
      </trkpt>
      <trkpt lat="46.79613" lon="-1.9006">
        <ele>11</ele>
        <time>2018-03-09T15:17:05Z</time>
      </trkpt>
      <trkpt lat="46.79616" lon="-1.90068">
        <ele>11</ele>
        <time>2018-03-09T15:18:05Z</time>
      </trkpt>
      <trkpt lat="46.7962" lon="-1.90078">
        <ele>11</ele>
        <time>2018-03-09T15:19:05Z</time>
      </trkpt>
      <trkpt lat="46.79626" lon="-1.90085">
        <ele>10</ele>
        <time>2018-03-09T15:20:05Z</time>
      </trkpt>
      <trkpt lat="46.79672" lon="-1.90123">
        <ele>10</ele>
        <time>2018-03-09T15:21:05Z</time>
      </trkpt>
      <trkpt lat="46.79736" lon="-1.90172">
        <ele>10</ele>
        <time>2018-03-09T15:22:05Z</time>
      </trkpt>
      <trkpt lat="46.79765" lon="-1.90195">
        <ele>9</ele>
        <time>2018-03-09T15:23:05Z</time>
      </trkpt>
      <trkpt lat="46.79827" lon="-1.90242">
        <ele>10</ele>
        <time>2018-03-09T15:24:05Z</time>
      </trkpt>
      <trkpt lat="46.7988" lon="-1.90284">
        <ele>10</ele>
        <time>2018-03-09T15:25:05Z</time>
      </trkpt>
      <trkpt lat="46.79921" lon="-1.90317">
        <ele>11</ele>
        <time>2018-03-09T15:26:05Z</time>
      </trkpt>
      <trkpt lat="46.79943" lon="-1.90336">
        <ele>11</ele>
        <time>2018-03-09T15:27:05Z</time>
      </trkpt>
      <trkpt lat="46.79953" lon="-1.90345">
        <ele>11</ele>
        <time>2018-03-09T15:28:05Z</time>
      </trkpt>
      <trkpt lat="46.79965" lon="-1.90355">
        <ele>12</ele>
        <time>2018-03-09T15:29:05Z</time>
      </trkpt>
      <trkpt lat="46.79971" lon="-1.9036">
        <ele>12</ele>
        <time>2018-03-09T15:30:05Z</time>
      </trkpt>
      <trkpt lat="46.80005" lon="-1.90401">
        <ele>13</ele>
        <time>2018-03-09T15:31:05Z</time>
      </trkpt>
      <trkpt lat="46.80043" lon="-1.90446">
        <ele>13</ele>
        <time>2018-03-09T15:32:05Z</time>
      </trkpt>
      <trkpt lat="46.80054" lon="-1.9046">
        <ele>13</ele>
        <time>2018-03-09T15:33:05Z</time>
      </trkpt>
      <trkpt lat="46.80088" lon="-1.90502">
        <ele>12</ele>
        <time>2018-03-09T15:34:05Z</time>
      </trkpt>
      <trkpt lat="46.80102" lon="-1.90519">
        <ele>12</ele>
        <time>2018-03-09T15:35:05Z</time>
      </trkpt>
      <trkpt lat="46.80112" lon="-1.90537">
        <ele>13</ele>
        <time>2018-03-09T15:36:05Z</time>
      </trkpt>
      <trkpt lat="46.80139" lon="-1.90599">
        <ele>13</ele>
        <time>2018-03-09T15:37:05Z</time>
      </trkpt>
      <trkpt lat="46.80157" lon="-1.90641">
        <ele>13</ele>
        <time>2018-03-09T15:38:05Z</time>
      </trkpt>
      <trkpt lat="46.80178" lon="-1.90696">
        <ele>12</ele>
        <time>2018-03-09T15:39:05Z</time>
      </trkpt>
      <trkpt lat="46.80213" lon="-1.90784">
        <ele>11</ele>
        <time>2018-03-09T15:40:05Z</time>
      </trkpt>
      <trkpt lat="46.80249" lon="-1.90878">
        <ele>12</ele>
        <time>2018-03-09T15:41:05Z</time>
      </trkpt>
      <trkpt lat="46.80267" lon="-1.90923">
        <ele>12</ele>
        <time>2018-03-09T15:42:05Z</time>
      </trkpt>
      <trkpt lat="46.80272" lon="-1.90939">
        <ele>12</ele>
        <time>2018-03-09T15:43:05Z</time>
      </trkpt>
      <trkpt lat="46.80273" lon="-1.9094">
        <ele>12</ele>
        <time>2018-03-09T15:44:05Z</time>
      </trkpt>
      <trkpt lat="46.80276" lon="-1.90948">
        <ele>12</ele>
        <time>2018-03-09T15:45:05Z</time>
      </trkpt>
      <trkpt lat="46.8028" lon="-1.90962">
        <ele>12</ele>
        <time>2018-03-09T15:46:05Z</time>
      </trkpt>
      <trkpt lat="46.80285" lon="-1.9098">
        <ele>12</ele>
        <time>2018-03-09T15:47:05Z</time>
      </trkpt>
      <trkpt lat="46.80288" lon="-1.90996">
        <ele>12</ele>
        <time>2018-03-09T15:48:05Z</time>
      </trkpt>
      <trkpt lat="46.80288" lon="-1.90998">
        <ele>11</ele>
        <time>2018-03-09T15:49:05Z</time>
      </trkpt>
      <trkpt lat="46.80292" lon="-1.91027">
        <ele>11</ele>
        <time>2018-03-09T15:50:05Z</time>
      </trkpt>
      <trkpt lat="46.80295" lon="-1.91048">
        <ele>10</ele>
        <time>2018-03-09T15:51:05Z</time>
      </trkpt>
      <trkpt lat="46.80298" lon="-1.91076">
        <ele>9</ele>
        <time>2018-03-09T15:52:05Z</time>
      </trkpt>
      <trkpt lat="46.80298" lon="-1.91077">
        <ele>9</ele>
        <time>2018-03-09T15:53:05Z</time>
      </trkpt>
      <trkpt lat="46.80307" lon="-1.9116">
        <ele>8</ele>
        <time>2018-03-09T15:54:05Z</time>
      </trkpt>
      <trkpt lat="46.80315" lon="-1.91235">
        <ele>8</ele>
        <time>2018-03-09T15:55:05Z</time>
      </trkpt>
      <trkpt lat="46.80318" lon="-1.9126">
        <ele>8</ele>
        <time>2018-03-09T15:56:05Z</time>
      </trkpt>
      <trkpt lat="46.80318" lon="-1.91265">
        <ele>8</ele>
        <time>2018-03-09T15:57:05Z</time>
      </trkpt>
      <trkpt lat="46.80321" lon="-1.91277">
        <ele>8</ele>
        <time>2018-03-09T15:58:05Z</time>
      </trkpt>
      <trkpt lat="46.80323" lon="-1.91291">
        <ele>8</ele>
        <time>2018-03-09T15:59:05Z</time>
      </trkpt>
      <trkpt lat="46.80327" lon="-1.9131">
        <ele>8</ele>
        <time>2018-03-09T16:00:05Z</time>
      </trkpt>
      <trkpt lat="46.80333" lon="-1.91328">
        <ele>8</ele>
        <time>2018-03-09T16:01:05Z</time>
      </trkpt>
      <trkpt lat="46.80339" lon="-1.91346">
        <ele>8</ele>
        <time>2018-03-09T16:02:05Z</time>
      </trkpt>
      <trkpt lat="46.80346" lon="-1.91361">
        <ele>8</ele>
        <time>2018-03-09T16:03:05Z</time>
      </trkpt>
      <trkpt lat="46.80351" lon="-1.91372">
        <ele>8</ele>
        <time>2018-03-09T16:04:05Z</time>
      </trkpt>
      <trkpt lat="46.80354" lon="-1.91379">
        <ele>8</ele>
        <time>2018-03-09T16:05:05Z</time>
      </trkpt>
      <trkpt lat="46.80366" lon="-1.91399">
        <ele>8</ele>
        <time>2018-03-09T16:06:05Z</time>
      </trkpt>
      <trkpt lat="46.80384" lon="-1.91425">
        <ele>8</ele>
        <time>2018-03-09T16:07:05Z</time>
      </trkpt>
      <trkpt lat="46.80398" lon="-1.91445">
        <ele>8</ele>
        <time>2018-03-09T16:08:05Z</time>
      </trkpt>
      <trkpt lat="46.80412" lon="-1.91464">
        <ele>8</ele>
        <time>2018-03-09T16:09:05Z</time>
      </trkpt>
      <trkpt lat="46.80458" lon="-1.91527">
        <ele>8</ele>
        <time>2018-03-09T16:10:05Z</time>
      </trkpt>
      <trkpt lat="46.80475" lon="-1.91547">
        <ele>8</ele>
        <time>2018-03-09T16:11:05Z</time>
      </trkpt>
      <trkpt lat="46.80488" lon="-1.91562">
        <ele>8</ele>
        <time>2018-03-09T16:12:05Z</time>
      </trkpt>
      <trkpt lat="46.8051" lon="-1.91583">
        <ele>8</ele>
        <time>2018-03-09T16:13:05Z</time>
      </trkpt>
      <trkpt lat="46.80542" lon="-1.91609">
        <ele>7</ele>
        <time>2018-03-09T16:14:05Z</time>
      </trkpt>
      <trkpt lat="46.80555" lon="-1.91623">
        <ele>7</ele>
        <time>2018-03-09T16:15:05Z</time>
      </trkpt>
      <trkpt lat="46.80569" lon="-1.91638">
        <ele>6</ele>
        <time>2018-03-09T16:16:05Z</time>
      </trkpt>
      <trkpt lat="46.80575" lon="-1.91647">
        <ele>6</ele>
        <time>2018-03-09T16:17:05Z</time>
      </trkpt>
      <trkpt lat="46.80582" lon="-1.91662">
        <ele>6</ele>
        <time>2018-03-09T16:18:05Z</time>
      </trkpt>
      <trkpt lat="46.80585" lon="-1.91669">
        <ele>6</ele>
        <time>2018-03-09T16:19:05Z</time>
      </trkpt>
      <trkpt lat="46.80591" lon="-1.91683">
        <ele>6</ele>
        <time>2018-03-09T16:20:05Z</time>
      </trkpt>
      <trkpt lat="46.80596" lon="-1.91699">
        <ele>5</ele>
        <time>2018-03-09T16:21:05Z</time>
      </trkpt>
      <trkpt lat="46.806" lon="-1.91717">
        <ele>5</ele>
        <time>2018-03-09T16:22:05Z</time>
      </trkpt>
      <trkpt lat="46.80604" lon="-1.91749">
        <ele>5</ele>
        <time>2018-03-09T16:23:05Z</time>
      </trkpt>
      <trkpt lat="46.80607" lon="-1.91785">
        <ele>5</ele>
        <time>2018-03-09T16:24:05Z</time>
      </trkpt>
      <trkpt lat="46.8061" lon="-1.91803">
        <ele>5</ele>
        <time>2018-03-09T16:25:05Z</time>
      </trkpt>
      <trkpt lat="46.80613" lon="-1.91824">
        <ele>5</ele>
        <time>2018-03-09T16:26:05Z</time>
      </trkpt>
      <trkpt lat="46.80617" lon="-1.91842">
        <ele>5</ele>
        <time>2018-03-09T16:27:05Z</time>
      </trkpt>
      <trkpt lat="46.8062" lon="-1.91857">
        <ele>5</ele>
        <time>2018-03-09T16:28:05Z</time>
      </trkpt>
      <trkpt lat="46.80621" lon="-1.91862">
        <ele>5</ele>
        <time>2018-03-09T16:29:05Z</time>
      </trkpt>
      <trkpt lat="46.80627" lon="-1.91883">
        <ele>5</ele>
        <time>2018-03-09T16:30:05Z</time>
      </trkpt>
      <trkpt lat="46.80634" lon="-1.91902">
        <ele>5</ele>
        <time>2018-03-09T16:31:05Z</time>
      </trkpt>
      <trkpt lat="46.8064" lon="-1.91921">
        <ele>5</ele>
        <time>2018-03-09T16:32:05Z</time>
      </trkpt>
      <trkpt lat="46.80652" lon="-1.91948">
        <ele>5</ele>
        <time>2018-03-09T16:33:05Z</time>
      </trkpt>
      <trkpt lat="46.80676" lon="-1.91991">
        <ele>4</ele>
        <time>2018-03-09T16:34:05Z</time>
      </trkpt>
      <trkpt lat="46.807" lon="-1.92035">
        <ele>4</ele>
        <time>2018-03-09T16:35:05Z</time>
      </trkpt>
      <trkpt lat="46.80734" lon="-1.92103">
        <ele>4</ele>
        <time>2018-03-09T16:36:05Z</time>
      </trkpt>
      <trkpt lat="46.80767" lon="-1.92165">
        <ele>4</ele>
        <time>2018-03-09T16:37:05Z</time>
      </trkpt>
      <trkpt lat="46.80773" lon="-1.92177">
        <ele>4</ele>
        <time>2018-03-09T16:38:05Z</time>
      </trkpt>
      <trkpt lat="46.80775" lon="-1.9218">
        <ele>4</ele>
        <time>2018-03-09T16:39:05Z</time>
      </trkpt>
      <trkpt lat="46.80781" lon="-1.92196">
        <ele>4</ele>
        <time>2018-03-09T16:40:05Z</time>
      </trkpt>
      <trkpt lat="46.80789" lon="-1.92216">
        <ele>4</ele>
        <time>2018-03-09T16:41:05Z</time>
      </trkpt>
      <trkpt lat="46.80796" lon="-1.92232">
        <ele>5</ele>
        <time>2018-03-09T16:42:05Z</time>
      </trkpt>
      <trkpt lat="46.80802" lon="-1.92248">
        <ele>5</ele>
        <time>2018-03-09T16:43:05Z</time>
      </trkpt>
      <trkpt lat="46.8081" lon="-1.92272">
        <ele>5</ele>
        <time>2018-03-09T16:44:05Z</time>
      </trkpt>
      <trkpt lat="46.80818" lon="-1.92297">
        <ele>5</ele>
        <time>2018-03-09T16:45:05Z</time>
      </trkpt>
      <trkpt lat="46.80824" lon="-1.92313">
        <ele>5</ele>
        <time>2018-03-09T16:46:05Z</time>
      </trkpt>
      <trkpt lat="46.80828" lon="-1.92327">
        <ele>5</ele>
        <time>2018-03-09T16:47:05Z</time>
      </trkpt>
      <trkpt lat="46.80831" lon="-1.92338">
        <ele>5</ele>
        <time>2018-03-09T16:48:05Z</time>
      </trkpt>
      <trkpt lat="46.80839" lon="-1.92364">
        <ele>5</ele>
        <time>2018-03-09T16:49:05Z</time>
      </trkpt>
      <trkpt lat="46.80844" lon="-1.92383">
        <ele>4</ele>
        <time>2018-03-09T16:50:05Z</time>
      </trkpt>
      <trkpt lat="46.80848" lon="-1.92404">
        <ele>4</ele>
        <time>2018-03-09T16:51:05Z</time>
      </trkpt>
      <trkpt lat="46.80851" lon="-1.92424">
        <ele>4</ele>
        <time>2018-03-09T16:52:05Z</time>
      </trkpt>
      <trkpt lat="46.80852" lon="-1.92442">
        <ele>3</ele>
        <time>2018-03-09T16:53:05Z</time>
      </trkpt>
      <trkpt lat="46.80853" lon="-1.92459">
        <ele>3</ele>
        <time>2018-03-09T16:54:05Z</time>
      </trkpt>
      <trkpt lat="46.80853" lon="-1.92462">
        <ele>3</ele>
        <time>2018-03-09T16:55:05Z</time>
      </trkpt>
      <trkpt lat="46.80853" lon="-1.92478">
        <ele>2</ele>
        <time>2018-03-09T16:56:05Z</time>
      </trkpt>
      <trkpt lat="46.80852" lon="-1.925">
        <ele>2</ele>
        <time>2018-03-09T16:57:05Z</time>
      </trkpt>
      <trkpt lat="46.8085" lon="-1.92539">
        <ele>1</ele>
        <time>2018-03-09T16:58:05Z</time>
      </trkpt>
      <trkpt lat="46.80849" lon="-1.92548">
        <ele>1</ele>
        <time>2018-03-09T16:59:05Z</time>
      </trkpt>
      <trkpt lat="46.80845" lon="-1.92603">
        <ele>2.2</ele>
        <time>2018-03-09T17:00:05Z</time>
      </trkpt>
      <trkpt lat="46.80845" lon="-1.92618">
        <ele>1.9</ele>
        <time>2018-03-09T17:01:05Z</time>
      </trkpt>
      <trkpt lat="46.80846" lon="-1.92633">
        <ele>1.6</ele>
        <time>2018-03-09T17:02:05Z</time>
      </trkpt>
      <trkpt lat="46.80848" lon="-1.92648">
        <ele>1.5</ele>
        <time>2018-03-09T17:03:05Z</time>
      </trkpt>
      <trkpt lat="46.8085" lon="-1.92663">
        <ele>1.4</ele>
        <time>2018-03-09T17:04:05Z</time>
      </trkpt>
      <trkpt lat="46.80854" lon="-1.92678">
        <ele>1.5</ele>
        <time>2018-03-09T17:05:05Z</time>
      </trkpt>
      <trkpt lat="46.80864" lon="-1.92712">
        <ele>1.9</ele>
        <time>2018-03-09T17:06:05Z</time>
      </trkpt>
      <trkpt lat="46.80874" lon="-1.92747">
        <ele>1.5</ele>
        <time>2018-03-09T17:07:05Z</time>
      </trkpt>
      <trkpt lat="46.80881" lon="-1.92775">
        <ele>1.9</ele>
        <time>2018-03-09T17:08:05Z</time>
      </trkpt>
      <trkpt lat="46.80885" lon="-1.92799">
        <ele>1.3</ele>
        <time>2018-03-09T17:09:05Z</time>
      </trkpt>
      <trkpt lat="46.80886" lon="-1.92822">
        <ele>1.1</ele>
        <time>2018-03-09T17:10:05Z</time>
      </trkpt>
      <trkpt lat="46.80885" lon="-1.92842">
        <ele>1.1</ele>
        <time>2018-03-09T17:11:05Z</time>
      </trkpt>
      <trkpt lat="46.80883" lon="-1.92863">
        <ele>1.2</ele>
        <time>2018-03-09T17:12:05Z</time>
      </trkpt>
      <trkpt lat="46.8088" lon="-1.92882">
        <ele>1.1</ele>
        <time>2018-03-09T17:13:05Z</time>
      </trkpt>
      <trkpt lat="46.80875" lon="-1.92901">
        <ele>1.4</ele>
        <time>2018-03-09T17:14:05Z</time>
      </trkpt>
      <trkpt lat="46.80868" lon="-1.92922">
        <ele>1</ele>
        <time>2018-03-09T17:15:05Z</time>
      </trkpt>
      <trkpt lat="46.80857" lon="-1.92955">
        <ele>1</ele>
        <time>2018-03-09T17:16:05Z</time>
      </trkpt>
      <trkpt lat="46.80836" lon="-1.9301">
        <ele>1</ele>
        <time>2018-03-09T17:17:05Z</time>
      </trkpt>
      <trkpt lat="46.80814" lon="-1.93072">
        <ele>1</ele>
        <time>2018-03-09T17:18:05Z</time>
      </trkpt>
      <trkpt lat="46.80805" lon="-1.93096">
        <ele>2.1</ele>
        <time>2018-03-09T17:19:05Z</time>
      </trkpt>
      <trkpt lat="46.80802" lon="-1.93104">
        <ele>1.5</ele>
        <time>2018-03-09T17:20:05Z</time>
      </trkpt>
      <trkpt lat="46.80799" lon="-1.9311">
        <ele>1.1</ele>
        <time>2018-03-09T17:21:05Z</time>
      </trkpt>
      <trkpt lat="46.80798" lon="-1.93115">
        <ele>1.1</ele>
        <time>2018-03-09T17:22:05Z</time>
      </trkpt>
      <trkpt lat="46.80797" lon="-1.93117">
        <ele>1.1</ele>
        <time>2018-03-09T17:23:05Z</time>
      </trkpt>
      <trkpt lat="46.80793" lon="-1.93132">
        <ele>1.4</ele>
        <time>2018-03-09T17:24:05Z</time>
      </trkpt>
      <trkpt lat="46.80789" lon="-1.93147">
        <ele>1.6</ele>
        <time>2018-03-09T17:25:05Z</time>
      </trkpt>
      <trkpt lat="46.80785" lon="-1.93165">
        <ele>2</ele>
        <time>2018-03-09T17:26:05Z</time>
      </trkpt>
      <trkpt lat="46.80781" lon="-1.93183">
        <ele>2</ele>
        <time>2018-03-09T17:27:05Z</time>
      </trkpt>
      <trkpt lat="46.80778" lon="-1.93203">
        <ele>2</ele>
        <time>2018-03-09T17:28:05Z</time>
      </trkpt>
      <trkpt lat="46.80776" lon="-1.93224">
        <ele>2</ele>
        <time>2018-03-09T17:29:05Z</time>
      </trkpt>
      <trkpt lat="46.80775" lon="-1.93249">
        <ele>1.9</ele>
        <time>2018-03-09T17:30:05Z</time>
      </trkpt>
      <trkpt lat="46.80774" lon="-1.93304">
        <ele>1</ele>
        <time>2018-03-09T17:31:05Z</time>
      </trkpt>
      <trkpt lat="46.80773" lon="-1.93346">
        <ele>1</ele>
        <time>2018-03-09T17:32:05Z</time>
      </trkpt>
      <trkpt lat="46.80772" lon="-1.93378">
        <ele>1</ele>
        <time>2018-03-09T17:33:05Z</time>
      </trkpt>
      <trkpt lat="46.80771" lon="-1.93409">
        <ele>1</ele>
        <time>2018-03-09T17:34:05Z</time>
      </trkpt>
      <trkpt lat="46.80769" lon="-1.93455">
        <ele>1</ele>
        <time>2018-03-09T17:35:05Z</time>
      </trkpt>
      <trkpt lat="46.80768" lon="-1.93481">
        <ele>1</ele>
        <time>2018-03-09T17:36:05Z</time>
      </trkpt>
      <trkpt lat="46.80767" lon="-1.93516">
        <ele>1</ele>
        <time>2018-03-09T17:37:05Z</time>
      </trkpt>
      <trkpt lat="46.80766" lon="-1.9355">
        <ele>1</ele>
        <time>2018-03-09T17:38:05Z</time>
      </trkpt>
      <trkpt lat="46.80764" lon="-1.93577">
        <ele>2</ele>
        <time>2018-03-09T17:39:05Z</time>
      </trkpt>
      <trkpt lat="46.80763" lon="-1.93592">
        <ele>2</ele>
        <time>2018-03-09T17:40:05Z</time>
      </trkpt>
      <trkpt lat="46.8076" lon="-1.93608">
        <ele>2</ele>
        <time>2018-03-09T17:41:05Z</time>
      </trkpt>
      <trkpt lat="46.80759" lon="-1.93616">
        <ele>2</ele>
        <time>2018-03-09T17:42:05Z</time>
      </trkpt>
      <trkpt lat="46.80751" lon="-1.93641">
        <ele>2</ele>
        <time>2018-03-09T17:43:05Z</time>
      </trkpt>
      <trkpt lat="46.80738" lon="-1.93674">
        <ele>2</ele>
        <time>2018-03-09T17:44:05Z</time>
      </trkpt>
      <trkpt lat="46.80725" lon="-1.93706">
        <ele>2</ele>
        <time>2018-03-09T17:45:05Z</time>
      </trkpt>
      <trkpt lat="46.80711" lon="-1.93739">
        <ele>1</ele>
        <time>2018-03-09T17:46:05Z</time>
      </trkpt>
      <trkpt lat="46.807" lon="-1.93766">
        <ele>1</ele>
        <time>2018-03-09T17:47:05Z</time>
      </trkpt>
      <trkpt lat="46.80691" lon="-1.93785">
        <ele>1</ele>
        <time>2018-03-09T17:48:05Z</time>
      </trkpt>
      <trkpt lat="46.8068" lon="-1.93812">
        <ele>1.6</ele>
        <time>2018-03-09T17:49:05Z</time>
      </trkpt>
      <trkpt lat="46.80677" lon="-1.93821">
        <ele>1.8</ele>
        <time>2018-03-09T17:50:05Z</time>
      </trkpt>
      <trkpt lat="46.80671" lon="-1.93836">
        <ele>2</ele>
        <time>2018-03-09T17:51:05Z</time>
      </trkpt>
      <trkpt lat="46.80666" lon="-1.93852">
        <ele>2</ele>
        <time>2018-03-09T17:52:05Z</time>
      </trkpt>
      <trkpt lat="46.80661" lon="-1.93872">
        <ele>1.6</ele>
        <time>2018-03-09T17:53:05Z</time>
      </trkpt>
      <trkpt lat="46.80657" lon="-1.93896">
        <ele>1</ele>
        <time>2018-03-09T17:54:05Z</time>
      </trkpt>
      <trkpt lat="46.80653" lon="-1.93929">
        <ele>1</ele>
        <time>2018-03-09T17:55:05Z</time>
      </trkpt>
      <trkpt lat="46.8065" lon="-1.93966">
        <ele>1.5</ele>
        <time>2018-03-09T17:56:05Z</time>
      </trkpt>
      <trkpt lat="46.80647" lon="-1.94004">
        <ele>1.7</ele>
        <time>2018-03-09T17:57:05Z</time>
      </trkpt>
      <trkpt lat="46.80645" lon="-1.94036">
        <ele>1.8</ele>
        <time>2018-03-09T17:58:05Z</time>
      </trkpt>
      <trkpt lat="46.80642" lon="-1.94074">
        <ele>2</ele>
        <time>2018-03-09T17:59:05Z</time>
      </trkpt>
      <trkpt lat="46.80638" lon="-1.94119">
        <ele>1</ele>
        <time>2018-03-09T18:00:05Z</time>
      </trkpt>
      <trkpt lat="46.80635" lon="-1.9416">
        <ele>1</ele>
        <time>2018-03-09T18:01:05Z</time>
      </trkpt>
      <trkpt lat="46.80633" lon="-1.9419">
        <ele>1</ele>
        <time>2018-03-09T18:02:05Z</time>
      </trkpt>
      <trkpt lat="46.80629" lon="-1.94244">
        <ele>1</ele>
        <time>2018-03-09T18:03:05Z</time>
      </trkpt>
      <trkpt lat="46.80625" lon="-1.94294">
        <ele>2</ele>
        <time>2018-03-09T18:04:05Z</time>
      </trkpt>
      <trkpt lat="46.80621" lon="-1.94336">
        <ele>2</ele>
        <time>2018-03-09T18:05:05Z</time>
      </trkpt>
      <trkpt lat="46.80618" lon="-1.94386">
        <ele>1.8</ele>
        <time>2018-03-09T18:06:05Z</time>
      </trkpt>
      <trkpt lat="46.80614" lon="-1.94432">
        <ele>2</ele>
        <time>2018-03-09T18:07:05Z</time>
      </trkpt>
      <trkpt lat="46.80612" lon="-1.94462">
        <ele>2</ele>
        <time>2018-03-09T18:08:05Z</time>
      </trkpt>
      <trkpt lat="46.80608" lon="-1.94516">
        <ele>2</ele>
        <time>2018-03-09T18:09:05Z</time>
      </trkpt>
      <trkpt lat="46.80603" lon="-1.94575">
        <ele>1.2</ele>
        <time>2018-03-09T18:10:05Z</time>
      </trkpt>
      <trkpt lat="46.806" lon="-1.94613">
        <ele>1</ele>
        <time>2018-03-09T18:11:05Z</time>
      </trkpt>
      <trkpt lat="46.80596" lon="-1.94663">
        <ele>1</ele>
        <time>2018-03-09T18:12:05Z</time>
      </trkpt>
      <trkpt lat="46.80593" lon="-1.94712">
        <ele>1</ele>
        <time>2018-03-09T18:13:05Z</time>
      </trkpt>
      <trkpt lat="46.8059" lon="-1.94749">
        <ele>2</ele>
        <time>2018-03-09T18:14:05Z</time>
      </trkpt>
      <trkpt lat="46.8059" lon="-1.94754">
        <ele>1</ele>
        <time>2018-03-09T18:15:05Z</time>
      </trkpt>
      <trkpt lat="46.80588" lon="-1.94779">
        <ele>1</ele>
        <time>2018-03-09T18:16:05Z</time>
      </trkpt>
      <trkpt lat="46.80584" lon="-1.94805">
        <ele>1</ele>
        <time>2018-03-09T18:17:05Z</time>
      </trkpt>
      <trkpt lat="46.80578" lon="-1.94832">
        <ele>1</ele>
        <time>2018-03-09T18:18:05Z</time>
      </trkpt>
      <trkpt lat="46.80568" lon="-1.94861">
        <ele>1</ele>
        <time>2018-03-09T18:19:05Z</time>
      </trkpt>
      <trkpt lat="46.80566" lon="-1.94868">
        <ele>1</ele>
        <time>2018-03-09T18:20:05Z</time>
      </trkpt>
      <trkpt lat="46.80561" lon="-1.9488">
        <ele>1</ele>
        <time>2018-03-09T18:21:05Z</time>
      </trkpt>
      <trkpt lat="46.8055" lon="-1.94908">
        <ele>1</ele>
        <time>2018-03-09T18:22:05Z</time>
      </trkpt>
      <trkpt lat="46.80536" lon="-1.94945">
        <ele>2</ele>
        <time>2018-03-09T18:23:05Z</time>
      </trkpt>
      <trkpt lat="46.80523" lon="-1.9498">
        <ele>1</ele>
        <time>2018-03-09T18:24:05Z</time>
      </trkpt>
      <trkpt lat="46.80512" lon="-1.95008">
        <ele>1</ele>
        <time>2018-03-09T18:25:05Z</time>
      </trkpt>
      <trkpt lat="46.80499" lon="-1.95041">
        <ele>1</ele>
        <time>2018-03-09T18:26:05Z</time>
      </trkpt>
      <trkpt lat="46.80489" lon="-1.95069">
        <ele>2</ele>
        <time>2018-03-09T18:27:05Z</time>
      </trkpt>
      <trkpt lat="46.80477" lon="-1.95099">
        <ele>2</ele>
        <time>2018-03-09T18:28:05Z</time>
      </trkpt>
      <trkpt lat="46.80465" lon="-1.95136">
        <ele>1</ele>
        <time>2018-03-09T18:29:05Z</time>
      </trkpt>
      <trkpt lat="46.80452" lon="-1.9518">
        <ele>1.9</ele>
        <time>2018-03-09T18:30:05Z</time>
      </trkpt>
      <trkpt lat="46.80436" lon="-1.95231">
        <ele>1.3</ele>
        <time>2018-03-09T18:31:05Z</time>
      </trkpt>
      <trkpt lat="46.80427" lon="-1.95265">
        <ele>1.8</ele>
        <time>2018-03-09T18:32:05Z</time>
      </trkpt>
      <trkpt lat="46.80419" lon="-1.95289">
        <ele>2</ele>
        <time>2018-03-09T18:33:05Z</time>
      </trkpt>
      <trkpt lat="46.80411" lon="-1.95312">
        <ele>1.8</ele>
        <time>2018-03-09T18:34:05Z</time>
      </trkpt>
      <trkpt lat="46.80403" lon="-1.9534">
        <ele>1</ele>
        <time>2018-03-09T18:35:05Z</time>
      </trkpt>
      <trkpt lat="46.80389" lon="-1.95384">
        <ele>1</ele>
        <time>2018-03-09T18:36:05Z</time>
      </trkpt>
      <trkpt lat="46.80373" lon="-1.95436">
        <ele>1.3</ele>
        <time>2018-03-09T18:37:05Z</time>
      </trkpt>
      <trkpt lat="46.80355" lon="-1.95493">
        <ele>1.3</ele>
        <time>2018-03-09T18:38:05Z</time>
      </trkpt>
      <trkpt lat="46.80339" lon="-1.95545">
        <ele>1.8</ele>
        <time>2018-03-09T18:39:05Z</time>
      </trkpt>
      <trkpt lat="46.80323" lon="-1.95594">
        <ele>1.8</ele>
        <time>2018-03-09T18:40:05Z</time>
      </trkpt>
      <trkpt lat="46.8031" lon="-1.95636">
        <ele>2</ele>
        <time>2018-03-09T18:41:05Z</time>
      </trkpt>
      <trkpt lat="46.80297" lon="-1.95677">
        <ele>2</ele>
        <time>2018-03-09T18:42:05Z</time>
      </trkpt>
      <trkpt lat="46.80291" lon="-1.95697">
        <ele>2</ele>
        <time>2018-03-09T18:43:05Z</time>
      </trkpt>
      <trkpt lat="46.80288" lon="-1.95704">
        <ele>1.9</ele>
        <time>2018-03-09T18:44:05Z</time>
      </trkpt>
      <trkpt lat="46.80285" lon="-1.95713">
        <ele>1.8</ele>
        <time>2018-03-09T18:45:05Z</time>
      </trkpt>
      <trkpt lat="46.8028" lon="-1.95733">
        <ele>2.3</ele>
        <time>2018-03-09T18:46:05Z</time>
      </trkpt>
      <trkpt lat="46.80275" lon="-1.95756">
        <ele>1</ele>
        <time>2018-03-09T18:47:05Z</time>
      </trkpt>
      <trkpt lat="46.80271" lon="-1.95781">
        <ele>1</ele>
        <time>2018-03-09T18:48:05Z</time>
      </trkpt>
      <trkpt lat="46.80268" lon="-1.95806">
        <ele>1</ele>
        <time>2018-03-09T18:49:05Z</time>
      </trkpt>
      <trkpt lat="46.80266" lon="-1.95828">
        <ele>1</ele>
        <time>2018-03-09T18:50:05Z</time>
      </trkpt>
      <trkpt lat="46.80264" lon="-1.95854">
        <ele>1</ele>
        <time>2018-03-09T18:51:05Z</time>
      </trkpt>
      <trkpt lat="46.8026" lon="-1.95909">
        <ele>1</ele>
        <time>2018-03-09T18:52:05Z</time>
      </trkpt>
      <trkpt lat="46.80254" lon="-1.95975">
        <ele>2</ele>
        <time>2018-03-09T18:53:05Z</time>
      </trkpt>
      <trkpt lat="46.80248" lon="-1.96048">
        <ele>2</ele>
        <time>2018-03-09T18:54:05Z</time>
      </trkpt>
      <trkpt lat="46.80244" lon="-1.96102">
        <ele>1</ele>
        <time>2018-03-09T18:55:05Z</time>
      </trkpt>
      <trkpt lat="46.80242" lon="-1.96122">
        <ele>1</ele>
        <time>2018-03-09T18:56:05Z</time>
      </trkpt>
      <trkpt lat="46.80241" lon="-1.96142">
        <ele>1</ele>
        <time>2018-03-09T18:57:05Z</time>
      </trkpt>
      <trkpt lat="46.80242" lon="-1.9617">
        <ele>2</ele>
        <time>2018-03-09T18:58:05Z</time>
      </trkpt>
      <trkpt lat="46.80244" lon="-1.96202">
        <ele>2</ele>
        <time>2018-03-09T18:59:05Z</time>
      </trkpt>
      <trkpt lat="46.8025" lon="-1.96237">
        <ele>1</ele>
        <time>2018-03-09T19:00:05Z</time>
      </trkpt>
      <trkpt lat="46.80258" lon="-1.96268">
        <ele>1</ele>
        <time>2018-03-09T19:01:05Z</time>
      </trkpt>
      <trkpt lat="46.80265" lon="-1.96289">
        <ele>1</ele>
        <time>2018-03-09T19:02:05Z</time>
      </trkpt>
      <trkpt lat="46.8027" lon="-1.96305">
        <ele>1</ele>
        <time>2018-03-09T19:03:05Z</time>
      </trkpt>
      <trkpt lat="46.80282" lon="-1.96344">
        <ele>1</ele>
        <time>2018-03-09T19:04:05Z</time>
      </trkpt>
      <trkpt lat="46.80289" lon="-1.96365">
        <ele>1</ele>
        <time>2018-03-09T19:05:05Z</time>
      </trkpt>
      <trkpt lat="46.80298" lon="-1.96393">
        <ele>1</ele>
        <time>2018-03-09T19:06:05Z</time>
      </trkpt>
      <trkpt lat="46.80311" lon="-1.96432">
        <ele>2</ele>
        <time>2018-03-09T19:07:05Z</time>
      </trkpt>
      <trkpt lat="46.80323" lon="-1.96471">
        <ele>2</ele>
        <time>2018-03-09T19:08:05Z</time>
      </trkpt>
      <trkpt lat="46.80333" lon="-1.96502">
        <ele>3</ele>
        <time>2018-03-09T19:09:05Z</time>
      </trkpt>
      <trkpt lat="46.80343" lon="-1.96535">
        <ele>3</ele>
        <time>2018-03-09T19:10:05Z</time>
      </trkpt>
      <trkpt lat="46.80352" lon="-1.96566">
        <ele>2</ele>
        <time>2018-03-09T19:11:05Z</time>
      </trkpt>
      <trkpt lat="46.80354" lon="-1.96574">
        <ele>2</ele>
        <time>2018-03-09T19:12:05Z</time>
      </trkpt>
      <trkpt lat="46.80356" lon="-1.96583">
        <ele>2</ele>
        <time>2018-03-09T19:13:05Z</time>
      </trkpt>
      <trkpt lat="46.80524" lon="-1.97308">
        <ele>1</ele>
        <time>2018-03-09T19:14:05Z</time>
      </trkpt>
      <trkpt lat="46.80527" lon="-1.97318">
        <ele>1</ele>
        <time>2018-03-09T19:15:05Z</time>
      </trkpt>
      <trkpt lat="46.80537" lon="-1.97346">
        <ele>1</ele>
        <time>2018-03-09T19:16:05Z</time>
      </trkpt>
      <trkpt lat="46.80554" lon="-1.97385">
        <ele>2</ele>
        <time>2018-03-09T19:17:05Z</time>
      </trkpt>
      <trkpt lat="46.80585" lon="-1.97457">
        <ele>2</ele>
        <time>2018-03-09T19:18:05Z</time>
      </trkpt>
      <trkpt lat="46.80599" lon="-1.97498">
        <ele>2</ele>
        <time>2018-03-09T19:19:05Z</time>
      </trkpt>
      <trkpt lat="46.80603" lon="-1.97512">
        <ele>1</ele>
        <time>2018-03-09T19:20:05Z</time>
      </trkpt>
      <trkpt lat="46.80607" lon="-1.97531">
        <ele>1</ele>
        <time>2018-03-09T19:21:05Z</time>
      </trkpt>
      <trkpt lat="46.8061" lon="-1.97549">
        <ele>1</ele>
        <time>2018-03-09T19:22:05Z</time>
      </trkpt>
      <trkpt lat="46.80612" lon="-1.97567">
        <ele>1</ele>
        <time>2018-03-09T19:23:05Z</time>
      </trkpt>
      <trkpt lat="46.80614" lon="-1.97596">
        <ele>1</ele>
        <time>2018-03-09T19:24:05Z</time>
      </trkpt>
      <trkpt lat="46.80615" lon="-1.97615">
        <ele>1</ele>
        <time>2018-03-09T19:25:05Z</time>
      </trkpt>
      <trkpt lat="46.80612" lon="-1.97659">
        <ele>1</ele>
        <time>2018-03-09T19:26:05Z</time>
      </trkpt>
      <trkpt lat="46.80611" lon="-1.97672">
        <ele>1</ele>
        <time>2018-03-09T19:27:05Z</time>
      </trkpt>
      <trkpt lat="46.80607" lon="-1.97705">
        <ele>1</ele>
        <time>2018-03-09T19:28:05Z</time>
      </trkpt>
      <trkpt lat="46.80602" lon="-1.97728">
        <ele>1</ele>
        <time>2018-03-09T19:29:05Z</time>
      </trkpt>
      <trkpt lat="46.80593" lon="-1.97774">
        <ele>1</ele>
        <time>2018-03-09T19:30:05Z</time>
      </trkpt>
      <trkpt lat="46.80583" lon="-1.97807">
        <ele>1</ele>
        <time>2018-03-09T19:31:05Z</time>
      </trkpt>
      <trkpt lat="46.80571" lon="-1.97842">
        <ele>1</ele>
        <time>2018-03-09T19:32:05Z</time>
      </trkpt>
      <trkpt lat="46.80549" lon="-1.97909">
        <ele>1</ele>
        <time>2018-03-09T19:33:05Z</time>
      </trkpt>
      <trkpt lat="46.80528" lon="-1.97968">
        <ele>1</ele>
        <time>2018-03-09T19:34:05Z</time>
      </trkpt>
      <trkpt lat="46.80525" lon="-1.97978">
        <ele>1</ele>
        <time>2018-03-09T19:35:05Z</time>
      </trkpt>
      <trkpt lat="46.80513" lon="-1.98009">
        <ele>1</ele>
        <time>2018-03-09T19:36:05Z</time>
      </trkpt>
      <trkpt lat="46.80497" lon="-1.98037">
        <ele>1</ele>
        <time>2018-03-09T19:37:05Z</time>
      </trkpt>
      <trkpt lat="46.80479" lon="-1.98066">
        <ele>1</ele>
        <time>2018-03-09T19:38:05Z</time>
      </trkpt>
      <trkpt lat="46.80413" lon="-1.98157">
        <ele>2</ele>
        <time>2018-03-09T19:39:05Z</time>
      </trkpt>
      <trkpt lat="46.80368" lon="-1.98222">
        <ele>2</ele>
        <time>2018-03-09T19:40:05Z</time>
      </trkpt>
      <trkpt lat="46.80368" lon="-1.98222">
        <ele>2</ele>
        <time>2018-03-09T19:41:05Z</time>
      </trkpt>
      <trkpt lat="46.80387" lon="-1.98245">
        <ele>2</ele>
        <time>2018-03-09T19:42:05Z</time>
      </trkpt>
      <trkpt lat="46.80426" lon="-1.98291">
        <ele>1</ele>
        <time>2018-03-09T19:43:05Z</time>
      </trkpt>
      <trkpt lat="46.8044" lon="-1.98306">
        <ele>1</ele>
        <time>2018-03-09T19:44:05Z</time>
      </trkpt>
      <trkpt lat="46.80466" lon="-1.98323">
        <ele>1</ele>
        <time>2018-03-09T19:45:05Z</time>
      </trkpt>
      <trkpt lat="46.80471" lon="-1.98323">
        <ele>1</ele>
        <time>2018-03-09T19:46:05Z</time>
      </trkpt>
      <trkpt lat="46.80478" lon="-1.98324">
        <ele>1</ele>
        <time>2018-03-09T19:47:05Z</time>
      </trkpt>
      <trkpt lat="46.80481" lon="-1.98327">
        <ele>1</ele>
        <time>2018-03-09T19:48:05Z</time>
      </trkpt>
      <trkpt lat="46.80483" lon="-1.98329">
        <ele>1</ele>
        <time>2018-03-09T19:49:05Z</time>
      </trkpt>
      <trkpt lat="46.80485" lon="-1.98332">
        <ele>1</ele>
        <time>2018-03-09T19:50:05Z</time>
      </trkpt>
      <trkpt lat="46.80487" lon="-1.98336">
        <ele>1</ele>
        <time>2018-03-09T19:51:05Z</time>
      </trkpt>
      <trkpt lat="46.80487" lon="-1.98339">
        <ele>1</ele>
        <time>2018-03-09T19:52:05Z</time>
      </trkpt>
      <trkpt lat="46.80487" lon="-1.98349">
        <ele>1</ele>
        <time>2018-03-09T19:53:05Z</time>
      </trkpt>
      <trkpt lat="46.80518" lon="-1.9839">
        <ele>2.3</ele>
        <time>2018-03-09T19:54:05Z</time>
      </trkpt>
      <trkpt lat="46.80522" lon="-1.98399">
        <ele>2.1</ele>
        <time>2018-03-09T19:55:05Z</time>
      </trkpt>
      <trkpt lat="46.8053" lon="-1.98408">
        <ele>2</ele>
        <time>2018-03-09T19:56:05Z</time>
      </trkpt>
      <trkpt lat="46.80628" lon="-1.9851">
        <ele>1.9</ele>
        <time>2018-03-09T19:57:05Z</time>
      </trkpt>
      <trkpt lat="46.80691" lon="-1.98577">
        <ele>1</ele>
        <time>2018-03-09T19:58:05Z</time>
      </trkpt>
      <trkpt lat="46.80741" lon="-1.98633">
        <ele>2</ele>
        <time>2018-03-09T19:59:05Z</time>
      </trkpt>
      <trkpt lat="46.80799" lon="-1.98696">
        <ele>2</ele>
        <time>2018-03-09T20:00:05Z</time>
      </trkpt>
      <trkpt lat="46.80823" lon="-1.98721">
        <ele>1.6</ele>
        <time>2018-03-09T20:01:05Z</time>
      </trkpt>
      <trkpt lat="46.80874" lon="-1.98762">
        <ele>1</ele>
        <time>2018-03-09T20:02:05Z</time>
      </trkpt>
      <trkpt lat="46.80932" lon="-1.98808">
        <ele>1</ele>
        <time>2018-03-09T20:03:05Z</time>
      </trkpt>
      <trkpt lat="46.80982" lon="-1.98848">
        <ele>2</ele>
        <time>2018-03-09T20:04:05Z</time>
      </trkpt>
      <trkpt lat="46.81011" lon="-1.98871">
        <ele>1</ele>
        <time>2018-03-09T20:05:05Z</time>
      </trkpt>
      <trkpt lat="46.81029" lon="-1.98885">
        <ele>1</ele>
        <time>2018-03-09T20:06:05Z</time>
      </trkpt>
      <trkpt lat="46.81049" lon="-1.98901">
        <ele>1</ele>
        <time>2018-03-09T20:07:05Z</time>
      </trkpt>
      <trkpt lat="46.81063" lon="-1.98909">
        <ele>1</ele>
        <time>2018-03-09T20:08:05Z</time>
      </trkpt>
      <trkpt lat="46.81076" lon="-1.98914">
        <ele>1</ele>
        <time>2018-03-09T20:09:05Z</time>
      </trkpt>
      <trkpt lat="46.81082" lon="-1.98915">
        <ele>1</ele>
        <time>2018-03-09T20:10:05Z</time>
      </trkpt>
      <trkpt lat="46.81092" lon="-1.98916">
        <ele>1</ele>
        <time>2018-03-09T20:11:05Z</time>
      </trkpt>
      <trkpt lat="46.81102" lon="-1.98915">
        <ele>1</ele>
        <time>2018-03-09T20:12:05Z</time>
      </trkpt>
      <trkpt lat="46.81109" lon="-1.98916">
        <ele>1</ele>
        <time>2018-03-09T20:13:05Z</time>
      </trkpt>
      <trkpt lat="46.81115" lon="-1.9891">
        <ele>1</ele>
        <time>2018-03-09T20:14:05Z</time>
      </trkpt>
      <trkpt lat="46.81124" lon="-1.98903">
        <ele>1</ele>
        <time>2018-03-09T20:15:05Z</time>
      </trkpt>
      <trkpt lat="46.81132" lon="-1.98892">
        <ele>1</ele>
        <time>2018-03-09T20:16:05Z</time>
      </trkpt>
      <trkpt lat="46.81149" lon="-1.98867">
        <ele>1</ele>
        <time>2018-03-09T20:17:05Z</time>
      </trkpt>
      <trkpt lat="46.81165" lon="-1.98844">
        <ele>1</ele>
        <time>2018-03-09T20:18:05Z</time>
      </trkpt>
      <trkpt lat="46.81176" lon="-1.98831">
        <ele>2</ele>
        <time>2018-03-09T20:19:05Z</time>
      </trkpt>
      <trkpt lat="46.81183" lon="-1.98825">
        <ele>2</ele>
        <time>2018-03-09T20:20:05Z</time>
      </trkpt>
      <trkpt lat="46.81188" lon="-1.98823">
        <ele>2</ele>
        <time>2018-03-09T20:21:05Z</time>
      </trkpt>
      <trkpt lat="46.81197" lon="-1.98819">
        <ele>1.9</ele>
        <time>2018-03-09T20:22:05Z</time>
      </trkpt>
      <trkpt lat="46.81212" lon="-1.98819">
        <ele>1.4</ele>
        <time>2018-03-09T20:23:05Z</time>
      </trkpt>
      <trkpt lat="46.81225" lon="-1.98822">
        <ele>1.1</ele>
        <time>2018-03-09T20:24:05Z</time>
      </trkpt>
      <trkpt lat="46.81234" lon="-1.98828">
        <ele>1.4</ele>
        <time>2018-03-09T20:25:05Z</time>
      </trkpt>
      <trkpt lat="46.81244" lon="-1.98835">
        <ele>1.8</ele>
        <time>2018-03-09T20:26:05Z</time>
      </trkpt>
      <trkpt lat="46.81251" lon="-1.98841">
        <ele>2</ele>
        <time>2018-03-09T20:27:05Z</time>
      </trkpt>
      <trkpt lat="46.81282" lon="-1.9887">
        <ele>1</ele>
        <time>2018-03-09T20:28:05Z</time>
      </trkpt>
      <trkpt lat="46.81297" lon="-1.98885">
        <ele>1</ele>
        <time>2018-03-09T20:29:05Z</time>
      </trkpt>
      <trkpt lat="46.8135" lon="-1.98938">
        <ele>2</ele>
        <time>2018-03-09T20:30:05Z</time>
      </trkpt>
      <trkpt lat="46.81385" lon="-1.98973">
        <ele>2</ele>
        <time>2018-03-09T20:31:05Z</time>
      </trkpt>
      <trkpt lat="46.81427" lon="-1.99014">
        <ele>2</ele>
        <time>2018-03-09T20:32:05Z</time>
      </trkpt>
      <trkpt lat="46.81461" lon="-1.99046">
        <ele>2</ele>
        <time>2018-03-09T20:33:05Z</time>
      </trkpt>
      <trkpt lat="46.81496" lon="-1.9908">
        <ele>3</ele>
        <time>2018-03-09T20:34:05Z</time>
      </trkpt>
      <trkpt lat="46.81522" lon="-1.99104">
        <ele>2</ele>
        <time>2018-03-09T20:35:05Z</time>
      </trkpt>
      <trkpt lat="46.81522" lon="-1.99104">
        <ele>2</ele>
        <time>2018-03-09T20:36:05Z</time>
      </trkpt>
      <trkpt lat="46.81527" lon="-1.9911">
        <ele>2</ele>
        <time>2018-03-09T20:37:05Z</time>
      </trkpt>
      <trkpt lat="46.81519" lon="-1.99124">
        <ele>2</ele>
        <time>2018-03-09T20:38:05Z</time>
      </trkpt>
      <trkpt lat="46.81476" lon="-1.99171">
        <ele>1</ele>
        <time>2018-03-09T20:39:05Z</time>
      </trkpt>
      <trkpt lat="46.81422" lon="-1.99223">
        <ele>1</ele>
        <time>2018-03-09T20:40:05Z</time>
      </trkpt>
      <trkpt lat="46.81411" lon="-1.99234">
        <ele>1</ele>
        <time>2018-03-09T20:41:05Z</time>
      </trkpt>
      <trkpt lat="46.81362" lon="-1.99286">
        <ele>1</ele>
        <time>2018-03-09T20:42:05Z</time>
      </trkpt>
      <trkpt lat="46.81332" lon="-1.99318">
        <ele>2</ele>
        <time>2018-03-09T20:43:05Z</time>
      </trkpt>
      <trkpt lat="46.81276" lon="-1.99376">
        <ele>1</ele>
        <time>2018-03-09T20:44:05Z</time>
      </trkpt>
      <trkpt lat="46.81252" lon="-1.99401">
        <ele>2</ele>
        <time>2018-03-09T20:45:05Z</time>
      </trkpt>
      <trkpt lat="46.81191" lon="-1.99463">
        <ele>1</ele>
        <time>2018-03-09T20:46:05Z</time>
      </trkpt>
      <trkpt lat="46.81179" lon="-1.99475">
        <ele>1</ele>
        <time>2018-03-09T20:47:05Z</time>
      </trkpt>
      <trkpt lat="46.81179" lon="-1.99475">
        <ele>1</ele>
        <time>2018-03-09T20:48:05Z</time>
      </trkpt>
      <trkpt lat="46.81158" lon="-1.99495">
        <ele>1</ele>
        <time>2018-03-09T20:49:05Z</time>
      </trkpt>
      <trkpt lat="46.81126" lon="-1.99528">
        <ele>1</ele>
        <time>2018-03-09T20:50:05Z</time>
      </trkpt>
      <trkpt lat="46.81115" lon="-1.99539">
        <ele>1</ele>
        <time>2018-03-09T20:51:05Z</time>
      </trkpt>
      <trkpt lat="46.81079" lon="-1.99576">
        <ele>1</ele>
        <time>2018-03-09T20:52:05Z</time>
      </trkpt>
      <trkpt lat="46.81037" lon="-1.99618">
        <ele>1</ele>
        <time>2018-03-09T20:53:05Z</time>
      </trkpt>
      <trkpt lat="46.81019" lon="-1.99637">
        <ele>1</ele>
        <time>2018-03-09T20:54:05Z</time>
      </trkpt>
      <trkpt lat="46.80997" lon="-1.9966">
        <ele>1</ele>
        <time>2018-03-09T20:55:05Z</time>
      </trkpt>
      <trkpt lat="46.80969" lon="-1.99688">
        <ele>1</ele>
        <time>2018-03-09T20:56:05Z</time>
      </trkpt>
      <trkpt lat="46.80939" lon="-1.99719">
        <ele>1</ele>
        <time>2018-03-09T20:57:05Z</time>
      </trkpt>
      <trkpt lat="46.80907" lon="-1.99752">
        <ele>1</ele>
        <time>2018-03-09T20:58:05Z</time>
      </trkpt>
      <trkpt lat="46.80866" lon="-1.99794">
        <ele>1</ele>
        <time>2018-03-09T20:59:05Z</time>
      </trkpt>
      <trkpt lat="46.80816" lon="-1.99846">
        <ele>1</ele>
        <time>2018-03-09T21:00:05Z</time>
      </trkpt>
      <trkpt lat="46.80767" lon="-1.99897">
        <ele>2</ele>
        <time>2018-03-09T21:01:05Z</time>
      </trkpt>
      <trkpt lat="46.8074" lon="-1.99925">
        <ele>2</ele>
        <time>2018-03-09T21:02:05Z</time>
      </trkpt>
      <trkpt lat="46.80717" lon="-1.99949">
        <ele>2</ele>
        <time>2018-03-09T21:03:05Z</time>
      </trkpt>
      <trkpt lat="46.80674" lon="-1.99993">
        <ele>1</ele>
        <time>2018-03-09T21:04:05Z</time>
      </trkpt>
      <trkpt lat="46.80627" lon="-2.00041">
        <ele>1</ele>
        <time>2018-03-09T21:05:05Z</time>
      </trkpt>
      <trkpt lat="46.80592" lon="-2.00077">
        <ele>1</ele>
        <time>2018-03-09T21:06:05Z</time>
      </trkpt>
      <trkpt lat="46.80548" lon="-2.00122">
        <ele>1</ele>
        <time>2018-03-09T21:07:05Z</time>
      </trkpt>
      <trkpt lat="46.80502" lon="-2.0017">
        <ele>1</ele>
        <time>2018-03-09T21:08:05Z</time>
      </trkpt>
      <trkpt lat="46.8046" lon="-2.00213">
        <ele>1.9</ele>
        <time>2018-03-09T21:09:05Z</time>
      </trkpt>
      <trkpt lat="46.80409" lon="-2.00264">
        <ele>2</ele>
        <time>2018-03-09T21:10:05Z</time>
      </trkpt>
      <trkpt lat="46.80389" lon="-2.00285">
        <ele>2</ele>
        <time>2018-03-09T21:11:05Z</time>
      </trkpt>
      <trkpt lat="46.80358" lon="-2.00316">
        <ele>2</ele>
        <time>2018-03-09T21:12:05Z</time>
      </trkpt>
      <trkpt lat="46.80348" lon="-2.00328">
        <ele>2</ele>
        <time>2018-03-09T21:13:05Z</time>
      </trkpt>
      <trkpt lat="46.80307" lon="-2.00369">
        <ele>2</ele>
        <time>2018-03-09T21:14:05Z</time>
      </trkpt>
      <trkpt lat="46.80279" lon="-2.00399">
        <ele>3</ele>
        <time>2018-03-09T21:15:05Z</time>
      </trkpt>
      <trkpt lat="46.80249" lon="-2.00428">
        <ele>3</ele>
        <time>2018-03-09T21:16:05Z</time>
      </trkpt>
      <trkpt lat="46.80246" lon="-2.0043">
        <ele>3</ele>
        <time>2018-03-09T21:17:05Z</time>
      </trkpt>
      <trkpt lat="46.80229" lon="-2.00448">
        <ele>2</ele>
        <time>2018-03-09T21:18:05Z</time>
      </trkpt>
      <trkpt lat="46.80208" lon="-2.00471">
        <ele>2</ele>
        <time>2018-03-09T21:19:05Z</time>
      </trkpt>
      <trkpt lat="46.80184" lon="-2.00498">
        <ele>1</ele>
        <time>2018-03-09T21:20:05Z</time>
      </trkpt>
      <trkpt lat="46.80145" lon="-2.00539">
        <ele>1</ele>
        <time>2018-03-09T21:21:05Z</time>
      </trkpt>
      <trkpt lat="46.80115" lon="-2.00571">
        <ele>2</ele>
        <time>2018-03-09T21:22:05Z</time>
      </trkpt>
      <trkpt lat="46.80081" lon="-2.00604">
        <ele>2</ele>
        <time>2018-03-09T21:23:05Z</time>
      </trkpt>
      <trkpt lat="46.80052" lon="-2.00638">
        <ele>1</ele>
        <time>2018-03-09T21:24:05Z</time>
      </trkpt>
      <trkpt lat="46.80032" lon="-2.0066">
        <ele>2</ele>
        <time>2018-03-09T21:25:05Z</time>
      </trkpt>
      <trkpt lat="46.80011" lon="-2.0068">
        <ele>2</ele>
        <time>2018-03-09T21:26:05Z</time>
      </trkpt>
      <trkpt lat="46.79993" lon="-2.00699">
        <ele>2</ele>
        <time>2018-03-09T21:27:05Z</time>
      </trkpt>
      <trkpt lat="46.79979" lon="-2.00716">
        <ele>2</ele>
        <time>2018-03-09T21:28:05Z</time>
      </trkpt>
      <trkpt lat="46.79967" lon="-2.00728">
        <ele>1.9</ele>
        <time>2018-03-09T21:29:05Z</time>
      </trkpt>
      <trkpt lat="46.79948" lon="-2.00745">
        <ele>1.8</ele>
        <time>2018-03-09T21:30:05Z</time>
      </trkpt>
      <trkpt lat="46.79925" lon="-2.00762">
        <ele>2</ele>
        <time>2018-03-09T21:31:05Z</time>
      </trkpt>
      <trkpt lat="46.799" lon="-2.00781">
        <ele>1</ele>
        <time>2018-03-09T21:32:05Z</time>
      </trkpt>
      <trkpt lat="46.79875" lon="-2.00803">
        <ele>1</ele>
        <time>2018-03-09T21:33:05Z</time>
      </trkpt>
      <trkpt lat="46.79855" lon="-2.00821">
        <ele>1</ele>
        <time>2018-03-09T21:34:05Z</time>
      </trkpt>
      <trkpt lat="46.79848" lon="-2.00829">
        <ele>1</ele>
        <time>2018-03-09T21:35:05Z</time>
      </trkpt>
      <trkpt lat="46.79819" lon="-2.00857">
        <ele>1</ele>
        <time>2018-03-09T21:36:05Z</time>
      </trkpt>
      <trkpt lat="46.79803" lon="-2.00874">
        <ele>1</ele>
        <time>2018-03-09T21:37:05Z</time>
      </trkpt>
      <trkpt lat="46.7978" lon="-2.00896">
        <ele>1</ele>
        <time>2018-03-09T21:38:05Z</time>
      </trkpt>
      <trkpt lat="46.79766" lon="-2.00908">
        <ele>2</ele>
        <time>2018-03-09T21:39:05Z</time>
      </trkpt>
      <trkpt lat="46.79757" lon="-2.00917">
        <ele>2</ele>
        <time>2018-03-09T21:40:05Z</time>
      </trkpt>
      <trkpt lat="46.79748" lon="-2.00931">
        <ele>2</ele>
        <time>2018-03-09T21:41:05Z</time>
      </trkpt>
      <trkpt lat="46.79737" lon="-2.0095">
        <ele>1</ele>
        <time>2018-03-09T21:42:05Z</time>
      </trkpt>
      <trkpt lat="46.79732" lon="-2.00962">
        <ele>1</ele>
        <time>2018-03-09T21:43:05Z</time>
      </trkpt>
      <trkpt lat="46.79727" lon="-2.00969">
        <ele>1</ele>
        <time>2018-03-09T21:44:05Z</time>
      </trkpt>
      <trkpt lat="46.79721" lon="-2.00977">
        <ele>1</ele>
        <time>2018-03-09T21:45:05Z</time>
      </trkpt>
      <trkpt lat="46.7971" lon="-2.00989">
        <ele>1</ele>
        <time>2018-03-09T21:46:05Z</time>
      </trkpt>
      <trkpt lat="46.797" lon="-2.00998">
        <ele>1</ele>
        <time>2018-03-09T21:47:05Z</time>
      </trkpt>
      <trkpt lat="46.79693" lon="-2.01004">
        <ele>2</ele>
        <time>2018-03-09T21:48:05Z</time>
      </trkpt>
      <trkpt lat="46.79682" lon="-2.01014">
        <ele>2</ele>
        <time>2018-03-09T21:49:05Z</time>
      </trkpt>
      <trkpt lat="46.79663" lon="-2.01029">
        <ele>1</ele>
        <time>2018-03-09T21:50:05Z</time>
      </trkpt>
      <trkpt lat="46.79656" lon="-2.01034">
        <ele>1</ele>
        <time>2018-03-09T21:51:05Z</time>
      </trkpt>
      <trkpt lat="46.79653" lon="-2.01036">
        <ele>1</ele>
        <time>2018-03-09T21:52:05Z</time>
      </trkpt>
      <trkpt lat="46.79645" lon="-2.0104">
        <ele>1</ele>
        <time>2018-03-09T21:53:05Z</time>
      </trkpt>
      <trkpt lat="46.79638" lon="-2.01049">
        <ele>1</ele>
        <time>2018-03-09T21:54:05Z</time>
      </trkpt>
      <trkpt lat="46.79633" lon="-2.01052">
        <ele>1</ele>
        <time>2018-03-09T21:55:05Z</time>
      </trkpt>
      <trkpt lat="46.79613" lon="-2.0106">
        <ele>1</ele>
        <time>2018-03-09T21:56:05Z</time>
      </trkpt>
      <trkpt lat="46.79613" lon="-2.01065">
        <ele>1</ele>
        <time>2018-03-09T21:57:05Z</time>
      </trkpt>
      <trkpt lat="46.79613" lon="-2.01067">
        <ele>1</ele>
        <time>2018-03-09T21:58:05Z</time>
      </trkpt>
      <trkpt lat="46.79612" lon="-2.0107">
        <ele>1</ele>
        <time>2018-03-09T21:59:05Z</time>
      </trkpt>
      <trkpt lat="46.79611" lon="-2.01073">
        <ele>1</ele>
        <time>2018-03-09T22:00:05Z</time>
      </trkpt>
      <trkpt lat="46.7961" lon="-2.01075">
        <ele>1</ele>
        <time>2018-03-09T22:01:05Z</time>
      </trkpt>
      <trkpt lat="46.79608" lon="-2.01078">
        <ele>1</ele>
        <time>2018-03-09T22:02:05Z</time>
      </trkpt>
      <trkpt lat="46.79606" lon="-2.0108">
        <ele>1</ele>
        <time>2018-03-09T22:03:05Z</time>
      </trkpt>
      <trkpt lat="46.79602" lon="-2.01082">
        <ele>1</ele>
        <time>2018-03-09T22:04:05Z</time>
      </trkpt>
      <trkpt lat="46.79599" lon="-2.01082">
        <ele>1</ele>
        <time>2018-03-09T22:05:05Z</time>
      </trkpt>
      <trkpt lat="46.79595" lon="-2.01083">
        <ele>1</ele>
        <time>2018-03-09T22:06:05Z</time>
      </trkpt>
      <trkpt lat="46.79592" lon="-2.01081">
        <ele>1</ele>
        <time>2018-03-09T22:07:05Z</time>
      </trkpt>
      <trkpt lat="46.7959" lon="-2.0108">
        <ele>1</ele>
        <time>2018-03-09T22:08:05Z</time>
      </trkpt>
      <trkpt lat="46.79586" lon="-2.01076">
        <ele>1</ele>
        <time>2018-03-09T22:09:05Z</time>
      </trkpt>
      <trkpt lat="46.79585" lon="-2.01072">
        <ele>1</ele>
        <time>2018-03-09T22:10:05Z</time>
      </trkpt>
      <trkpt lat="46.79584" lon="-2.01068">
        <ele>1</ele>
        <time>2018-03-09T22:11:05Z</time>
      </trkpt>
      <trkpt lat="46.79576" lon="-2.01071">
        <ele>1</ele>
        <time>2018-03-09T22:12:05Z</time>
      </trkpt>
      <trkpt lat="46.79571" lon="-2.0107">
        <ele>1</ele>
        <time>2018-03-09T22:13:05Z</time>
      </trkpt>
      <trkpt lat="46.79565" lon="-2.01068">
        <ele>1</ele>
        <time>2018-03-09T22:14:05Z</time>
      </trkpt>
      <trkpt lat="46.79561" lon="-2.01065">
        <ele>1</ele>
        <time>2018-03-09T22:15:05Z</time>
      </trkpt>
      <trkpt lat="46.79557" lon="-2.01061">
        <ele>1</ele>
        <time>2018-03-09T22:16:05Z</time>
      </trkpt>
      <trkpt lat="46.79557" lon="-2.01061">
        <ele>1</ele>
        <time>2018-03-09T22:17:05Z</time>
      </trkpt>
      <trkpt lat="46.79549" lon="-2.01049">
        <ele>1</ele>
        <time>2018-03-09T22:18:05Z</time>
      </trkpt>
      <trkpt lat="46.79544" lon="-2.01038">
        <ele>1</ele>
        <time>2018-03-09T22:19:05Z</time>
      </trkpt>
      <trkpt lat="46.79539" lon="-2.01025">
        <ele>1</ele>
        <time>2018-03-09T22:20:05Z</time>
      </trkpt>
      <trkpt lat="46.79534" lon="-2.01014">
        <ele>1</ele>
        <time>2018-03-09T22:21:05Z</time>
      </trkpt>
      <trkpt lat="46.79527" lon="-2.00997">
        <ele>1</ele>
        <time>2018-03-09T22:22:05Z</time>
      </trkpt>
      <trkpt lat="46.7952" lon="-2.00984">
        <ele>1</ele>
        <time>2018-03-09T22:23:05Z</time>
      </trkpt>
      <trkpt lat="46.79514" lon="-2.00973">
        <ele>1</ele>
        <time>2018-03-09T22:24:05Z</time>
      </trkpt>
      <trkpt lat="46.79509" lon="-2.00964">
        <ele>1</ele>
        <time>2018-03-09T22:25:05Z</time>
      </trkpt>
      <trkpt lat="46.79502" lon="-2.00952">
        <ele>2</ele>
        <time>2018-03-09T22:26:05Z</time>
      </trkpt>
      <trkpt lat="46.79493" lon="-2.00938">
        <ele>2</ele>
        <time>2018-03-09T22:27:05Z</time>
      </trkpt>
      <trkpt lat="46.79486" lon="-2.00926">
        <ele>2</ele>
        <time>2018-03-09T22:28:05Z</time>
      </trkpt>
      <trkpt lat="46.79477" lon="-2.00914">
        <ele>2</ele>
        <time>2018-03-09T22:29:05Z</time>
      </trkpt>
      <trkpt lat="46.79469" lon="-2.00903">
        <ele>2</ele>
        <time>2018-03-09T22:30:05Z</time>
      </trkpt>
      <trkpt lat="46.79459" lon="-2.00891">
        <ele>2</ele>
        <time>2018-03-09T22:31:05Z</time>
      </trkpt>
      <trkpt lat="46.7945" lon="-2.00879">
        <ele>2</ele>
        <time>2018-03-09T22:32:05Z</time>
      </trkpt>
      <trkpt lat="46.79441" lon="-2.00868">
        <ele>2</ele>
        <time>2018-03-09T22:33:05Z</time>
      </trkpt>
      <trkpt lat="46.79432" lon="-2.00856">
        <ele>2</ele>
        <time>2018-03-09T22:34:05Z</time>
      </trkpt>
      <trkpt lat="46.79415" lon="-2.00838">
        <ele>2</ele>
        <time>2018-03-09T22:35:05Z</time>
      </trkpt>
      <trkpt lat="46.79405" lon="-2.00827">
        <ele>2</ele>
        <time>2018-03-09T22:36:05Z</time>
      </trkpt>
      <trkpt lat="46.79397" lon="-2.00817">
        <ele>2</ele>
        <time>2018-03-09T22:37:05Z</time>
      </trkpt>
      <trkpt lat="46.79389" lon="-2.00808">
        <ele>2</ele>
        <time>2018-03-09T22:38:05Z</time>
      </trkpt>
      <trkpt lat="46.79374" lon="-2.00793">
        <ele>2</ele>
        <time>2018-03-09T22:39:05Z</time>
      </trkpt>
      <trkpt lat="46.79365" lon="-2.00783">
        <ele>2</ele>
        <time>2018-03-09T22:40:05Z</time>
      </trkpt>
      <trkpt lat="46.79356" lon="-2.00773">
        <ele>2</ele>
        <time>2018-03-09T22:41:05Z</time>
      </trkpt>
      <trkpt lat="46.79347" lon="-2.00762">
        <ele>2</ele>
        <time>2018-03-09T22:42:05Z</time>
      </trkpt>
      <trkpt lat="46.7934" lon="-2.00753">
        <ele>2</ele>
        <time>2018-03-09T22:43:05Z</time>
      </trkpt>
      <trkpt lat="46.79338" lon="-2.0075">
        <ele>2</ele>
        <time>2018-03-09T22:44:05Z</time>
      </trkpt>
      <trkpt lat="46.79332" lon="-2.0074">
        <ele>2</ele>
        <time>2018-03-09T22:45:05Z</time>
      </trkpt>
      <trkpt lat="46.79323" lon="-2.00728">
        <ele>2</ele>
        <time>2018-03-09T22:46:05Z</time>
      </trkpt>
      <trkpt lat="46.79312" lon="-2.00708">
        <ele>2</ele>
        <time>2018-03-09T22:47:05Z</time>
      </trkpt>
      <trkpt lat="46.79306" lon="-2.007">
        <ele>2</ele>
        <time>2018-03-09T22:48:05Z</time>
      </trkpt>
      <trkpt lat="46.79299" lon="-2.00689">
        <ele>2</ele>
        <time>2018-03-09T22:49:05Z</time>
      </trkpt>
      <trkpt lat="46.79295" lon="-2.00681">
        <ele>2</ele>
        <time>2018-03-09T22:50:05Z</time>
      </trkpt>
      <trkpt lat="46.79291" lon="-2.00668">
        <ele>2</ele>
        <time>2018-03-09T22:51:05Z</time>
      </trkpt>
      <trkpt lat="46.79288" lon="-2.00658">
        <ele>1</ele>
        <time>2018-03-09T22:52:05Z</time>
      </trkpt>
      <trkpt lat="46.79286" lon="-2.00646">
        <ele>1</ele>
        <time>2018-03-09T22:53:05Z</time>
      </trkpt>
      <trkpt lat="46.79284" lon="-2.00638">
        <ele>1</ele>
        <time>2018-03-09T22:54:05Z</time>
      </trkpt>
      <trkpt lat="46.79281" lon="-2.00624">
        <ele>1</ele>
        <time>2018-03-09T22:55:05Z</time>
      </trkpt>
      <trkpt lat="46.79281" lon="-2.00624">
        <ele>1</ele>
        <time>2018-03-09T22:56:05Z</time>
      </trkpt>
      <trkpt lat="46.79279" lon="-2.00609">
        <ele>1</ele>
        <time>2018-03-09T22:57:05Z</time>
      </trkpt>
      <trkpt lat="46.79276" lon="-2.00593">
        <ele>1</ele>
        <time>2018-03-09T22:58:05Z</time>
      </trkpt>
      <trkpt lat="46.79272" lon="-2.00577">
        <ele>1</ele>
        <time>2018-03-09T22:59:05Z</time>
      </trkpt>
      <trkpt lat="46.79269" lon="-2.00561">
        <ele>1</ele>
        <time>2018-03-09T23:00:05Z</time>
      </trkpt>
      <trkpt lat="46.79266" lon="-2.0055">
        <ele>1</ele>
        <time>2018-03-09T23:01:05Z</time>
      </trkpt>
      <trkpt lat="46.79263" lon="-2.00542">
        <ele>1</ele>
        <time>2018-03-09T23:02:05Z</time>
      </trkpt>
      <trkpt lat="46.79259" lon="-2.00532">
        <ele>2</ele>
        <time>2018-03-09T23:03:05Z</time>
      </trkpt>
      <trkpt lat="46.7925" lon="-2.00507">
        <ele>2</ele>
        <time>2018-03-09T23:04:05Z</time>
      </trkpt>
      <trkpt lat="46.79239" lon="-2.00483">
        <ele>2</ele>
        <time>2018-03-09T23:05:05Z</time>
      </trkpt>
      <trkpt lat="46.79226" lon="-2.00455">
        <ele>2</ele>
        <time>2018-03-09T23:06:05Z</time>
      </trkpt>
      <trkpt lat="46.79215" lon="-2.00429">
        <ele>2</ele>
        <time>2018-03-09T23:07:05Z</time>
      </trkpt>
      <trkpt lat="46.79213" lon="-2.00423">
        <ele>2</ele>
        <time>2018-03-09T23:08:05Z</time>
      </trkpt>
      <trkpt lat="46.79205" lon="-2.00409">
        <ele>2</ele>
        <time>2018-03-09T23:09:05Z</time>
      </trkpt>
      <trkpt lat="46.79197" lon="-2.00394">
        <ele>2</ele>
        <time>2018-03-09T23:10:05Z</time>
      </trkpt>
      <trkpt lat="46.79189" lon="-2.00383">
        <ele>2</ele>
        <time>2018-03-09T23:11:05Z</time>
      </trkpt>
      <trkpt lat="46.79182" lon="-2.00373">
        <ele>2</ele>
        <time>2018-03-09T23:12:05Z</time>
      </trkpt>
      <trkpt lat="46.79174" lon="-2.00366">
        <ele>2</ele>
        <time>2018-03-09T23:13:05Z</time>
      </trkpt>
      <trkpt lat="46.79167" lon="-2.0036">
        <ele>2</ele>
        <time>2018-03-09T23:14:05Z</time>
      </trkpt>
      <trkpt lat="46.7916" lon="-2.00355">
        <ele>1</ele>
        <time>2018-03-09T23:15:05Z</time>
      </trkpt>
      <trkpt lat="46.79153" lon="-2.00352">
        <ele>1</ele>
        <time>2018-03-09T23:16:05Z</time>
      </trkpt>
      <trkpt lat="46.79145" lon="-2.00349">
        <ele>1</ele>
        <time>2018-03-09T23:17:05Z</time>
      </trkpt>
      <trkpt lat="46.79137" lon="-2.00347">
        <ele>1</ele>
        <time>2018-03-09T23:18:05Z</time>
      </trkpt>
      <trkpt lat="46.7913" lon="-2.00346">
        <ele>1</ele>
        <time>2018-03-09T23:19:05Z</time>
      </trkpt>
      <trkpt lat="46.79121" lon="-2.00345">
        <ele>1</ele>
        <time>2018-03-09T23:20:05Z</time>
      </trkpt>
      <trkpt lat="46.79109" lon="-2.00345">
        <ele>1</ele>
        <time>2018-03-09T23:21:05Z</time>
      </trkpt>
      <trkpt lat="46.79096" lon="-2.00344">
        <ele>1</ele>
        <time>2018-03-09T23:22:05Z</time>
      </trkpt>
      <trkpt lat="46.79085" lon="-2.00344">
        <ele>1</ele>
        <time>2018-03-09T23:23:05Z</time>
      </trkpt>
      <trkpt lat="46.79074" lon="-2.00344">
        <ele>1</ele>
        <time>2018-03-09T23:24:05Z</time>
      </trkpt>
      <trkpt lat="46.79063" lon="-2.00344">
        <ele>1</ele>
        <time>2018-03-09T23:25:05Z</time>
      </trkpt>
      <trkpt lat="46.79054" lon="-2.00344">
        <ele>1</ele>
        <time>2018-03-09T23:26:05Z</time>
      </trkpt>
      <trkpt lat="46.79039" lon="-2.00344">
        <ele>1</ele>
        <time>2018-03-09T23:27:05Z</time>
      </trkpt>
      <trkpt lat="46.79028" lon="-2.00342">
        <ele>1</ele>
        <time>2018-03-09T23:28:05Z</time>
      </trkpt>
      <trkpt lat="46.79015" lon="-2.0034">
        <ele>1</ele>
        <time>2018-03-09T23:29:05Z</time>
      </trkpt>
      <trkpt lat="46.79" lon="-2.00336">
        <ele>1</ele>
        <time>2018-03-09T23:30:05Z</time>
      </trkpt>
      <trkpt lat="46.78987" lon="-2.00332">
        <ele>1</ele>
        <time>2018-03-09T23:31:05Z</time>
      </trkpt>
      <trkpt lat="46.78967" lon="-2.00325">
        <ele>1</ele>
        <time>2018-03-09T23:32:05Z</time>
      </trkpt>
      <trkpt lat="46.78945" lon="-2.00317">
        <ele>1</ele>
        <time>2018-03-09T23:33:05Z</time>
      </trkpt>
      <trkpt lat="46.78929" lon="-2.00312">
        <ele>1</ele>
        <time>2018-03-09T23:34:05Z</time>
      </trkpt>
      <trkpt lat="46.78916" lon="-2.0031">
        <ele>1</ele>
        <time>2018-03-09T23:35:05Z</time>
      </trkpt>
      <trkpt lat="46.78905" lon="-2.00309">
        <ele>1</ele>
        <time>2018-03-09T23:36:05Z</time>
      </trkpt>
      <trkpt lat="46.78894" lon="-2.00309">
        <ele>1</ele>
        <time>2018-03-09T23:37:05Z</time>
      </trkpt>
      <trkpt lat="46.78871" lon="-2.00312">
        <ele>1</ele>
        <time>2018-03-09T23:38:05Z</time>
      </trkpt>
      <trkpt lat="46.78843" lon="-2.00315">
        <ele>2</ele>
        <time>2018-03-09T23:39:05Z</time>
      </trkpt>
      <trkpt lat="46.78822" lon="-2.00318">
        <ele>2</ele>
        <time>2018-03-09T23:40:05Z</time>
      </trkpt>
      <trkpt lat="46.78812" lon="-2.0032">
        <ele>2</ele>
        <time>2018-03-09T23:41:05Z</time>
      </trkpt>
      <trkpt lat="46.78804" lon="-2.00322">
        <ele>2</ele>
        <time>2018-03-09T23:42:05Z</time>
      </trkpt>
      <trkpt lat="46.78802" lon="-2.00322">
        <ele>2</ele>
        <time>2018-03-09T23:43:05Z</time>
      </trkpt>
      <trkpt lat="46.78793" lon="-2.00325">
        <ele>1</ele>
        <time>2018-03-09T23:44:05Z</time>
      </trkpt>
      <trkpt lat="46.78777" lon="-2.00336">
        <ele>1</ele>
        <time>2018-03-09T23:45:05Z</time>
      </trkpt>
      <trkpt lat="46.78759" lon="-2.00349">
        <ele>1</ele>
        <time>2018-03-09T23:46:05Z</time>
      </trkpt>
      <trkpt lat="46.78744" lon="-2.0036">
        <ele>1</ele>
        <time>2018-03-09T23:47:05Z</time>
      </trkpt>
      <trkpt lat="46.7873" lon="-2.0037">
        <ele>1</ele>
        <time>2018-03-09T23:48:05Z</time>
      </trkpt>
      <trkpt lat="46.78719" lon="-2.00378">
        <ele>2</ele>
        <time>2018-03-09T23:49:05Z</time>
      </trkpt>
      <trkpt lat="46.78712" lon="-2.00382">
        <ele>2</ele>
        <time>2018-03-09T23:50:05Z</time>
      </trkpt>
      <trkpt lat="46.78705" lon="-2.00386">
        <ele>2</ele>
        <time>2018-03-09T23:51:05Z</time>
      </trkpt>
      <trkpt lat="46.78695" lon="-2.0039">
        <ele>2</ele>
        <time>2018-03-09T23:52:05Z</time>
      </trkpt>
      <trkpt lat="46.78677" lon="-2.00395">
        <ele>2</ele>
        <time>2018-03-09T23:53:05Z</time>
      </trkpt>
      <trkpt lat="46.78658" lon="-2.004">
        <ele>2</ele>
        <time>2018-03-09T23:54:05Z</time>
      </trkpt>
      <trkpt lat="46.78641" lon="-2.00403">
        <ele>2</ele>
        <time>2018-03-09T23:55:05Z</time>
      </trkpt>
      <trkpt lat="46.78628" lon="-2.00404">
        <ele>1</ele>
        <time>2018-03-09T23:56:05Z</time>
      </trkpt>
      <trkpt lat="46.78625" lon="-2.00404">
        <ele>1</ele>
        <time>2018-03-09T23:57:05Z</time>
      </trkpt>
      <trkpt lat="46.7862" lon="-2.00403">
        <ele>1</ele>
        <time>2018-03-09T23:58:05Z</time>
      </trkpt>
      <trkpt lat="46.78611" lon="-2.00401">
        <ele>1</ele>
        <time>2018-03-09T23:59:05Z</time>
      </trkpt>
      <trkpt lat="46.78603" lon="-2.00397">
        <ele>1</ele>
        <time>2018-03-10T00:00:05Z</time>
      </trkpt>
      <trkpt lat="46.78596" lon="-2.00391">
        <ele>1</ele>
        <time>2018-03-10T00:01:05Z</time>
      </trkpt>
      <trkpt lat="46.78589" lon="-2.00382">
        <ele>1</ele>
        <time>2018-03-10T00:02:05Z</time>
      </trkpt>
      <trkpt lat="46.78574" lon="-2.00356">
        <ele>1</ele>
        <time>2018-03-10T00:03:05Z</time>
      </trkpt>
      <trkpt lat="46.7856" lon="-2.00333">
        <ele>1</ele>
        <time>2018-03-10T00:04:05Z</time>
      </trkpt>
      <trkpt lat="46.78549" lon="-2.00317">
        <ele>1</ele>
        <time>2018-03-10T00:05:05Z</time>
      </trkpt>
      <trkpt lat="46.78542" lon="-2.00308">
        <ele>1</ele>
        <time>2018-03-10T00:06:05Z</time>
      </trkpt>
      <trkpt lat="46.7854" lon="-2.00305">
        <ele>2</ele>
        <time>2018-03-10T00:07:05Z</time>
      </trkpt>
      <trkpt lat="46.78532" lon="-2.00297">
        <ele>2</ele>
        <time>2018-03-10T00:08:05Z</time>
      </trkpt>
      <trkpt lat="46.78526" lon="-2.00293">
        <ele>2</ele>
        <time>2018-03-10T00:09:05Z</time>
      </trkpt>
      <trkpt lat="46.78522" lon="-2.00291">
        <ele>2</ele>
        <time>2018-03-10T00:10:05Z</time>
      </trkpt>
      <trkpt lat="46.78522" lon="-2.00291">
        <ele>2</ele>
        <time>2018-03-10T00:11:05Z</time>
      </trkpt>
      <trkpt lat="46.78521" lon="-2.00292">
        <ele>2</ele>
        <time>2018-03-10T00:12:05Z</time>
      </trkpt>
      <trkpt lat="46.78516" lon="-2.00298">
        <ele>2</ele>
        <time>2018-03-10T00:13:05Z</time>
      </trkpt>
      <trkpt lat="46.78513" lon="-2.00304">
        <ele>2</ele>
        <time>2018-03-10T00:14:05Z</time>
      </trkpt>
      <trkpt lat="46.78508" lon="-2.00316">
        <ele>2</ele>
        <time>2018-03-10T00:15:05Z</time>
      </trkpt>
      <trkpt lat="46.785" lon="-2.00336">
        <ele>2</ele>
        <time>2018-03-10T00:16:05Z</time>
      </trkpt>
      <trkpt lat="46.78488" lon="-2.00373">
        <ele>1</ele>
        <time>2018-03-10T00:17:05Z</time>
      </trkpt>
      <trkpt lat="46.78475" lon="-2.0041">
        <ele>1.8</ele>
        <time>2018-03-10T00:18:05Z</time>
      </trkpt>
      <trkpt lat="46.78465" lon="-2.0043">
        <ele>1.9</ele>
        <time>2018-03-10T00:19:05Z</time>
      </trkpt>
      <trkpt lat="46.78451" lon="-2.00456">
        <ele>2</ele>
        <time>2018-03-10T00:20:05Z</time>
      </trkpt>
      <trkpt lat="46.78428" lon="-2.00498">
        <ele>1</ele>
        <time>2018-03-10T00:21:05Z</time>
      </trkpt>
      <trkpt lat="46.78425" lon="-2.00503">
        <ele>1</ele>
        <time>2018-03-10T00:22:05Z</time>
      </trkpt>
      <trkpt lat="46.78422" lon="-2.00507">
        <ele>1</ele>
        <time>2018-03-10T00:23:05Z</time>
      </trkpt>
      <trkpt lat="46.78408" lon="-2.00531">
        <ele>2</ele>
        <time>2018-03-10T00:24:05Z</time>
      </trkpt>
      <trkpt lat="46.78391" lon="-2.00557">
        <ele>2</ele>
        <time>2018-03-10T00:25:05Z</time>
      </trkpt>
      <trkpt lat="46.78362" lon="-2.00598">
        <ele>1.5</ele>
        <time>2018-03-10T00:26:05Z</time>
      </trkpt>
      <trkpt lat="46.78342" lon="-2.00628">
        <ele>2</ele>
        <time>2018-03-10T00:27:05Z</time>
      </trkpt>
      <trkpt lat="46.78322" lon="-2.00659">
        <ele>1</ele>
        <time>2018-03-10T00:28:05Z</time>
      </trkpt>
      <trkpt lat="46.78308" lon="-2.00677">
        <ele>1</ele>
        <time>2018-03-10T00:29:05Z</time>
      </trkpt>
      <trkpt lat="46.78299" lon="-2.00692">
        <ele>1</ele>
        <time>2018-03-10T00:30:05Z</time>
      </trkpt>
      <trkpt lat="46.78281" lon="-2.00721">
        <ele>1</ele>
        <time>2018-03-10T00:31:05Z</time>
      </trkpt>
      <trkpt lat="46.78245" lon="-2.00789">
        <ele>1</ele>
        <time>2018-03-10T00:32:05Z</time>
      </trkpt>
      <trkpt lat="46.78201" lon="-2.00868">
        <ele>2</ele>
        <time>2018-03-10T00:33:05Z</time>
      </trkpt>
      <trkpt lat="46.78182" lon="-2.00899">
        <ele>2</ele>
        <time>2018-03-10T00:34:05Z</time>
      </trkpt>
      <trkpt lat="46.78151" lon="-2.00953">
        <ele>1</ele>
        <time>2018-03-10T00:35:05Z</time>
      </trkpt>
      <trkpt lat="46.78101" lon="-2.01034">
        <ele>1</ele>
        <time>2018-03-10T00:36:05Z</time>
      </trkpt>
      <trkpt lat="46.78074" lon="-2.01081">
        <ele>1</ele>
        <time>2018-03-10T00:37:05Z</time>
      </trkpt>
      <trkpt lat="46.78044" lon="-2.01135">
        <ele>1</ele>
        <time>2018-03-10T00:38:05Z</time>
      </trkpt>
      <trkpt lat="46.7802" lon="-2.01176">
        <ele>2</ele>
        <time>2018-03-10T00:39:05Z</time>
      </trkpt>
      <trkpt lat="46.78005" lon="-2.01204">
        <ele>2</ele>
        <time>2018-03-10T00:40:05Z</time>
      </trkpt>
      <trkpt lat="46.77991" lon="-2.01226">
        <ele>2</ele>
        <time>2018-03-10T00:41:05Z</time>
      </trkpt>
      <trkpt lat="46.77979" lon="-2.01245">
        <ele>3</ele>
        <time>2018-03-10T00:42:05Z</time>
      </trkpt>
      <trkpt lat="46.77979" lon="-2.01245">
        <ele>3</ele>
        <time>2018-03-10T00:43:05Z</time>
      </trkpt>
      <trkpt lat="46.77968" lon="-2.01228">
        <ele>3</ele>
        <time>2018-03-10T00:44:05Z</time>
      </trkpt>
      <trkpt lat="46.77968" lon="-2.01228">
        <ele>3</ele>
        <time>2018-03-10T00:45:05Z</time>
      </trkpt>
      <trkpt lat="46.77949" lon="-2.01252">
        <ele>4</ele>
        <time>2018-03-10T00:46:05Z</time>
      </trkpt>
      <trkpt lat="46.77943" lon="-2.0126">
        <ele>4</ele>
        <time>2018-03-10T00:47:05Z</time>
      </trkpt>
      <trkpt lat="46.77933" lon="-2.01272">
        <ele>5</ele>
        <time>2018-03-10T00:48:05Z</time>
      </trkpt>
      <trkpt lat="46.77922" lon="-2.01284">
        <ele>6</ele>
        <time>2018-03-10T00:49:05Z</time>
      </trkpt>
      <trkpt lat="46.77907" lon="-2.01305">
        <ele>7</ele>
        <time>2018-03-10T00:50:05Z</time>
      </trkpt>
      <trkpt lat="46.77905" lon="-2.01307">
        <ele>7</ele>
        <time>2018-03-10T00:51:05Z</time>
      </trkpt>
      <trkpt lat="46.77902" lon="-2.01312">
        <ele>7</ele>
        <time>2018-03-10T00:52:05Z</time>
      </trkpt>
      <trkpt lat="46.77891" lon="-2.01331">
        <ele>7</ele>
        <time>2018-03-10T00:53:05Z</time>
      </trkpt>
      <trkpt lat="46.77881" lon="-2.0135">
        <ele>7</ele>
        <time>2018-03-10T00:54:05Z</time>
      </trkpt>
      <trkpt lat="46.77877" lon="-2.01362">
        <ele>7</ele>
        <time>2018-03-10T00:55:05Z</time>
      </trkpt>
      <trkpt lat="46.77872" lon="-2.01379">
        <ele>7</ele>
        <time>2018-03-10T00:56:05Z</time>
      </trkpt>
      <trkpt lat="46.77871" lon="-2.01394">
        <ele>7</ele>
        <time>2018-03-10T00:57:05Z</time>
      </trkpt>
      <trkpt lat="46.77869" lon="-2.01413">
        <ele>7</ele>
        <time>2018-03-10T00:58:05Z</time>
      </trkpt>
      <trkpt lat="46.77869" lon="-2.01438">
        <ele>7</ele>
        <time>2018-03-10T00:59:05Z</time>
      </trkpt>
      <trkpt lat="46.77867" lon="-2.01457">
        <ele>7</ele>
        <time>2018-03-10T01:00:05Z</time>
      </trkpt>
      <trkpt lat="46.77864" lon="-2.01474">
        <ele>7</ele>
        <time>2018-03-10T01:01:05Z</time>
      </trkpt>
      <trkpt lat="46.77857" lon="-2.01506">
        <ele>7</ele>
        <time>2018-03-10T01:02:05Z</time>
      </trkpt>
      <trkpt lat="46.77849" lon="-2.01534">
        <ele>8</ele>
        <time>2018-03-10T01:03:05Z</time>
      </trkpt>
      <trkpt lat="46.77841" lon="-2.01553">
        <ele>8</ele>
        <time>2018-03-10T01:04:05Z</time>
      </trkpt>
      <trkpt lat="46.77836" lon="-2.0156">
        <ele>8</ele>
        <time>2018-03-10T01:05:05Z</time>
      </trkpt>
      <trkpt lat="46.77831" lon="-2.01563">
        <ele>8</ele>
        <time>2018-03-10T01:06:05Z</time>
      </trkpt>
      <trkpt lat="46.77831" lon="-2.01563">
        <ele>8</ele>
        <time>2018-03-10T01:07:05Z</time>
      </trkpt>
      <trkpt lat="46.77823" lon="-2.01555">
        <ele>8</ele>
        <time>2018-03-10T01:08:05Z</time>
      </trkpt>
      <trkpt lat="46.77814" lon="-2.01546">
        <ele>8</ele>
        <time>2018-03-10T01:09:05Z</time>
      </trkpt>
      <trkpt lat="46.77803" lon="-2.01532">
        <ele>8</ele>
        <time>2018-03-10T01:10:05Z</time>
      </trkpt>
      <trkpt lat="46.77789" lon="-2.01516">
        <ele>8</ele>
        <time>2018-03-10T01:11:05Z</time>
      </trkpt>
      <trkpt lat="46.77776" lon="-2.01499">
        <ele>8</ele>
        <time>2018-03-10T01:12:05Z</time>
      </trkpt>
      <trkpt lat="46.77743" lon="-2.01457">
        <ele>10</ele>
        <time>2018-03-10T01:13:05Z</time>
      </trkpt>
      <trkpt lat="46.77702" lon="-2.01407">
        <ele>10</ele>
        <time>2018-03-10T01:14:05Z</time>
      </trkpt>
      <trkpt lat="46.77682" lon="-2.01384">
        <ele>9</ele>
        <time>2018-03-10T01:15:05Z</time>
      </trkpt>
      <trkpt lat="46.77678" lon="-2.01377">
        <ele>9</ele>
        <time>2018-03-10T01:16:05Z</time>
      </trkpt>
      <trkpt lat="46.7766" lon="-2.01353">
        <ele>8</ele>
        <time>2018-03-10T01:17:05Z</time>
      </trkpt>
      <trkpt lat="46.77638" lon="-2.01323">
        <ele>7</ele>
        <time>2018-03-10T01:18:05Z</time>
      </trkpt>
      <trkpt lat="46.77616" lon="-2.01296">
        <ele>8</ele>
        <time>2018-03-10T01:19:05Z</time>
      </trkpt>
      <trkpt lat="46.77597" lon="-2.01271">
        <ele>8</ele>
        <time>2018-03-10T01:20:05Z</time>
      </trkpt>
      <trkpt lat="46.77583" lon="-2.01254">
        <ele>8</ele>
        <time>2018-03-10T01:21:05Z</time>
      </trkpt>
      <trkpt lat="46.77572" lon="-2.01242">
        <ele>9</ele>
        <time>2018-03-10T01:22:05Z</time>
      </trkpt>
      <trkpt lat="46.77562" lon="-2.01231">
        <ele>9</ele>
        <time>2018-03-10T01:23:05Z</time>
      </trkpt>
      <trkpt lat="46.77552" lon="-2.01221">
        <ele>10</ele>
        <time>2018-03-10T01:24:05Z</time>
      </trkpt>
      <trkpt lat="46.7754" lon="-2.01209">
        <ele>10</ele>
        <time>2018-03-10T01:25:05Z</time>
      </trkpt>
      <trkpt lat="46.7753" lon="-2.012">
        <ele>11</ele>
        <time>2018-03-10T01:26:05Z</time>
      </trkpt>
      <trkpt lat="46.77521" lon="-2.01194">
        <ele>11</ele>
        <time>2018-03-10T01:27:05Z</time>
      </trkpt>
      <trkpt lat="46.77514" lon="-2.01189">
        <ele>11</ele>
        <time>2018-03-10T01:28:05Z</time>
      </trkpt>
      <trkpt lat="46.77503" lon="-2.01183">
        <ele>12</ele>
        <time>2018-03-10T01:29:05Z</time>
      </trkpt>
      <trkpt lat="46.77487" lon="-2.01179">
        <ele>12</ele>
        <time>2018-03-10T01:30:05Z</time>
      </trkpt>
      <trkpt lat="46.77463" lon="-2.0117">
        <ele>12</ele>
        <time>2018-03-10T01:31:05Z</time>
      </trkpt>
      <trkpt lat="46.77445" lon="-2.01163">
        <ele>12</ele>
        <time>2018-03-10T01:32:05Z</time>
      </trkpt>
      <trkpt lat="46.77426" lon="-2.01157">
        <ele>12</ele>
        <time>2018-03-10T01:33:05Z</time>
      </trkpt>
      <trkpt lat="46.774" lon="-2.01147">
        <ele>12</ele>
        <time>2018-03-10T01:34:05Z</time>
      </trkpt>
      <trkpt lat="46.77374" lon="-2.01136">
        <ele>12</ele>
        <time>2018-03-10T01:35:05Z</time>
      </trkpt>
      <trkpt lat="46.77335" lon="-2.01121">
        <ele>12</ele>
        <time>2018-03-10T01:36:05Z</time>
      </trkpt>
      <trkpt lat="46.77327" lon="-2.01117">
        <ele>12</ele>
        <time>2018-03-10T01:37:05Z</time>
      </trkpt>
      <trkpt lat="46.77302" lon="-2.01103">
        <ele>12</ele>
        <time>2018-03-10T01:38:05Z</time>
      </trkpt>
      <trkpt lat="46.77281" lon="-2.0109">
        <ele>12</ele>
        <time>2018-03-10T01:39:05Z</time>
      </trkpt>
      <trkpt lat="46.77258" lon="-2.01074">
        <ele>11</ele>
        <time>2018-03-10T01:40:05Z</time>
      </trkpt>
      <trkpt lat="46.7723" lon="-2.01048">
        <ele>11</ele>
        <time>2018-03-10T01:41:05Z</time>
      </trkpt>
      <trkpt lat="46.77218" lon="-2.0103">
        <ele>10</ele>
        <time>2018-03-10T01:42:05Z</time>
      </trkpt>
      <trkpt lat="46.77191" lon="-2.00993">
        <ele>9</ele>
        <time>2018-03-10T01:43:05Z</time>
      </trkpt>
      <trkpt lat="46.77145" lon="-2.00926">
        <ele>8</ele>
        <time>2018-03-10T01:44:05Z</time>
      </trkpt>
      <trkpt lat="46.7709" lon="-2.00848">
        <ele>10</ele>
        <time>2018-03-10T01:45:05Z</time>
      </trkpt>
      <trkpt lat="46.77089" lon="-2.00846">
        <ele>10</ele>
        <time>2018-03-10T01:46:05Z</time>
      </trkpt>
      <trkpt lat="46.77089" lon="-2.00846">
        <ele>10</ele>
        <time>2018-03-10T01:47:05Z</time>
      </trkpt>
      <trkpt lat="46.77045" lon="-2.00776">
        <ele>7</ele>
        <time>2018-03-10T01:48:05Z</time>
      </trkpt>
      <trkpt lat="46.77016" lon="-2.00726">
        <ele>5</ele>
        <time>2018-03-10T01:49:05Z</time>
      </trkpt>
      <trkpt lat="46.77004" lon="-2.00701">
        <ele>4</ele>
        <time>2018-03-10T01:50:05Z</time>
      </trkpt>
      <trkpt lat="46.76999" lon="-2.00693">
        <ele>4</ele>
        <time>2018-03-10T01:51:05Z</time>
      </trkpt>
      <trkpt lat="46.76992" lon="-2.00683">
        <ele>4</ele>
        <time>2018-03-10T01:52:05Z</time>
      </trkpt>
      <trkpt lat="46.76991" lon="-2.00682">
        <ele>4</ele>
        <time>2018-03-10T01:53:05Z</time>
      </trkpt>
      <trkpt lat="46.76984" lon="-2.00673">
        <ele>4</ele>
        <time>2018-03-10T01:54:05Z</time>
      </trkpt>
      <trkpt lat="46.76977" lon="-2.00667">
        <ele>4</ele>
        <time>2018-03-10T01:55:05Z</time>
      </trkpt>
      <trkpt lat="46.76977" lon="-2.00667">
        <ele>4</ele>
        <time>2018-03-10T01:56:05Z</time>
      </trkpt>
      <trkpt lat="46.76967" lon="-2.00661">
        <ele>4</ele>
        <time>2018-03-10T01:57:05Z</time>
      </trkpt>
      <trkpt lat="46.76951" lon="-2.0065">
        <ele>5</ele>
        <time>2018-03-10T01:58:05Z</time>
      </trkpt>
      <trkpt lat="46.7693" lon="-2.00632">
        <ele>5</ele>
        <time>2018-03-10T01:59:05Z</time>
      </trkpt>
      <trkpt lat="46.76912" lon="-2.00617">
        <ele>6</ele>
        <time>2018-03-10T02:00:05Z</time>
      </trkpt>
      <trkpt lat="46.769" lon="-2.00608">
        <ele>6</ele>
        <time>2018-03-10T02:01:05Z</time>
      </trkpt>
      <trkpt lat="46.7689" lon="-2.00605">
        <ele>6</ele>
        <time>2018-03-10T02:02:05Z</time>
      </trkpt>
      <trkpt lat="46.76874" lon="-2.00606">
        <ele>6</ele>
        <time>2018-03-10T02:03:05Z</time>
      </trkpt>
      <trkpt lat="46.76856" lon="-2.00607">
        <ele>7</ele>
        <time>2018-03-10T02:04:05Z</time>
      </trkpt>
      <trkpt lat="46.76843" lon="-2.00607">
        <ele>7</ele>
        <time>2018-03-10T02:05:05Z</time>
      </trkpt>
      <trkpt lat="46.76838" lon="-2.00606">
        <ele>7</ele>
        <time>2018-03-10T02:06:05Z</time>
      </trkpt>
      <trkpt lat="46.76822" lon="-2.006">
        <ele>7</ele>
        <time>2018-03-10T02:07:05Z</time>
      </trkpt>
      <trkpt lat="46.76813" lon="-2.00596">
        <ele>7</ele>
        <time>2018-03-10T02:08:05Z</time>
      </trkpt>
      <trkpt lat="46.76799" lon="-2.00587">
        <ele>7</ele>
        <time>2018-03-10T02:09:05Z</time>
      </trkpt>
      <trkpt lat="46.76786" lon="-2.00579">
        <ele>7</ele>
        <time>2018-03-10T02:10:05Z</time>
      </trkpt>
      <trkpt lat="46.76775" lon="-2.00572">
        <ele>7</ele>
        <time>2018-03-10T02:11:05Z</time>
      </trkpt>
      <trkpt lat="46.76764" lon="-2.00567">
        <ele>7</ele>
        <time>2018-03-10T02:12:05Z</time>
      </trkpt>
      <trkpt lat="46.76756" lon="-2.00566">
        <ele>7</ele>
        <time>2018-03-10T02:13:05Z</time>
      </trkpt>
      <trkpt lat="46.76747" lon="-2.00565">
        <ele>7</ele>
        <time>2018-03-10T02:14:05Z</time>
      </trkpt>
      <trkpt lat="46.76742" lon="-2.00566">
        <ele>7</ele>
        <time>2018-03-10T02:15:05Z</time>
      </trkpt>
      <trkpt lat="46.76742" lon="-2.00566">
        <ele>7</ele>
        <time>2018-03-10T02:16:05Z</time>
      </trkpt>
      <trkpt lat="46.76728" lon="-2.00565">
        <ele>7</ele>
        <time>2018-03-10T02:17:05Z</time>
      </trkpt>
      <trkpt lat="46.76714" lon="-2.00562">
        <ele>8</ele>
        <time>2018-03-10T02:18:05Z</time>
      </trkpt>
      <trkpt lat="46.76705" lon="-2.00559">
        <ele>8</ele>
        <time>2018-03-10T02:19:05Z</time>
      </trkpt>
      <trkpt lat="46.76694" lon="-2.00556">
        <ele>8</ele>
        <time>2018-03-10T02:20:05Z</time>
      </trkpt>
      <trkpt lat="46.76686" lon="-2.00552">
        <ele>8</ele>
        <time>2018-03-10T02:21:05Z</time>
      </trkpt>
      <trkpt lat="46.76676" lon="-2.0055">
        <ele>9</ele>
        <time>2018-03-10T02:22:05Z</time>
      </trkpt>
      <trkpt lat="46.76672" lon="-2.00549">
        <ele>9</ele>
        <time>2018-03-10T02:23:05Z</time>
      </trkpt>
      <trkpt lat="46.76665" lon="-2.00549">
        <ele>9</ele>
        <time>2018-03-10T02:24:05Z</time>
      </trkpt>
      <trkpt lat="46.76659" lon="-2.0055">
        <ele>9</ele>
        <time>2018-03-10T02:25:05Z</time>
      </trkpt>
      <trkpt lat="46.76646" lon="-2.00555">
        <ele>9</ele>
        <time>2018-03-10T02:26:05Z</time>
      </trkpt>
      <trkpt lat="46.76634" lon="-2.00562">
        <ele>9</ele>
        <time>2018-03-10T02:27:05Z</time>
      </trkpt>
      <trkpt lat="46.7662" lon="-2.00572">
        <ele>9</ele>
        <time>2018-03-10T02:28:05Z</time>
      </trkpt>
      <trkpt lat="46.76609" lon="-2.00579">
        <ele>9</ele>
        <time>2018-03-10T02:29:05Z</time>
      </trkpt>
      <trkpt lat="46.766" lon="-2.00587">
        <ele>10</ele>
        <time>2018-03-10T02:30:05Z</time>
      </trkpt>
      <trkpt lat="46.76598" lon="-2.00588">
        <ele>10</ele>
        <time>2018-03-10T02:31:05Z</time>
      </trkpt>
      <trkpt lat="46.76584" lon="-2.00595">
        <ele>10</ele>
        <time>2018-03-10T02:32:05Z</time>
      </trkpt>
      <trkpt lat="46.76578" lon="-2.00596">
        <ele>10</ele>
        <time>2018-03-10T02:33:05Z</time>
      </trkpt>
      <trkpt lat="46.76571" lon="-2.00595">
        <ele>9</ele>
        <time>2018-03-10T02:34:05Z</time>
      </trkpt>
      <trkpt lat="46.76568" lon="-2.00594">
        <ele>9</ele>
        <time>2018-03-10T02:35:05Z</time>
      </trkpt>
      <trkpt lat="46.76559" lon="-2.00594">
        <ele>9</ele>
        <time>2018-03-10T02:36:05Z</time>
      </trkpt>
      <trkpt lat="46.76552" lon="-2.00595">
        <ele>8</ele>
        <time>2018-03-10T02:37:05Z</time>
      </trkpt>
      <trkpt lat="46.76542" lon="-2.00599">
        <ele>8</ele>
        <time>2018-03-10T02:38:05Z</time>
      </trkpt>
      <trkpt lat="46.76529" lon="-2.00608">
        <ele>8</ele>
        <time>2018-03-10T02:39:05Z</time>
      </trkpt>
      <trkpt lat="46.76516" lon="-2.0062">
        <ele>9</ele>
        <time>2018-03-10T02:40:05Z</time>
      </trkpt>
      <trkpt lat="46.76505" lon="-2.00633">
        <ele>9</ele>
        <time>2018-03-10T02:41:05Z</time>
      </trkpt>
      <trkpt lat="46.76494" lon="-2.00644">
        <ele>10</ele>
        <time>2018-03-10T02:42:05Z</time>
      </trkpt>
      <trkpt lat="46.76488" lon="-2.0065">
        <ele>10</ele>
        <time>2018-03-10T02:43:05Z</time>
      </trkpt>
      <trkpt lat="46.76483" lon="-2.00653">
        <ele>9</ele>
        <time>2018-03-10T02:44:05Z</time>
      </trkpt>
      <trkpt lat="46.76473" lon="-2.00656">
        <ele>9</ele>
        <time>2018-03-10T02:45:05Z</time>
      </trkpt>
      <trkpt lat="46.76464" lon="-2.00656">
        <ele>8</ele>
        <time>2018-03-10T02:46:05Z</time>
      </trkpt>
      <trkpt lat="46.76452" lon="-2.00652">
        <ele>7</ele>
        <time>2018-03-10T02:47:05Z</time>
      </trkpt>
      <trkpt lat="46.76452" lon="-2.00652">
        <ele>7</ele>
        <time>2018-03-10T02:48:05Z</time>
      </trkpt>
      <trkpt lat="46.76437" lon="-2.00693">
        <ele>7</ele>
        <time>2018-03-10T02:49:05Z</time>
      </trkpt>
      <trkpt lat="46.76424" lon="-2.00729">
        <ele>7</ele>
        <time>2018-03-10T02:50:05Z</time>
      </trkpt>
      <trkpt lat="46.76407" lon="-2.00773">
        <ele>7</ele>
        <time>2018-03-10T02:51:05Z</time>
      </trkpt>
      <trkpt lat="46.76393" lon="-2.00813">
        <ele>7</ele>
        <time>2018-03-10T02:52:05Z</time>
      </trkpt>
      <trkpt lat="46.76379" lon="-2.00844">
        <ele>6</ele>
        <time>2018-03-10T02:53:05Z</time>
      </trkpt>
      <trkpt lat="46.76366" lon="-2.00867">
        <ele>6</ele>
        <time>2018-03-10T02:54:05Z</time>
      </trkpt>
      <trkpt lat="46.76348" lon="-2.00894">
        <ele>5</ele>
        <time>2018-03-10T02:55:05Z</time>
      </trkpt>
      <trkpt lat="46.76326" lon="-2.00925">
        <ele>5</ele>
        <time>2018-03-10T02:56:05Z</time>
      </trkpt>
      <trkpt lat="46.76303" lon="-2.00959">
        <ele>6</ele>
        <time>2018-03-10T02:57:05Z</time>
      </trkpt>
      <trkpt lat="46.76277" lon="-2.00995">
        <ele>7</ele>
        <time>2018-03-10T02:58:05Z</time>
      </trkpt>
      <trkpt lat="46.7625" lon="-2.01033">
        <ele>7</ele>
        <time>2018-03-10T02:59:05Z</time>
      </trkpt>
      <trkpt lat="46.76224" lon="-2.01069">
        <ele>6</ele>
        <time>2018-03-10T03:00:05Z</time>
      </trkpt>
      <trkpt lat="46.762" lon="-2.01102">
        <ele>5</ele>
        <time>2018-03-10T03:01:05Z</time>
      </trkpt>
      <trkpt lat="46.7618" lon="-2.01134">
        <ele>5</ele>
        <time>2018-03-10T03:02:05Z</time>
      </trkpt>
      <trkpt lat="46.76169" lon="-2.01144">
        <ele>5</ele>
        <time>2018-03-10T03:03:05Z</time>
      </trkpt>
      <trkpt lat="46.76162" lon="-2.01147">
        <ele>5</ele>
        <time>2018-03-10T03:04:05Z</time>
      </trkpt>
      <trkpt lat="46.76151" lon="-2.01148">
        <ele>5</ele>
        <time>2018-03-10T03:05:05Z</time>
      </trkpt>
      <trkpt lat="46.76145" lon="-2.01148">
        <ele>5</ele>
        <time>2018-03-10T03:06:05Z</time>
      </trkpt>
      <trkpt lat="46.76127" lon="-2.01144">
        <ele>5</ele>
        <time>2018-03-10T03:07:05Z</time>
      </trkpt>
      <trkpt lat="46.76107" lon="-2.01137">
        <ele>5</ele>
        <time>2018-03-10T03:08:05Z</time>
      </trkpt>
      <trkpt lat="46.76103" lon="-2.01136">
        <ele>5</ele>
        <time>2018-03-10T03:09:05Z</time>
      </trkpt>
      <trkpt lat="46.76088" lon="-2.01132">
        <ele>5</ele>
        <time>2018-03-10T03:10:05Z</time>
      </trkpt>
      <trkpt lat="46.76056" lon="-2.0113">
        <ele>5</ele>
        <time>2018-03-10T03:11:05Z</time>
      </trkpt>
      <trkpt lat="46.76033" lon="-2.01132">
        <ele>6</ele>
        <time>2018-03-10T03:12:05Z</time>
      </trkpt>
      <trkpt lat="46.7602" lon="-2.01135">
        <ele>6</ele>
        <time>2018-03-10T03:13:05Z</time>
      </trkpt>
      <trkpt lat="46.75985" lon="-2.01141">
        <ele>6</ele>
        <time>2018-03-10T03:14:05Z</time>
      </trkpt>
      <trkpt lat="46.75953" lon="-2.01149">
        <ele>5</ele>
        <time>2018-03-10T03:15:05Z</time>
      </trkpt>
      <trkpt lat="46.75917" lon="-2.01158">
        <ele>4</ele>
        <time>2018-03-10T03:16:05Z</time>
      </trkpt>
      <trkpt lat="46.75898" lon="-2.0116">
        <ele>4</ele>
        <time>2018-03-10T03:17:05Z</time>
      </trkpt>
      <trkpt lat="46.75875" lon="-2.01164">
        <ele>4</ele>
        <time>2018-03-10T03:18:05Z</time>
      </trkpt>
      <trkpt lat="46.75864" lon="-2.01167">
        <ele>4</ele>
        <time>2018-03-10T03:19:05Z</time>
      </trkpt>
      <trkpt lat="46.7584" lon="-2.01172">
        <ele>4</ele>
        <time>2018-03-10T03:20:05Z</time>
      </trkpt>
      <trkpt lat="46.75817" lon="-2.0118">
        <ele>4</ele>
        <time>2018-03-10T03:21:05Z</time>
      </trkpt>
      <trkpt lat="46.75804" lon="-2.01185">
        <ele>5</ele>
        <time>2018-03-10T03:22:05Z</time>
      </trkpt>
      <trkpt lat="46.75778" lon="-2.01194">
        <ele>5</ele>
        <time>2018-03-10T03:23:05Z</time>
      </trkpt>
      <trkpt lat="46.75771" lon="-2.01196">
        <ele>5</ele>
        <time>2018-03-10T03:24:05Z</time>
      </trkpt>
      <trkpt lat="46.75753" lon="-2.01203">
        <ele>5</ele>
        <time>2018-03-10T03:25:05Z</time>
      </trkpt>
      <trkpt lat="46.75748" lon="-2.01205">
        <ele>5</ele>
        <time>2018-03-10T03:26:05Z</time>
      </trkpt>
      <trkpt lat="46.75733" lon="-2.01211">
        <ele>5</ele>
        <time>2018-03-10T03:27:05Z</time>
      </trkpt>
      <trkpt lat="46.75708" lon="-2.01221">
        <ele>5</ele>
        <time>2018-03-10T03:28:05Z</time>
      </trkpt>
      <trkpt lat="46.75683" lon="-2.0123">
        <ele>4</ele>
        <time>2018-03-10T03:29:05Z</time>
      </trkpt>
      <trkpt lat="46.75656" lon="-2.0124">
        <ele>4</ele>
        <time>2018-03-10T03:30:05Z</time>
      </trkpt>
      <trkpt lat="46.75636" lon="-2.01248">
        <ele>4</ele>
        <time>2018-03-10T03:31:05Z</time>
      </trkpt>
      <trkpt lat="46.75635" lon="-2.01248">
        <ele>4</ele>
        <time>2018-03-10T03:32:05Z</time>
      </trkpt>
      <trkpt lat="46.75613" lon="-2.01251">
        <ele>3</ele>
        <time>2018-03-10T03:33:05Z</time>
      </trkpt>
      <trkpt lat="46.75597" lon="-2.01259">
        <ele>3</ele>
        <time>2018-03-10T03:34:05Z</time>
      </trkpt>
      <trkpt lat="46.75583" lon="-2.01267">
        <ele>3</ele>
        <time>2018-03-10T03:35:05Z</time>
      </trkpt>
      <trkpt lat="46.75566" lon="-2.01275">
        <ele>3</ele>
        <time>2018-03-10T03:36:05Z</time>
      </trkpt>
      <trkpt lat="46.75554" lon="-2.01283">
        <ele>3</ele>
        <time>2018-03-10T03:37:05Z</time>
      </trkpt>
      <trkpt lat="46.75533" lon="-2.01301">
        <ele>3</ele>
        <time>2018-03-10T03:38:05Z</time>
      </trkpt>
      <trkpt lat="46.75507" lon="-2.01321">
        <ele>3</ele>
        <time>2018-03-10T03:39:05Z</time>
      </trkpt>
      <trkpt lat="46.75503" lon="-2.01324">
        <ele>3</ele>
        <time>2018-03-10T03:40:05Z</time>
      </trkpt>
      <trkpt lat="46.75465" lon="-2.01356">
        <ele>3</ele>
        <time>2018-03-10T03:41:05Z</time>
      </trkpt>
      <trkpt lat="46.75451" lon="-2.01367">
        <ele>3</ele>
        <time>2018-03-10T03:42:05Z</time>
      </trkpt>
      <trkpt lat="46.75424" lon="-2.01389">
        <ele>2</ele>
        <time>2018-03-10T03:43:05Z</time>
      </trkpt>
      <trkpt lat="46.75401" lon="-2.01406">
        <ele>2</ele>
        <time>2018-03-10T03:44:05Z</time>
      </trkpt>
      <trkpt lat="46.75386" lon="-2.01415">
        <ele>2</ele>
        <time>2018-03-10T03:45:05Z</time>
      </trkpt>
      <trkpt lat="46.75377" lon="-2.01426">
        <ele>2</ele>
        <time>2018-03-10T03:46:05Z</time>
      </trkpt>
      <trkpt lat="46.75361" lon="-2.01435">
        <ele>1</ele>
        <time>2018-03-10T03:47:05Z</time>
      </trkpt>
      <trkpt lat="46.75322" lon="-2.01458">
        <ele>1</ele>
        <time>2018-03-10T03:48:05Z</time>
      </trkpt>
      <trkpt lat="46.75284" lon="-2.01478">
        <ele>1</ele>
        <time>2018-03-10T03:49:05Z</time>
      </trkpt>
      <trkpt lat="46.75278" lon="-2.01481">
        <ele>1</ele>
        <time>2018-03-10T03:50:05Z</time>
      </trkpt>
      <trkpt lat="46.75272" lon="-2.01484">
        <ele>1</ele>
        <time>2018-03-10T03:51:05Z</time>
      </trkpt>
      <trkpt lat="46.75249" lon="-2.01496">
        <ele>2.8</ele>
        <time>2018-03-10T03:52:05Z</time>
      </trkpt>
      <trkpt lat="46.75233" lon="-2.01505">
        <ele>2.3</ele>
        <time>2018-03-10T03:53:05Z</time>
      </trkpt>
      <trkpt lat="46.75216" lon="-2.01515">
        <ele>1</ele>
        <time>2018-03-10T03:54:05Z</time>
      </trkpt>
      <trkpt lat="46.75212" lon="-2.01517">
        <ele>1</ele>
        <time>2018-03-10T03:55:05Z</time>
      </trkpt>
      <trkpt lat="46.75202" lon="-2.01523">
        <ele>1</ele>
        <time>2018-03-10T03:56:05Z</time>
      </trkpt>
      <trkpt lat="46.75177" lon="-2.01541">
        <ele>1</ele>
        <time>2018-03-10T03:57:05Z</time>
      </trkpt>
      <trkpt lat="46.75172" lon="-2.01545">
        <ele>1</ele>
        <time>2018-03-10T03:58:05Z</time>
      </trkpt>
      <trkpt lat="46.7517" lon="-2.01546">
        <ele>2</ele>
        <time>2018-03-10T03:59:05Z</time>
      </trkpt>
      <trkpt lat="46.75154" lon="-2.01559">
        <ele>2</ele>
        <time>2018-03-10T04:00:05Z</time>
      </trkpt>
      <trkpt lat="46.75139" lon="-2.01573">
        <ele>3</ele>
        <time>2018-03-10T04:01:05Z</time>
      </trkpt>
      <trkpt lat="46.75136" lon="-2.0158">
        <ele>3</ele>
        <time>2018-03-10T04:02:05Z</time>
      </trkpt>
      <trkpt lat="46.75134" lon="-2.01586">
        <ele>3</ele>
        <time>2018-03-10T04:03:05Z</time>
      </trkpt>
      <trkpt lat="46.75132" lon="-2.01601">
        <ele>3</ele>
        <time>2018-03-10T04:04:05Z</time>
      </trkpt>
      <trkpt lat="46.75132" lon="-2.01601">
        <ele>3</ele>
        <time>2018-03-10T04:05:05Z</time>
      </trkpt>
      <trkpt lat="46.75134" lon="-2.01607">
        <ele>3</ele>
        <time>2018-03-10T04:06:05Z</time>
      </trkpt>
      <trkpt lat="46.75134" lon="-2.0161">
        <ele>3</ele>
        <time>2018-03-10T04:07:05Z</time>
      </trkpt>
      <trkpt lat="46.75134" lon="-2.01615">
        <ele>3</ele>
        <time>2018-03-10T04:08:05Z</time>
      </trkpt>
      <trkpt lat="46.75133" lon="-2.0162">
        <ele>4</ele>
        <time>2018-03-10T04:09:05Z</time>
      </trkpt>
      <trkpt lat="46.7513" lon="-2.01624">
        <ele>4</ele>
        <time>2018-03-10T04:10:05Z</time>
      </trkpt>
      <trkpt lat="46.75126" lon="-2.01627">
        <ele>4</ele>
        <time>2018-03-10T04:11:05Z</time>
      </trkpt>
      <trkpt lat="46.7512" lon="-2.01629">
        <ele>4</ele>
        <time>2018-03-10T04:12:05Z</time>
      </trkpt>
      <trkpt lat="46.75116" lon="-2.01628">
        <ele>4</ele>
        <time>2018-03-10T04:13:05Z</time>
      </trkpt>
      <trkpt lat="46.75112" lon="-2.01626">
        <ele>4</ele>
        <time>2018-03-10T04:14:05Z</time>
      </trkpt>
      <trkpt lat="46.75109" lon="-2.01623">
        <ele>4</ele>
        <time>2018-03-10T04:15:05Z</time>
      </trkpt>
      <trkpt lat="46.75107" lon="-2.01618">
        <ele>4</ele>
        <time>2018-03-10T04:16:05Z</time>
      </trkpt>
      <trkpt lat="46.75106" lon="-2.01612">
        <ele>4</ele>
        <time>2018-03-10T04:17:05Z</time>
      </trkpt>
      <trkpt lat="46.75105" lon="-2.01607">
        <ele>4</ele>
        <time>2018-03-10T04:18:05Z</time>
      </trkpt>
      <trkpt lat="46.75106" lon="-2.01601">
        <ele>4</ele>
        <time>2018-03-10T04:19:05Z</time>
      </trkpt>
      <trkpt lat="46.75102" lon="-2.01593">
        <ele>4</ele>
        <time>2018-03-10T04:20:05Z</time>
      </trkpt>
      <trkpt lat="46.75099" lon="-2.01586">
        <ele>4</ele>
        <time>2018-03-10T04:21:05Z</time>
      </trkpt>
      <trkpt lat="46.75096" lon="-2.01579">
        <ele>4</ele>
        <time>2018-03-10T04:22:05Z</time>
      </trkpt>
      <trkpt lat="46.75084" lon="-2.01564">
        <ele>4</ele>
        <time>2018-03-10T04:23:05Z</time>
      </trkpt>
      <trkpt lat="46.75057" lon="-2.01531">
        <ele>4</ele>
        <time>2018-03-10T04:24:05Z</time>
      </trkpt>
      <trkpt lat="46.75037" lon="-2.01501">
        <ele>4</ele>
        <time>2018-03-10T04:25:05Z</time>
      </trkpt>
      <trkpt lat="46.75035" lon="-2.01499">
        <ele>4</ele>
        <time>2018-03-10T04:26:05Z</time>
      </trkpt>
      <trkpt lat="46.75018" lon="-2.01472">
        <ele>4</ele>
        <time>2018-03-10T04:27:05Z</time>
      </trkpt>
      <trkpt lat="46.74993" lon="-2.01431">
        <ele>4</ele>
        <time>2018-03-10T04:28:05Z</time>
      </trkpt>
      <trkpt lat="46.74972" lon="-2.01394">
        <ele>5</ele>
        <time>2018-03-10T04:29:05Z</time>
      </trkpt>
      <trkpt lat="46.74969" lon="-2.01389">
        <ele>5</ele>
        <time>2018-03-10T04:30:05Z</time>
      </trkpt>
      <trkpt lat="46.74958" lon="-2.01372">
        <ele>5</ele>
        <time>2018-03-10T04:31:05Z</time>
      </trkpt>
      <trkpt lat="46.74952" lon="-2.01363">
        <ele>6</ele>
        <time>2018-03-10T04:32:05Z</time>
      </trkpt>
      <trkpt lat="46.7495" lon="-2.01362">
        <ele>6</ele>
        <time>2018-03-10T04:33:05Z</time>
      </trkpt>
      <trkpt lat="46.74944" lon="-2.01355">
        <ele>6</ele>
        <time>2018-03-10T04:34:05Z</time>
      </trkpt>
      <trkpt lat="46.74927" lon="-2.01343">
        <ele>7</ele>
        <time>2018-03-10T04:35:05Z</time>
      </trkpt>
      <trkpt lat="46.74895" lon="-2.01325">
        <ele>7</ele>
        <time>2018-03-10T04:36:05Z</time>
      </trkpt>
      <trkpt lat="46.74863" lon="-2.01308">
        <ele>7</ele>
        <time>2018-03-10T04:37:05Z</time>
      </trkpt>
      <trkpt lat="46.74821" lon="-2.01285">
        <ele>6</ele>
        <time>2018-03-10T04:38:05Z</time>
      </trkpt>
      <trkpt lat="46.74784" lon="-2.01263">
        <ele>6</ele>
        <time>2018-03-10T04:39:05Z</time>
      </trkpt>
      <trkpt lat="46.74747" lon="-2.0124">
        <ele>7</ele>
        <time>2018-03-10T04:40:05Z</time>
      </trkpt>
      <trkpt lat="46.74723" lon="-2.01225">
        <ele>7</ele>
        <time>2018-03-10T04:41:05Z</time>
      </trkpt>
      <trkpt lat="46.74693" lon="-2.01205">
        <ele>8</ele>
        <time>2018-03-10T04:42:05Z</time>
      </trkpt>
      <trkpt lat="46.74682" lon="-2.01198">
        <ele>8</ele>
        <time>2018-03-10T04:43:05Z</time>
      </trkpt>
      <trkpt lat="46.74664" lon="-2.01183">
        <ele>8</ele>
        <time>2018-03-10T04:44:05Z</time>
      </trkpt>
      <trkpt lat="46.74646" lon="-2.01164">
        <ele>8</ele>
        <time>2018-03-10T04:45:05Z</time>
      </trkpt>
      <trkpt lat="46.74638" lon="-2.01154">
        <ele>8</ele>
        <time>2018-03-10T04:46:05Z</time>
      </trkpt>
      <trkpt lat="46.74613" lon="-2.01126">
        <ele>7</ele>
        <time>2018-03-10T04:47:05Z</time>
      </trkpt>
      <trkpt lat="46.74582" lon="-2.01089">
        <ele>4</ele>
        <time>2018-03-10T04:48:05Z</time>
      </trkpt>
      <trkpt lat="46.74564" lon="-2.01068">
        <ele>4</ele>
        <time>2018-03-10T04:49:05Z</time>
      </trkpt>
      <trkpt lat="46.74557" lon="-2.01058">
        <ele>4</ele>
        <time>2018-03-10T04:50:05Z</time>
      </trkpt>
      <trkpt lat="46.74538" lon="-2.01036">
        <ele>4</ele>
        <time>2018-03-10T04:51:05Z</time>
      </trkpt>
      <trkpt lat="46.74532" lon="-2.0103">
        <ele>5</ele>
        <time>2018-03-10T04:52:05Z</time>
      </trkpt>
      <trkpt lat="46.74512" lon="-2.01014">
        <ele>5</ele>
        <time>2018-03-10T04:53:05Z</time>
      </trkpt>
      <trkpt lat="46.74482" lon="-2.00986">
        <ele>4</ele>
        <time>2018-03-10T04:54:05Z</time>
      </trkpt>
      <trkpt lat="46.74463" lon="-2.00969">
        <ele>4</ele>
        <time>2018-03-10T04:55:05Z</time>
      </trkpt>
      <trkpt lat="46.74444" lon="-2.00952">
        <ele>4</ele>
        <time>2018-03-10T04:56:05Z</time>
      </trkpt>
      <trkpt lat="46.7439" lon="-2.00906">
        <ele>3</ele>
        <time>2018-03-10T04:57:05Z</time>
      </trkpt>
      <trkpt lat="46.74361" lon="-2.0088">
        <ele>3</ele>
        <time>2018-03-10T04:58:05Z</time>
      </trkpt>
      <trkpt lat="46.74345" lon="-2.00864">
        <ele>3</ele>
        <time>2018-03-10T04:59:05Z</time>
      </trkpt>
      <trkpt lat="46.74337" lon="-2.00853">
        <ele>3</ele>
        <time>2018-03-10T05:00:05Z</time>
      </trkpt>
      <trkpt lat="46.7433" lon="-2.00843">
        <ele>3</ele>
        <time>2018-03-10T05:01:05Z</time>
      </trkpt>
      <trkpt lat="46.74322" lon="-2.0083">
        <ele>3</ele>
        <time>2018-03-10T05:02:05Z</time>
      </trkpt>
      <trkpt lat="46.74312" lon="-2.00812">
        <ele>2</ele>
        <time>2018-03-10T05:03:05Z</time>
      </trkpt>
      <trkpt lat="46.74308" lon="-2.00805">
        <ele>2</ele>
        <time>2018-03-10T05:04:05Z</time>
      </trkpt>
      <trkpt lat="46.74301" lon="-2.00793">
        <ele>2</ele>
        <time>2018-03-10T05:05:05Z</time>
      </trkpt>
      <trkpt lat="46.74283" lon="-2.00765">
        <ele>2</ele>
        <time>2018-03-10T05:06:05Z</time>
      </trkpt>
      <trkpt lat="46.74275" lon="-2.00753">
        <ele>2</ele>
        <time>2018-03-10T05:07:05Z</time>
      </trkpt>
      <trkpt lat="46.7426" lon="-2.00726">
        <ele>2</ele>
        <time>2018-03-10T05:08:05Z</time>
      </trkpt>
      <trkpt lat="46.7425" lon="-2.00711">
        <ele>2</ele>
        <time>2018-03-10T05:09:05Z</time>
      </trkpt>
      <trkpt lat="46.74235" lon="-2.00689">
        <ele>3</ele>
        <time>2018-03-10T05:10:05Z</time>
      </trkpt>
      <trkpt lat="46.74191" lon="-2.00625">
        <ele>3</ele>
        <time>2018-03-10T05:11:05Z</time>
      </trkpt>
      <trkpt lat="46.74148" lon="-2.00565">
        <ele>3</ele>
        <time>2018-03-10T05:12:05Z</time>
      </trkpt>
      <trkpt lat="46.74143" lon="-2.00558">
        <ele>3</ele>
        <time>2018-03-10T05:13:05Z</time>
      </trkpt>
      <trkpt lat="46.74131" lon="-2.0054">
        <ele>3</ele>
        <time>2018-03-10T05:14:05Z</time>
      </trkpt>
      <trkpt lat="46.74124" lon="-2.00529">
        <ele>3</ele>
        <time>2018-03-10T05:15:05Z</time>
      </trkpt>
      <trkpt lat="46.74117" lon="-2.00519">
        <ele>3</ele>
        <time>2018-03-10T05:16:05Z</time>
      </trkpt>
      <trkpt lat="46.74114" lon="-2.00514">
        <ele>3</ele>
        <time>2018-03-10T05:17:05Z</time>
      </trkpt>
      <trkpt lat="46.74108" lon="-2.00504">
        <ele>3</ele>
        <time>2018-03-10T05:18:05Z</time>
      </trkpt>
      <trkpt lat="46.74103" lon="-2.00497">
        <ele>3</ele>
        <time>2018-03-10T05:19:05Z</time>
      </trkpt>
      <trkpt lat="46.74099" lon="-2.00488">
        <ele>3</ele>
        <time>2018-03-10T05:20:05Z</time>
      </trkpt>
      <trkpt lat="46.74096" lon="-2.00481">
        <ele>3</ele>
        <time>2018-03-10T05:21:05Z</time>
      </trkpt>
      <trkpt lat="46.74085" lon="-2.00458">
        <ele>3</ele>
        <time>2018-03-10T05:22:05Z</time>
      </trkpt>
      <trkpt lat="46.74078" lon="-2.00436">
        <ele>3</ele>
        <time>2018-03-10T05:23:05Z</time>
      </trkpt>
      <trkpt lat="46.74073" lon="-2.00423">
        <ele>3</ele>
        <time>2018-03-10T05:24:05Z</time>
      </trkpt>
      <trkpt lat="46.74067" lon="-2.00404">
        <ele>3</ele>
        <time>2018-03-10T05:25:05Z</time>
      </trkpt>
      <trkpt lat="46.74066" lon="-2.00393">
        <ele>3</ele>
        <time>2018-03-10T05:26:05Z</time>
      </trkpt>
      <trkpt lat="46.74065" lon="-2.00382">
        <ele>3</ele>
        <time>2018-03-10T05:27:05Z</time>
      </trkpt>
      <trkpt lat="46.74065" lon="-2.00368">
        <ele>3</ele>
        <time>2018-03-10T05:28:05Z</time>
      </trkpt>
      <trkpt lat="46.74067" lon="-2.00353">
        <ele>3</ele>
        <time>2018-03-10T05:29:05Z</time>
      </trkpt>
      <trkpt lat="46.7407" lon="-2.00339">
        <ele>2</ele>
        <time>2018-03-10T05:30:05Z</time>
      </trkpt>
      <trkpt lat="46.74075" lon="-2.00318">
        <ele>3</ele>
        <time>2018-03-10T05:31:05Z</time>
      </trkpt>
      <trkpt lat="46.74079" lon="-2.00302">
        <ele>3</ele>
        <time>2018-03-10T05:32:05Z</time>
      </trkpt>
      <trkpt lat="46.74085" lon="-2.00279">
        <ele>3</ele>
        <time>2018-03-10T05:33:05Z</time>
      </trkpt>
      <trkpt lat="46.74088" lon="-2.00267">
        <ele>4</ele>
        <time>2018-03-10T05:34:05Z</time>
      </trkpt>
      <trkpt lat="46.7411" lon="-2.00185">
        <ele>5</ele>
        <time>2018-03-10T05:35:05Z</time>
      </trkpt>
      <trkpt lat="46.74115" lon="-2.00164">
        <ele>5</ele>
        <time>2018-03-10T05:36:05Z</time>
      </trkpt>
      <trkpt lat="46.74119" lon="-2.00146">
        <ele>5</ele>
        <time>2018-03-10T05:37:05Z</time>
      </trkpt>
      <trkpt lat="46.74123" lon="-2.00124">
        <ele>6</ele>
        <time>2018-03-10T05:38:05Z</time>
      </trkpt>
      <trkpt lat="46.74127" lon="-2.001">
        <ele>6</ele>
        <time>2018-03-10T05:39:05Z</time>
      </trkpt>
      <trkpt lat="46.74134" lon="-2.0004">
        <ele>6</ele>
        <time>2018-03-10T05:40:05Z</time>
      </trkpt>
      <trkpt lat="46.74142" lon="-1.99944">
        <ele>6</ele>
        <time>2018-03-10T05:41:05Z</time>
      </trkpt>
      <trkpt lat="46.74143" lon="-1.99924">
        <ele>7</ele>
        <time>2018-03-10T05:42:05Z</time>
      </trkpt>
      <trkpt lat="46.74148" lon="-1.99843">
        <ele>7</ele>
        <time>2018-03-10T05:43:05Z</time>
      </trkpt>
      <trkpt lat="46.74154" lon="-1.99732">
        <ele>5</ele>
        <time>2018-03-10T05:44:05Z</time>
      </trkpt>
      <trkpt lat="46.74155" lon="-1.99686">
        <ele>5</ele>
        <time>2018-03-10T05:45:05Z</time>
      </trkpt>
      <trkpt lat="46.74157" lon="-1.99675">
        <ele>5</ele>
        <time>2018-03-10T05:46:05Z</time>
      </trkpt>
      <trkpt lat="46.74158" lon="-1.99666">
        <ele>5</ele>
        <time>2018-03-10T05:47:05Z</time>
      </trkpt>
      <trkpt lat="46.74162" lon="-1.99638">
        <ele>6</ele>
        <time>2018-03-10T05:48:05Z</time>
      </trkpt>
      <trkpt lat="46.74165" lon="-1.99622">
        <ele>6</ele>
        <time>2018-03-10T05:49:05Z</time>
      </trkpt>
      <trkpt lat="46.74174" lon="-1.9959">
        <ele>7</ele>
        <time>2018-03-10T05:50:05Z</time>
      </trkpt>
      <trkpt lat="46.74182" lon="-1.99559">
        <ele>6</ele>
        <time>2018-03-10T05:51:05Z</time>
      </trkpt>
      <trkpt lat="46.74192" lon="-1.99525">
        <ele>6</ele>
        <time>2018-03-10T05:52:05Z</time>
      </trkpt>
      <trkpt lat="46.742" lon="-1.99493">
        <ele>5</ele>
        <time>2018-03-10T05:53:05Z</time>
      </trkpt>
      <trkpt lat="46.74204" lon="-1.99474">
        <ele>5</ele>
        <time>2018-03-10T05:54:05Z</time>
      </trkpt>
      <trkpt lat="46.74206" lon="-1.99468">
        <ele>5</ele>
        <time>2018-03-10T05:55:05Z</time>
      </trkpt>
      <trkpt lat="46.74211" lon="-1.99436">
        <ele>5</ele>
        <time>2018-03-10T05:56:05Z</time>
      </trkpt>
      <trkpt lat="46.74216" lon="-1.99406">
        <ele>4</ele>
        <time>2018-03-10T05:57:05Z</time>
      </trkpt>
      <trkpt lat="46.74216" lon="-1.99393">
        <ele>5</ele>
        <time>2018-03-10T05:58:05Z</time>
      </trkpt>
      <trkpt lat="46.74216" lon="-1.99379">
        <ele>5</ele>
        <time>2018-03-10T05:59:05Z</time>
      </trkpt>
      <trkpt lat="46.74215" lon="-1.99361">
        <ele>5</ele>
        <time>2018-03-10T06:00:05Z</time>
      </trkpt>
      <trkpt lat="46.74215" lon="-1.99356">
        <ele>5</ele>
        <time>2018-03-10T06:01:05Z</time>
      </trkpt>
      <trkpt lat="46.74212" lon="-1.99342">
        <ele>5</ele>
        <time>2018-03-10T06:02:05Z</time>
      </trkpt>
      <trkpt lat="46.74204" lon="-1.99332">
        <ele>6</ele>
        <time>2018-03-10T06:03:05Z</time>
      </trkpt>
      <trkpt lat="46.74197" lon="-1.99324">
        <ele>6</ele>
        <time>2018-03-10T06:04:05Z</time>
      </trkpt>
      <trkpt lat="46.74197" lon="-1.99324">
        <ele>6</ele>
        <time>2018-03-10T06:05:05Z</time>
      </trkpt>
      <trkpt lat="46.74194" lon="-1.99324">
        <ele>6</ele>
        <time>2018-03-10T06:06:05Z</time>
      </trkpt>
      <trkpt lat="46.7419" lon="-1.99324">
        <ele>6</ele>
        <time>2018-03-10T06:07:05Z</time>
      </trkpt>
      <trkpt lat="46.74186" lon="-1.99322">
        <ele>6</ele>
        <time>2018-03-10T06:08:05Z</time>
      </trkpt>
      <trkpt lat="46.74183" lon="-1.9932">
        <ele>6</ele>
        <time>2018-03-10T06:09:05Z</time>
      </trkpt>
      <trkpt lat="46.74181" lon="-1.99317">
        <ele>6</ele>
        <time>2018-03-10T06:10:05Z</time>
      </trkpt>
      <trkpt lat="46.74179" lon="-1.99312">
        <ele>6</ele>
        <time>2018-03-10T06:11:05Z</time>
      </trkpt>
      <trkpt lat="46.74178" lon="-1.99309">
        <ele>6</ele>
        <time>2018-03-10T06:12:05Z</time>
      </trkpt>
      <trkpt lat="46.74178" lon="-1.99306">
        <ele>5</ele>
        <time>2018-03-10T06:13:05Z</time>
      </trkpt>
      <trkpt lat="46.74178" lon="-1.99301">
        <ele>5</ele>
        <time>2018-03-10T06:14:05Z</time>
      </trkpt>
      <trkpt lat="46.74171" lon="-1.99291">
        <ele>5</ele>
        <time>2018-03-10T06:15:05Z</time>
      </trkpt>
      <trkpt lat="46.74167" lon="-1.99285">
        <ele>5</ele>
        <time>2018-03-10T06:16:05Z</time>
      </trkpt>
      <trkpt lat="46.74161" lon="-1.99278">
        <ele>4</ele>
        <time>2018-03-10T06:17:05Z</time>
      </trkpt>
      <trkpt lat="46.74115" lon="-1.99274">
        <ele>5</ele>
        <time>2018-03-10T06:18:05Z</time>
      </trkpt>
      <trkpt lat="46.74086" lon="-1.9927">
        <ele>5</ele>
        <time>2018-03-10T06:19:05Z</time>
      </trkpt>
      <trkpt lat="46.74042" lon="-1.99266">
        <ele>7</ele>
        <time>2018-03-10T06:20:05Z</time>
      </trkpt>
      <trkpt lat="46.74037" lon="-1.99265">
        <ele>7</ele>
        <time>2018-03-10T06:21:05Z</time>
      </trkpt>
      <trkpt lat="46.74013" lon="-1.99261">
        <ele>8</ele>
        <time>2018-03-10T06:22:05Z</time>
      </trkpt>
      <trkpt lat="46.73992" lon="-1.99255">
        <ele>9</ele>
        <time>2018-03-10T06:23:05Z</time>
      </trkpt>
      <trkpt lat="46.7397" lon="-1.99247">
        <ele>9</ele>
        <time>2018-03-10T06:24:05Z</time>
      </trkpt>
      <trkpt lat="46.73956" lon="-1.9924">
        <ele>9</ele>
        <time>2018-03-10T06:25:05Z</time>
      </trkpt>
      <trkpt lat="46.73934" lon="-1.99226">
        <ele>8</ele>
        <time>2018-03-10T06:26:05Z</time>
      </trkpt>
      <trkpt lat="46.73916" lon="-1.99212">
        <ele>8</ele>
        <time>2018-03-10T06:27:05Z</time>
      </trkpt>
      <trkpt lat="46.73877" lon="-1.99173">
        <ele>7</ele>
        <time>2018-03-10T06:28:05Z</time>
      </trkpt>
      <trkpt lat="46.73849" lon="-1.99145">
        <ele>8</ele>
        <time>2018-03-10T06:29:05Z</time>
      </trkpt>
      <trkpt lat="46.73818" lon="-1.99114">
        <ele>8</ele>
        <time>2018-03-10T06:30:05Z</time>
      </trkpt>
      <trkpt lat="46.73778" lon="-1.99073">
        <ele>8</ele>
        <time>2018-03-10T06:31:05Z</time>
      </trkpt>
      <trkpt lat="46.73748" lon="-1.99044">
        <ele>8</ele>
        <time>2018-03-10T06:32:05Z</time>
      </trkpt>
      <trkpt lat="46.73719" lon="-1.99017">
        <ele>8</ele>
        <time>2018-03-10T06:33:05Z</time>
      </trkpt>
      <trkpt lat="46.73706" lon="-1.99004">
        <ele>9</ele>
        <time>2018-03-10T06:34:05Z</time>
      </trkpt>
      <trkpt lat="46.73664" lon="-1.98966">
        <ele>8</ele>
        <time>2018-03-10T06:35:05Z</time>
      </trkpt>
      <trkpt lat="46.73663" lon="-1.98965">
        <ele>8</ele>
        <time>2018-03-10T06:36:05Z</time>
      </trkpt>
      <trkpt lat="46.7365" lon="-1.98953">
        <ele>8</ele>
        <time>2018-03-10T06:37:05Z</time>
      </trkpt>
      <trkpt lat="46.7363" lon="-1.98933">
        <ele>7</ele>
        <time>2018-03-10T06:38:05Z</time>
      </trkpt>
      <trkpt lat="46.73597" lon="-1.98901">
        <ele>7</ele>
        <time>2018-03-10T06:39:05Z</time>
      </trkpt>
      <trkpt lat="46.73569" lon="-1.98872">
        <ele>7</ele>
        <time>2018-03-10T06:40:05Z</time>
      </trkpt>
      <trkpt lat="46.73544" lon="-1.98848">
        <ele>7</ele>
        <time>2018-03-10T06:41:05Z</time>
      </trkpt>
      <trkpt lat="46.73528" lon="-1.98834">
        <ele>8</ele>
        <time>2018-03-10T06:42:05Z</time>
      </trkpt>
      <trkpt lat="46.73504" lon="-1.98811">
        <ele>8</ele>
        <time>2018-03-10T06:43:05Z</time>
      </trkpt>
      <trkpt lat="46.73474" lon="-1.98783">
        <ele>9</ele>
        <time>2018-03-10T06:44:05Z</time>
      </trkpt>
      <trkpt lat="46.73447" lon="-1.98757">
        <ele>8</ele>
        <time>2018-03-10T06:45:05Z</time>
      </trkpt>
      <trkpt lat="46.73441" lon="-1.98751">
        <ele>8</ele>
        <time>2018-03-10T06:46:05Z</time>
      </trkpt>
      <trkpt lat="46.73425" lon="-1.98734">
        <ele>9</ele>
        <time>2018-03-10T06:47:05Z</time>
      </trkpt>
      <trkpt lat="46.73414" lon="-1.9872">
        <ele>9</ele>
        <time>2018-03-10T06:48:05Z</time>
      </trkpt>
      <trkpt lat="46.73407" lon="-1.98708">
        <ele>9</ele>
        <time>2018-03-10T06:49:05Z</time>
      </trkpt>
      <trkpt lat="46.73404" lon="-1.98702">
        <ele>9</ele>
        <time>2018-03-10T06:50:05Z</time>
      </trkpt>
      <trkpt lat="46.73401" lon="-1.98693">
        <ele>9</ele>
        <time>2018-03-10T06:51:05Z</time>
      </trkpt>
      <trkpt lat="46.73397" lon="-1.98679">
        <ele>9</ele>
        <time>2018-03-10T06:52:05Z</time>
      </trkpt>
      <trkpt lat="46.73394" lon="-1.98667">
        <ele>9</ele>
        <time>2018-03-10T06:53:05Z</time>
      </trkpt>
      <trkpt lat="46.73393" lon="-1.9866">
        <ele>9</ele>
        <time>2018-03-10T06:54:05Z</time>
      </trkpt>
      <trkpt lat="46.73392" lon="-1.98653">
        <ele>9</ele>
        <time>2018-03-10T06:55:05Z</time>
      </trkpt>
      <trkpt lat="46.73389" lon="-1.98637">
        <ele>9</ele>
        <time>2018-03-10T06:56:05Z</time>
      </trkpt>
      <trkpt lat="46.73389" lon="-1.98633">
        <ele>9</ele>
        <time>2018-03-10T06:57:05Z</time>
      </trkpt>
      <trkpt lat="46.73389" lon="-1.98623">
        <ele>9</ele>
        <time>2018-03-10T06:58:05Z</time>
      </trkpt>
      <trkpt lat="46.73388" lon="-1.9861">
        <ele>9</ele>
        <time>2018-03-10T06:59:05Z</time>
      </trkpt>
      <trkpt lat="46.73387" lon="-1.98593">
        <ele>9</ele>
        <time>2018-03-10T07:00:05Z</time>
      </trkpt>
      <trkpt lat="46.73386" lon="-1.98577">
        <ele>9</ele>
        <time>2018-03-10T07:01:05Z</time>
      </trkpt>
      <trkpt lat="46.73383" lon="-1.98564">
        <ele>9</ele>
        <time>2018-03-10T07:02:05Z</time>
      </trkpt>
      <trkpt lat="46.7338" lon="-1.98549">
        <ele>9</ele>
        <time>2018-03-10T07:03:05Z</time>
      </trkpt>
      <trkpt lat="46.73375" lon="-1.98535">
        <ele>9</ele>
        <time>2018-03-10T07:04:05Z</time>
      </trkpt>
      <trkpt lat="46.73369" lon="-1.98518">
        <ele>9</ele>
        <time>2018-03-10T07:05:05Z</time>
      </trkpt>
      <trkpt lat="46.73362" lon="-1.98501">
        <ele>9</ele>
        <time>2018-03-10T07:06:05Z</time>
      </trkpt>
      <trkpt lat="46.73356" lon="-1.9849">
        <ele>9</ele>
        <time>2018-03-10T07:07:05Z</time>
      </trkpt>
      <trkpt lat="46.73347" lon="-1.98478">
        <ele>10</ele>
        <time>2018-03-10T07:08:05Z</time>
      </trkpt>
      <trkpt lat="46.73336" lon="-1.98466">
        <ele>10</ele>
        <time>2018-03-10T07:09:05Z</time>
      </trkpt>
      <trkpt lat="46.73318" lon="-1.98447">
        <ele>10</ele>
        <time>2018-03-10T07:10:05Z</time>
      </trkpt>
      <trkpt lat="46.73291" lon="-1.9842">
        <ele>10</ele>
        <time>2018-03-10T07:11:05Z</time>
      </trkpt>
      <trkpt lat="46.73263" lon="-1.98394">
        <ele>10</ele>
        <time>2018-03-10T07:12:05Z</time>
      </trkpt>
      <trkpt lat="46.73238" lon="-1.9837">
        <ele>11</ele>
        <time>2018-03-10T07:13:05Z</time>
      </trkpt>
      <trkpt lat="46.73213" lon="-1.98346">
        <ele>11</ele>
        <time>2018-03-10T07:14:05Z</time>
      </trkpt>
      <trkpt lat="46.7319" lon="-1.98325">
        <ele>12</ele>
        <time>2018-03-10T07:15:05Z</time>
      </trkpt>
      <trkpt lat="46.73174" lon="-1.98312">
        <ele>12</ele>
        <time>2018-03-10T07:16:05Z</time>
      </trkpt>
      <trkpt lat="46.73162" lon="-1.98305">
        <ele>12</ele>
        <time>2018-03-10T07:17:05Z</time>
      </trkpt>
      <trkpt lat="46.73152" lon="-1.98299">
        <ele>12</ele>
        <time>2018-03-10T07:18:05Z</time>
      </trkpt>
      <trkpt lat="46.73138" lon="-1.98291">
        <ele>12</ele>
        <time>2018-03-10T07:19:05Z</time>
      </trkpt>
      <trkpt lat="46.73123" lon="-1.98284">
        <ele>11</ele>
        <time>2018-03-10T07:20:05Z</time>
      </trkpt>
      <trkpt lat="46.73108" lon="-1.98278">
        <ele>11</ele>
        <time>2018-03-10T07:21:05Z</time>
      </trkpt>
      <trkpt lat="46.73092" lon="-1.98272">
        <ele>11</ele>
        <time>2018-03-10T07:22:05Z</time>
      </trkpt>
      <trkpt lat="46.7307" lon="-1.98262">
        <ele>11</ele>
        <time>2018-03-10T07:23:05Z</time>
      </trkpt>
      <trkpt lat="46.73054" lon="-1.98256">
        <ele>11</ele>
        <time>2018-03-10T07:24:05Z</time>
      </trkpt>
      <trkpt lat="46.73021" lon="-1.98242">
        <ele>10</ele>
        <time>2018-03-10T07:25:05Z</time>
      </trkpt>
      <trkpt lat="46.72964" lon="-1.98218">
        <ele>11</ele>
        <time>2018-03-10T07:26:05Z</time>
      </trkpt>
      <trkpt lat="46.72862" lon="-1.98176">
        <ele>9</ele>
        <time>2018-03-10T07:27:05Z</time>
      </trkpt>
      <trkpt lat="46.72817" lon="-1.98158">
        <ele>9</ele>
        <time>2018-03-10T07:28:05Z</time>
      </trkpt>
      <trkpt lat="46.72793" lon="-1.98149">
        <ele>10</ele>
        <time>2018-03-10T07:29:05Z</time>
      </trkpt>
      <trkpt lat="46.72778" lon="-1.98142">
        <ele>10</ele>
        <time>2018-03-10T07:30:05Z</time>
      </trkpt>
      <trkpt lat="46.72761" lon="-1.98134">
        <ele>11</ele>
        <time>2018-03-10T07:31:05Z</time>
      </trkpt>
      <trkpt lat="46.72753" lon="-1.98131">
        <ele>11</ele>
        <time>2018-03-10T07:32:05Z</time>
      </trkpt>
      <trkpt lat="46.72738" lon="-1.98124">
        <ele>11</ele>
        <time>2018-03-10T07:33:05Z</time>
      </trkpt>
      <trkpt lat="46.72722" lon="-1.98115">
        <ele>11</ele>
        <time>2018-03-10T07:34:05Z</time>
      </trkpt>
      <trkpt lat="46.72704" lon="-1.98105">
        <ele>11</ele>
        <time>2018-03-10T07:35:05Z</time>
      </trkpt>
      <trkpt lat="46.72667" lon="-1.98081">
        <ele>10</ele>
        <time>2018-03-10T07:36:05Z</time>
      </trkpt>
      <trkpt lat="46.72619" lon="-1.98047">
        <ele>9</ele>
        <time>2018-03-10T07:37:05Z</time>
      </trkpt>
      <trkpt lat="46.72577" lon="-1.98018">
        <ele>8</ele>
        <time>2018-03-10T07:38:05Z</time>
      </trkpt>
      <trkpt lat="46.7254" lon="-1.97993">
        <ele>8</ele>
        <time>2018-03-10T07:39:05Z</time>
      </trkpt>
      <trkpt lat="46.72513" lon="-1.97975">
        <ele>8</ele>
        <time>2018-03-10T07:40:05Z</time>
      </trkpt>
      <trkpt lat="46.7249" lon="-1.97955">
        <ele>8</ele>
        <time>2018-03-10T07:41:05Z</time>
      </trkpt>
      <trkpt lat="46.7248" lon="-1.97945">
        <ele>8</ele>
        <time>2018-03-10T07:42:05Z</time>
      </trkpt>
      <trkpt lat="46.7247" lon="-1.97935">
        <ele>8</ele>
        <time>2018-03-10T07:43:05Z</time>
      </trkpt>
      <trkpt lat="46.72448" lon="-1.97908">
        <ele>8</ele>
        <time>2018-03-10T07:44:05Z</time>
      </trkpt>
      <trkpt lat="46.72432" lon="-1.97882">
        <ele>8</ele>
        <time>2018-03-10T07:45:05Z</time>
      </trkpt>
      <trkpt lat="46.72429" lon="-1.97876">
        <ele>7</ele>
        <time>2018-03-10T07:46:05Z</time>
      </trkpt>
      <trkpt lat="46.72421" lon="-1.97869">
        <ele>7</ele>
        <time>2018-03-10T07:47:05Z</time>
      </trkpt>
      <trkpt lat="46.72406" lon="-1.97849">
        <ele>7</ele>
        <time>2018-03-10T07:48:05Z</time>
      </trkpt>
      <trkpt lat="46.72405" lon="-1.97849">
        <ele>7</ele>
        <time>2018-03-10T07:49:05Z</time>
      </trkpt>
      <trkpt lat="46.72404" lon="-1.97849">
        <ele>7</ele>
        <time>2018-03-10T07:50:05Z</time>
      </trkpt>
      <trkpt lat="46.72403" lon="-1.97849">
        <ele>7</ele>
        <time>2018-03-10T07:51:05Z</time>
      </trkpt>
      <trkpt lat="46.72402" lon="-1.97849">
        <ele>7</ele>
        <time>2018-03-10T07:52:05Z</time>
      </trkpt>
      <trkpt lat="46.72401" lon="-1.97849">
        <ele>7</ele>
        <time>2018-03-10T07:53:05Z</time>
      </trkpt>
      <trkpt lat="46.72401" lon="-1.97848">
        <ele>7</ele>
        <time>2018-03-10T07:54:05Z</time>
      </trkpt>
      <trkpt lat="46.724" lon="-1.97848">
        <ele>7</ele>
        <time>2018-03-10T07:55:05Z</time>
      </trkpt>
      <trkpt lat="46.72399" lon="-1.97847">
        <ele>7</ele>
        <time>2018-03-10T07:56:05Z</time>
      </trkpt>
      <trkpt lat="46.72398" lon="-1.97845">
        <ele>7</ele>
        <time>2018-03-10T07:57:05Z</time>
      </trkpt>
      <trkpt lat="46.72397" lon="-1.97843">
        <ele>7</ele>
        <time>2018-03-10T07:58:05Z</time>
      </trkpt>
      <trkpt lat="46.72396" lon="-1.97841">
        <ele>7</ele>
        <time>2018-03-10T07:59:05Z</time>
      </trkpt>
      <trkpt lat="46.72396" lon="-1.9784">
        <ele>7</ele>
        <time>2018-03-10T08:00:05Z</time>
      </trkpt>
      <trkpt lat="46.72396" lon="-1.97839">
        <ele>7</ele>
        <time>2018-03-10T08:01:05Z</time>
      </trkpt>
      <trkpt lat="46.72396" lon="-1.97838">
        <ele>7</ele>
        <time>2018-03-10T08:02:05Z</time>
      </trkpt>
      <trkpt lat="46.72396" lon="-1.97837">
        <ele>7</ele>
        <time>2018-03-10T08:03:05Z</time>
      </trkpt>
      <trkpt lat="46.72395" lon="-1.97836">
        <ele>7</ele>
        <time>2018-03-10T08:04:05Z</time>
      </trkpt>
      <trkpt lat="46.72395" lon="-1.97835">
        <ele>7</ele>
        <time>2018-03-10T08:05:05Z</time>
      </trkpt>
      <trkpt lat="46.72396" lon="-1.97835">
        <ele>7</ele>
        <time>2018-03-10T08:06:05Z</time>
      </trkpt>
      <trkpt lat="46.72396" lon="-1.97834">
        <ele>7</ele>
        <time>2018-03-10T08:07:05Z</time>
      </trkpt>
      <trkpt lat="46.72396" lon="-1.97833">
        <ele>7</ele>
        <time>2018-03-10T08:08:05Z</time>
      </trkpt>
      <trkpt lat="46.72396" lon="-1.97832">
        <ele>7</ele>
        <time>2018-03-10T08:09:05Z</time>
      </trkpt>
      <trkpt lat="46.72396" lon="-1.97831">
        <ele>7</ele>
        <time>2018-03-10T08:10:05Z</time>
      </trkpt>
      <trkpt lat="46.72383" lon="-1.97806">
        <ele>7</ele>
        <time>2018-03-10T08:11:05Z</time>
      </trkpt>
      <trkpt lat="46.72381" lon="-1.97799">
        <ele>8</ele>
        <time>2018-03-10T08:12:05Z</time>
      </trkpt>
      <trkpt lat="46.72345" lon="-1.97737">
        <ele>9</ele>
        <time>2018-03-10T08:13:05Z</time>
      </trkpt>
      <trkpt lat="46.72306" lon="-1.97664">
        <ele>11</ele>
        <time>2018-03-10T08:14:05Z</time>
      </trkpt>
      <trkpt lat="46.72278" lon="-1.97612">
        <ele>12</ele>
        <time>2018-03-10T08:15:05Z</time>
      </trkpt>
      <trkpt lat="46.72268" lon="-1.97595">
        <ele>12</ele>
        <time>2018-03-10T08:16:05Z</time>
      </trkpt>
      <trkpt lat="46.72252" lon="-1.97565">
        <ele>12</ele>
        <time>2018-03-10T08:17:05Z</time>
      </trkpt>
      <trkpt lat="46.72229" lon="-1.97523">
        <ele>11</ele>
        <time>2018-03-10T08:18:05Z</time>
      </trkpt>
      <trkpt lat="46.72182" lon="-1.97442">
        <ele>10</ele>
        <time>2018-03-10T08:19:05Z</time>
      </trkpt>
      <trkpt lat="46.72144" lon="-1.97376">
        <ele>10</ele>
        <time>2018-03-10T08:20:05Z</time>
      </trkpt>
      <trkpt lat="46.72132" lon="-1.97353">
        <ele>10</ele>
        <time>2018-03-10T08:21:05Z</time>
      </trkpt>
      <trkpt lat="46.72114" lon="-1.97324">
        <ele>9</ele>
        <time>2018-03-10T08:22:05Z</time>
      </trkpt>
      <trkpt lat="46.72092" lon="-1.97285">
        <ele>9</ele>
        <time>2018-03-10T08:23:05Z</time>
      </trkpt>
      <trkpt lat="46.72062" lon="-1.97231">
        <ele>10</ele>
        <time>2018-03-10T08:24:05Z</time>
      </trkpt>
      <trkpt lat="46.72045" lon="-1.972">
        <ele>10</ele>
        <time>2018-03-10T08:25:05Z</time>
      </trkpt>
      <trkpt lat="46.72012" lon="-1.97137">
        <ele>11</ele>
        <time>2018-03-10T08:26:05Z</time>
      </trkpt>
      <trkpt lat="46.71999" lon="-1.97111">
        <ele>11</ele>
        <time>2018-03-10T08:27:05Z</time>
      </trkpt>
      <trkpt lat="46.7199" lon="-1.97098">
        <ele>12</ele>
        <time>2018-03-10T08:28:05Z</time>
      </trkpt>
      <trkpt lat="46.71969" lon="-1.97055">
        <ele>13</ele>
        <time>2018-03-10T08:29:05Z</time>
      </trkpt>
      <trkpt lat="46.71944" lon="-1.97005">
        <ele>14</ele>
        <time>2018-03-10T08:30:05Z</time>
      </trkpt>
      <trkpt lat="46.7193" lon="-1.96978">
        <ele>15</ele>
        <time>2018-03-10T08:31:05Z</time>
      </trkpt>
      <trkpt lat="46.71919" lon="-1.96958">
        <ele>15</ele>
        <time>2018-03-10T08:32:05Z</time>
      </trkpt>
      <trkpt lat="46.7189" lon="-1.96905">
        <ele>15</ele>
        <time>2018-03-10T08:33:05Z</time>
      </trkpt>
      <trkpt lat="46.71883" lon="-1.96894">
        <ele>15</ele>
        <time>2018-03-10T08:34:05Z</time>
      </trkpt>
      <trkpt lat="46.71868" lon="-1.96878">
        <ele>15</ele>
        <time>2018-03-10T08:35:05Z</time>
      </trkpt>
      <trkpt lat="46.71868" lon="-1.96878">
        <ele>15</ele>
        <time>2018-03-10T08:36:05Z</time>
      </trkpt>
      <trkpt lat="46.7186" lon="-1.96871">
        <ele>15</ele>
        <time>2018-03-10T08:37:05Z</time>
      </trkpt>
      <trkpt lat="46.71842" lon="-1.96866">
        <ele>15</ele>
        <time>2018-03-10T08:38:05Z</time>
      </trkpt>
      <trkpt lat="46.71833" lon="-1.96862">
        <ele>14</ele>
        <time>2018-03-10T08:39:05Z</time>
      </trkpt>
      <trkpt lat="46.71833" lon="-1.96862">
        <ele>14</ele>
        <time>2018-03-10T08:40:05Z</time>
      </trkpt>
      <trkpt lat="46.71826" lon="-1.96859">
        <ele>14</ele>
        <time>2018-03-10T08:41:05Z</time>
      </trkpt>
      <trkpt lat="46.71812" lon="-1.96843">
        <ele>14</ele>
        <time>2018-03-10T08:42:05Z</time>
      </trkpt>
      <trkpt lat="46.71808" lon="-1.96839">
        <ele>14</ele>
        <time>2018-03-10T08:43:05Z</time>
      </trkpt>
      <trkpt lat="46.71796" lon="-1.96835">
        <ele>14</ele>
        <time>2018-03-10T08:44:05Z</time>
      </trkpt>
      <trkpt lat="46.71781" lon="-1.9683">
        <ele>13</ele>
        <time>2018-03-10T08:45:05Z</time>
      </trkpt>
      <trkpt lat="46.71767" lon="-1.96825">
        <ele>13</ele>
        <time>2018-03-10T08:46:05Z</time>
      </trkpt>
      <trkpt lat="46.71755" lon="-1.9682">
        <ele>13</ele>
        <time>2018-03-10T08:47:05Z</time>
      </trkpt>
      <trkpt lat="46.71747" lon="-1.96817">
        <ele>13</ele>
        <time>2018-03-10T08:48:05Z</time>
      </trkpt>
      <trkpt lat="46.71738" lon="-1.96811">
        <ele>13</ele>
        <time>2018-03-10T08:49:05Z</time>
      </trkpt>
      <trkpt lat="46.71726" lon="-1.96803">
        <ele>13</ele>
        <time>2018-03-10T08:50:05Z</time>
      </trkpt>
      <trkpt lat="46.71712" lon="-1.96794">
        <ele>13</ele>
        <time>2018-03-10T08:51:05Z</time>
      </trkpt>
      <trkpt lat="46.71699" lon="-1.96786">
        <ele>13</ele>
        <time>2018-03-10T08:52:05Z</time>
      </trkpt>
      <trkpt lat="46.71689" lon="-1.96781">
        <ele>14</ele>
        <time>2018-03-10T08:53:05Z</time>
      </trkpt>
      <trkpt lat="46.7168" lon="-1.96777">
        <ele>14</ele>
        <time>2018-03-10T08:54:05Z</time>
      </trkpt>
      <trkpt lat="46.71672" lon="-1.96774">
        <ele>14</ele>
        <time>2018-03-10T08:55:05Z</time>
      </trkpt>
      <trkpt lat="46.71664" lon="-1.96774">
        <ele>14</ele>
        <time>2018-03-10T08:56:05Z</time>
      </trkpt>
      <trkpt lat="46.71657" lon="-1.96774">
        <ele>14</ele>
        <time>2018-03-10T08:57:05Z</time>
      </trkpt>
      <trkpt lat="46.7165" lon="-1.96775">
        <ele>14</ele>
        <time>2018-03-10T08:58:05Z</time>
      </trkpt>
      <trkpt lat="46.71643" lon="-1.96776">
        <ele>14</ele>
        <time>2018-03-10T08:59:05Z</time>
      </trkpt>
      <trkpt lat="46.71634" lon="-1.9678">
        <ele>14</ele>
        <time>2018-03-10T09:00:05Z</time>
      </trkpt>
      <trkpt lat="46.71615" lon="-1.96791">
        <ele>14</ele>
        <time>2018-03-10T09:01:05Z</time>
      </trkpt>
      <trkpt lat="46.71598" lon="-1.96802">
        <ele>14</ele>
        <time>2018-03-10T09:02:05Z</time>
      </trkpt>
      <trkpt lat="46.71593" lon="-1.96805">
        <ele>14</ele>
        <time>2018-03-10T09:03:05Z</time>
      </trkpt>
      <trkpt lat="46.71587" lon="-1.96807">
        <ele>14</ele>
        <time>2018-03-10T09:04:05Z</time>
      </trkpt>
      <trkpt lat="46.71581" lon="-1.96809">
        <ele>14</ele>
        <time>2018-03-10T09:05:05Z</time>
      </trkpt>
      <trkpt lat="46.71571" lon="-1.9681">
        <ele>14</ele>
        <time>2018-03-10T09:06:05Z</time>
      </trkpt>
      <trkpt lat="46.71558" lon="-1.96809">
        <ele>14</ele>
        <time>2018-03-10T09:07:05Z</time>
      </trkpt>
      <trkpt lat="46.71543" lon="-1.96807">
        <ele>14</ele>
        <time>2018-03-10T09:08:05Z</time>
      </trkpt>
      <trkpt lat="46.71528" lon="-1.96807">
        <ele>14</ele>
        <time>2018-03-10T09:09:05Z</time>
      </trkpt>
      <trkpt lat="46.71496" lon="-1.96806">
        <ele>13</ele>
        <time>2018-03-10T09:10:05Z</time>
      </trkpt>
      <trkpt lat="46.71474" lon="-1.96801">
        <ele>13</ele>
        <time>2018-03-10T09:11:05Z</time>
      </trkpt>
      <trkpt lat="46.71442" lon="-1.96789">
        <ele>13</ele>
        <time>2018-03-10T09:12:05Z</time>
      </trkpt>
      <trkpt lat="46.71424" lon="-1.96783">
        <ele>13</ele>
        <time>2018-03-10T09:13:05Z</time>
      </trkpt>
      <trkpt lat="46.71403" lon="-1.96777">
        <ele>14</ele>
        <time>2018-03-10T09:14:05Z</time>
      </trkpt>
      <trkpt lat="46.71403" lon="-1.96777">
        <ele>14</ele>
        <time>2018-03-10T09:15:05Z</time>
      </trkpt>
      <trkpt lat="46.71395" lon="-1.96774">
        <ele>14</ele>
        <time>2018-03-10T09:16:05Z</time>
      </trkpt>
      <trkpt lat="46.71382" lon="-1.96767">
        <ele>15</ele>
        <time>2018-03-10T09:17:05Z</time>
      </trkpt>
      <trkpt lat="46.7137" lon="-1.96762">
        <ele>15</ele>
        <time>2018-03-10T09:18:05Z</time>
      </trkpt>
      <trkpt lat="46.71362" lon="-1.96758">
        <ele>16</ele>
        <time>2018-03-10T09:19:05Z</time>
      </trkpt>
      <trkpt lat="46.71348" lon="-1.96755">
        <ele>16</ele>
        <time>2018-03-10T09:20:05Z</time>
      </trkpt>
      <trkpt lat="46.71332" lon="-1.96753">
        <ele>17</ele>
        <time>2018-03-10T09:21:05Z</time>
      </trkpt>
      <trkpt lat="46.7132" lon="-1.9675">
        <ele>17</ele>
        <time>2018-03-10T09:22:05Z</time>
      </trkpt>
      <trkpt lat="46.7131" lon="-1.96749">
        <ele>16</ele>
        <time>2018-03-10T09:23:05Z</time>
      </trkpt>
      <trkpt lat="46.713" lon="-1.9675">
        <ele>16</ele>
        <time>2018-03-10T09:24:05Z</time>
      </trkpt>
      <trkpt lat="46.71292" lon="-1.9675">
        <ele>16</ele>
        <time>2018-03-10T09:25:05Z</time>
      </trkpt>
      <trkpt lat="46.7128" lon="-1.96751">
        <ele>16</ele>
        <time>2018-03-10T09:26:05Z</time>
      </trkpt>
      <trkpt lat="46.71268" lon="-1.96753">
        <ele>15</ele>
        <time>2018-03-10T09:27:05Z</time>
      </trkpt>
      <trkpt lat="46.71248" lon="-1.9676">
        <ele>15</ele>
        <time>2018-03-10T09:28:05Z</time>
      </trkpt>
      <trkpt lat="46.71248" lon="-1.9676">
        <ele>15</ele>
        <time>2018-03-10T09:29:05Z</time>
      </trkpt>
      <trkpt lat="46.71239" lon="-1.96763">
        <ele>15</ele>
        <time>2018-03-10T09:30:05Z</time>
      </trkpt>
      <trkpt lat="46.71215" lon="-1.96763">
        <ele>15</ele>
        <time>2018-03-10T09:31:05Z</time>
      </trkpt>
      <trkpt lat="46.71179" lon="-1.96765">
        <ele>15</ele>
        <time>2018-03-10T09:32:05Z</time>
      </trkpt>
      <trkpt lat="46.71128" lon="-1.96765">
        <ele>14</ele>
        <time>2018-03-10T09:33:05Z</time>
      </trkpt>
      <trkpt lat="46.71081" lon="-1.96765">
        <ele>14</ele>
        <time>2018-03-10T09:34:05Z</time>
      </trkpt>
      <trkpt lat="46.71065" lon="-1.96766">
        <ele>14</ele>
        <time>2018-03-10T09:35:05Z</time>
      </trkpt>
      <trkpt lat="46.71039" lon="-1.96766">
        <ele>13</ele>
        <time>2018-03-10T09:36:05Z</time>
      </trkpt>
      <trkpt lat="46.71035" lon="-1.9677">
        <ele>13</ele>
        <time>2018-03-10T09:37:05Z</time>
      </trkpt>
      <trkpt lat="46.7103" lon="-1.96775">
        <ele>13</ele>
        <time>2018-03-10T09:38:05Z</time>
      </trkpt>
      <trkpt lat="46.71023" lon="-1.96781">
        <ele>13</ele>
        <time>2018-03-10T09:39:05Z</time>
      </trkpt>
      <trkpt lat="46.71023" lon="-1.96781">
        <ele>13</ele>
        <time>2018-03-10T09:40:05Z</time>
      </trkpt>
      <trkpt lat="46.71021" lon="-1.96786">
        <ele>13</ele>
        <time>2018-03-10T09:41:05Z</time>
      </trkpt>
      <trkpt lat="46.71019" lon="-1.96789">
        <ele>13</ele>
        <time>2018-03-10T09:42:05Z</time>
      </trkpt>
      <trkpt lat="46.71015" lon="-1.96791">
        <ele>13</ele>
        <time>2018-03-10T09:43:05Z</time>
      </trkpt>
      <trkpt lat="46.71012" lon="-1.96792">
        <ele>13</ele>
        <time>2018-03-10T09:44:05Z</time>
      </trkpt>
      <trkpt lat="46.71008" lon="-1.96792">
        <ele>13</ele>
        <time>2018-03-10T09:45:05Z</time>
      </trkpt>
      <trkpt lat="46.71004" lon="-1.96792">
        <ele>13</ele>
        <time>2018-03-10T09:46:05Z</time>
      </trkpt>
      <trkpt lat="46.71002" lon="-1.9679">
        <ele>13</ele>
        <time>2018-03-10T09:47:05Z</time>
      </trkpt>
      <trkpt lat="46.70999" lon="-1.96787">
        <ele>13</ele>
        <time>2018-03-10T09:48:05Z</time>
      </trkpt>
      <trkpt lat="46.70996" lon="-1.96783">
        <ele>13</ele>
        <time>2018-03-10T09:49:05Z</time>
      </trkpt>
      <trkpt lat="46.70994" lon="-1.96779">
        <ele>13</ele>
        <time>2018-03-10T09:50:05Z</time>
      </trkpt>
      <trkpt lat="46.70993" lon="-1.96774">
        <ele>13</ele>
        <time>2018-03-10T09:51:05Z</time>
      </trkpt>
      <trkpt lat="46.70993" lon="-1.9677">
        <ele>13</ele>
        <time>2018-03-10T09:52:05Z</time>
      </trkpt>
      <trkpt lat="46.70993" lon="-1.96765">
        <ele>13</ele>
        <time>2018-03-10T09:53:05Z</time>
      </trkpt>
      <trkpt lat="46.70994" lon="-1.96759">
        <ele>13</ele>
        <time>2018-03-10T09:54:05Z</time>
      </trkpt>
      <trkpt lat="46.7099" lon="-1.96745">
        <ele>13</ele>
        <time>2018-03-10T09:55:05Z</time>
      </trkpt>
      <trkpt lat="46.70986" lon="-1.96731">
        <ele>13</ele>
        <time>2018-03-10T09:56:05Z</time>
      </trkpt>
      <trkpt lat="46.70982" lon="-1.96719">
        <ele>13</ele>
        <time>2018-03-10T09:57:05Z</time>
      </trkpt>
      <trkpt lat="46.70981" lon="-1.96714">
        <ele>13</ele>
        <time>2018-03-10T09:58:05Z</time>
      </trkpt>
      <trkpt lat="46.70976" lon="-1.96705">
        <ele>13</ele>
        <time>2018-03-10T09:59:05Z</time>
      </trkpt>
      <trkpt lat="46.70973" lon="-1.96697">
        <ele>13</ele>
        <time>2018-03-10T10:00:05Z</time>
      </trkpt>
      <trkpt lat="46.70969" lon="-1.96685">
        <ele>13</ele>
        <time>2018-03-10T10:01:05Z</time>
      </trkpt>
      <trkpt lat="46.70963" lon="-1.96669">
        <ele>13</ele>
        <time>2018-03-10T10:02:05Z</time>
      </trkpt>
      <trkpt lat="46.70955" lon="-1.96651">
        <ele>13</ele>
        <time>2018-03-10T10:03:05Z</time>
      </trkpt>
      <trkpt lat="46.7095" lon="-1.9664">
        <ele>13</ele>
        <time>2018-03-10T10:04:05Z</time>
      </trkpt>
      <trkpt lat="46.70947" lon="-1.9663">
        <ele>13</ele>
        <time>2018-03-10T10:05:05Z</time>
      </trkpt>
      <trkpt lat="46.70943" lon="-1.96619">
        <ele>13</ele>
        <time>2018-03-10T10:06:05Z</time>
      </trkpt>
      <trkpt lat="46.70941" lon="-1.96605">
        <ele>13</ele>
        <time>2018-03-10T10:07:05Z</time>
      </trkpt>
      <trkpt lat="46.70939" lon="-1.96593">
        <ele>13</ele>
        <time>2018-03-10T10:08:05Z</time>
      </trkpt>
      <trkpt lat="46.70938" lon="-1.96578">
        <ele>13</ele>
        <time>2018-03-10T10:09:05Z</time>
      </trkpt>
      <trkpt lat="46.70938" lon="-1.96567">
        <ele>13</ele>
        <time>2018-03-10T10:10:05Z</time>
      </trkpt>
      <trkpt lat="46.70938" lon="-1.96557">
        <ele>13</ele>
        <time>2018-03-10T10:11:05Z</time>
      </trkpt>
      <trkpt lat="46.7094" lon="-1.96544">
        <ele>13</ele>
        <time>2018-03-10T10:12:05Z</time>
      </trkpt>
      <trkpt lat="46.70942" lon="-1.96531">
        <ele>13</ele>
        <time>2018-03-10T10:13:05Z</time>
      </trkpt>
      <trkpt lat="46.70946" lon="-1.96512">
        <ele>14</ele>
        <time>2018-03-10T10:14:05Z</time>
      </trkpt>
      <trkpt lat="46.7095" lon="-1.96493">
        <ele>14</ele>
        <time>2018-03-10T10:15:05Z</time>
      </trkpt>
      <trkpt lat="46.70955" lon="-1.9647">
        <ele>14</ele>
        <time>2018-03-10T10:16:05Z</time>
      </trkpt>
      <trkpt lat="46.70959" lon="-1.96453">
        <ele>14</ele>
        <time>2018-03-10T10:17:05Z</time>
      </trkpt>
      <trkpt lat="46.70963" lon="-1.96436">
        <ele>14</ele>
        <time>2018-03-10T10:18:05Z</time>
      </trkpt>
      <trkpt lat="46.70966" lon="-1.96422">
        <ele>14</ele>
        <time>2018-03-10T10:19:05Z</time>
      </trkpt>
      <trkpt lat="46.70969" lon="-1.96404">
        <ele>14</ele>
        <time>2018-03-10T10:20:05Z</time>
      </trkpt>
      <trkpt lat="46.70972" lon="-1.96386">
        <ele>13</ele>
        <time>2018-03-10T10:21:05Z</time>
      </trkpt>
      <trkpt lat="46.70975" lon="-1.96369">
        <ele>13</ele>
        <time>2018-03-10T10:22:05Z</time>
      </trkpt>
      <trkpt lat="46.70976" lon="-1.96356">
        <ele>13</ele>
        <time>2018-03-10T10:23:05Z</time>
      </trkpt>
      <trkpt lat="46.70978" lon="-1.9633">
        <ele>13</ele>
        <time>2018-03-10T10:24:05Z</time>
      </trkpt>
      <trkpt lat="46.70979" lon="-1.96306">
        <ele>13</ele>
        <time>2018-03-10T10:25:05Z</time>
      </trkpt>
      <trkpt lat="46.70979" lon="-1.96277">
        <ele>13</ele>
        <time>2018-03-10T10:26:05Z</time>
      </trkpt>
      <trkpt lat="46.70978" lon="-1.96247">
        <ele>13</ele>
        <time>2018-03-10T10:27:05Z</time>
      </trkpt>
      <trkpt lat="46.70978" lon="-1.96214">
        <ele>13</ele>
        <time>2018-03-10T10:28:05Z</time>
      </trkpt>
      <trkpt lat="46.70978" lon="-1.96188">
        <ele>13</ele>
        <time>2018-03-10T10:29:05Z</time>
      </trkpt>
      <trkpt lat="46.70977" lon="-1.96155">
        <ele>14</ele>
        <time>2018-03-10T10:30:05Z</time>
      </trkpt>
      <trkpt lat="46.70976" lon="-1.96132">
        <ele>15</ele>
        <time>2018-03-10T10:31:05Z</time>
      </trkpt>
      <trkpt lat="46.70976" lon="-1.96124">
        <ele>15</ele>
        <time>2018-03-10T10:32:05Z</time>
      </trkpt>
      <trkpt lat="46.70977" lon="-1.96114">
        <ele>15</ele>
        <time>2018-03-10T10:33:05Z</time>
      </trkpt>
      <trkpt lat="46.70977" lon="-1.96114">
        <ele>15</ele>
        <time>2018-03-10T10:34:05Z</time>
      </trkpt>
      <trkpt lat="46.70973" lon="-1.96112">
        <ele>16</ele>
        <time>2018-03-10T10:35:05Z</time>
      </trkpt>
      <trkpt lat="46.7097" lon="-1.96108">
        <ele>16</ele>
        <time>2018-03-10T10:36:05Z</time>
      </trkpt>
      <trkpt lat="46.70968" lon="-1.96102">
        <ele>16</ele>
        <time>2018-03-10T10:37:05Z</time>
      </trkpt>
      <trkpt lat="46.70967" lon="-1.96095">
        <ele>16</ele>
        <time>2018-03-10T10:38:05Z</time>
      </trkpt>
      <trkpt lat="46.70954" lon="-1.96093">
        <ele>16</ele>
        <time>2018-03-10T10:39:05Z</time>
      </trkpt>
      <trkpt lat="46.70938" lon="-1.96092">
        <ele>16</ele>
        <time>2018-03-10T10:40:05Z</time>
      </trkpt>
      <trkpt lat="46.7092" lon="-1.9609">
        <ele>16</ele>
        <time>2018-03-10T10:41:05Z</time>
      </trkpt>
      <trkpt lat="46.70896" lon="-1.96087">
        <ele>16</ele>
        <time>2018-03-10T10:42:05Z</time>
      </trkpt>
      <trkpt lat="46.70848" lon="-1.96082">
        <ele>15</ele>
        <time>2018-03-10T10:43:05Z</time>
      </trkpt>
      <trkpt lat="46.7081" lon="-1.96079">
        <ele>15</ele>
        <time>2018-03-10T10:44:05Z</time>
      </trkpt>
      <trkpt lat="46.70763" lon="-1.96074">
        <ele>16</ele>
        <time>2018-03-10T10:45:05Z</time>
      </trkpt>
      <trkpt lat="46.70722" lon="-1.96071">
        <ele>16</ele>
        <time>2018-03-10T10:46:05Z</time>
      </trkpt>
      <trkpt lat="46.70717" lon="-1.96071">
        <ele>16</ele>
        <time>2018-03-10T10:47:05Z</time>
      </trkpt>
      <trkpt lat="46.70684" lon="-1.96067">
        <ele>16</ele>
        <time>2018-03-10T10:48:05Z</time>
      </trkpt>
      <trkpt lat="46.70647" lon="-1.96064">
        <ele>16</ele>
        <time>2018-03-10T10:49:05Z</time>
      </trkpt>
      <trkpt lat="46.7063" lon="-1.96062">
        <ele>16</ele>
        <time>2018-03-10T10:50:05Z</time>
      </trkpt>
      <trkpt lat="46.70615" lon="-1.96059">
        <ele>16</ele>
        <time>2018-03-10T10:51:05Z</time>
      </trkpt>
      <trkpt lat="46.70579" lon="-1.96052">
        <ele>16</ele>
        <time>2018-03-10T10:52:05Z</time>
      </trkpt>
      <trkpt lat="46.70555" lon="-1.96046">
        <ele>16</ele>
        <time>2018-03-10T10:53:05Z</time>
      </trkpt>
      <trkpt lat="46.70533" lon="-1.96039">
        <ele>16</ele>
        <time>2018-03-10T10:54:05Z</time>
      </trkpt>
      <trkpt lat="46.70506" lon="-1.96029">
        <ele>15</ele>
        <time>2018-03-10T10:55:05Z</time>
      </trkpt>
      <trkpt lat="46.70475" lon="-1.96016">
        <ele>15</ele>
        <time>2018-03-10T10:56:05Z</time>
      </trkpt>
      <trkpt lat="46.70447" lon="-1.96003">
        <ele>16</ele>
        <time>2018-03-10T10:57:05Z</time>
      </trkpt>
      <trkpt lat="46.70419" lon="-1.95986">
        <ele>16</ele>
        <time>2018-03-10T10:58:05Z</time>
      </trkpt>
      <trkpt lat="46.70393" lon="-1.95972">
        <ele>15</ele>
        <time>2018-03-10T10:59:05Z</time>
      </trkpt>
      <trkpt lat="46.70369" lon="-1.95955">
        <ele>15</ele>
        <time>2018-03-10T11:00:05Z</time>
      </trkpt>
      <trkpt lat="46.7036" lon="-1.95948">
        <ele>15</ele>
        <time>2018-03-10T11:01:05Z</time>
      </trkpt>
      <trkpt lat="46.70359" lon="-1.95952">
        <ele>15</ele>
        <time>2018-03-10T11:02:05Z</time>
      </trkpt>
      <trkpt lat="46.70357" lon="-1.95956">
        <ele>15</ele>
        <time>2018-03-10T11:03:05Z</time>
      </trkpt>
      <trkpt lat="46.70354" lon="-1.95958">
        <ele>15</ele>
        <time>2018-03-10T11:04:05Z</time>
      </trkpt>
      <trkpt lat="46.7035" lon="-1.95958">
        <ele>15</ele>
        <time>2018-03-10T11:05:05Z</time>
      </trkpt>
      <trkpt lat="46.70349" lon="-1.95957">
        <ele>15</ele>
        <time>2018-03-10T11:06:05Z</time>
      </trkpt>
      <trkpt lat="46.70347" lon="-1.95955">
        <ele>15</ele>
        <time>2018-03-10T11:07:05Z</time>
      </trkpt>
      <trkpt lat="46.70344" lon="-1.95951">
        <ele>15</ele>
        <time>2018-03-10T11:08:05Z</time>
      </trkpt>
      <trkpt lat="46.70344" lon="-1.95946">
        <ele>14</ele>
        <time>2018-03-10T11:09:05Z</time>
      </trkpt>
      <trkpt lat="46.70344" lon="-1.95941">
        <ele>14</ele>
        <time>2018-03-10T11:10:05Z</time>
      </trkpt>
      <trkpt lat="46.70345" lon="-1.95938">
        <ele>14</ele>
        <time>2018-03-10T11:11:05Z</time>
      </trkpt>
      <trkpt lat="46.70333" lon="-1.95927">
        <ele>14</ele>
        <time>2018-03-10T11:12:05Z</time>
      </trkpt>
      <trkpt lat="46.70313" lon="-1.9591">
        <ele>14</ele>
        <time>2018-03-10T11:13:05Z</time>
      </trkpt>
      <trkpt lat="46.70302" lon="-1.95899">
        <ele>13</ele>
        <time>2018-03-10T11:14:05Z</time>
      </trkpt>
      <trkpt lat="46.70296" lon="-1.95894">
        <ele>13</ele>
        <time>2018-03-10T11:15:05Z</time>
      </trkpt>
      <trkpt lat="46.70274" lon="-1.95872">
        <ele>13</ele>
        <time>2018-03-10T11:16:05Z</time>
      </trkpt>
      <trkpt lat="46.70256" lon="-1.95852">
        <ele>12</ele>
        <time>2018-03-10T11:17:05Z</time>
      </trkpt>
      <trkpt lat="46.70241" lon="-1.95834">
        <ele>12</ele>
        <time>2018-03-10T11:18:05Z</time>
      </trkpt>
      <trkpt lat="46.70228" lon="-1.95813">
        <ele>12</ele>
        <time>2018-03-10T11:19:05Z</time>
      </trkpt>
      <trkpt lat="46.70217" lon="-1.95794">
        <ele>12</ele>
        <time>2018-03-10T11:20:05Z</time>
      </trkpt>
      <trkpt lat="46.70208" lon="-1.95777">
        <ele>12</ele>
        <time>2018-03-10T11:21:05Z</time>
      </trkpt>
      <trkpt lat="46.70197" lon="-1.95753">
        <ele>13</ele>
        <time>2018-03-10T11:22:05Z</time>
      </trkpt>
      <trkpt lat="46.70187" lon="-1.95726">
        <ele>12</ele>
        <time>2018-03-10T11:23:05Z</time>
      </trkpt>
      <trkpt lat="46.70181" lon="-1.95706">
        <ele>12</ele>
        <time>2018-03-10T11:24:05Z</time>
      </trkpt>
      <trkpt lat="46.70176" lon="-1.95686">
        <ele>12</ele>
        <time>2018-03-10T11:25:05Z</time>
      </trkpt>
      <trkpt lat="46.70175" lon="-1.95682">
        <ele>12</ele>
        <time>2018-03-10T11:26:05Z</time>
      </trkpt>
      <trkpt lat="46.70171" lon="-1.95673">
        <ele>12</ele>
        <time>2018-03-10T11:27:05Z</time>
      </trkpt>
      <trkpt lat="46.7017" lon="-1.95669">
        <ele>12</ele>
        <time>2018-03-10T11:28:05Z</time>
      </trkpt>
      <trkpt lat="46.70168" lon="-1.95666">
        <ele>12</ele>
        <time>2018-03-10T11:29:05Z</time>
      </trkpt>
      <trkpt lat="46.70166" lon="-1.9566">
        <ele>12</ele>
        <time>2018-03-10T11:30:05Z</time>
      </trkpt>
      <trkpt lat="46.70165" lon="-1.95657">
        <ele>12</ele>
        <time>2018-03-10T11:31:05Z</time>
      </trkpt>
      <trkpt lat="46.70164" lon="-1.95654">
        <ele>12</ele>
        <time>2018-03-10T11:32:05Z</time>
      </trkpt>
      <trkpt lat="46.70164" lon="-1.95654">
        <ele>12</ele>
        <time>2018-03-10T11:33:05Z</time>
      </trkpt>
      <trkpt lat="46.70163" lon="-1.95654">
        <ele>12</ele>
        <time>2018-03-10T11:34:05Z</time>
      </trkpt>
      <trkpt lat="46.70162" lon="-1.95654">
        <ele>12</ele>
        <time>2018-03-10T11:35:05Z</time>
      </trkpt>
      <trkpt lat="46.70161" lon="-1.95654">
        <ele>12</ele>
        <time>2018-03-10T11:36:05Z</time>
      </trkpt>
      <trkpt lat="46.7016" lon="-1.95654">
        <ele>12</ele>
        <time>2018-03-10T11:37:05Z</time>
      </trkpt>
      <trkpt lat="46.7016" lon="-1.95653">
        <ele>12</ele>
        <time>2018-03-10T11:38:05Z</time>
      </trkpt>
      <trkpt lat="46.70159" lon="-1.95653">
        <ele>12</ele>
        <time>2018-03-10T11:39:05Z</time>
      </trkpt>
      <trkpt lat="46.70159" lon="-1.95652">
        <ele>12</ele>
        <time>2018-03-10T11:40:05Z</time>
      </trkpt>
      <trkpt lat="46.70158" lon="-1.95652">
        <ele>12</ele>
        <time>2018-03-10T11:41:05Z</time>
      </trkpt>
      <trkpt lat="46.70158" lon="-1.95651">
        <ele>12</ele>
        <time>2018-03-10T11:42:05Z</time>
      </trkpt>
      <trkpt lat="46.70157" lon="-1.95651">
        <ele>12</ele>
        <time>2018-03-10T11:43:05Z</time>
      </trkpt>
      <trkpt lat="46.70157" lon="-1.9565">
        <ele>12</ele>
        <time>2018-03-10T11:44:05Z</time>
      </trkpt>
      <trkpt lat="46.70157" lon="-1.95649">
        <ele>12</ele>
        <time>2018-03-10T11:45:05Z</time>
      </trkpt>
      <trkpt lat="46.70156" lon="-1.95649">
        <ele>12</ele>
        <time>2018-03-10T11:46:05Z</time>
      </trkpt>
      <trkpt lat="46.70156" lon="-1.95648">
        <ele>12</ele>
        <time>2018-03-10T11:47:05Z</time>
      </trkpt>
      <trkpt lat="46.70156" lon="-1.95647">
        <ele>12</ele>
        <time>2018-03-10T11:48:05Z</time>
      </trkpt>
      <trkpt lat="46.70156" lon="-1.95646">
        <ele>12</ele>
        <time>2018-03-10T11:49:05Z</time>
      </trkpt>
      <trkpt lat="46.70156" lon="-1.95645">
        <ele>12</ele>
        <time>2018-03-10T11:50:05Z</time>
      </trkpt>
      <trkpt lat="46.70155" lon="-1.95644">
        <ele>12</ele>
        <time>2018-03-10T11:51:05Z</time>
      </trkpt>
      <trkpt lat="46.70155" lon="-1.95643">
        <ele>12</ele>
        <time>2018-03-10T11:52:05Z</time>
      </trkpt>
      <trkpt lat="46.70155" lon="-1.95642">
        <ele>12</ele>
        <time>2018-03-10T11:53:05Z</time>
      </trkpt>
      <trkpt lat="46.70156" lon="-1.95641">
        <ele>12</ele>
        <time>2018-03-10T11:54:05Z</time>
      </trkpt>
      <trkpt lat="46.70156" lon="-1.9564">
        <ele>12</ele>
        <time>2018-03-10T11:55:05Z</time>
      </trkpt>
      <trkpt lat="46.70156" lon="-1.95639">
        <ele>12</ele>
        <time>2018-03-10T11:56:05Z</time>
      </trkpt>
      <trkpt lat="46.70156" lon="-1.95638">
        <ele>11</ele>
        <time>2018-03-10T11:57:05Z</time>
      </trkpt>
      <trkpt lat="46.70156" lon="-1.95637">
        <ele>11</ele>
        <time>2018-03-10T11:58:05Z</time>
      </trkpt>
      <trkpt lat="46.70157" lon="-1.95637">
        <ele>11</ele>
        <time>2018-03-10T11:59:05Z</time>
      </trkpt>
      <trkpt lat="46.70157" lon="-1.95636">
        <ele>11</ele>
        <time>2018-03-10T12:00:05Z</time>
      </trkpt>
      <trkpt lat="46.70157" lon="-1.95635">
        <ele>11</ele>
        <time>2018-03-10T12:01:05Z</time>
      </trkpt>
      <trkpt lat="46.70158" lon="-1.95635">
        <ele>11</ele>
        <time>2018-03-10T12:02:05Z</time>
      </trkpt>
      <trkpt lat="46.70158" lon="-1.95634">
        <ele>11</ele>
        <time>2018-03-10T12:03:05Z</time>
      </trkpt>
      <trkpt lat="46.70159" lon="-1.95634">
        <ele>11</ele>
        <time>2018-03-10T12:04:05Z</time>
      </trkpt>
      <trkpt lat="46.70159" lon="-1.95633">
        <ele>11</ele>
        <time>2018-03-10T12:05:05Z</time>
      </trkpt>
      <trkpt lat="46.7016" lon="-1.95633">
        <ele>11</ele>
        <time>2018-03-10T12:06:05Z</time>
      </trkpt>
      <trkpt lat="46.7016" lon="-1.95632">
        <ele>11</ele>
        <time>2018-03-10T12:07:05Z</time>
      </trkpt>
      <trkpt lat="46.70161" lon="-1.95632">
        <ele>11</ele>
        <time>2018-03-10T12:08:05Z</time>
      </trkpt>
      <trkpt lat="46.70162" lon="-1.95624">
        <ele>11</ele>
        <time>2018-03-10T12:09:05Z</time>
      </trkpt>
      <trkpt lat="46.70163" lon="-1.9561">
        <ele>11</ele>
        <time>2018-03-10T12:10:05Z</time>
      </trkpt>
      <trkpt lat="46.70153" lon="-1.9555">
        <ele>10</ele>
        <time>2018-03-10T12:11:05Z</time>
      </trkpt>
      <trkpt lat="46.70143" lon="-1.95473">
        <ele>9</ele>
        <time>2018-03-10T12:12:05Z</time>
      </trkpt>
      <trkpt lat="46.70142" lon="-1.95447">
        <ele>9</ele>
        <time>2018-03-10T12:13:05Z</time>
      </trkpt>
      <trkpt lat="46.70147" lon="-1.95382">
        <ele>8</ele>
        <time>2018-03-10T12:14:05Z</time>
      </trkpt>
      <trkpt lat="46.70163" lon="-1.95279">
        <ele>6</ele>
        <time>2018-03-10T12:15:05Z</time>
      </trkpt>
      <trkpt lat="46.70167" lon="-1.95232">
        <ele>5</ele>
        <time>2018-03-10T12:16:05Z</time>
      </trkpt>
      <trkpt lat="46.70167" lon="-1.95226">
        <ele>5</ele>
        <time>2018-03-10T12:17:05Z</time>
      </trkpt>
      <trkpt lat="46.70168" lon="-1.95219">
        <ele>5</ele>
        <time>2018-03-10T12:18:05Z</time>
      </trkpt>
      <trkpt lat="46.70167" lon="-1.95198">
        <ele>6</ele>
        <time>2018-03-10T12:19:05Z</time>
      </trkpt>
      <trkpt lat="46.70166" lon="-1.95179">
        <ele>6</ele>
        <time>2018-03-10T12:20:05Z</time>
      </trkpt>
      <trkpt lat="46.70162" lon="-1.95161">
        <ele>6</ele>
        <time>2018-03-10T12:21:05Z</time>
      </trkpt>
      <trkpt lat="46.7016" lon="-1.95145">
        <ele>6</ele>
        <time>2018-03-10T12:22:05Z</time>
      </trkpt>
      <trkpt lat="46.70158" lon="-1.95126">
        <ele>6</ele>
        <time>2018-03-10T12:23:05Z</time>
      </trkpt>
      <trkpt lat="46.70157" lon="-1.95107">
        <ele>5</ele>
        <time>2018-03-10T12:24:05Z</time>
      </trkpt>
      <trkpt lat="46.70156" lon="-1.95091">
        <ele>5</ele>
        <time>2018-03-10T12:25:05Z</time>
      </trkpt>
      <trkpt lat="46.70156" lon="-1.95091">
        <ele>5</ele>
        <time>2018-03-10T12:26:05Z</time>
      </trkpt>
      <trkpt lat="46.70156" lon="-1.95089">
        <ele>5</ele>
        <time>2018-03-10T12:27:05Z</time>
      </trkpt>
      <trkpt lat="46.70156" lon="-1.95069">
        <ele>5</ele>
        <time>2018-03-10T12:28:05Z</time>
      </trkpt>
      <trkpt lat="46.70156" lon="-1.95069">
        <ele>5</ele>
        <time>2018-03-10T12:29:05Z</time>
      </trkpt>
      <trkpt lat="46.70155" lon="-1.95069">
        <ele>5</ele>
        <time>2018-03-10T12:30:05Z</time>
      </trkpt>
      <trkpt lat="46.70154" lon="-1.95069">
        <ele>5</ele>
        <time>2018-03-10T12:31:05Z</time>
      </trkpt>
      <trkpt lat="46.70153" lon="-1.95069">
        <ele>5</ele>
        <time>2018-03-10T12:32:05Z</time>
      </trkpt>
      <trkpt lat="46.70152" lon="-1.95069">
        <ele>5</ele>
        <time>2018-03-10T12:33:05Z</time>
      </trkpt>
      <trkpt lat="46.70152" lon="-1.95068">
        <ele>5</ele>
        <time>2018-03-10T12:34:05Z</time>
      </trkpt>
      <trkpt lat="46.70151" lon="-1.95068">
        <ele>5</ele>
        <time>2018-03-10T12:35:05Z</time>
      </trkpt>
      <trkpt lat="46.70151" lon="-1.95067">
        <ele>5</ele>
        <time>2018-03-10T12:36:05Z</time>
      </trkpt>
      <trkpt lat="46.7015" lon="-1.95067">
        <ele>5</ele>
        <time>2018-03-10T12:37:05Z</time>
      </trkpt>
      <trkpt lat="46.7015" lon="-1.95066">
        <ele>5</ele>
        <time>2018-03-10T12:38:05Z</time>
      </trkpt>
      <trkpt lat="46.70149" lon="-1.95066">
        <ele>5</ele>
        <time>2018-03-10T12:39:05Z</time>
      </trkpt>
      <trkpt lat="46.70149" lon="-1.95065">
        <ele>5</ele>
        <time>2018-03-10T12:40:05Z</time>
      </trkpt>
      <trkpt lat="46.70149" lon="-1.95064">
        <ele>5</ele>
        <time>2018-03-10T12:41:05Z</time>
      </trkpt>
      <trkpt lat="46.70149" lon="-1.95063">
        <ele>5</ele>
        <time>2018-03-10T12:42:05Z</time>
      </trkpt>
      <trkpt lat="46.70148" lon="-1.95063">
        <ele>5</ele>
        <time>2018-03-10T12:43:05Z</time>
      </trkpt>
      <trkpt lat="46.70148" lon="-1.95062">
        <ele>5</ele>
        <time>2018-03-10T12:44:05Z</time>
      </trkpt>
      <trkpt lat="46.70148" lon="-1.95061">
        <ele>5</ele>
        <time>2018-03-10T12:45:05Z</time>
      </trkpt>
      <trkpt lat="46.70148" lon="-1.9506">
        <ele>5</ele>
        <time>2018-03-10T12:46:05Z</time>
      </trkpt>
      <trkpt lat="46.70148" lon="-1.95059">
        <ele>5</ele>
        <time>2018-03-10T12:47:05Z</time>
      </trkpt>
      <trkpt lat="46.70148" lon="-1.95058">
        <ele>5</ele>
        <time>2018-03-10T12:48:05Z</time>
      </trkpt>
      <trkpt lat="46.70125" lon="-1.95054">
        <ele>5</ele>
        <time>2018-03-10T12:49:05Z</time>
      </trkpt>
      <trkpt lat="46.70103" lon="-1.9505">
        <ele>5</ele>
        <time>2018-03-10T12:50:05Z</time>
      </trkpt>
      <trkpt lat="46.70069" lon="-1.95044">
        <ele>6</ele>
        <time>2018-03-10T12:51:05Z</time>
      </trkpt>
      <trkpt lat="46.7005" lon="-1.95039">
        <ele>6</ele>
        <time>2018-03-10T12:52:05Z</time>
      </trkpt>
      <trkpt lat="46.70034" lon="-1.95036">
        <ele>7</ele>
        <time>2018-03-10T12:53:05Z</time>
      </trkpt>
      <trkpt lat="46.70019" lon="-1.9503">
        <ele>7</ele>
        <time>2018-03-10T12:54:05Z</time>
      </trkpt>
      <trkpt lat="46.70013" lon="-1.95027">
        <ele>7</ele>
        <time>2018-03-10T12:55:05Z</time>
      </trkpt>
      <trkpt lat="46.70007" lon="-1.95023">
        <ele>7</ele>
        <time>2018-03-10T12:56:05Z</time>
      </trkpt>
      <trkpt lat="46.69997" lon="-1.95014">
        <ele>7</ele>
        <time>2018-03-10T12:57:05Z</time>
      </trkpt>
      <trkpt lat="46.69981" lon="-1.94999">
        <ele>7</ele>
        <time>2018-03-10T12:58:05Z</time>
      </trkpt>
      <trkpt lat="46.69963" lon="-1.9498">
        <ele>8</ele>
        <time>2018-03-10T12:59:05Z</time>
      </trkpt>
      <trkpt lat="46.69949" lon="-1.94964">
        <ele>8</ele>
        <time>2018-03-10T13:00:05Z</time>
      </trkpt>
      <trkpt lat="46.69934" lon="-1.94944">
        <ele>8</ele>
        <time>2018-03-10T13:01:05Z</time>
      </trkpt>
      <trkpt lat="46.69918" lon="-1.94924">
        <ele>7</ele>
        <time>2018-03-10T13:02:05Z</time>
      </trkpt>
      <trkpt lat="46.69911" lon="-1.94912">
        <ele>7</ele>
        <time>2018-03-10T13:03:05Z</time>
      </trkpt>
      <trkpt lat="46.69896" lon="-1.94891">
        <ele>6</ele>
        <time>2018-03-10T13:04:05Z</time>
      </trkpt>
      <trkpt lat="46.69874" lon="-1.94856">
        <ele>6</ele>
        <time>2018-03-10T13:05:05Z</time>
      </trkpt>
      <trkpt lat="46.69867" lon="-1.94841">
        <ele>5</ele>
        <time>2018-03-10T13:06:05Z</time>
      </trkpt>
      <trkpt lat="46.6986" lon="-1.94828">
        <ele>5</ele>
        <time>2018-03-10T13:07:05Z</time>
      </trkpt>
      <trkpt lat="46.69848" lon="-1.94802">
        <ele>5</ele>
        <time>2018-03-10T13:08:05Z</time>
      </trkpt>
      <trkpt lat="46.69836" lon="-1.94769">
        <ele>5</ele>
        <time>2018-03-10T13:09:05Z</time>
      </trkpt>
      <trkpt lat="46.69828" lon="-1.94745">
        <ele>5</ele>
        <time>2018-03-10T13:10:05Z</time>
      </trkpt>
      <trkpt lat="46.69828" lon="-1.94745">
        <ele>5</ele>
        <time>2018-03-10T13:11:05Z</time>
      </trkpt>
      <trkpt lat="46.69826" lon="-1.94736">
        <ele>5</ele>
        <time>2018-03-10T13:12:05Z</time>
      </trkpt>
      <trkpt lat="46.69825" lon="-1.94732">
        <ele>5</ele>
        <time>2018-03-10T13:13:05Z</time>
      </trkpt>
      <trkpt lat="46.69819" lon="-1.94712">
        <ele>4</ele>
        <time>2018-03-10T13:14:05Z</time>
      </trkpt>
      <trkpt lat="46.69814" lon="-1.94695">
        <ele>4</ele>
        <time>2018-03-10T13:15:05Z</time>
      </trkpt>
      <trkpt lat="46.69809" lon="-1.94676">
        <ele>4</ele>
        <time>2018-03-10T13:16:05Z</time>
      </trkpt>
      <trkpt lat="46.69805" lon="-1.94657">
        <ele>4</ele>
        <time>2018-03-10T13:17:05Z</time>
      </trkpt>
      <trkpt lat="46.69799" lon="-1.94634">
        <ele>4</ele>
        <time>2018-03-10T13:18:05Z</time>
      </trkpt>
      <trkpt lat="46.6978" lon="-1.94548">
        <ele>3</ele>
        <time>2018-03-10T13:19:05Z</time>
      </trkpt>
      <trkpt lat="46.69765" lon="-1.94496">
        <ele>4</ele>
        <time>2018-03-10T13:20:05Z</time>
      </trkpt>
      <trkpt lat="46.69758" lon="-1.94477">
        <ele>4</ele>
        <time>2018-03-10T13:21:05Z</time>
      </trkpt>
      <trkpt lat="46.69753" lon="-1.94463">
        <ele>4</ele>
        <time>2018-03-10T13:22:05Z</time>
      </trkpt>
      <trkpt lat="46.69748" lon="-1.94448">
        <ele>2</ele>
        <time>2018-03-10T13:23:05Z</time>
      </trkpt>
      <trkpt lat="46.69745" lon="-1.9444">
        <ele>2</ele>
        <time>2018-03-10T13:24:05Z</time>
      </trkpt>
      <trkpt lat="46.69735" lon="-1.94411">
        <ele>3</ele>
        <time>2018-03-10T13:25:05Z</time>
      </trkpt>
      <trkpt lat="46.69732" lon="-1.944">
        <ele>4</ele>
        <time>2018-03-10T13:26:05Z</time>
      </trkpt>
      <trkpt lat="46.69727" lon="-1.94384">
        <ele>4</ele>
        <time>2018-03-10T13:27:05Z</time>
      </trkpt>
      <trkpt lat="46.69718" lon="-1.9436">
        <ele>4</ele>
        <time>2018-03-10T13:28:05Z</time>
      </trkpt>
      <trkpt lat="46.69709" lon="-1.94333">
        <ele>4</ele>
        <time>2018-03-10T13:29:05Z</time>
      </trkpt>
      <trkpt lat="46.69703" lon="-1.94314">
        <ele>4</ele>
        <time>2018-03-10T13:30:05Z</time>
      </trkpt>
      <trkpt lat="46.697" lon="-1.94303">
        <ele>4</ele>
        <time>2018-03-10T13:31:05Z</time>
      </trkpt>
      <trkpt lat="46.69696" lon="-1.94286">
        <ele>4</ele>
        <time>2018-03-10T13:32:05Z</time>
      </trkpt>
      <trkpt lat="46.69688" lon="-1.94251">
        <ele>4</ele>
        <time>2018-03-10T13:33:05Z</time>
      </trkpt>
      <trkpt lat="46.69675" lon="-1.94202">
        <ele>5</ele>
        <time>2018-03-10T13:34:05Z</time>
      </trkpt>
      <trkpt lat="46.6966" lon="-1.94143">
        <ele>4</ele>
        <time>2018-03-10T13:35:05Z</time>
      </trkpt>
      <trkpt lat="46.69658" lon="-1.94132">
        <ele>4</ele>
        <time>2018-03-10T13:36:05Z</time>
      </trkpt>
      <trkpt lat="46.69653" lon="-1.9411">
        <ele>3</ele>
        <time>2018-03-10T13:37:05Z</time>
      </trkpt>
      <trkpt lat="46.69653" lon="-1.9411">
        <ele>3</ele>
        <time>2018-03-10T13:38:05Z</time>
      </trkpt>
      <trkpt lat="46.69644" lon="-1.94108">
        <ele>3</ele>
        <time>2018-03-10T13:39:05Z</time>
      </trkpt>
      <trkpt lat="46.69639" lon="-1.94108">
        <ele>3</ele>
        <time>2018-03-10T13:40:05Z</time>
      </trkpt>
      <trkpt lat="46.69636" lon="-1.9411">
        <ele>3</ele>
        <time>2018-03-10T13:41:05Z</time>
      </trkpt>
      <trkpt lat="46.69633" lon="-1.94111">
        <ele>3</ele>
        <time>2018-03-10T13:42:05Z</time>
      </trkpt>
      <trkpt lat="46.69622" lon="-1.94114">
        <ele>3</ele>
        <time>2018-03-10T13:43:05Z</time>
      </trkpt>
      <trkpt lat="46.69618" lon="-1.94115">
        <ele>3</ele>
        <time>2018-03-10T13:44:05Z</time>
      </trkpt>
      <trkpt lat="46.69615" lon="-1.94114">
        <ele>3</ele>
        <time>2018-03-10T13:45:05Z</time>
      </trkpt>
      <trkpt lat="46.69612" lon="-1.94113">
        <ele>3</ele>
        <time>2018-03-10T13:46:05Z</time>
      </trkpt>
      <trkpt lat="46.6961" lon="-1.94112">
        <ele>3</ele>
        <time>2018-03-10T13:47:05Z</time>
      </trkpt>
      <trkpt lat="46.69608" lon="-1.9411">
        <ele>3</ele>
        <time>2018-03-10T13:48:05Z</time>
      </trkpt>
      <trkpt lat="46.69606" lon="-1.94105">
        <ele>3</ele>
        <time>2018-03-10T13:49:05Z</time>
      </trkpt>
      <trkpt lat="46.69593" lon="-1.94071">
        <ele>3</ele>
        <time>2018-03-10T13:50:05Z</time>
      </trkpt>
      <trkpt lat="46.69582" lon="-1.94047">
        <ele>3</ele>
        <time>2018-03-10T13:51:05Z</time>
      </trkpt>
      <trkpt lat="46.69582" lon="-1.94047">
        <ele>3</ele>
        <time>2018-03-10T13:52:05Z</time>
      </trkpt>
      <trkpt lat="46.69573" lon="-1.94025">
        <ele>4</ele>
        <time>2018-03-10T13:53:05Z</time>
      </trkpt>
      <trkpt lat="46.69548" lon="-1.93973">
        <ele>4</ele>
        <time>2018-03-10T13:54:05Z</time>
      </trkpt>
      <trkpt lat="46.69544" lon="-1.93963">
        <ele>4</ele>
        <time>2018-03-10T13:55:05Z</time>
      </trkpt>
      <trkpt lat="46.69543" lon="-1.9396">
        <ele>4</ele>
        <time>2018-03-10T13:56:05Z</time>
      </trkpt>
      <trkpt lat="46.69535" lon="-1.93937">
        <ele>4</ele>
        <time>2018-03-10T13:57:05Z</time>
      </trkpt>
      <trkpt lat="46.69532" lon="-1.93928">
        <ele>4</ele>
        <time>2018-03-10T13:58:05Z</time>
      </trkpt>
      <trkpt lat="46.69529" lon="-1.9392">
        <ele>4</ele>
        <time>2018-03-10T13:59:05Z</time>
      </trkpt>
      <trkpt lat="46.69526" lon="-1.93911">
        <ele>4</ele>
        <time>2018-03-10T14:00:05Z</time>
      </trkpt>
      <trkpt lat="46.69525" lon="-1.93905">
        <ele>4</ele>
        <time>2018-03-10T14:01:05Z</time>
      </trkpt>
      <trkpt lat="46.69522" lon="-1.93898">
        <ele>4</ele>
        <time>2018-03-10T14:02:05Z</time>
      </trkpt>
      <trkpt lat="46.69511" lon="-1.93878">
        <ele>4</ele>
        <time>2018-03-10T14:03:05Z</time>
      </trkpt>
      <trkpt lat="46.6951" lon="-1.93875">
        <ele>4</ele>
        <time>2018-03-10T14:04:05Z</time>
      </trkpt>
      <trkpt lat="46.69507" lon="-1.93869">
        <ele>4</ele>
        <time>2018-03-10T14:05:05Z</time>
      </trkpt>
      <trkpt lat="46.69505" lon="-1.93865">
        <ele>4</ele>
        <time>2018-03-10T14:06:05Z</time>
      </trkpt>
      <trkpt lat="46.69495" lon="-1.93843">
        <ele>3</ele>
        <time>2018-03-10T14:07:05Z</time>
      </trkpt>
      <trkpt lat="46.69492" lon="-1.93841">
        <ele>3</ele>
        <time>2018-03-10T14:08:05Z</time>
      </trkpt>
      <trkpt lat="46.69488" lon="-1.93834">
        <ele>3</ele>
        <time>2018-03-10T14:09:05Z</time>
      </trkpt>
      <trkpt lat="46.6947" lon="-1.93801">
        <ele>3</ele>
        <time>2018-03-10T14:10:05Z</time>
      </trkpt>
      <trkpt lat="46.69464" lon="-1.93789">
        <ele>3</ele>
        <time>2018-03-10T14:11:05Z</time>
      </trkpt>
      <trkpt lat="46.6946" lon="-1.93781">
        <ele>3</ele>
        <time>2018-03-10T14:12:05Z</time>
      </trkpt>
      <trkpt lat="46.69451" lon="-1.93756">
        <ele>3</ele>
        <time>2018-03-10T14:13:05Z</time>
      </trkpt>
      <trkpt lat="46.69449" lon="-1.93753">
        <ele>3</ele>
        <time>2018-03-10T14:14:05Z</time>
      </trkpt>
      <trkpt lat="46.69443" lon="-1.9374">
        <ele>3</ele>
        <time>2018-03-10T14:15:05Z</time>
      </trkpt>
      <trkpt lat="46.69441" lon="-1.93734">
        <ele>3</ele>
        <time>2018-03-10T14:16:05Z</time>
      </trkpt>
      <trkpt lat="46.69438" lon="-1.93724">
        <ele>3</ele>
        <time>2018-03-10T14:17:05Z</time>
      </trkpt>
      <trkpt lat="46.69433" lon="-1.93699">
        <ele>3</ele>
        <time>2018-03-10T14:18:05Z</time>
      </trkpt>
      <trkpt lat="46.69425" lon="-1.93665">
        <ele>3</ele>
        <time>2018-03-10T14:19:05Z</time>
      </trkpt>
      <trkpt lat="46.69423" lon="-1.93652">
        <ele>3</ele>
        <time>2018-03-10T14:20:05Z</time>
      </trkpt>
      <trkpt lat="46.69422" lon="-1.93638">
        <ele>2</ele>
        <time>2018-03-10T14:21:05Z</time>
      </trkpt>
      <trkpt lat="46.69422" lon="-1.93633">
        <ele>2</ele>
        <time>2018-03-10T14:22:05Z</time>
      </trkpt>
      <trkpt lat="46.69423" lon="-1.93624">
        <ele>2</ele>
        <time>2018-03-10T14:23:05Z</time>
      </trkpt>
      <trkpt lat="46.69425" lon="-1.93616">
        <ele>2</ele>
        <time>2018-03-10T14:24:05Z</time>
      </trkpt>
      <trkpt lat="46.69427" lon="-1.9361">
        <ele>2</ele>
        <time>2018-03-10T14:25:05Z</time>
      </trkpt>
      <trkpt lat="46.69428" lon="-1.93608">
        <ele>2</ele>
        <time>2018-03-10T14:26:05Z</time>
      </trkpt>
      <trkpt lat="46.69433" lon="-1.93601">
        <ele>2</ele>
        <time>2018-03-10T14:27:05Z</time>
      </trkpt>
      <trkpt lat="46.6944" lon="-1.93596">
        <ele>2</ele>
        <time>2018-03-10T14:28:05Z</time>
      </trkpt>
      <trkpt lat="46.69455" lon="-1.9359">
        <ele>2</ele>
        <time>2018-03-10T14:29:05Z</time>
      </trkpt>
      <trkpt lat="46.69478" lon="-1.93583">
        <ele>2</ele>
        <time>2018-03-10T14:30:05Z</time>
      </trkpt>
      <trkpt lat="46.69488" lon="-1.93581">
        <ele>3</ele>
        <time>2018-03-10T14:31:05Z</time>
      </trkpt>
      <trkpt lat="46.69498" lon="-1.93578">
        <ele>3</ele>
        <time>2018-03-10T14:32:05Z</time>
      </trkpt>
      <trkpt lat="46.69507" lon="-1.93574">
        <ele>3</ele>
        <time>2018-03-10T14:33:05Z</time>
      </trkpt>
      <trkpt lat="46.6951" lon="-1.93574">
        <ele>3</ele>
        <time>2018-03-10T14:34:05Z</time>
      </trkpt>
      <trkpt lat="46.69514" lon="-1.93574">
        <ele>3</ele>
        <time>2018-03-10T14:35:05Z</time>
      </trkpt>
      <trkpt lat="46.69519" lon="-1.93575">
        <ele>3</ele>
        <time>2018-03-10T14:36:05Z</time>
      </trkpt>
      <trkpt lat="46.6953" lon="-1.93579">
        <ele>3</ele>
        <time>2018-03-10T14:37:05Z</time>
      </trkpt>
      <trkpt lat="46.69542" lon="-1.93584">
        <ele>4</ele>
        <time>2018-03-10T14:38:05Z</time>
      </trkpt>
      <trkpt lat="46.69552" lon="-1.93588">
        <ele>4</ele>
        <time>2018-03-10T14:39:05Z</time>
      </trkpt>
      <trkpt lat="46.69561" lon="-1.93593">
        <ele>4</ele>
        <time>2018-03-10T14:40:05Z</time>
      </trkpt>
      <trkpt lat="46.69564" lon="-1.93594">
        <ele>4</ele>
        <time>2018-03-10T14:41:05Z</time>
      </trkpt>
      <trkpt lat="46.69585" lon="-1.93586">
        <ele>4</ele>
        <time>2018-03-10T14:42:05Z</time>
      </trkpt>
      <trkpt lat="46.69585" lon="-1.93586">
        <ele>4</ele>
        <time>2018-03-10T14:43:05Z</time>
      </trkpt>
      <trkpt lat="46.69585" lon="-1.93585">
        <ele>4</ele>
        <time>2018-03-10T14:44:05Z</time>
      </trkpt>
      <trkpt lat="46.69585" lon="-1.93584">
        <ele>4</ele>
        <time>2018-03-10T14:45:05Z</time>
      </trkpt>
      <trkpt lat="46.69585" lon="-1.93583">
        <ele>4</ele>
        <time>2018-03-10T14:46:05Z</time>
      </trkpt>
      <trkpt lat="46.69585" lon="-1.93582">
        <ele>4</ele>
        <time>2018-03-10T14:47:05Z</time>
      </trkpt>
      <trkpt lat="46.69586" lon="-1.93582">
        <ele>4</ele>
        <time>2018-03-10T14:48:05Z</time>
      </trkpt>
      <trkpt lat="46.69586" lon="-1.93581">
        <ele>4</ele>
        <time>2018-03-10T14:49:05Z</time>
      </trkpt>
      <trkpt lat="46.69586" lon="-1.9358">
        <ele>4</ele>
        <time>2018-03-10T14:50:05Z</time>
      </trkpt>
      <trkpt lat="46.69587" lon="-1.9358">
        <ele>4</ele>
        <time>2018-03-10T14:51:05Z</time>
      </trkpt>
      <trkpt lat="46.69587" lon="-1.93579">
        <ele>4</ele>
        <time>2018-03-10T14:52:05Z</time>
      </trkpt>
      <trkpt lat="46.69587" lon="-1.93578">
        <ele>4</ele>
        <time>2018-03-10T14:53:05Z</time>
      </trkpt>
      <trkpt lat="46.69588" lon="-1.93578">
        <ele>4</ele>
        <time>2018-03-10T14:54:05Z</time>
      </trkpt>
      <trkpt lat="46.69588" lon="-1.93577">
        <ele>4</ele>
        <time>2018-03-10T14:55:05Z</time>
      </trkpt>
      <trkpt lat="46.69589" lon="-1.93577">
        <ele>4</ele>
        <time>2018-03-10T14:56:05Z</time>
      </trkpt>
      <trkpt lat="46.69589" lon="-1.93576">
        <ele>4</ele>
        <time>2018-03-10T14:57:05Z</time>
      </trkpt>
      <trkpt lat="46.6959" lon="-1.93576">
        <ele>4</ele>
        <time>2018-03-10T14:58:05Z</time>
      </trkpt>
      <trkpt lat="46.6959" lon="-1.93575">
        <ele>4</ele>
        <time>2018-03-10T14:59:05Z</time>
      </trkpt>
      <trkpt lat="46.69591" lon="-1.93575">
        <ele>4</ele>
        <time>2018-03-10T15:00:05Z</time>
      </trkpt>
      <trkpt lat="46.69592" lon="-1.93574">
        <ele>4</ele>
        <time>2018-03-10T15:01:05Z</time>
      </trkpt>
      <trkpt lat="46.69593" lon="-1.93574">
        <ele>4</ele>
        <time>2018-03-10T15:02:05Z</time>
      </trkpt>
      <trkpt lat="46.69594" lon="-1.93574">
        <ele>4</ele>
        <time>2018-03-10T15:03:05Z</time>
      </trkpt>
      <trkpt lat="46.69602" lon="-1.9355">
        <ele>4</ele>
        <time>2018-03-10T15:04:05Z</time>
      </trkpt>
      <trkpt lat="46.69606" lon="-1.93531">
        <ele>4</ele>
        <time>2018-03-10T15:05:05Z</time>
      </trkpt>
      <trkpt lat="46.69613" lon="-1.93483">
        <ele>4</ele>
        <time>2018-03-10T15:06:05Z</time>
      </trkpt>
      <trkpt lat="46.69619" lon="-1.93445">
        <ele>4</ele>
        <time>2018-03-10T15:07:05Z</time>
      </trkpt>
      <trkpt lat="46.69622" lon="-1.93436">
        <ele>4</ele>
        <time>2018-03-10T15:08:05Z</time>
      </trkpt>
      <trkpt lat="46.69622" lon="-1.93436">
        <ele>4</ele>
        <time>2018-03-10T15:09:05Z</time>
      </trkpt>
      <trkpt lat="46.69621" lon="-1.93436">
        <ele>4</ele>
        <time>2018-03-10T15:10:05Z</time>
      </trkpt>
      <trkpt lat="46.6962" lon="-1.93435">
        <ele>4</ele>
        <time>2018-03-10T15:11:05Z</time>
      </trkpt>
      <trkpt lat="46.69619" lon="-1.93434">
        <ele>4</ele>
        <time>2018-03-10T15:12:05Z</time>
      </trkpt>
      <trkpt lat="46.69619" lon="-1.93433">
        <ele>4</ele>
        <time>2018-03-10T15:13:05Z</time>
      </trkpt>
      <trkpt lat="46.69618" lon="-1.93433">
        <ele>4</ele>
        <time>2018-03-10T15:14:05Z</time>
      </trkpt>
      <trkpt lat="46.69618" lon="-1.93432">
        <ele>4</ele>
        <time>2018-03-10T15:15:05Z</time>
      </trkpt>
      <trkpt lat="46.69618" lon="-1.93431">
        <ele>4</ele>
        <time>2018-03-10T15:16:05Z</time>
      </trkpt>
      <trkpt lat="46.69617" lon="-1.93431">
        <ele>4</ele>
        <time>2018-03-10T15:17:05Z</time>
      </trkpt>
      <trkpt lat="46.69617" lon="-1.9343">
        <ele>4</ele>
        <time>2018-03-10T15:18:05Z</time>
      </trkpt>
      <trkpt lat="46.69617" lon="-1.93429">
        <ele>4</ele>
        <time>2018-03-10T15:19:05Z</time>
      </trkpt>
      <trkpt lat="46.69617" lon="-1.93428">
        <ele>4</ele>
        <time>2018-03-10T15:20:05Z</time>
      </trkpt>
      <trkpt lat="46.69616" lon="-1.93428">
        <ele>4</ele>
        <time>2018-03-10T15:21:05Z</time>
      </trkpt>
      <trkpt lat="46.69616" lon="-1.93427">
        <ele>4</ele>
        <time>2018-03-10T15:22:05Z</time>
      </trkpt>
      <trkpt lat="46.69616" lon="-1.93426">
        <ele>4</ele>
        <time>2018-03-10T15:23:05Z</time>
      </trkpt>
      <trkpt lat="46.69616" lon="-1.93425">
        <ele>4</ele>
        <time>2018-03-10T15:24:05Z</time>
      </trkpt>
      <trkpt lat="46.69616" lon="-1.93424">
        <ele>4</ele>
        <time>2018-03-10T15:25:05Z</time>
      </trkpt>
      <trkpt lat="46.69616" lon="-1.93423">
        <ele>4</ele>
        <time>2018-03-10T15:26:05Z</time>
      </trkpt>
      <trkpt lat="46.69616" lon="-1.93422">
        <ele>4</ele>
        <time>2018-03-10T15:27:05Z</time>
      </trkpt>
      <trkpt lat="46.69616" lon="-1.93421">
        <ele>4</ele>
        <time>2018-03-10T15:28:05Z</time>
      </trkpt>
      <trkpt lat="46.69617" lon="-1.93421">
        <ele>4</ele>
        <time>2018-03-10T15:29:05Z</time>
      </trkpt>
      <trkpt lat="46.69617" lon="-1.9342">
        <ele>4</ele>
        <time>2018-03-10T15:30:05Z</time>
      </trkpt>
      <trkpt lat="46.69617" lon="-1.93419">
        <ele>4</ele>
        <time>2018-03-10T15:31:05Z</time>
      </trkpt>
      <trkpt lat="46.69617" lon="-1.93418">
        <ele>4</ele>
        <time>2018-03-10T15:32:05Z</time>
      </trkpt>
      <trkpt lat="46.69618" lon="-1.93418">
        <ele>4</ele>
        <time>2018-03-10T15:33:05Z</time>
      </trkpt>
      <trkpt lat="46.69618" lon="-1.93417">
        <ele>4</ele>
        <time>2018-03-10T15:34:05Z</time>
      </trkpt>
      <trkpt lat="46.69618" lon="-1.93416">
        <ele>4</ele>
        <time>2018-03-10T15:35:05Z</time>
      </trkpt>
      <trkpt lat="46.69619" lon="-1.93416">
        <ele>4</ele>
        <time>2018-03-10T15:36:05Z</time>
      </trkpt>
      <trkpt lat="46.69619" lon="-1.93415">
        <ele>4</ele>
        <time>2018-03-10T15:37:05Z</time>
      </trkpt>
      <trkpt lat="46.6962" lon="-1.93415">
        <ele>4</ele>
        <time>2018-03-10T15:38:05Z</time>
      </trkpt>
      <trkpt lat="46.6962" lon="-1.93414">
        <ele>5</ele>
        <time>2018-03-10T15:39:05Z</time>
      </trkpt>
      <trkpt lat="46.69621" lon="-1.93414">
        <ele>5</ele>
        <time>2018-03-10T15:40:05Z</time>
      </trkpt>
      <trkpt lat="46.69621" lon="-1.93413">
        <ele>5</ele>
        <time>2018-03-10T15:41:05Z</time>
      </trkpt>
      <trkpt lat="46.69622" lon="-1.93413">
        <ele>5</ele>
        <time>2018-03-10T15:42:05Z</time>
      </trkpt>
      <trkpt lat="46.69623" lon="-1.93412">
        <ele>5</ele>
        <time>2018-03-10T15:43:05Z</time>
      </trkpt>
      <trkpt lat="46.69624" lon="-1.93412">
        <ele>5</ele>
        <time>2018-03-10T15:44:05Z</time>
      </trkpt>
      <trkpt lat="46.69625" lon="-1.93412">
        <ele>5</ele>
        <time>2018-03-10T15:45:05Z</time>
      </trkpt>
      <trkpt lat="46.69626" lon="-1.93412">
        <ele>5</ele>
        <time>2018-03-10T15:46:05Z</time>
      </trkpt>
      <trkpt lat="46.69627" lon="-1.93412">
        <ele>5</ele>
        <time>2018-03-10T15:47:05Z</time>
      </trkpt>
      <trkpt lat="46.69627" lon="-1.93413">
        <ele>5</ele>
        <time>2018-03-10T15:48:05Z</time>
      </trkpt>
      <trkpt lat="46.69628" lon="-1.93413">
        <ele>5</ele>
        <time>2018-03-10T15:49:05Z</time>
      </trkpt>
      <trkpt lat="46.69629" lon="-1.93413">
        <ele>5</ele>
        <time>2018-03-10T15:50:05Z</time>
      </trkpt>
      <trkpt lat="46.69629" lon="-1.93414">
        <ele>5</ele>
        <time>2018-03-10T15:51:05Z</time>
      </trkpt>
      <trkpt lat="46.6963" lon="-1.93414">
        <ele>5</ele>
        <time>2018-03-10T15:52:05Z</time>
      </trkpt>
      <trkpt lat="46.6963" lon="-1.93415">
        <ele>5</ele>
        <time>2018-03-10T15:53:05Z</time>
      </trkpt>
      <trkpt lat="46.69631" lon="-1.93416">
        <ele>5</ele>
        <time>2018-03-10T15:54:05Z</time>
      </trkpt>
      <trkpt lat="46.69631" lon="-1.93417">
        <ele>5</ele>
        <time>2018-03-10T15:55:05Z</time>
      </trkpt>
      <trkpt lat="46.69632" lon="-1.93417">
        <ele>5</ele>
        <time>2018-03-10T15:56:05Z</time>
      </trkpt>
      <trkpt lat="46.69632" lon="-1.93418">
        <ele>5</ele>
        <time>2018-03-10T15:57:05Z</time>
      </trkpt>
      <trkpt lat="46.69632" lon="-1.93419">
        <ele>5</ele>
        <time>2018-03-10T15:58:05Z</time>
      </trkpt>
      <trkpt lat="46.69633" lon="-1.93419">
        <ele>5</ele>
        <time>2018-03-10T15:59:05Z</time>
      </trkpt>
      <trkpt lat="46.69633" lon="-1.9342">
        <ele>5</ele>
        <time>2018-03-10T16:00:05Z</time>
      </trkpt>
      <trkpt lat="46.69633" lon="-1.93421">
        <ele>5</ele>
        <time>2018-03-10T16:01:05Z</time>
      </trkpt>
      <trkpt lat="46.69633" lon="-1.93422">
        <ele>5</ele>
        <time>2018-03-10T16:02:05Z</time>
      </trkpt>
      <trkpt lat="46.69633" lon="-1.93423">
        <ele>5</ele>
        <time>2018-03-10T16:03:05Z</time>
      </trkpt>
      <trkpt lat="46.69685" lon="-1.93435">
        <ele>5</ele>
        <time>2018-03-10T16:04:05Z</time>
      </trkpt>
      <trkpt lat="46.69697" lon="-1.93436">
        <ele>5</ele>
        <time>2018-03-10T16:05:05Z</time>
      </trkpt>
      <trkpt lat="46.69714" lon="-1.93435">
        <ele>5</ele>
        <time>2018-03-10T16:06:05Z</time>
      </trkpt>
      <trkpt lat="46.69721" lon="-1.93434">
        <ele>5</ele>
        <time>2018-03-10T16:07:05Z</time>
      </trkpt>
      <trkpt lat="46.69759" lon="-1.93424">
        <ele>5</ele>
        <time>2018-03-10T16:08:05Z</time>
      </trkpt>
      <trkpt lat="46.69762" lon="-1.93423">
        <ele>5</ele>
        <time>2018-03-10T16:09:05Z</time>
      </trkpt>
    </trkseg>
  </trk>
</gpx>